<?xml version="1.0" encoding="UTF-8" standalone="no" ?>
<gpx xmlns="http://www.topografix.com/GPX/1/1" xmlns:xsi="http://www.w3.org/2001/XMLSchema-instance" xsi:schemaLocation="http://www.topografix.com/GPX/1/1 http://www.topografix.com/GPX/1/1/gpx.xsd" version="1.1" creator="VisuGPX - https://www.visugpx.com">
  <metadata>
    <name>sortie bonsecours</name>
    <desc><![CDATA[pour le Telethon 2012]]></desc>
  </metadata>
  <trk>
    <name><![CDATA[2012-12-08-01]]></name>
    <trkseg>
      <trkpt lat="49.42213" lon="1.12628">
        <ele>163.3</ele>
        <time>2012-12-08T08:09:58Z</time>
      </trkpt>
      <trkpt lat="49.42213" lon="1.12628">
        <ele>163.1</ele>
        <time>2012-12-08T08:09:59Z</time>
      </trkpt>
      <trkpt lat="49.42226" lon="1.12615">
        <ele>160.3</ele>
        <time>2012-12-08T08:10:13Z</time>
      </trkpt>
      <trkpt lat="49.42232" lon="1.12608">
        <ele>159.6</ele>
        <time>2012-12-08T08:10:16Z</time>
      </trkpt>
      <trkpt lat="49.42239" lon="1.12603">
        <ele>157.3</ele>
        <time>2012-12-08T08:10:19Z</time>
      </trkpt>
      <trkpt lat="49.42246" lon="1.12609">
        <ele>155.1</ele>
        <time>2012-12-08T08:10:22Z</time>
      </trkpt>
      <trkpt lat="49.4225" lon="1.12622">
        <ele>156.1</ele>
        <time>2012-12-08T08:10:25Z</time>
      </trkpt>
      <trkpt lat="49.42254" lon="1.12629">
        <ele>158.3</ele>
        <time>2012-12-08T08:10:27Z</time>
      </trkpt>
      <trkpt lat="49.42258" lon="1.12636">
        <ele>158.5</ele>
        <time>2012-12-08T08:10:29Z</time>
      </trkpt>
      <trkpt lat="49.42265" lon="1.12645">
        <ele>162.6</ele>
        <time>2012-12-08T08:10:31Z</time>
      </trkpt>
      <trkpt lat="49.42269" lon="1.12656">
        <ele>163.6</ele>
        <time>2012-12-08T08:10:34Z</time>
      </trkpt>
      <trkpt lat="49.42268" lon="1.12666">
        <ele>162.3</ele>
        <time>2012-12-08T08:10:36Z</time>
      </trkpt>
      <trkpt lat="49.42262" lon="1.12672">
        <ele>162</ele>
        <time>2012-12-08T08:10:38Z</time>
      </trkpt>
      <trkpt lat="49.42255" lon="1.12676">
        <ele>161.1</ele>
        <time>2012-12-08T08:10:40Z</time>
      </trkpt>
      <trkpt lat="49.42247" lon="1.12678">
        <ele>161.6</ele>
        <time>2012-12-08T08:10:42Z</time>
      </trkpt>
      <trkpt lat="49.42241" lon="1.12681">
        <ele>161.3</ele>
        <time>2012-12-08T08:10:44Z</time>
      </trkpt>
      <trkpt lat="49.42235" lon="1.12685">
        <ele>161.3</ele>
        <time>2012-12-08T08:10:46Z</time>
      </trkpt>
      <trkpt lat="49.42229" lon="1.12688">
        <ele>161.1</ele>
        <time>2012-12-08T08:10:48Z</time>
      </trkpt>
      <trkpt lat="49.42223" lon="1.12692">
        <ele>161.1</ele>
        <time>2012-12-08T08:10:50Z</time>
      </trkpt>
      <trkpt lat="49.42216" lon="1.12695">
        <ele>160.6</ele>
        <time>2012-12-08T08:10:52Z</time>
      </trkpt>
      <trkpt lat="49.42208" lon="1.12699">
        <ele>159.8</ele>
        <time>2012-12-08T08:10:54Z</time>
      </trkpt>
      <trkpt lat="49.42202" lon="1.12702">
        <ele>159.8</ele>
        <time>2012-12-08T08:10:56Z</time>
      </trkpt>
      <trkpt lat="49.42194" lon="1.12706">
        <ele>160.8</ele>
        <time>2012-12-08T08:10:58Z</time>
      </trkpt>
      <trkpt lat="49.42187" lon="1.12711">
        <ele>162.6</ele>
        <time>2012-12-08T08:11:00Z</time>
      </trkpt>
      <trkpt lat="49.42183" lon="1.12712">
        <ele>163.1</ele>
        <time>2012-12-08T08:11:01Z</time>
      </trkpt>
      <trkpt lat="49.42173" lon="1.12717">
        <ele>163.3</ele>
        <time>2012-12-08T08:11:04Z</time>
      </trkpt>
      <trkpt lat="49.42166" lon="1.12724">
        <ele>162.1</ele>
        <time>2012-12-08T08:11:06Z</time>
      </trkpt>
      <trkpt lat="49.42164" lon="1.12735">
        <ele>161.6</ele>
        <time>2012-12-08T08:11:08Z</time>
      </trkpt>
      <trkpt lat="49.42166" lon="1.12746">
        <ele>160.6</ele>
        <time>2012-12-08T08:11:10Z</time>
      </trkpt>
      <trkpt lat="49.42168" lon="1.12758">
        <ele>160.8</ele>
        <time>2012-12-08T08:11:12Z</time>
      </trkpt>
      <trkpt lat="49.42171" lon="1.12771">
        <ele>160.6</ele>
        <time>2012-12-08T08:11:14Z</time>
      </trkpt>
      <trkpt lat="49.42175" lon="1.12782">
        <ele>160.3</ele>
        <time>2012-12-08T08:11:16Z</time>
      </trkpt>
      <trkpt lat="49.42177" lon="1.12794">
        <ele>160.1</ele>
        <time>2012-12-08T08:11:18Z</time>
      </trkpt>
      <trkpt lat="49.42179" lon="1.12808">
        <ele>160.8</ele>
        <time>2012-12-08T08:11:20Z</time>
      </trkpt>
      <trkpt lat="49.42182" lon="1.1282">
        <ele>161.6</ele>
        <time>2012-12-08T08:11:22Z</time>
      </trkpt>
      <trkpt lat="49.42184" lon="1.12832">
        <ele>161.8</ele>
        <time>2012-12-08T08:11:24Z</time>
      </trkpt>
      <trkpt lat="49.42186" lon="1.12844">
        <ele>162.3</ele>
        <time>2012-12-08T08:11:26Z</time>
      </trkpt>
      <trkpt lat="49.42188" lon="1.12854">
        <ele>161.8</ele>
        <time>2012-12-08T08:11:28Z</time>
      </trkpt>
      <trkpt lat="49.4219" lon="1.12863">
        <ele>161.3</ele>
        <time>2012-12-08T08:11:30Z</time>
      </trkpt>
      <trkpt lat="49.42192" lon="1.12872">
        <ele>160.3</ele>
        <time>2012-12-08T08:11:32Z</time>
      </trkpt>
      <trkpt lat="49.42194" lon="1.12883">
        <ele>159.8</ele>
        <time>2012-12-08T08:11:34Z</time>
      </trkpt>
      <trkpt lat="49.42196" lon="1.12893">
        <ele>159.6</ele>
        <time>2012-12-08T08:11:36Z</time>
      </trkpt>
      <trkpt lat="49.42199" lon="1.12903">
        <ele>160.1</ele>
        <time>2012-12-08T08:11:38Z</time>
      </trkpt>
      <trkpt lat="49.42201" lon="1.12912">
        <ele>160.5</ele>
        <time>2012-12-08T08:11:40Z</time>
      </trkpt>
      <trkpt lat="49.42205" lon="1.12922">
        <ele>160.8</ele>
        <time>2012-12-08T08:11:42Z</time>
      </trkpt>
      <trkpt lat="49.42207" lon="1.12932">
        <ele>160.8</ele>
        <time>2012-12-08T08:11:44Z</time>
      </trkpt>
      <trkpt lat="49.42209" lon="1.12943">
        <ele>161.1</ele>
        <time>2012-12-08T08:11:46Z</time>
      </trkpt>
      <trkpt lat="49.42211" lon="1.12953">
        <ele>160.1</ele>
        <time>2012-12-08T08:11:48Z</time>
      </trkpt>
      <trkpt lat="49.42214" lon="1.12963">
        <ele>158.8</ele>
        <time>2012-12-08T08:11:50Z</time>
      </trkpt>
      <trkpt lat="49.42218" lon="1.12975">
        <ele>157.5</ele>
        <time>2012-12-08T08:11:53Z</time>
      </trkpt>
      <trkpt lat="49.4222" lon="1.12988">
        <ele>156.6</ele>
        <time>2012-12-08T08:11:56Z</time>
      </trkpt>
      <trkpt lat="49.42223" lon="1.13">
        <ele>156.3</ele>
        <time>2012-12-08T08:11:59Z</time>
      </trkpt>
      <trkpt lat="49.42228" lon="1.1301">
        <ele>156.8</ele>
        <time>2012-12-08T08:12:02Z</time>
      </trkpt>
      <trkpt lat="49.42231" lon="1.13014">
        <ele>157.6</ele>
        <time>2012-12-08T08:12:03Z</time>
      </trkpt>
      <trkpt lat="49.42239" lon="1.13028">
        <ele>159.1</ele>
        <time>2012-12-08T08:12:07Z</time>
      </trkpt>
      <trkpt lat="49.42244" lon="1.13037">
        <ele>159.1</ele>
        <time>2012-12-08T08:12:10Z</time>
      </trkpt>
      <trkpt lat="49.4225" lon="1.13045">
        <ele>159.6</ele>
        <time>2012-12-08T08:12:13Z</time>
      </trkpt>
      <trkpt lat="49.42256" lon="1.13055">
        <ele>159.8</ele>
        <time>2012-12-08T08:12:17Z</time>
      </trkpt>
      <trkpt lat="49.42262" lon="1.13064">
        <ele>162.1</ele>
        <time>2012-12-08T08:12:31Z</time>
      </trkpt>
      <trkpt lat="49.42268" lon="1.13071">
        <ele>162.8</ele>
        <time>2012-12-08T08:12:35Z</time>
      </trkpt>
      <trkpt lat="49.42275" lon="1.13074">
        <ele>162.1</ele>
        <time>2012-12-08T08:12:38Z</time>
      </trkpt>
      <trkpt lat="49.42281" lon="1.13069">
        <ele>161.6</ele>
        <time>2012-12-08T08:12:41Z</time>
      </trkpt>
      <trkpt lat="49.42286" lon="1.13064">
        <ele>160.8</ele>
        <time>2012-12-08T08:12:43Z</time>
      </trkpt>
      <trkpt lat="49.42291" lon="1.13057">
        <ele>160.8</ele>
        <time>2012-12-08T08:12:45Z</time>
      </trkpt>
      <trkpt lat="49.42297" lon="1.13049">
        <ele>158.8</ele>
        <time>2012-12-08T08:12:47Z</time>
      </trkpt>
      <trkpt lat="49.42303" lon="1.1304">
        <ele>157.5</ele>
        <time>2012-12-08T08:12:49Z</time>
      </trkpt>
      <trkpt lat="49.42306" lon="1.13035">
        <ele>156.8</ele>
        <time>2012-12-08T08:12:50Z</time>
      </trkpt>
      <trkpt lat="49.42309" lon="1.13029">
        <ele>156.6</ele>
        <time>2012-12-08T08:12:51Z</time>
      </trkpt>
      <trkpt lat="49.42313" lon="1.13024">
        <ele>156.3</ele>
        <time>2012-12-08T08:12:52Z</time>
      </trkpt>
      <trkpt lat="49.42315" lon="1.13018">
        <ele>156</ele>
        <time>2012-12-08T08:12:53Z</time>
      </trkpt>
      <trkpt lat="49.42318" lon="1.13013">
        <ele>155.6</ele>
        <time>2012-12-08T08:12:54Z</time>
      </trkpt>
      <trkpt lat="49.42322" lon="1.13008">
        <ele>155.5</ele>
        <time>2012-12-08T08:12:55Z</time>
      </trkpt>
      <trkpt lat="49.42325" lon="1.13003">
        <ele>154.6</ele>
        <time>2012-12-08T08:12:56Z</time>
      </trkpt>
      <trkpt lat="49.42328" lon="1.12998">
        <ele>154.3</ele>
        <time>2012-12-08T08:12:57Z</time>
      </trkpt>
      <trkpt lat="49.42332" lon="1.12993">
        <ele>154.3</ele>
        <time>2012-12-08T08:12:58Z</time>
      </trkpt>
      <trkpt lat="49.42336" lon="1.12988">
        <ele>154.1</ele>
        <time>2012-12-08T08:12:59Z</time>
      </trkpt>
      <trkpt lat="49.4234" lon="1.12983">
        <ele>153.8</ele>
        <time>2012-12-08T08:13:00Z</time>
      </trkpt>
      <trkpt lat="49.42344" lon="1.12978">
        <ele>153.6</ele>
        <time>2012-12-08T08:13:01Z</time>
      </trkpt>
      <trkpt lat="49.42348" lon="1.12974">
        <ele>153.1</ele>
        <time>2012-12-08T08:13:02Z</time>
      </trkpt>
      <trkpt lat="49.42353" lon="1.12971">
        <ele>153.3</ele>
        <time>2012-12-08T08:13:03Z</time>
      </trkpt>
      <trkpt lat="49.42357" lon="1.12967">
        <ele>153.1</ele>
        <time>2012-12-08T08:13:04Z</time>
      </trkpt>
      <trkpt lat="49.42364" lon="1.12961">
        <ele>152.8</ele>
        <time>2012-12-08T08:13:06Z</time>
      </trkpt>
      <trkpt lat="49.42371" lon="1.12956">
        <ele>152.3</ele>
        <time>2012-12-08T08:13:08Z</time>
      </trkpt>
      <trkpt lat="49.42376" lon="1.12953">
        <ele>151.6</ele>
        <time>2012-12-08T08:13:10Z</time>
      </trkpt>
      <trkpt lat="49.42382" lon="1.12949">
        <ele>151</ele>
        <time>2012-12-08T08:13:12Z</time>
      </trkpt>
      <trkpt lat="49.42388" lon="1.12944">
        <ele>151.3</ele>
        <time>2012-12-08T08:13:14Z</time>
      </trkpt>
      <trkpt lat="49.42394" lon="1.12938">
        <ele>151.5</ele>
        <time>2012-12-08T08:13:16Z</time>
      </trkpt>
      <trkpt lat="49.42401" lon="1.12933">
        <ele>151.6</ele>
        <time>2012-12-08T08:13:18Z</time>
      </trkpt>
      <trkpt lat="49.42408" lon="1.12927">
        <ele>152</ele>
        <time>2012-12-08T08:13:20Z</time>
      </trkpt>
      <trkpt lat="49.42416" lon="1.12921">
        <ele>152.1</ele>
        <time>2012-12-08T08:13:22Z</time>
      </trkpt>
      <trkpt lat="49.42423" lon="1.12915">
        <ele>152.5</ele>
        <time>2012-12-08T08:13:24Z</time>
      </trkpt>
      <trkpt lat="49.42429" lon="1.12909">
        <ele>152.5</ele>
        <time>2012-12-08T08:13:26Z</time>
      </trkpt>
      <trkpt lat="49.42436" lon="1.12903">
        <ele>153.1</ele>
        <time>2012-12-08T08:13:28Z</time>
      </trkpt>
      <trkpt lat="49.42442" lon="1.12896">
        <ele>153.1</ele>
        <time>2012-12-08T08:13:30Z</time>
      </trkpt>
      <trkpt lat="49.42449" lon="1.1289">
        <ele>153.6</ele>
        <time>2012-12-08T08:13:32Z</time>
      </trkpt>
      <trkpt lat="49.42455" lon="1.12884">
        <ele>153.6</ele>
        <time>2012-12-08T08:13:34Z</time>
      </trkpt>
      <trkpt lat="49.42462" lon="1.12877">
        <ele>153.3</ele>
        <time>2012-12-08T08:13:36Z</time>
      </trkpt>
      <trkpt lat="49.42467" lon="1.12871">
        <ele>153</ele>
        <time>2012-12-08T08:13:38Z</time>
      </trkpt>
      <trkpt lat="49.42473" lon="1.12864">
        <ele>153</ele>
        <time>2012-12-08T08:13:40Z</time>
      </trkpt>
      <trkpt lat="49.42479" lon="1.1286">
        <ele>153.1</ele>
        <time>2012-12-08T08:13:42Z</time>
      </trkpt>
      <trkpt lat="49.42485" lon="1.12855">
        <ele>152.8</ele>
        <time>2012-12-08T08:13:44Z</time>
      </trkpt>
      <trkpt lat="49.42492" lon="1.12851">
        <ele>152.3</ele>
        <time>2012-12-08T08:13:46Z</time>
      </trkpt>
      <trkpt lat="49.42499" lon="1.1285">
        <ele>152.3</ele>
        <time>2012-12-08T08:13:48Z</time>
      </trkpt>
      <trkpt lat="49.42506" lon="1.12851">
        <ele>152</ele>
        <time>2012-12-08T08:13:50Z</time>
      </trkpt>
      <trkpt lat="49.42513" lon="1.12854">
        <ele>152.5</ele>
        <time>2012-12-08T08:13:52Z</time>
      </trkpt>
      <trkpt lat="49.4252" lon="1.12858">
        <ele>153.3</ele>
        <time>2012-12-08T08:13:54Z</time>
      </trkpt>
      <trkpt lat="49.42526" lon="1.12861">
        <ele>154.3</ele>
        <time>2012-12-08T08:13:56Z</time>
      </trkpt>
      <trkpt lat="49.42534" lon="1.12864">
        <ele>154.1</ele>
        <time>2012-12-08T08:13:58Z</time>
      </trkpt>
      <trkpt lat="49.42542" lon="1.1287">
        <ele>153.3</ele>
        <time>2012-12-08T08:14:00Z</time>
      </trkpt>
      <trkpt lat="49.42546" lon="1.12873">
        <ele>153</ele>
        <time>2012-12-08T08:14:01Z</time>
      </trkpt>
      <trkpt lat="49.42551" lon="1.12876">
        <ele>152.6</ele>
        <time>2012-12-08T08:14:02Z</time>
      </trkpt>
      <trkpt lat="49.42555" lon="1.1288">
        <ele>152.6</ele>
        <time>2012-12-08T08:14:03Z</time>
      </trkpt>
      <trkpt lat="49.4256" lon="1.12883">
        <ele>152.3</ele>
        <time>2012-12-08T08:14:04Z</time>
      </trkpt>
      <trkpt lat="49.42565" lon="1.12887">
        <ele>152</ele>
        <time>2012-12-08T08:14:05Z</time>
      </trkpt>
      <trkpt lat="49.42569" lon="1.1289">
        <ele>152</ele>
        <time>2012-12-08T08:14:06Z</time>
      </trkpt>
      <trkpt lat="49.42575" lon="1.12893">
        <ele>151.8</ele>
        <time>2012-12-08T08:14:07Z</time>
      </trkpt>
      <trkpt lat="49.4258" lon="1.12896">
        <ele>151.6</ele>
        <time>2012-12-08T08:14:08Z</time>
      </trkpt>
      <trkpt lat="49.42585" lon="1.12899">
        <ele>151.5</ele>
        <time>2012-12-08T08:14:09Z</time>
      </trkpt>
      <trkpt lat="49.4259" lon="1.12903">
        <ele>151.5</ele>
        <time>2012-12-08T08:14:10Z</time>
      </trkpt>
      <trkpt lat="49.42595" lon="1.12906">
        <ele>151.5</ele>
        <time>2012-12-08T08:14:11Z</time>
      </trkpt>
      <trkpt lat="49.426" lon="1.1291">
        <ele>151.1</ele>
        <time>2012-12-08T08:14:12Z</time>
      </trkpt>
      <trkpt lat="49.42605" lon="1.12914">
        <ele>150.8</ele>
        <time>2012-12-08T08:14:13Z</time>
      </trkpt>
      <trkpt lat="49.4261" lon="1.12917">
        <ele>150.3</ele>
        <time>2012-12-08T08:14:14Z</time>
      </trkpt>
      <trkpt lat="49.42615" lon="1.12921">
        <ele>150</ele>
        <time>2012-12-08T08:14:15Z</time>
      </trkpt>
      <trkpt lat="49.42619" lon="1.12925">
        <ele>150.1</ele>
        <time>2012-12-08T08:14:16Z</time>
      </trkpt>
      <trkpt lat="49.42624" lon="1.12928">
        <ele>149.8</ele>
        <time>2012-12-08T08:14:17Z</time>
      </trkpt>
      <trkpt lat="49.42628" lon="1.12932">
        <ele>149</ele>
        <time>2012-12-08T08:14:18Z</time>
      </trkpt>
      <trkpt lat="49.42633" lon="1.12935">
        <ele>148.6</ele>
        <time>2012-12-08T08:14:19Z</time>
      </trkpt>
      <trkpt lat="49.42637" lon="1.12939">
        <ele>148.6</ele>
        <time>2012-12-08T08:14:20Z</time>
      </trkpt>
      <trkpt lat="49.42641" lon="1.12942">
        <ele>148.6</ele>
        <time>2012-12-08T08:14:21Z</time>
      </trkpt>
      <trkpt lat="49.42646" lon="1.12946">
        <ele>146.1</ele>
        <time>2012-12-08T08:14:22Z</time>
      </trkpt>
      <trkpt lat="49.42651" lon="1.12949">
        <ele>145.8</ele>
        <time>2012-12-08T08:14:23Z</time>
      </trkpt>
      <trkpt lat="49.42656" lon="1.12953">
        <ele>144.8</ele>
        <time>2012-12-08T08:14:24Z</time>
      </trkpt>
      <trkpt lat="49.4266" lon="1.12956">
        <ele>144.6</ele>
        <time>2012-12-08T08:14:25Z</time>
      </trkpt>
      <trkpt lat="49.42664" lon="1.1296">
        <ele>144.6</ele>
        <time>2012-12-08T08:14:26Z</time>
      </trkpt>
      <trkpt lat="49.42672" lon="1.12965">
        <ele>144.3</ele>
        <time>2012-12-08T08:14:28Z</time>
      </trkpt>
      <trkpt lat="49.42676" lon="1.12968">
        <ele>144.1</ele>
        <time>2012-12-08T08:14:29Z</time>
      </trkpt>
      <trkpt lat="49.42681" lon="1.12971">
        <ele>143.8</ele>
        <time>2012-12-08T08:14:30Z</time>
      </trkpt>
      <trkpt lat="49.42685" lon="1.12975">
        <ele>143.6</ele>
        <time>2012-12-08T08:14:31Z</time>
      </trkpt>
      <trkpt lat="49.42689" lon="1.12978">
        <ele>143.3</ele>
        <time>2012-12-08T08:14:32Z</time>
      </trkpt>
      <trkpt lat="49.42694" lon="1.12982">
        <ele>143.1</ele>
        <time>2012-12-08T08:14:33Z</time>
      </trkpt>
      <trkpt lat="49.42698" lon="1.12985">
        <ele>143.1</ele>
        <time>2012-12-08T08:14:34Z</time>
      </trkpt>
      <trkpt lat="49.42703" lon="1.12988">
        <ele>142.8</ele>
        <time>2012-12-08T08:14:35Z</time>
      </trkpt>
      <trkpt lat="49.42707" lon="1.12991">
        <ele>142.8</ele>
        <time>2012-12-08T08:14:36Z</time>
      </trkpt>
      <trkpt lat="49.42711" lon="1.12994">
        <ele>142.8</ele>
        <time>2012-12-08T08:14:37Z</time>
      </trkpt>
      <trkpt lat="49.42716" lon="1.12998">
        <ele>143.1</ele>
        <time>2012-12-08T08:14:38Z</time>
      </trkpt>
      <trkpt lat="49.4272" lon="1.13001">
        <ele>143.1</ele>
        <time>2012-12-08T08:14:39Z</time>
      </trkpt>
      <trkpt lat="49.42724" lon="1.13005">
        <ele>143.1</ele>
        <time>2012-12-08T08:14:40Z</time>
      </trkpt>
      <trkpt lat="49.42729" lon="1.13008">
        <ele>143.3</ele>
        <time>2012-12-08T08:14:41Z</time>
      </trkpt>
      <trkpt lat="49.42733" lon="1.13011">
        <ele>143.3</ele>
        <time>2012-12-08T08:14:42Z</time>
      </trkpt>
      <trkpt lat="49.42738" lon="1.13015">
        <ele>143.3</ele>
        <time>2012-12-08T08:14:43Z</time>
      </trkpt>
      <trkpt lat="49.42742" lon="1.13018">
        <ele>142.8</ele>
        <time>2012-12-08T08:14:44Z</time>
      </trkpt>
      <trkpt lat="49.42746" lon="1.13022">
        <ele>143.1</ele>
        <time>2012-12-08T08:14:45Z</time>
      </trkpt>
      <trkpt lat="49.42751" lon="1.13025">
        <ele>143.1</ele>
        <time>2012-12-08T08:14:46Z</time>
      </trkpt>
      <trkpt lat="49.42755" lon="1.13029">
        <ele>142.8</ele>
        <time>2012-12-08T08:14:47Z</time>
      </trkpt>
      <trkpt lat="49.42759" lon="1.13032">
        <ele>142.6</ele>
        <time>2012-12-08T08:14:48Z</time>
      </trkpt>
      <trkpt lat="49.42764" lon="1.13035">
        <ele>142.5</ele>
        <time>2012-12-08T08:14:49Z</time>
      </trkpt>
      <trkpt lat="49.42768" lon="1.13038">
        <ele>142.3</ele>
        <time>2012-12-08T08:14:50Z</time>
      </trkpt>
      <trkpt lat="49.42772" lon="1.13042">
        <ele>142.5</ele>
        <time>2012-12-08T08:14:51Z</time>
      </trkpt>
      <trkpt lat="49.42777" lon="1.13045">
        <ele>142.6</ele>
        <time>2012-12-08T08:14:52Z</time>
      </trkpt>
      <trkpt lat="49.42781" lon="1.13049">
        <ele>142.6</ele>
        <time>2012-12-08T08:14:53Z</time>
      </trkpt>
      <trkpt lat="49.42786" lon="1.13052">
        <ele>142.6</ele>
        <time>2012-12-08T08:14:54Z</time>
      </trkpt>
      <trkpt lat="49.4279" lon="1.13056">
        <ele>142.6</ele>
        <time>2012-12-08T08:14:55Z</time>
      </trkpt>
      <trkpt lat="49.42795" lon="1.13059">
        <ele>142.6</ele>
        <time>2012-12-08T08:14:56Z</time>
      </trkpt>
      <trkpt lat="49.42799" lon="1.13063">
        <ele>142.8</ele>
        <time>2012-12-08T08:14:57Z</time>
      </trkpt>
      <trkpt lat="49.42804" lon="1.13066">
        <ele>142.8</ele>
        <time>2012-12-08T08:14:58Z</time>
      </trkpt>
      <trkpt lat="49.42808" lon="1.13069">
        <ele>142.8</ele>
        <time>2012-12-08T08:14:59Z</time>
      </trkpt>
      <trkpt lat="49.42815" lon="1.13077">
        <ele>143.8</ele>
        <time>2012-12-08T08:15:01Z</time>
      </trkpt>
      <trkpt lat="49.42821" lon="1.13087">
        <ele>143.8</ele>
        <time>2012-12-08T08:15:03Z</time>
      </trkpt>
      <trkpt lat="49.42826" lon="1.13097">
        <ele>144.1</ele>
        <time>2012-12-08T08:15:05Z</time>
      </trkpt>
      <trkpt lat="49.4283" lon="1.131">
        <ele>144</ele>
        <time>2012-12-08T08:15:06Z</time>
      </trkpt>
      <trkpt lat="49.42841" lon="1.13092">
        <ele>143.6</ele>
        <time>2012-12-08T08:15:09Z</time>
      </trkpt>
      <trkpt lat="49.42846" lon="1.13083">
        <ele>142.8</ele>
        <time>2012-12-08T08:15:11Z</time>
      </trkpt>
      <trkpt lat="49.42852" lon="1.13073">
        <ele>142.5</ele>
        <time>2012-12-08T08:15:13Z</time>
      </trkpt>
      <trkpt lat="49.42856" lon="1.13069">
        <ele>141.6</ele>
        <time>2012-12-08T08:15:14Z</time>
      </trkpt>
      <trkpt lat="49.4286" lon="1.13067">
        <ele>141.6</ele>
        <time>2012-12-08T08:15:15Z</time>
      </trkpt>
      <trkpt lat="49.42865" lon="1.13063">
        <ele>141.3</ele>
        <time>2012-12-08T08:15:16Z</time>
      </trkpt>
      <trkpt lat="49.42869" lon="1.1306">
        <ele>141.1</ele>
        <time>2012-12-08T08:15:17Z</time>
      </trkpt>
      <trkpt lat="49.42877" lon="1.13055">
        <ele>140.8</ele>
        <time>2012-12-08T08:15:19Z</time>
      </trkpt>
      <trkpt lat="49.42885" lon="1.13052">
        <ele>141.1</ele>
        <time>2012-12-08T08:15:21Z</time>
      </trkpt>
      <trkpt lat="49.42893" lon="1.1305">
        <ele>141.1</ele>
        <time>2012-12-08T08:15:26Z</time>
      </trkpt>
      <trkpt lat="49.42901" lon="1.13042">
        <ele>145.1</ele>
        <time>2012-12-08T08:15:43Z</time>
      </trkpt>
      <trkpt lat="49.4291" lon="1.13041">
        <ele>144.1</ele>
        <time>2012-12-08T08:15:49Z</time>
      </trkpt>
      <trkpt lat="49.42915" lon="1.13039">
        <ele>143.8</ele>
        <time>2012-12-08T08:15:51Z</time>
      </trkpt>
      <trkpt lat="49.42923" lon="1.13035">
        <ele>142.8</ele>
        <time>2012-12-08T08:15:54Z</time>
      </trkpt>
      <trkpt lat="49.42931" lon="1.13039">
        <ele>141.8</ele>
        <time>2012-12-08T08:15:58Z</time>
      </trkpt>
      <trkpt lat="49.42934" lon="1.1305">
        <ele>142.1</ele>
        <time>2012-12-08T08:16:01Z</time>
      </trkpt>
      <trkpt lat="49.42936" lon="1.13063">
        <ele>141.5</ele>
        <time>2012-12-08T08:16:04Z</time>
      </trkpt>
      <trkpt lat="49.42938" lon="1.13073">
        <ele>140.8</ele>
        <time>2012-12-08T08:16:06Z</time>
      </trkpt>
      <trkpt lat="49.42938" lon="1.13077">
        <ele>140.6</ele>
        <time>2012-12-08T08:16:07Z</time>
      </trkpt>
      <trkpt lat="49.42941" lon="1.13099">
        <ele>139.6</ele>
        <time>2012-12-08T08:16:12Z</time>
      </trkpt>
      <trkpt lat="49.42941" lon="1.13109">
        <ele>139.6</ele>
        <time>2012-12-08T08:16:14Z</time>
      </trkpt>
      <trkpt lat="49.42943" lon="1.13122">
        <ele>137.8</ele>
        <time>2012-12-08T08:16:17Z</time>
      </trkpt>
      <trkpt lat="49.42945" lon="1.13133">
        <ele>134.8</ele>
        <time>2012-12-08T08:16:20Z</time>
      </trkpt>
      <trkpt lat="49.42946" lon="1.13143">
        <ele>132.8</ele>
        <time>2012-12-08T08:16:22Z</time>
      </trkpt>
      <trkpt lat="49.42948" lon="1.13154">
        <ele>131.8</ele>
        <time>2012-12-08T08:16:24Z</time>
      </trkpt>
      <trkpt lat="49.42951" lon="1.13164">
        <ele>128.6</ele>
        <time>2012-12-08T08:16:26Z</time>
      </trkpt>
      <trkpt lat="49.42953" lon="1.13174">
        <ele>127.5</ele>
        <time>2012-12-08T08:16:28Z</time>
      </trkpt>
      <trkpt lat="49.42954" lon="1.13188">
        <ele>126.9</ele>
        <time>2012-12-08T08:16:31Z</time>
      </trkpt>
      <trkpt lat="49.42956" lon="1.13197">
        <ele>125.5</ele>
        <time>2012-12-08T08:16:33Z</time>
      </trkpt>
      <trkpt lat="49.42958" lon="1.13208">
        <ele>126</ele>
        <time>2012-12-08T08:16:35Z</time>
      </trkpt>
      <trkpt lat="49.42959" lon="1.13217">
        <ele>126</ele>
        <time>2012-12-08T08:16:37Z</time>
      </trkpt>
      <trkpt lat="49.42962" lon="1.13226">
        <ele>124.5</ele>
        <time>2012-12-08T08:16:39Z</time>
      </trkpt>
      <trkpt lat="49.42964" lon="1.13237">
        <ele>124.8</ele>
        <time>2012-12-08T08:16:41Z</time>
      </trkpt>
      <trkpt lat="49.42967" lon="1.13248">
        <ele>125.5</ele>
        <time>2012-12-08T08:16:43Z</time>
      </trkpt>
      <trkpt lat="49.42969" lon="1.1326">
        <ele>127</ele>
        <time>2012-12-08T08:16:45Z</time>
      </trkpt>
      <trkpt lat="49.42971" lon="1.13272">
        <ele>127.8</ele>
        <time>2012-12-08T08:16:47Z</time>
      </trkpt>
      <trkpt lat="49.42972" lon="1.13281">
        <ele>129.3</ele>
        <time>2012-12-08T08:16:49Z</time>
      </trkpt>
      <trkpt lat="49.42974" lon="1.13291">
        <ele>131.5</ele>
        <time>2012-12-08T08:16:51Z</time>
      </trkpt>
      <trkpt lat="49.42976" lon="1.13304">
        <ele>134.6</ele>
        <time>2012-12-08T08:16:56Z</time>
      </trkpt>
      <trkpt lat="49.42984" lon="1.13308">
        <ele>138.1</ele>
        <time>2012-12-08T08:17:02Z</time>
      </trkpt>
      <trkpt lat="49.4299" lon="1.13311">
        <ele>138</ele>
        <time>2012-12-08T08:17:04Z</time>
      </trkpt>
      <trkpt lat="49.42996" lon="1.13318">
        <ele>138.1</ele>
        <time>2012-12-08T08:17:06Z</time>
      </trkpt>
      <trkpt lat="49.43" lon="1.13325">
        <ele>138</ele>
        <time>2012-12-08T08:17:08Z</time>
      </trkpt>
      <trkpt lat="49.43002" lon="1.13329">
        <ele>137.6</ele>
        <time>2012-12-08T08:17:09Z</time>
      </trkpt>
      <trkpt lat="49.43008" lon="1.13339">
        <ele>137.3</ele>
        <time>2012-12-08T08:17:11Z</time>
      </trkpt>
      <trkpt lat="49.43011" lon="1.13344">
        <ele>137.3</ele>
        <time>2012-12-08T08:17:12Z</time>
      </trkpt>
      <trkpt lat="49.43014" lon="1.13349">
        <ele>137.3</ele>
        <time>2012-12-08T08:17:13Z</time>
      </trkpt>
      <trkpt lat="49.43017" lon="1.13355">
        <ele>137</ele>
        <time>2012-12-08T08:17:14Z</time>
      </trkpt>
      <trkpt lat="49.43021" lon="1.13361">
        <ele>137.3</ele>
        <time>2012-12-08T08:17:15Z</time>
      </trkpt>
      <trkpt lat="49.43028" lon="1.13369">
        <ele>137.3</ele>
        <time>2012-12-08T08:17:17Z</time>
      </trkpt>
      <trkpt lat="49.43032" lon="1.13376">
        <ele>137.1</ele>
        <time>2012-12-08T08:17:19Z</time>
      </trkpt>
      <trkpt lat="49.43037" lon="1.13388">
        <ele>135.8</ele>
        <time>2012-12-08T08:17:22Z</time>
      </trkpt>
      <trkpt lat="49.43041" lon="1.13397">
        <ele>134.1</ele>
        <time>2012-12-08T08:17:24Z</time>
      </trkpt>
      <trkpt lat="49.43045" lon="1.13408">
        <ele>134.3</ele>
        <time>2012-12-08T08:17:28Z</time>
      </trkpt>
      <trkpt lat="49.43049" lon="1.13419">
        <ele>134.5</ele>
        <time>2012-12-08T08:17:39Z</time>
      </trkpt>
      <trkpt lat="49.43054" lon="1.13426">
        <ele>135.8</ele>
        <time>2012-12-08T08:17:42Z</time>
      </trkpt>
      <trkpt lat="49.43062" lon="1.13432">
        <ele>135.5</ele>
        <time>2012-12-08T08:17:45Z</time>
      </trkpt>
      <trkpt lat="49.43069" lon="1.13439">
        <ele>133.5</ele>
        <time>2012-12-08T08:17:48Z</time>
      </trkpt>
      <trkpt lat="49.43074" lon="1.13448">
        <ele>132.6</ele>
        <time>2012-12-08T08:17:50Z</time>
      </trkpt>
      <trkpt lat="49.43079" lon="1.13458">
        <ele>130.6</ele>
        <time>2012-12-08T08:17:52Z</time>
      </trkpt>
      <trkpt lat="49.43083" lon="1.13465">
        <ele>129.6</ele>
        <time>2012-12-08T08:17:54Z</time>
      </trkpt>
      <trkpt lat="49.43086" lon="1.13475">
        <ele>128.3</ele>
        <time>2012-12-08T08:17:56Z</time>
      </trkpt>
      <trkpt lat="49.43091" lon="1.13486">
        <ele>129.6</ele>
        <time>2012-12-08T08:17:58Z</time>
      </trkpt>
      <trkpt lat="49.43093" lon="1.13495">
        <ele>128.3</ele>
        <time>2012-12-08T08:18:00Z</time>
      </trkpt>
      <trkpt lat="49.43094" lon="1.13506">
        <ele>128.6</ele>
        <time>2012-12-08T08:18:02Z</time>
      </trkpt>
      <trkpt lat="49.43096" lon="1.13518">
        <ele>126.5</ele>
        <time>2012-12-08T08:18:05Z</time>
      </trkpt>
      <trkpt lat="49.431" lon="1.13528">
        <ele>125.9</ele>
        <time>2012-12-08T08:18:07Z</time>
      </trkpt>
      <trkpt lat="49.43104" lon="1.13538">
        <ele>126.9</ele>
        <time>2012-12-08T08:18:09Z</time>
      </trkpt>
      <trkpt lat="49.43106" lon="1.13542">
        <ele>127.4</ele>
        <time>2012-12-08T08:18:10Z</time>
      </trkpt>
      <trkpt lat="49.43112" lon="1.13555">
        <ele>127.8</ele>
        <time>2012-12-08T08:18:13Z</time>
      </trkpt>
      <trkpt lat="49.43116" lon="1.13564">
        <ele>127.5</ele>
        <time>2012-12-08T08:18:15Z</time>
      </trkpt>
      <trkpt lat="49.43116" lon="1.13578">
        <ele>127.8</ele>
        <time>2012-12-08T08:18:18Z</time>
      </trkpt>
      <trkpt lat="49.43117" lon="1.13591">
        <ele>132.5</ele>
        <time>2012-12-08T08:18:22Z</time>
      </trkpt>
      <trkpt lat="49.43115" lon="1.13603">
        <ele>136.1</ele>
        <time>2012-12-08T08:18:27Z</time>
      </trkpt>
      <trkpt lat="49.43113" lon="1.13615">
        <ele>136.6</ele>
        <time>2012-12-08T08:18:31Z</time>
      </trkpt>
      <trkpt lat="49.43109" lon="1.13626">
        <ele>137.3</ele>
        <time>2012-12-08T08:18:35Z</time>
      </trkpt>
      <trkpt lat="49.43106" lon="1.13637">
        <ele>137.8</ele>
        <time>2012-12-08T08:18:38Z</time>
      </trkpt>
      <trkpt lat="49.43104" lon="1.13648">
        <ele>139.1</ele>
        <time>2012-12-08T08:18:42Z</time>
      </trkpt>
      <trkpt lat="49.43101" lon="1.13661">
        <ele>145</ele>
        <time>2012-12-08T08:18:47Z</time>
      </trkpt>
      <trkpt lat="49.43097" lon="1.13672">
        <ele>149</ele>
        <time>2012-12-08T08:18:51Z</time>
      </trkpt>
      <trkpt lat="49.43093" lon="1.13682">
        <ele>150.6</ele>
        <time>2012-12-08T08:18:55Z</time>
      </trkpt>
      <trkpt lat="49.43094" lon="1.13695">
        <ele>151.8</ele>
        <time>2012-12-08T08:19:40Z</time>
      </trkpt>
      <trkpt lat="49.43095" lon="1.13696">
        <ele>152.3</ele>
        <time>2012-12-08T08:19:41Z</time>
      </trkpt>
      <trkpt lat="49.43085" lon="1.13696">
        <ele>141.6</ele>
        <time>2012-12-08T08:23:30Z</time>
      </trkpt>
      <trkpt lat="49.43089" lon="1.1371">
        <ele>145.1</ele>
        <time>2012-12-08T08:34:48Z</time>
      </trkpt>
      <trkpt lat="49.43089" lon="1.13732">
        <ele>144.1</ele>
        <time>2012-12-08T08:34:54Z</time>
      </trkpt>
      <trkpt lat="49.43087" lon="1.13743">
        <ele>143.8</ele>
        <time>2012-12-08T08:34:57Z</time>
      </trkpt>
      <trkpt lat="49.43087" lon="1.13755">
        <ele>143</ele>
        <time>2012-12-08T08:35:00Z</time>
      </trkpt>
      <trkpt lat="49.43087" lon="1.13765">
        <ele>142.6</ele>
        <time>2012-12-08T08:35:02Z</time>
      </trkpt>
      <trkpt lat="49.43087" lon="1.13777">
        <ele>142.5</ele>
        <time>2012-12-08T08:35:05Z</time>
      </trkpt>
      <trkpt lat="49.4309" lon="1.13787">
        <ele>141.8</ele>
        <time>2012-12-08T08:35:07Z</time>
      </trkpt>
      <trkpt lat="49.43093" lon="1.13797">
        <ele>141.1</ele>
        <time>2012-12-08T08:35:09Z</time>
      </trkpt>
      <trkpt lat="49.43093" lon="1.13807">
        <ele>140</ele>
        <time>2012-12-08T08:35:11Z</time>
      </trkpt>
      <trkpt lat="49.43092" lon="1.13817">
        <ele>138.6</ele>
        <time>2012-12-08T08:35:13Z</time>
      </trkpt>
      <trkpt lat="49.43089" lon="1.13826">
        <ele>136.5</ele>
        <time>2012-12-08T08:35:15Z</time>
      </trkpt>
      <trkpt lat="49.43088" lon="1.13839">
        <ele>134.6</ele>
        <time>2012-12-08T08:35:18Z</time>
      </trkpt>
      <trkpt lat="49.43086" lon="1.13852">
        <ele>133.1</ele>
        <time>2012-12-08T08:35:21Z</time>
      </trkpt>
      <trkpt lat="49.43083" lon="1.13864">
        <ele>136.8</ele>
        <time>2012-12-08T08:35:24Z</time>
      </trkpt>
      <trkpt lat="49.43077" lon="1.13869">
        <ele>141.3</ele>
        <time>2012-12-08T08:35:27Z</time>
      </trkpt>
      <trkpt lat="49.43072" lon="1.1388">
        <ele>141.8</ele>
        <time>2012-12-08T08:35:30Z</time>
      </trkpt>
      <trkpt lat="49.43071" lon="1.1389">
        <ele>140.3</ele>
        <time>2012-12-08T08:35:32Z</time>
      </trkpt>
      <trkpt lat="49.43073" lon="1.13899">
        <ele>139.5</ele>
        <time>2012-12-08T08:35:34Z</time>
      </trkpt>
      <trkpt lat="49.43074" lon="1.13912">
        <ele>135.1</ele>
        <time>2012-12-08T08:35:37Z</time>
      </trkpt>
      <trkpt lat="49.43073" lon="1.13922">
        <ele>135.6</ele>
        <time>2012-12-08T08:35:39Z</time>
      </trkpt>
      <trkpt lat="49.43074" lon="1.13934">
        <ele>135.3</ele>
        <time>2012-12-08T08:35:41Z</time>
      </trkpt>
      <trkpt lat="49.43072" lon="1.13947">
        <ele>134</ele>
        <time>2012-12-08T08:35:44Z</time>
      </trkpt>
      <trkpt lat="49.43068" lon="1.13957">
        <ele>133.6</ele>
        <time>2012-12-08T08:35:46Z</time>
      </trkpt>
      <trkpt lat="49.43067" lon="1.13969">
        <ele>133.3</ele>
        <time>2012-12-08T08:35:48Z</time>
      </trkpt>
      <trkpt lat="49.43066" lon="1.13975">
        <ele>133.3</ele>
        <time>2012-12-08T08:35:49Z</time>
      </trkpt>
      <trkpt lat="49.43061" lon="1.13989">
        <ele>139.3</ele>
        <time>2012-12-08T08:35:52Z</time>
      </trkpt>
      <trkpt lat="49.43057" lon="1.14">
        <ele>138.6</ele>
        <time>2012-12-08T08:35:55Z</time>
      </trkpt>
      <trkpt lat="49.43053" lon="1.14012">
        <ele>135.8</ele>
        <time>2012-12-08T08:35:58Z</time>
      </trkpt>
      <trkpt lat="49.43048" lon="1.14023">
        <ele>138.6</ele>
        <time>2012-12-08T08:36:01Z</time>
      </trkpt>
      <trkpt lat="49.43042" lon="1.1403">
        <ele>141</ele>
        <time>2012-12-08T08:36:04Z</time>
      </trkpt>
      <trkpt lat="49.43036" lon="1.1404">
        <ele>140.3</ele>
        <time>2012-12-08T08:36:07Z</time>
      </trkpt>
      <trkpt lat="49.43032" lon="1.14051">
        <ele>142</ele>
        <time>2012-12-08T08:36:10Z</time>
      </trkpt>
      <trkpt lat="49.43024" lon="1.14056">
        <ele>144.6</ele>
        <time>2012-12-08T08:36:14Z</time>
      </trkpt>
      <trkpt lat="49.43018" lon="1.14061">
        <ele>144.6</ele>
        <time>2012-12-08T08:36:16Z</time>
      </trkpt>
      <trkpt lat="49.43013" lon="1.14071">
        <ele>143</ele>
        <time>2012-12-08T08:36:18Z</time>
      </trkpt>
      <trkpt lat="49.43008" lon="1.14078">
        <ele>142.6</ele>
        <time>2012-12-08T08:36:20Z</time>
      </trkpt>
      <trkpt lat="49.43002" lon="1.14083">
        <ele>143</ele>
        <time>2012-12-08T08:36:22Z</time>
      </trkpt>
      <trkpt lat="49.42994" lon="1.14086">
        <ele>143.6</ele>
        <time>2012-12-08T08:36:25Z</time>
      </trkpt>
      <trkpt lat="49.42987" lon="1.1409">
        <ele>144.1</ele>
        <time>2012-12-08T08:36:27Z</time>
      </trkpt>
      <trkpt lat="49.42982" lon="1.14094">
        <ele>143.6</ele>
        <time>2012-12-08T08:36:29Z</time>
      </trkpt>
      <trkpt lat="49.42976" lon="1.14098">
        <ele>144.3</ele>
        <time>2012-12-08T08:36:31Z</time>
      </trkpt>
      <trkpt lat="49.42968" lon="1.14104">
        <ele>141.5</ele>
        <time>2012-12-08T08:36:34Z</time>
      </trkpt>
      <trkpt lat="49.42961" lon="1.14108">
        <ele>143.5</ele>
        <time>2012-12-08T08:36:37Z</time>
      </trkpt>
      <trkpt lat="49.42954" lon="1.14111">
        <ele>143.8</ele>
        <time>2012-12-08T08:36:39Z</time>
      </trkpt>
      <trkpt lat="49.42948" lon="1.14112">
        <ele>143</ele>
        <time>2012-12-08T08:36:41Z</time>
      </trkpt>
      <trkpt lat="49.42941" lon="1.14109">
        <ele>143.3</ele>
        <time>2012-12-08T08:36:43Z</time>
      </trkpt>
      <trkpt lat="49.42934" lon="1.14102">
        <ele>145.3</ele>
        <time>2012-12-08T08:36:46Z</time>
      </trkpt>
      <trkpt lat="49.42928" lon="1.14094">
        <ele>144.6</ele>
        <time>2012-12-08T08:36:49Z</time>
      </trkpt>
      <trkpt lat="49.42924" lon="1.14091">
        <ele>144.3</ele>
        <time>2012-12-08T08:36:50Z</time>
      </trkpt>
      <trkpt lat="49.42917" lon="1.1408">
        <ele>145.3</ele>
        <time>2012-12-08T08:36:53Z</time>
      </trkpt>
      <trkpt lat="49.42914" lon="1.14071">
        <ele>144.8</ele>
        <time>2012-12-08T08:36:55Z</time>
      </trkpt>
      <trkpt lat="49.42909" lon="1.14062">
        <ele>144.8</ele>
        <time>2012-12-08T08:36:57Z</time>
      </trkpt>
      <trkpt lat="49.42903" lon="1.14052">
        <ele>144.3</ele>
        <time>2012-12-08T08:36:59Z</time>
      </trkpt>
      <trkpt lat="49.42898" lon="1.14045">
        <ele>144</ele>
        <time>2012-12-08T08:37:01Z</time>
      </trkpt>
      <trkpt lat="49.42892" lon="1.14037">
        <ele>144.6</ele>
        <time>2012-12-08T08:37:03Z</time>
      </trkpt>
      <trkpt lat="49.42887" lon="1.14029">
        <ele>145</ele>
        <time>2012-12-08T08:37:05Z</time>
      </trkpt>
      <trkpt lat="49.4288" lon="1.14019">
        <ele>145.6</ele>
        <time>2012-12-08T08:37:07Z</time>
      </trkpt>
      <trkpt lat="49.42876" lon="1.14011">
        <ele>146.5</ele>
        <time>2012-12-08T08:37:09Z</time>
      </trkpt>
      <trkpt lat="49.4287" lon="1.14004">
        <ele>146.1</ele>
        <time>2012-12-08T08:37:11Z</time>
      </trkpt>
      <trkpt lat="49.42863" lon="1.13997">
        <ele>144.3</ele>
        <time>2012-12-08T08:37:14Z</time>
      </trkpt>
      <trkpt lat="49.4286" lon="1.13989">
        <ele>144.1</ele>
        <time>2012-12-08T08:37:16Z</time>
      </trkpt>
      <trkpt lat="49.42855" lon="1.13979">
        <ele>144.3</ele>
        <time>2012-12-08T08:37:18Z</time>
      </trkpt>
      <trkpt lat="49.42849" lon="1.13968">
        <ele>144</ele>
        <time>2012-12-08T08:37:20Z</time>
      </trkpt>
      <trkpt lat="49.42844" lon="1.13958">
        <ele>143.8</ele>
        <time>2012-12-08T08:37:22Z</time>
      </trkpt>
      <trkpt lat="49.42838" lon="1.13947">
        <ele>143.8</ele>
        <time>2012-12-08T08:37:24Z</time>
      </trkpt>
      <trkpt lat="49.42833" lon="1.13936">
        <ele>143.6</ele>
        <time>2012-12-08T08:37:26Z</time>
      </trkpt>
      <trkpt lat="49.42827" lon="1.13927">
        <ele>143.6</ele>
        <time>2012-12-08T08:37:28Z</time>
      </trkpt>
      <trkpt lat="49.42821" lon="1.13919">
        <ele>143.8</ele>
        <time>2012-12-08T08:37:30Z</time>
      </trkpt>
      <trkpt lat="49.42815" lon="1.1391">
        <ele>143.6</ele>
        <time>2012-12-08T08:37:32Z</time>
      </trkpt>
      <trkpt lat="49.42809" lon="1.13901">
        <ele>143.3</ele>
        <time>2012-12-08T08:37:34Z</time>
      </trkpt>
      <trkpt lat="49.42804" lon="1.13893">
        <ele>142.6</ele>
        <time>2012-12-08T08:37:36Z</time>
      </trkpt>
      <trkpt lat="49.42799" lon="1.13887">
        <ele>142.1</ele>
        <time>2012-12-08T08:37:38Z</time>
      </trkpt>
      <trkpt lat="49.42792" lon="1.13881">
        <ele>143.1</ele>
        <time>2012-12-08T08:37:40Z</time>
      </trkpt>
      <trkpt lat="49.42785" lon="1.13876">
        <ele>143.5</ele>
        <time>2012-12-08T08:37:42Z</time>
      </trkpt>
      <trkpt lat="49.4278" lon="1.13872">
        <ele>143.6</ele>
        <time>2012-12-08T08:37:44Z</time>
      </trkpt>
      <trkpt lat="49.42776" lon="1.13869">
        <ele>143.6</ele>
        <time>2012-12-08T08:37:45Z</time>
      </trkpt>
      <trkpt lat="49.42772" lon="1.13864">
        <ele>143.5</ele>
        <time>2012-12-08T08:37:46Z</time>
      </trkpt>
      <trkpt lat="49.42764" lon="1.13858">
        <ele>144</ele>
        <time>2012-12-08T08:37:48Z</time>
      </trkpt>
      <trkpt lat="49.42758" lon="1.13852">
        <ele>144.6</ele>
        <time>2012-12-08T08:37:50Z</time>
      </trkpt>
      <trkpt lat="49.42754" lon="1.13849">
        <ele>144.5</ele>
        <time>2012-12-08T08:37:51Z</time>
      </trkpt>
      <trkpt lat="49.42746" lon="1.13842">
        <ele>145.3</ele>
        <time>2012-12-08T08:37:54Z</time>
      </trkpt>
      <trkpt lat="49.4274" lon="1.13838">
        <ele>145.3</ele>
        <time>2012-12-08T08:37:56Z</time>
      </trkpt>
      <trkpt lat="49.42732" lon="1.13833">
        <ele>144.6</ele>
        <time>2012-12-08T08:37:58Z</time>
      </trkpt>
      <trkpt lat="49.42725" lon="1.13827">
        <ele>144.6</ele>
        <time>2012-12-08T08:38:00Z</time>
      </trkpt>
      <trkpt lat="49.42717" lon="1.13821">
        <ele>145.1</ele>
        <time>2012-12-08T08:38:02Z</time>
      </trkpt>
      <trkpt lat="49.42709" lon="1.13815">
        <ele>145.3</ele>
        <time>2012-12-08T08:38:04Z</time>
      </trkpt>
      <trkpt lat="49.42702" lon="1.13809">
        <ele>146</ele>
        <time>2012-12-08T08:38:06Z</time>
      </trkpt>
      <trkpt lat="49.42695" lon="1.13804">
        <ele>146.6</ele>
        <time>2012-12-08T08:38:08Z</time>
      </trkpt>
      <trkpt lat="49.42688" lon="1.138">
        <ele>146.8</ele>
        <time>2012-12-08T08:38:10Z</time>
      </trkpt>
      <trkpt lat="49.42682" lon="1.13795">
        <ele>147.3</ele>
        <time>2012-12-08T08:38:12Z</time>
      </trkpt>
      <trkpt lat="49.42676" lon="1.1379">
        <ele>147.8</ele>
        <time>2012-12-08T08:38:14Z</time>
      </trkpt>
      <trkpt lat="49.4267" lon="1.13785">
        <ele>147.6</ele>
        <time>2012-12-08T08:38:16Z</time>
      </trkpt>
      <trkpt lat="49.42663" lon="1.13779">
        <ele>147.8</ele>
        <time>2012-12-08T08:38:19Z</time>
      </trkpt>
      <trkpt lat="49.42656" lon="1.13779">
        <ele>148.8</ele>
        <time>2012-12-08T08:38:22Z</time>
      </trkpt>
      <trkpt lat="49.4265" lon="1.13784">
        <ele>148.3</ele>
        <time>2012-12-08T08:38:24Z</time>
      </trkpt>
      <trkpt lat="49.42642" lon="1.13789">
        <ele>148.1</ele>
        <time>2012-12-08T08:38:26Z</time>
      </trkpt>
      <trkpt lat="49.42635" lon="1.13795">
        <ele>148.1</ele>
        <time>2012-12-08T08:38:28Z</time>
      </trkpt>
      <trkpt lat="49.42627" lon="1.13799">
        <ele>148</ele>
        <time>2012-12-08T08:38:30Z</time>
      </trkpt>
      <trkpt lat="49.4262" lon="1.13804">
        <ele>148.1</ele>
        <time>2012-12-08T08:38:32Z</time>
      </trkpt>
      <trkpt lat="49.42612" lon="1.13807">
        <ele>148.3</ele>
        <time>2012-12-08T08:38:34Z</time>
      </trkpt>
      <trkpt lat="49.42605" lon="1.13811">
        <ele>148.5</ele>
        <time>2012-12-08T08:38:36Z</time>
      </trkpt>
      <trkpt lat="49.42598" lon="1.13815">
        <ele>148.6</ele>
        <time>2012-12-08T08:38:38Z</time>
      </trkpt>
      <trkpt lat="49.42592" lon="1.13819">
        <ele>148.8</ele>
        <time>2012-12-08T08:38:40Z</time>
      </trkpt>
      <trkpt lat="49.42585" lon="1.13825">
        <ele>148.8</ele>
        <time>2012-12-08T08:38:42Z</time>
      </trkpt>
      <trkpt lat="49.42577" lon="1.13831">
        <ele>148.6</ele>
        <time>2012-12-08T08:38:44Z</time>
      </trkpt>
      <trkpt lat="49.42573" lon="1.13834">
        <ele>148.6</ele>
        <time>2012-12-08T08:38:45Z</time>
      </trkpt>
      <trkpt lat="49.42566" lon="1.1384">
        <ele>148.5</ele>
        <time>2012-12-08T08:38:47Z</time>
      </trkpt>
      <trkpt lat="49.42562" lon="1.1385">
        <ele>148.3</ele>
        <time>2012-12-08T08:38:50Z</time>
      </trkpt>
      <trkpt lat="49.42565" lon="1.13859">
        <ele>148.3</ele>
        <time>2012-12-08T08:38:52Z</time>
      </trkpt>
      <trkpt lat="49.42566" lon="1.13863">
        <ele>148.3</ele>
        <time>2012-12-08T08:38:53Z</time>
      </trkpt>
      <trkpt lat="49.42573" lon="1.13875">
        <ele>148.3</ele>
        <time>2012-12-08T08:38:56Z</time>
      </trkpt>
      <trkpt lat="49.42576" lon="1.13884">
        <ele>148.6</ele>
        <time>2012-12-08T08:38:58Z</time>
      </trkpt>
      <trkpt lat="49.4258" lon="1.13892">
        <ele>148.6</ele>
        <time>2012-12-08T08:39:00Z</time>
      </trkpt>
      <trkpt lat="49.42583" lon="1.139">
        <ele>148.3</ele>
        <time>2012-12-08T08:39:02Z</time>
      </trkpt>
      <trkpt lat="49.42586" lon="1.13911">
        <ele>148</ele>
        <time>2012-12-08T08:39:04Z</time>
      </trkpt>
      <trkpt lat="49.42589" lon="1.13921">
        <ele>147.8</ele>
        <time>2012-12-08T08:39:06Z</time>
      </trkpt>
      <trkpt lat="49.42592" lon="1.13931">
        <ele>147.3</ele>
        <time>2012-12-08T08:39:08Z</time>
      </trkpt>
      <trkpt lat="49.42593" lon="1.13941">
        <ele>147.3</ele>
        <time>2012-12-08T08:39:10Z</time>
      </trkpt>
      <trkpt lat="49.42594" lon="1.1395">
        <ele>147.6</ele>
        <time>2012-12-08T08:39:12Z</time>
      </trkpt>
      <trkpt lat="49.42596" lon="1.1396">
        <ele>146.8</ele>
        <time>2012-12-08T08:39:14Z</time>
      </trkpt>
      <trkpt lat="49.42596" lon="1.1397">
        <ele>145.8</ele>
        <time>2012-12-08T08:39:16Z</time>
      </trkpt>
      <trkpt lat="49.42598" lon="1.1398">
        <ele>145.5</ele>
        <time>2012-12-08T08:39:18Z</time>
      </trkpt>
      <trkpt lat="49.42601" lon="1.13989">
        <ele>145.3</ele>
        <time>2012-12-08T08:39:20Z</time>
      </trkpt>
      <trkpt lat="49.42604" lon="1.14">
        <ele>145.3</ele>
        <time>2012-12-08T08:39:22Z</time>
      </trkpt>
      <trkpt lat="49.42606" lon="1.1401">
        <ele>144.6</ele>
        <time>2012-12-08T08:39:24Z</time>
      </trkpt>
      <trkpt lat="49.42609" lon="1.1402">
        <ele>143.8</ele>
        <time>2012-12-08T08:39:26Z</time>
      </trkpt>
      <trkpt lat="49.42611" lon="1.1403">
        <ele>143.6</ele>
        <time>2012-12-08T08:39:28Z</time>
      </trkpt>
      <trkpt lat="49.42613" lon="1.14043">
        <ele>144.3</ele>
        <time>2012-12-08T08:39:31Z</time>
      </trkpt>
      <trkpt lat="49.42615" lon="1.14053">
        <ele>147</ele>
        <time>2012-12-08T08:39:34Z</time>
      </trkpt>
      <trkpt lat="49.42617" lon="1.14066">
        <ele>148</ele>
        <time>2012-12-08T08:39:38Z</time>
      </trkpt>
      <trkpt lat="49.42618" lon="1.14078">
        <ele>149.1</ele>
        <time>2012-12-08T08:39:42Z</time>
      </trkpt>
      <trkpt lat="49.4262" lon="1.14089">
        <ele>149.6</ele>
        <time>2012-12-08T08:39:45Z</time>
      </trkpt>
      <trkpt lat="49.42622" lon="1.141">
        <ele>150.5</ele>
        <time>2012-12-08T08:39:47Z</time>
      </trkpt>
      <trkpt lat="49.42623" lon="1.14111">
        <ele>150.5</ele>
        <time>2012-12-08T08:39:49Z</time>
      </trkpt>
      <trkpt lat="49.42625" lon="1.14124">
        <ele>150.1</ele>
        <time>2012-12-08T08:39:51Z</time>
      </trkpt>
      <trkpt lat="49.42626" lon="1.14131">
        <ele>151</ele>
        <time>2012-12-08T08:39:52Z</time>
      </trkpt>
      <trkpt lat="49.42629" lon="1.14144">
        <ele>151.6</ele>
        <time>2012-12-08T08:39:54Z</time>
      </trkpt>
      <trkpt lat="49.4263" lon="1.14151">
        <ele>152</ele>
        <time>2012-12-08T08:39:55Z</time>
      </trkpt>
      <trkpt lat="49.42633" lon="1.14164">
        <ele>150.5</ele>
        <time>2012-12-08T08:39:57Z</time>
      </trkpt>
      <trkpt lat="49.42634" lon="1.14174">
        <ele>149.5</ele>
        <time>2012-12-08T08:39:59Z</time>
      </trkpt>
      <trkpt lat="49.42637" lon="1.14186">
        <ele>148.8</ele>
        <time>2012-12-08T08:40:03Z</time>
      </trkpt>
      <trkpt lat="49.42641" lon="1.14194">
        <ele>146.6</ele>
        <time>2012-12-08T08:40:08Z</time>
      </trkpt>
      <trkpt lat="49.42646" lon="1.14199">
        <ele>144.8</ele>
        <time>2012-12-08T08:40:10Z</time>
      </trkpt>
      <trkpt lat="49.42649" lon="1.14201">
        <ele>144.6</ele>
        <time>2012-12-08T08:40:11Z</time>
      </trkpt>
      <trkpt lat="49.42655" lon="1.14202">
        <ele>142.5</ele>
        <time>2012-12-08T08:40:12Z</time>
      </trkpt>
      <trkpt lat="49.42663" lon="1.14203">
        <ele>139.6</ele>
        <time>2012-12-08T08:40:14Z</time>
      </trkpt>
      <trkpt lat="49.42669" lon="1.1421">
        <ele>135.6</ele>
        <time>2012-12-08T08:40:17Z</time>
      </trkpt>
      <trkpt lat="49.42672" lon="1.14221">
        <ele>133.6</ele>
        <time>2012-12-08T08:40:20Z</time>
      </trkpt>
      <trkpt lat="49.42672" lon="1.14234">
        <ele>131.6</ele>
        <time>2012-12-08T08:40:24Z</time>
      </trkpt>
      <trkpt lat="49.42674" lon="1.14243">
        <ele>129.3</ele>
        <time>2012-12-08T08:40:26Z</time>
      </trkpt>
      <trkpt lat="49.42677" lon="1.14253">
        <ele>128.6</ele>
        <time>2012-12-08T08:40:28Z</time>
      </trkpt>
      <trkpt lat="49.42679" lon="1.14264">
        <ele>127.5</ele>
        <time>2012-12-08T08:40:30Z</time>
      </trkpt>
      <trkpt lat="49.42683" lon="1.14276">
        <ele>126.3</ele>
        <time>2012-12-08T08:40:32Z</time>
      </trkpt>
      <trkpt lat="49.42684" lon="1.14286">
        <ele>126.5</ele>
        <time>2012-12-08T08:40:34Z</time>
      </trkpt>
      <trkpt lat="49.42686" lon="1.14299">
        <ele>125.5</ele>
        <time>2012-12-08T08:40:37Z</time>
      </trkpt>
      <trkpt lat="49.42688" lon="1.14313">
        <ele>127</ele>
        <time>2012-12-08T08:40:40Z</time>
      </trkpt>
      <trkpt lat="49.42688" lon="1.14322">
        <ele>129.6</ele>
        <time>2012-12-08T08:40:42Z</time>
      </trkpt>
      <trkpt lat="49.42691" lon="1.14333">
        <ele>131.5</ele>
        <time>2012-12-08T08:40:44Z</time>
      </trkpt>
      <trkpt lat="49.42692" lon="1.14342">
        <ele>133.5</ele>
        <time>2012-12-08T08:40:46Z</time>
      </trkpt>
      <trkpt lat="49.42694" lon="1.14353">
        <ele>134.5</ele>
        <time>2012-12-08T08:40:48Z</time>
      </trkpt>
      <trkpt lat="49.42696" lon="1.14362">
        <ele>136.3</ele>
        <time>2012-12-08T08:40:50Z</time>
      </trkpt>
      <trkpt lat="49.42698" lon="1.14374">
        <ele>136.8</ele>
        <time>2012-12-08T08:40:53Z</time>
      </trkpt>
      <trkpt lat="49.42699" lon="1.14385">
        <ele>134.1</ele>
        <time>2012-12-08T08:40:55Z</time>
      </trkpt>
      <trkpt lat="49.42701" lon="1.14391">
        <ele>134.3</ele>
        <time>2012-12-08T08:40:56Z</time>
      </trkpt>
      <trkpt lat="49.42706" lon="1.14407">
        <ele>131.8</ele>
        <time>2012-12-08T08:40:59Z</time>
      </trkpt>
      <trkpt lat="49.42706" lon="1.14419">
        <ele>131.6</ele>
        <time>2012-12-08T08:41:02Z</time>
      </trkpt>
      <trkpt lat="49.42707" lon="1.1443">
        <ele>132</ele>
        <time>2012-12-08T08:41:04Z</time>
      </trkpt>
      <trkpt lat="49.42709" lon="1.1444">
        <ele>131.3</ele>
        <time>2012-12-08T08:41:06Z</time>
      </trkpt>
      <trkpt lat="49.42711" lon="1.1445">
        <ele>130</ele>
        <time>2012-12-08T08:41:08Z</time>
      </trkpt>
      <trkpt lat="49.42713" lon="1.14462">
        <ele>133.5</ele>
        <time>2012-12-08T08:41:10Z</time>
      </trkpt>
      <trkpt lat="49.42715" lon="1.14472">
        <ele>137.1</ele>
        <time>2012-12-08T08:41:12Z</time>
      </trkpt>
      <trkpt lat="49.42718" lon="1.1448">
        <ele>139.3</ele>
        <time>2012-12-08T08:41:14Z</time>
      </trkpt>
      <trkpt lat="49.4272" lon="1.1449">
        <ele>138.1</ele>
        <time>2012-12-08T08:41:16Z</time>
      </trkpt>
      <trkpt lat="49.42723" lon="1.14499">
        <ele>137.6</ele>
        <time>2012-12-08T08:41:18Z</time>
      </trkpt>
      <trkpt lat="49.42727" lon="1.14508">
        <ele>136.6</ele>
        <time>2012-12-08T08:41:20Z</time>
      </trkpt>
      <trkpt lat="49.42731" lon="1.14516">
        <ele>135.3</ele>
        <time>2012-12-08T08:41:22Z</time>
      </trkpt>
      <trkpt lat="49.42733" lon="1.14525">
        <ele>133.5</ele>
        <time>2012-12-08T08:41:24Z</time>
      </trkpt>
      <trkpt lat="49.42737" lon="1.14535">
        <ele>133.1</ele>
        <time>2012-12-08T08:41:26Z</time>
      </trkpt>
      <trkpt lat="49.42739" lon="1.14545">
        <ele>131.3</ele>
        <time>2012-12-08T08:41:28Z</time>
      </trkpt>
      <trkpt lat="49.4274" lon="1.14558">
        <ele>131</ele>
        <time>2012-12-08T08:41:31Z</time>
      </trkpt>
      <trkpt lat="49.42741" lon="1.14569">
        <ele>130.1</ele>
        <time>2012-12-08T08:41:33Z</time>
      </trkpt>
      <trkpt lat="49.42741" lon="1.14581">
        <ele>130.5</ele>
        <time>2012-12-08T08:41:35Z</time>
      </trkpt>
      <trkpt lat="49.42742" lon="1.14594">
        <ele>131</ele>
        <time>2012-12-08T08:41:37Z</time>
      </trkpt>
      <trkpt lat="49.42743" lon="1.14604">
        <ele>129.8</ele>
        <time>2012-12-08T08:41:39Z</time>
      </trkpt>
      <trkpt lat="49.42744" lon="1.14613">
        <ele>125.8</ele>
        <time>2012-12-08T08:41:41Z</time>
      </trkpt>
      <trkpt lat="49.42746" lon="1.14625">
        <ele>124.5</ele>
        <time>2012-12-08T08:41:43Z</time>
      </trkpt>
      <trkpt lat="49.42747" lon="1.14637">
        <ele>122.5</ele>
        <time>2012-12-08T08:41:45Z</time>
      </trkpt>
      <trkpt lat="49.42748" lon="1.14648">
        <ele>120.5</ele>
        <time>2012-12-08T08:41:47Z</time>
      </trkpt>
      <trkpt lat="49.42749" lon="1.1466">
        <ele>122.5</ele>
        <time>2012-12-08T08:41:49Z</time>
      </trkpt>
      <trkpt lat="49.42751" lon="1.14667">
        <ele>123.3</ele>
        <time>2012-12-08T08:41:50Z</time>
      </trkpt>
      <trkpt lat="49.42752" lon="1.14679">
        <ele>124.3</ele>
        <time>2012-12-08T08:41:52Z</time>
      </trkpt>
      <trkpt lat="49.42754" lon="1.14688">
        <ele>122.5</ele>
        <time>2012-12-08T08:41:54Z</time>
      </trkpt>
      <trkpt lat="49.42756" lon="1.147">
        <ele>120.5</ele>
        <time>2012-12-08T08:41:56Z</time>
      </trkpt>
      <trkpt lat="49.42757" lon="1.14706">
        <ele>120.5</ele>
        <time>2012-12-08T08:41:57Z</time>
      </trkpt>
      <trkpt lat="49.42759" lon="1.14723">
        <ele>122</ele>
        <time>2012-12-08T08:42:00Z</time>
      </trkpt>
      <trkpt lat="49.42759" lon="1.14735">
        <ele>127.5</ele>
        <time>2012-12-08T08:42:02Z</time>
      </trkpt>
      <trkpt lat="49.42763" lon="1.14746">
        <ele>126.5</ele>
        <time>2012-12-08T08:42:04Z</time>
      </trkpt>
      <trkpt lat="49.42766" lon="1.14751">
        <ele>126.5</ele>
        <time>2012-12-08T08:42:05Z</time>
      </trkpt>
      <trkpt lat="49.42772" lon="1.1476">
        <ele>132.6</ele>
        <time>2012-12-08T08:42:07Z</time>
      </trkpt>
      <trkpt lat="49.42776" lon="1.14767">
        <ele>134.5</ele>
        <time>2012-12-08T08:42:09Z</time>
      </trkpt>
      <trkpt lat="49.42779" lon="1.14777">
        <ele>134.1</ele>
        <time>2012-12-08T08:42:11Z</time>
      </trkpt>
      <trkpt lat="49.42782" lon="1.14785">
        <ele>134</ele>
        <time>2012-12-08T08:42:13Z</time>
      </trkpt>
      <trkpt lat="49.42787" lon="1.14793">
        <ele>134</ele>
        <time>2012-12-08T08:42:15Z</time>
      </trkpt>
      <trkpt lat="49.4279" lon="1.14803">
        <ele>131.6</ele>
        <time>2012-12-08T08:42:17Z</time>
      </trkpt>
      <trkpt lat="49.42789" lon="1.14815">
        <ele>130</ele>
        <time>2012-12-08T08:42:19Z</time>
      </trkpt>
      <trkpt lat="49.42787" lon="1.14825">
        <ele>128.1</ele>
        <time>2012-12-08T08:42:21Z</time>
      </trkpt>
      <trkpt lat="49.42782" lon="1.14835">
        <ele>128.6</ele>
        <time>2012-12-08T08:42:23Z</time>
      </trkpt>
      <trkpt lat="49.42782" lon="1.14847">
        <ele>131.6</ele>
        <time>2012-12-08T08:42:25Z</time>
      </trkpt>
      <trkpt lat="49.42784" lon="1.14858">
        <ele>131.3</ele>
        <time>2012-12-08T08:42:27Z</time>
      </trkpt>
      <trkpt lat="49.42786" lon="1.14869">
        <ele>132.1</ele>
        <time>2012-12-08T08:42:29Z</time>
      </trkpt>
      <trkpt lat="49.42788" lon="1.14882">
        <ele>134.1</ele>
        <time>2012-12-08T08:42:31Z</time>
      </trkpt>
      <trkpt lat="49.42789" lon="1.14893">
        <ele>132.3</ele>
        <time>2012-12-08T08:42:33Z</time>
      </trkpt>
      <trkpt lat="49.42791" lon="1.149">
        <ele>130.8</ele>
        <time>2012-12-08T08:42:34Z</time>
      </trkpt>
      <trkpt lat="49.42795" lon="1.14912">
        <ele>128.6</ele>
        <time>2012-12-08T08:42:36Z</time>
      </trkpt>
      <trkpt lat="49.42797" lon="1.14924">
        <ele>127</ele>
        <time>2012-12-08T08:42:38Z</time>
      </trkpt>
      <trkpt lat="49.42799" lon="1.14933">
        <ele>126</ele>
        <time>2012-12-08T08:42:40Z</time>
      </trkpt>
      <trkpt lat="49.42801" lon="1.14944">
        <ele>126.5</ele>
        <time>2012-12-08T08:42:42Z</time>
      </trkpt>
      <trkpt lat="49.42802" lon="1.14956">
        <ele>126.5</ele>
        <time>2012-12-08T08:42:45Z</time>
      </trkpt>
      <trkpt lat="49.42804" lon="1.14967">
        <ele>128.6</ele>
        <time>2012-12-08T08:42:48Z</time>
      </trkpt>
      <trkpt lat="49.42803" lon="1.14978">
        <ele>126.8</ele>
        <time>2012-12-08T08:42:51Z</time>
      </trkpt>
      <trkpt lat="49.42799" lon="1.14987">
        <ele>128.1</ele>
        <time>2012-12-08T08:42:53Z</time>
      </trkpt>
      <trkpt lat="49.42795" lon="1.14999">
        <ele>131.8</ele>
        <time>2012-12-08T08:42:56Z</time>
      </trkpt>
      <trkpt lat="49.42796" lon="1.15012">
        <ele>129.8</ele>
        <time>2012-12-08T08:42:59Z</time>
      </trkpt>
      <trkpt lat="49.42796" lon="1.15016">
        <ele>129.1</ele>
        <time>2012-12-08T08:43:00Z</time>
      </trkpt>
      <trkpt lat="49.42792" lon="1.15034">
        <ele>126</ele>
        <time>2012-12-08T08:43:04Z</time>
      </trkpt>
      <trkpt lat="49.42792" lon="1.15046">
        <ele>125</ele>
        <time>2012-12-08T08:43:06Z</time>
      </trkpt>
      <trkpt lat="49.42792" lon="1.15058">
        <ele>127</ele>
        <time>2012-12-08T08:43:09Z</time>
      </trkpt>
      <trkpt lat="49.4279" lon="1.15071">
        <ele>128</ele>
        <time>2012-12-08T08:43:14Z</time>
      </trkpt>
      <trkpt lat="49.42787" lon="1.15081">
        <ele>128</ele>
        <time>2012-12-08T08:43:17Z</time>
      </trkpt>
      <trkpt lat="49.42788" lon="1.1509">
        <ele>128.3</ele>
        <time>2012-12-08T08:43:19Z</time>
      </trkpt>
      <trkpt lat="49.42788" lon="1.15102">
        <ele>127.4</ele>
        <time>2012-12-08T08:43:21Z</time>
      </trkpt>
      <trkpt lat="49.42785" lon="1.15111">
        <ele>126.4</ele>
        <time>2012-12-08T08:43:23Z</time>
      </trkpt>
      <trkpt lat="49.42782" lon="1.15124">
        <ele>130.3</ele>
        <time>2012-12-08T08:43:26Z</time>
      </trkpt>
      <trkpt lat="49.42777" lon="1.15135">
        <ele>130.3</ele>
        <time>2012-12-08T08:43:29Z</time>
      </trkpt>
      <trkpt lat="49.42772" lon="1.15144">
        <ele>129.8</ele>
        <time>2012-12-08T08:43:32Z</time>
      </trkpt>
      <trkpt lat="49.42768" lon="1.1515">
        <ele>130.1</ele>
        <time>2012-12-08T08:43:34Z</time>
      </trkpt>
      <trkpt lat="49.42763" lon="1.1516">
        <ele>131</ele>
        <time>2012-12-08T08:43:36Z</time>
      </trkpt>
      <trkpt lat="49.42759" lon="1.15168">
        <ele>133.1</ele>
        <time>2012-12-08T08:43:38Z</time>
      </trkpt>
      <trkpt lat="49.42754" lon="1.15176">
        <ele>133.1</ele>
        <time>2012-12-08T08:43:41Z</time>
      </trkpt>
      <trkpt lat="49.4275" lon="1.15186">
        <ele>134.1</ele>
        <time>2012-12-08T08:43:44Z</time>
      </trkpt>
      <trkpt lat="49.42748" lon="1.15196">
        <ele>132.3</ele>
        <time>2012-12-08T08:43:46Z</time>
      </trkpt>
      <trkpt lat="49.42745" lon="1.15205">
        <ele>131.1</ele>
        <time>2012-12-08T08:43:48Z</time>
      </trkpt>
      <trkpt lat="49.42741" lon="1.15214">
        <ele>130.8</ele>
        <time>2012-12-08T08:43:50Z</time>
      </trkpt>
      <trkpt lat="49.42738" lon="1.15224">
        <ele>131.1</ele>
        <time>2012-12-08T08:43:52Z</time>
      </trkpt>
      <trkpt lat="49.42738" lon="1.15234">
        <ele>130.6</ele>
        <time>2012-12-08T08:43:54Z</time>
      </trkpt>
      <trkpt lat="49.42739" lon="1.15248">
        <ele>129.8</ele>
        <time>2012-12-08T08:43:57Z</time>
      </trkpt>
      <trkpt lat="49.4274" lon="1.1526">
        <ele>128.5</ele>
        <time>2012-12-08T08:43:59Z</time>
      </trkpt>
      <trkpt lat="49.42742" lon="1.15267">
        <ele>127</ele>
        <time>2012-12-08T08:44:00Z</time>
      </trkpt>
      <trkpt lat="49.42743" lon="1.15274">
        <ele>126.3</ele>
        <time>2012-12-08T08:44:01Z</time>
      </trkpt>
      <trkpt lat="49.42745" lon="1.15281">
        <ele>126.4</ele>
        <time>2012-12-08T08:44:02Z</time>
      </trkpt>
      <trkpt lat="49.42748" lon="1.15293">
        <ele>124.9</ele>
        <time>2012-12-08T08:44:04Z</time>
      </trkpt>
      <trkpt lat="49.4275" lon="1.15305">
        <ele>122</ele>
        <time>2012-12-08T08:44:08Z</time>
      </trkpt>
      <trkpt lat="49.4275" lon="1.15316">
        <ele>122.9</ele>
        <time>2012-12-08T08:44:11Z</time>
      </trkpt>
      <trkpt lat="49.42752" lon="1.15326">
        <ele>121.9</ele>
        <time>2012-12-08T08:44:14Z</time>
      </trkpt>
      <trkpt lat="49.42749" lon="1.15337">
        <ele>124</ele>
        <time>2012-12-08T08:44:18Z</time>
      </trkpt>
      <trkpt lat="49.42745" lon="1.15347">
        <ele>125</ele>
        <time>2012-12-08T08:44:22Z</time>
      </trkpt>
      <trkpt lat="49.42745" lon="1.1536">
        <ele>127.5</ele>
        <time>2012-12-08T08:44:26Z</time>
      </trkpt>
      <trkpt lat="49.42745" lon="1.15369">
        <ele>126</ele>
        <time>2012-12-08T08:44:29Z</time>
      </trkpt>
      <trkpt lat="49.42749" lon="1.15378">
        <ele>125</ele>
        <time>2012-12-08T08:44:31Z</time>
      </trkpt>
      <trkpt lat="49.42751" lon="1.1539">
        <ele>123.9</ele>
        <time>2012-12-08T08:44:34Z</time>
      </trkpt>
      <trkpt lat="49.42751" lon="1.15403">
        <ele>122.9</ele>
        <time>2012-12-08T08:44:37Z</time>
      </trkpt>
      <trkpt lat="49.42752" lon="1.15415">
        <ele>120.8</ele>
        <time>2012-12-08T08:44:40Z</time>
      </trkpt>
      <trkpt lat="49.42748" lon="1.15426">
        <ele>116.3</ele>
        <time>2012-12-08T08:44:46Z</time>
      </trkpt>
      <trkpt lat="49.42747" lon="1.15439">
        <ele>117.4</ele>
        <time>2012-12-08T08:44:55Z</time>
      </trkpt>
      <trkpt lat="49.42753" lon="1.15449">
        <ele>116</ele>
        <time>2012-12-08T08:45:01Z</time>
      </trkpt>
      <trkpt lat="49.42753" lon="1.15452">
        <ele>116.5</ele>
        <time>2012-12-08T08:45:02Z</time>
      </trkpt>
      <trkpt lat="49.42762" lon="1.1547">
        <ele>108.5</ele>
        <time>2012-12-08T08:45:12Z</time>
      </trkpt>
      <trkpt lat="49.42759" lon="1.15481">
        <ele>105.4</ele>
        <time>2012-12-08T08:45:20Z</time>
      </trkpt>
      <trkpt lat="49.42766" lon="1.1549">
        <ele>104.4</ele>
        <time>2012-12-08T08:45:25Z</time>
      </trkpt>
      <trkpt lat="49.42772" lon="1.15483">
        <ele>108.5</ele>
        <time>2012-12-08T08:45:31Z</time>
      </trkpt>
      <trkpt lat="49.42776" lon="1.15473">
        <ele>109.5</ele>
        <time>2012-12-08T08:45:39Z</time>
      </trkpt>
      <trkpt lat="49.42781" lon="1.15464">
        <ele>106.9</ele>
        <time>2012-12-08T08:45:44Z</time>
      </trkpt>
      <trkpt lat="49.42785" lon="1.15453">
        <ele>110</ele>
        <time>2012-12-08T08:45:47Z</time>
      </trkpt>
      <trkpt lat="49.42788" lon="1.15444">
        <ele>112.4</ele>
        <time>2012-12-08T08:45:49Z</time>
      </trkpt>
      <trkpt lat="49.42791" lon="1.15434">
        <ele>114.3</ele>
        <time>2012-12-08T08:45:51Z</time>
      </trkpt>
      <trkpt lat="49.42794" lon="1.15422">
        <ele>116</ele>
        <time>2012-12-08T08:45:53Z</time>
      </trkpt>
      <trkpt lat="49.42797" lon="1.1541">
        <ele>115</ele>
        <time>2012-12-08T08:45:55Z</time>
      </trkpt>
      <trkpt lat="49.428" lon="1.15403">
        <ele>111.8</ele>
        <time>2012-12-08T08:45:56Z</time>
      </trkpt>
      <trkpt lat="49.42803" lon="1.15394">
        <ele>108.9</ele>
        <time>2012-12-08T08:45:57Z</time>
      </trkpt>
      <trkpt lat="49.42807" lon="1.15383">
        <ele>106.5</ele>
        <time>2012-12-08T08:45:58Z</time>
      </trkpt>
      <trkpt lat="49.42811" lon="1.15374">
        <ele>105.5</ele>
        <time>2012-12-08T08:45:59Z</time>
      </trkpt>
      <trkpt lat="49.42815" lon="1.15364">
        <ele>104.3</ele>
        <time>2012-12-08T08:46:00Z</time>
      </trkpt>
      <trkpt lat="49.42818" lon="1.15353">
        <ele>102</ele>
        <time>2012-12-08T08:46:01Z</time>
      </trkpt>
      <trkpt lat="49.42822" lon="1.15342">
        <ele>100</ele>
        <time>2012-12-08T08:46:02Z</time>
      </trkpt>
      <trkpt lat="49.42826" lon="1.15332">
        <ele>98.5</ele>
        <time>2012-12-08T08:46:03Z</time>
      </trkpt>
      <trkpt lat="49.42831" lon="1.15321">
        <ele>98</ele>
        <time>2012-12-08T08:46:04Z</time>
      </trkpt>
      <trkpt lat="49.42836" lon="1.1531">
        <ele>97.5</ele>
        <time>2012-12-08T08:46:05Z</time>
      </trkpt>
      <trkpt lat="49.42842" lon="1.15299">
        <ele>98.5</ele>
        <time>2012-12-08T08:46:06Z</time>
      </trkpt>
      <trkpt lat="49.42847" lon="1.15288">
        <ele>96.5</ele>
        <time>2012-12-08T08:46:07Z</time>
      </trkpt>
      <trkpt lat="49.42854" lon="1.15273">
        <ele>93.9</ele>
        <time>2012-12-08T08:46:08Z</time>
      </trkpt>
      <trkpt lat="49.42859" lon="1.15262">
        <ele>94</ele>
        <time>2012-12-08T08:46:09Z</time>
      </trkpt>
      <trkpt lat="49.42864" lon="1.15251">
        <ele>93.5</ele>
        <time>2012-12-08T08:46:10Z</time>
      </trkpt>
      <trkpt lat="49.42869" lon="1.15239">
        <ele>94.9</ele>
        <time>2012-12-08T08:46:11Z</time>
      </trkpt>
      <trkpt lat="49.42875" lon="1.15227">
        <ele>96.5</ele>
        <time>2012-12-08T08:46:12Z</time>
      </trkpt>
      <trkpt lat="49.42881" lon="1.15215">
        <ele>97.4</ele>
        <time>2012-12-08T08:46:13Z</time>
      </trkpt>
      <trkpt lat="49.42888" lon="1.15203">
        <ele>96.9</ele>
        <time>2012-12-08T08:46:14Z</time>
      </trkpt>
      <trkpt lat="49.42895" lon="1.15192">
        <ele>97.9</ele>
        <time>2012-12-08T08:46:15Z</time>
      </trkpt>
      <trkpt lat="49.42899" lon="1.15183">
        <ele>96</ele>
        <time>2012-12-08T08:46:16Z</time>
      </trkpt>
      <trkpt lat="49.42903" lon="1.15175">
        <ele>94.9</ele>
        <time>2012-12-08T08:46:17Z</time>
      </trkpt>
      <trkpt lat="49.42906" lon="1.15168">
        <ele>93.5</ele>
        <time>2012-12-08T08:46:18Z</time>
      </trkpt>
      <trkpt lat="49.42911" lon="1.15159">
        <ele>95</ele>
        <time>2012-12-08T08:46:19Z</time>
      </trkpt>
      <trkpt lat="49.42914" lon="1.15153">
        <ele>94.5</ele>
        <time>2012-12-08T08:46:20Z</time>
      </trkpt>
      <trkpt lat="49.42916" lon="1.15146">
        <ele>92.3</ele>
        <time>2012-12-08T08:46:21Z</time>
      </trkpt>
      <trkpt lat="49.42921" lon="1.15143">
        <ele>89</ele>
        <time>2012-12-08T08:46:22Z</time>
      </trkpt>
      <trkpt lat="49.42926" lon="1.15143">
        <ele>88.9</ele>
        <time>2012-12-08T08:46:23Z</time>
      </trkpt>
      <trkpt lat="49.4293" lon="1.15148">
        <ele>88.5</ele>
        <time>2012-12-08T08:46:24Z</time>
      </trkpt>
      <trkpt lat="49.42935" lon="1.15153">
        <ele>87.5</ele>
        <time>2012-12-08T08:46:25Z</time>
      </trkpt>
      <trkpt lat="49.42938" lon="1.15161">
        <ele>87.4</ele>
        <time>2012-12-08T08:46:26Z</time>
      </trkpt>
      <trkpt lat="49.42941" lon="1.1517">
        <ele>86.8</ele>
        <time>2012-12-08T08:46:27Z</time>
      </trkpt>
      <trkpt lat="49.42942" lon="1.1518">
        <ele>84.3</ele>
        <time>2012-12-08T08:46:28Z</time>
      </trkpt>
      <trkpt lat="49.42941" lon="1.1519">
        <ele>84</ele>
        <time>2012-12-08T08:46:29Z</time>
      </trkpt>
      <trkpt lat="49.42939" lon="1.152">
        <ele>84.3</ele>
        <time>2012-12-08T08:46:30Z</time>
      </trkpt>
      <trkpt lat="49.42938" lon="1.15211">
        <ele>84</ele>
        <time>2012-12-08T08:46:31Z</time>
      </trkpt>
      <trkpt lat="49.42937" lon="1.15221">
        <ele>83.8</ele>
        <time>2012-12-08T08:46:32Z</time>
      </trkpt>
      <trkpt lat="49.42936" lon="1.15232">
        <ele>82.9</ele>
        <time>2012-12-08T08:46:33Z</time>
      </trkpt>
      <trkpt lat="49.42935" lon="1.15244">
        <ele>82.8</ele>
        <time>2012-12-08T08:46:34Z</time>
      </trkpt>
      <trkpt lat="49.42933" lon="1.15256">
        <ele>83.4</ele>
        <time>2012-12-08T08:46:35Z</time>
      </trkpt>
      <trkpt lat="49.42932" lon="1.15268">
        <ele>83.5</ele>
        <time>2012-12-08T08:46:36Z</time>
      </trkpt>
      <trkpt lat="49.4293" lon="1.15279">
        <ele>83</ele>
        <time>2012-12-08T08:46:37Z</time>
      </trkpt>
      <trkpt lat="49.42928" lon="1.15289">
        <ele>82.8</ele>
        <time>2012-12-08T08:46:38Z</time>
      </trkpt>
      <trkpt lat="49.42927" lon="1.15298">
        <ele>82.5</ele>
        <time>2012-12-08T08:46:39Z</time>
      </trkpt>
      <trkpt lat="49.42925" lon="1.15308">
        <ele>82.5</ele>
        <time>2012-12-08T08:46:40Z</time>
      </trkpt>
      <trkpt lat="49.42924" lon="1.15317">
        <ele>82</ele>
        <time>2012-12-08T08:46:41Z</time>
      </trkpt>
      <trkpt lat="49.42922" lon="1.15327">
        <ele>81.5</ele>
        <time>2012-12-08T08:46:42Z</time>
      </trkpt>
      <trkpt lat="49.4292" lon="1.15335">
        <ele>81.5</ele>
        <time>2012-12-08T08:46:43Z</time>
      </trkpt>
      <trkpt lat="49.4292" lon="1.15344">
        <ele>82</ele>
        <time>2012-12-08T08:46:44Z</time>
      </trkpt>
      <trkpt lat="49.42921" lon="1.15352">
        <ele>82</ele>
        <time>2012-12-08T08:46:45Z</time>
      </trkpt>
      <trkpt lat="49.42922" lon="1.1536">
        <ele>81.5</ele>
        <time>2012-12-08T08:46:46Z</time>
      </trkpt>
      <trkpt lat="49.42926" lon="1.15371">
        <ele>80.9</ele>
        <time>2012-12-08T08:46:48Z</time>
      </trkpt>
      <trkpt lat="49.42933" lon="1.1538">
        <ele>80.5</ele>
        <time>2012-12-08T08:46:52Z</time>
      </trkpt>
      <trkpt lat="49.42939" lon="1.15388">
        <ele>83</ele>
        <time>2012-12-08T08:47:07Z</time>
      </trkpt>
      <trkpt lat="49.42941" lon="1.1539">
        <ele>83</ele>
        <time>2012-12-08T08:47:08Z</time>
      </trkpt>
      <trkpt lat="49.42937" lon="1.15408">
        <ele>83.9</ele>
        <time>2012-12-08T08:47:16Z</time>
      </trkpt>
      <trkpt lat="49.42934" lon="1.15416">
        <ele>83.5</ele>
        <time>2012-12-08T08:47:18Z</time>
      </trkpt>
      <trkpt lat="49.42931" lon="1.15425">
        <ele>84</ele>
        <time>2012-12-08T08:47:20Z</time>
      </trkpt>
      <trkpt lat="49.42928" lon="1.15434">
        <ele>84.5</ele>
        <time>2012-12-08T08:47:22Z</time>
      </trkpt>
      <trkpt lat="49.42924" lon="1.15444">
        <ele>84.5</ele>
        <time>2012-12-08T08:47:25Z</time>
      </trkpt>
      <trkpt lat="49.42921" lon="1.15457">
        <ele>85.5</ele>
        <time>2012-12-08T08:47:30Z</time>
      </trkpt>
      <trkpt lat="49.42918" lon="1.15468">
        <ele>85.5</ele>
        <time>2012-12-08T08:47:36Z</time>
      </trkpt>
      <trkpt lat="49.42914" lon="1.15479">
        <ele>86</ele>
        <time>2012-12-08T08:47:41Z</time>
      </trkpt>
      <trkpt lat="49.4291" lon="1.1549">
        <ele>86.9</ele>
        <time>2012-12-08T08:47:44Z</time>
      </trkpt>
      <trkpt lat="49.42908" lon="1.15498">
        <ele>86.5</ele>
        <time>2012-12-08T08:47:46Z</time>
      </trkpt>
      <trkpt lat="49.42906" lon="1.15508">
        <ele>86</ele>
        <time>2012-12-08T08:47:48Z</time>
      </trkpt>
      <trkpt lat="49.42903" lon="1.15519">
        <ele>86.5</ele>
        <time>2012-12-08T08:47:50Z</time>
      </trkpt>
      <trkpt lat="49.42902" lon="1.15529">
        <ele>87</ele>
        <time>2012-12-08T08:47:52Z</time>
      </trkpt>
      <trkpt lat="49.42899" lon="1.15538">
        <ele>86</ele>
        <time>2012-12-08T08:47:54Z</time>
      </trkpt>
      <trkpt lat="49.42896" lon="1.15547">
        <ele>84.8</ele>
        <time>2012-12-08T08:47:56Z</time>
      </trkpt>
      <trkpt lat="49.42893" lon="1.15559">
        <ele>82.5</ele>
        <time>2012-12-08T08:47:59Z</time>
      </trkpt>
      <trkpt lat="49.42891" lon="1.1557">
        <ele>80.8</ele>
        <time>2012-12-08T08:48:02Z</time>
      </trkpt>
      <trkpt lat="49.42888" lon="1.1558">
        <ele>79.4</ele>
        <time>2012-12-08T08:48:05Z</time>
      </trkpt>
      <trkpt lat="49.42885" lon="1.1559">
        <ele>78.4</ele>
        <time>2012-12-08T08:48:08Z</time>
      </trkpt>
      <trkpt lat="49.42884" lon="1.15594">
        <ele>78</ele>
        <time>2012-12-08T08:48:09Z</time>
      </trkpt>
      <trkpt lat="49.42879" lon="1.1561">
        <ele>76.5</ele>
        <time>2012-12-08T08:48:14Z</time>
      </trkpt>
      <trkpt lat="49.42877" lon="1.1562">
        <ele>75.5</ele>
        <time>2012-12-08T08:48:17Z</time>
      </trkpt>
      <trkpt lat="49.42875" lon="1.15631">
        <ele>76.4</ele>
        <time>2012-12-08T08:48:20Z</time>
      </trkpt>
      <trkpt lat="49.42872" lon="1.15643">
        <ele>77</ele>
        <time>2012-12-08T08:48:23Z</time>
      </trkpt>
      <trkpt lat="49.42869" lon="1.15653">
        <ele>78.5</ele>
        <time>2012-12-08T08:48:26Z</time>
      </trkpt>
      <trkpt lat="49.42866" lon="1.15666">
        <ele>80.4</ele>
        <time>2012-12-08T08:48:30Z</time>
      </trkpt>
      <trkpt lat="49.42863" lon="1.15677">
        <ele>79.5</ele>
        <time>2012-12-08T08:48:34Z</time>
      </trkpt>
      <trkpt lat="49.42859" lon="1.15689">
        <ele>79.5</ele>
        <time>2012-12-08T08:48:38Z</time>
      </trkpt>
      <trkpt lat="49.42856" lon="1.15698">
        <ele>79.3</ele>
        <time>2012-12-08T08:48:41Z</time>
      </trkpt>
      <trkpt lat="49.42853" lon="1.15708">
        <ele>79.4</ele>
        <time>2012-12-08T08:48:44Z</time>
      </trkpt>
      <trkpt lat="49.4285" lon="1.15718">
        <ele>79</ele>
        <time>2012-12-08T08:48:47Z</time>
      </trkpt>
      <trkpt lat="49.42848" lon="1.15727">
        <ele>84.5</ele>
        <time>2012-12-08T08:48:49Z</time>
      </trkpt>
      <trkpt lat="49.42844" lon="1.15737">
        <ele>89</ele>
        <time>2012-12-08T08:48:52Z</time>
      </trkpt>
      <trkpt lat="49.42841" lon="1.15749">
        <ele>89</ele>
        <time>2012-12-08T08:48:56Z</time>
      </trkpt>
      <trkpt lat="49.42837" lon="1.15759">
        <ele>89</ele>
        <time>2012-12-08T08:48:59Z</time>
      </trkpt>
      <trkpt lat="49.42833" lon="1.15769">
        <ele>91.3</ele>
        <time>2012-12-08T08:49:02Z</time>
      </trkpt>
      <trkpt lat="49.4283" lon="1.1578">
        <ele>92.3</ele>
        <time>2012-12-08T08:49:05Z</time>
      </trkpt>
      <trkpt lat="49.42826" lon="1.15789">
        <ele>90.3</ele>
        <time>2012-12-08T08:49:09Z</time>
      </trkpt>
      <trkpt lat="49.42825" lon="1.15791">
        <ele>90</ele>
        <time>2012-12-08T08:49:10Z</time>
      </trkpt>
      <trkpt lat="49.42818" lon="1.15812">
        <ele>87.3</ele>
        <time>2012-12-08T08:49:17Z</time>
      </trkpt>
      <trkpt lat="49.42814" lon="1.15821">
        <ele>84.5</ele>
        <time>2012-12-08T08:49:21Z</time>
      </trkpt>
      <trkpt lat="49.4281" lon="1.15831">
        <ele>86.5</ele>
        <time>2012-12-08T08:49:24Z</time>
      </trkpt>
      <trkpt lat="49.42805" lon="1.15841">
        <ele>89.5</ele>
        <time>2012-12-08T08:49:27Z</time>
      </trkpt>
      <trkpt lat="49.42801" lon="1.15852">
        <ele>90.5</ele>
        <time>2012-12-08T08:49:31Z</time>
      </trkpt>
      <trkpt lat="49.42797" lon="1.15862">
        <ele>92.9</ele>
        <time>2012-12-08T08:49:34Z</time>
      </trkpt>
      <trkpt lat="49.42792" lon="1.15872">
        <ele>94.5</ele>
        <time>2012-12-08T08:49:38Z</time>
      </trkpt>
      <trkpt lat="49.42787" lon="1.15882">
        <ele>96</ele>
        <time>2012-12-08T08:49:42Z</time>
      </trkpt>
      <trkpt lat="49.42782" lon="1.1589">
        <ele>98.4</ele>
        <time>2012-12-08T08:49:46Z</time>
      </trkpt>
      <trkpt lat="49.42777" lon="1.159">
        <ele>100</ele>
        <time>2012-12-08T08:49:50Z</time>
      </trkpt>
      <trkpt lat="49.42772" lon="1.15909">
        <ele>99.5</ele>
        <time>2012-12-08T08:49:54Z</time>
      </trkpt>
      <trkpt lat="49.42766" lon="1.15918">
        <ele>98.5</ele>
        <time>2012-12-08T08:49:58Z</time>
      </trkpt>
      <trkpt lat="49.4276" lon="1.15928">
        <ele>98.5</ele>
        <time>2012-12-08T08:50:03Z</time>
      </trkpt>
      <trkpt lat="49.42755" lon="1.15938">
        <ele>97</ele>
        <time>2012-12-08T08:50:21Z</time>
      </trkpt>
      <trkpt lat="49.42755" lon="1.1594">
        <ele>97.3</ele>
        <time>2012-12-08T08:50:22Z</time>
      </trkpt>
      <trkpt lat="49.42771" lon="1.15935">
        <ele>95</ele>
        <time>2012-12-08T08:50:37Z</time>
      </trkpt>
      <trkpt lat="49.42778" lon="1.15928">
        <ele>94.3</ele>
        <time>2012-12-08T08:50:42Z</time>
      </trkpt>
      <trkpt lat="49.42783" lon="1.15937">
        <ele>92.3</ele>
        <time>2012-12-08T08:50:48Z</time>
      </trkpt>
      <trkpt lat="49.42783" lon="1.15946">
        <ele>91</ele>
        <time>2012-12-08T08:50:50Z</time>
      </trkpt>
      <trkpt lat="49.42783" lon="1.15955">
        <ele>89.4</ele>
        <time>2012-12-08T08:50:52Z</time>
      </trkpt>
      <trkpt lat="49.42781" lon="1.15964">
        <ele>87.5</ele>
        <time>2012-12-08T08:50:54Z</time>
      </trkpt>
      <trkpt lat="49.42779" lon="1.15974">
        <ele>86.9</ele>
        <time>2012-12-08T08:50:56Z</time>
      </trkpt>
      <trkpt lat="49.42776" lon="1.15986">
        <ele>89</ele>
        <time>2012-12-08T08:50:58Z</time>
      </trkpt>
      <trkpt lat="49.42774" lon="1.15999">
        <ele>89.3</ele>
        <time>2012-12-08T08:51:00Z</time>
      </trkpt>
      <trkpt lat="49.42772" lon="1.16012">
        <ele>90.3</ele>
        <time>2012-12-08T08:51:02Z</time>
      </trkpt>
      <trkpt lat="49.42771" lon="1.16024">
        <ele>89.9</ele>
        <time>2012-12-08T08:51:04Z</time>
      </trkpt>
      <trkpt lat="49.42769" lon="1.16035">
        <ele>89</ele>
        <time>2012-12-08T08:51:06Z</time>
      </trkpt>
      <trkpt lat="49.42768" lon="1.16047">
        <ele>89</ele>
        <time>2012-12-08T08:51:08Z</time>
      </trkpt>
      <trkpt lat="49.42768" lon="1.1606">
        <ele>88.4</ele>
        <time>2012-12-08T08:51:10Z</time>
      </trkpt>
      <trkpt lat="49.42768" lon="1.16067">
        <ele>88.3</ele>
        <time>2012-12-08T08:51:11Z</time>
      </trkpt>
      <trkpt lat="49.42768" lon="1.16081">
        <ele>87.5</ele>
        <time>2012-12-08T08:51:13Z</time>
      </trkpt>
      <trkpt lat="49.42767" lon="1.16094">
        <ele>87.9</ele>
        <time>2012-12-08T08:51:15Z</time>
      </trkpt>
      <trkpt lat="49.42768" lon="1.16106">
        <ele>87.5</ele>
        <time>2012-12-08T08:51:17Z</time>
      </trkpt>
      <trkpt lat="49.42768" lon="1.16118">
        <ele>86.9</ele>
        <time>2012-12-08T08:51:19Z</time>
      </trkpt>
      <trkpt lat="49.42767" lon="1.16129">
        <ele>86.9</ele>
        <time>2012-12-08T08:51:21Z</time>
      </trkpt>
      <trkpt lat="49.42765" lon="1.1614">
        <ele>87</ele>
        <time>2012-12-08T08:51:23Z</time>
      </trkpt>
      <trkpt lat="49.42764" lon="1.16147">
        <ele>89</ele>
        <time>2012-12-08T08:51:24Z</time>
      </trkpt>
      <trkpt lat="49.42762" lon="1.16166">
        <ele>91</ele>
        <time>2012-12-08T08:51:27Z</time>
      </trkpt>
      <trkpt lat="49.42761" lon="1.16179">
        <ele>90.8</ele>
        <time>2012-12-08T08:51:29Z</time>
      </trkpt>
      <trkpt lat="49.42759" lon="1.16191">
        <ele>90</ele>
        <time>2012-12-08T08:51:31Z</time>
      </trkpt>
      <trkpt lat="49.42758" lon="1.16203">
        <ele>89.8</ele>
        <time>2012-12-08T08:51:33Z</time>
      </trkpt>
      <trkpt lat="49.42756" lon="1.16215">
        <ele>89</ele>
        <time>2012-12-08T08:51:35Z</time>
      </trkpt>
      <trkpt lat="49.42755" lon="1.16227">
        <ele>89</ele>
        <time>2012-12-08T08:51:37Z</time>
      </trkpt>
      <trkpt lat="49.42755" lon="1.16239">
        <ele>88.9</ele>
        <time>2012-12-08T08:51:39Z</time>
      </trkpt>
      <trkpt lat="49.42754" lon="1.1625">
        <ele>89.5</ele>
        <time>2012-12-08T08:51:41Z</time>
      </trkpt>
      <trkpt lat="49.42754" lon="1.16262">
        <ele>89.5</ele>
        <time>2012-12-08T08:51:43Z</time>
      </trkpt>
      <trkpt lat="49.42755" lon="1.16275">
        <ele>87.5</ele>
        <time>2012-12-08T08:51:45Z</time>
      </trkpt>
      <trkpt lat="49.42756" lon="1.16287">
        <ele>86.4</ele>
        <time>2012-12-08T08:51:47Z</time>
      </trkpt>
      <trkpt lat="49.42756" lon="1.16297">
        <ele>84.5</ele>
        <time>2012-12-08T08:51:49Z</time>
      </trkpt>
      <trkpt lat="49.42755" lon="1.16309">
        <ele>83.5</ele>
        <time>2012-12-08T08:51:52Z</time>
      </trkpt>
      <trkpt lat="49.42753" lon="1.16322">
        <ele>80.5</ele>
        <time>2012-12-08T08:51:57Z</time>
      </trkpt>
      <trkpt lat="49.42751" lon="1.16332">
        <ele>86</ele>
        <time>2012-12-08T08:52:00Z</time>
      </trkpt>
      <trkpt lat="49.42749" lon="1.16345">
        <ele>90.5</ele>
        <time>2012-12-08T08:52:03Z</time>
      </trkpt>
      <trkpt lat="49.42748" lon="1.16358">
        <ele>88.3</ele>
        <time>2012-12-08T08:52:06Z</time>
      </trkpt>
      <trkpt lat="49.42749" lon="1.1637">
        <ele>85.5</ele>
        <time>2012-12-08T08:52:08Z</time>
      </trkpt>
      <trkpt lat="49.4275" lon="1.1638">
        <ele>85</ele>
        <time>2012-12-08T08:52:10Z</time>
      </trkpt>
      <trkpt lat="49.42752" lon="1.16393">
        <ele>80</ele>
        <time>2012-12-08T08:52:13Z</time>
      </trkpt>
      <trkpt lat="49.42756" lon="1.16402">
        <ele>76.5</ele>
        <time>2012-12-08T08:52:15Z</time>
      </trkpt>
      <trkpt lat="49.42762" lon="1.16411">
        <ele>76</ele>
        <time>2012-12-08T08:52:17Z</time>
      </trkpt>
      <trkpt lat="49.42766" lon="1.16415">
        <ele>74</ele>
        <time>2012-12-08T08:52:18Z</time>
      </trkpt>
      <trkpt lat="49.42769" lon="1.16421">
        <ele>74.8</ele>
        <time>2012-12-08T08:52:19Z</time>
      </trkpt>
      <trkpt lat="49.42774" lon="1.16431">
        <ele>76.9</ele>
        <time>2012-12-08T08:52:21Z</time>
      </trkpt>
      <trkpt lat="49.4278" lon="1.16441">
        <ele>75</ele>
        <time>2012-12-08T08:52:23Z</time>
      </trkpt>
      <trkpt lat="49.42783" lon="1.1645">
        <ele>73.3</ele>
        <time>2012-12-08T08:52:25Z</time>
      </trkpt>
      <trkpt lat="49.42784" lon="1.16454">
        <ele>72</ele>
        <time>2012-12-08T08:52:26Z</time>
      </trkpt>
      <trkpt lat="49.42785" lon="1.16474">
        <ele>70</ele>
        <time>2012-12-08T08:52:29Z</time>
      </trkpt>
      <trkpt lat="49.42786" lon="1.16481">
        <ele>67.5</ele>
        <time>2012-12-08T08:52:30Z</time>
      </trkpt>
      <trkpt lat="49.42788" lon="1.16489">
        <ele>66</ele>
        <time>2012-12-08T08:52:31Z</time>
      </trkpt>
      <trkpt lat="49.42789" lon="1.16497">
        <ele>64.4</ele>
        <time>2012-12-08T08:52:32Z</time>
      </trkpt>
      <trkpt lat="49.4279" lon="1.16506">
        <ele>63</ele>
        <time>2012-12-08T08:52:33Z</time>
      </trkpt>
      <trkpt lat="49.42791" lon="1.16514">
        <ele>62.9</ele>
        <time>2012-12-08T08:52:34Z</time>
      </trkpt>
      <trkpt lat="49.42792" lon="1.16521">
        <ele>62.4</ele>
        <time>2012-12-08T08:52:35Z</time>
      </trkpt>
      <trkpt lat="49.42794" lon="1.16529">
        <ele>62</ele>
        <time>2012-12-08T08:52:36Z</time>
      </trkpt>
      <trkpt lat="49.42797" lon="1.16535">
        <ele>62.2</ele>
        <time>2012-12-08T08:52:37Z</time>
      </trkpt>
      <trkpt lat="49.42799" lon="1.16542">
        <ele>62</ele>
        <time>2012-12-08T08:52:38Z</time>
      </trkpt>
      <trkpt lat="49.42802" lon="1.16549">
        <ele>61.5</ele>
        <time>2012-12-08T08:52:39Z</time>
      </trkpt>
      <trkpt lat="49.42805" lon="1.16557">
        <ele>61.2</ele>
        <time>2012-12-08T08:52:40Z</time>
      </trkpt>
      <trkpt lat="49.42808" lon="1.16565">
        <ele>61.4</ele>
        <time>2012-12-08T08:52:41Z</time>
      </trkpt>
      <trkpt lat="49.4281" lon="1.16573">
        <ele>61.2</ele>
        <time>2012-12-08T08:52:42Z</time>
      </trkpt>
      <trkpt lat="49.42813" lon="1.1658">
        <ele>60.7</ele>
        <time>2012-12-08T08:52:43Z</time>
      </trkpt>
      <trkpt lat="49.42816" lon="1.16587">
        <ele>60.5</ele>
        <time>2012-12-08T08:52:44Z</time>
      </trkpt>
      <trkpt lat="49.42818" lon="1.16595">
        <ele>60.2</ele>
        <time>2012-12-08T08:52:45Z</time>
      </trkpt>
      <trkpt lat="49.4282" lon="1.16603">
        <ele>59.7</ele>
        <time>2012-12-08T08:52:46Z</time>
      </trkpt>
      <trkpt lat="49.42822" lon="1.16612">
        <ele>59.5</ele>
        <time>2012-12-08T08:52:47Z</time>
      </trkpt>
      <trkpt lat="49.42825" lon="1.16619">
        <ele>59.2</ele>
        <time>2012-12-08T08:52:48Z</time>
      </trkpt>
      <trkpt lat="49.42828" lon="1.16626">
        <ele>58.9</ele>
        <time>2012-12-08T08:52:49Z</time>
      </trkpt>
      <trkpt lat="49.42832" lon="1.16633">
        <ele>58.5</ele>
        <time>2012-12-08T08:52:50Z</time>
      </trkpt>
      <trkpt lat="49.42836" lon="1.16639">
        <ele>58</ele>
        <time>2012-12-08T08:52:51Z</time>
      </trkpt>
      <trkpt lat="49.4284" lon="1.16644">
        <ele>57.5</ele>
        <time>2012-12-08T08:52:52Z</time>
      </trkpt>
      <trkpt lat="49.42844" lon="1.16648">
        <ele>57.2</ele>
        <time>2012-12-08T08:52:53Z</time>
      </trkpt>
      <trkpt lat="49.42848" lon="1.16653">
        <ele>57.2</ele>
        <time>2012-12-08T08:52:54Z</time>
      </trkpt>
      <trkpt lat="49.42852" lon="1.16657">
        <ele>56.7</ele>
        <time>2012-12-08T08:52:55Z</time>
      </trkpt>
      <trkpt lat="49.42859" lon="1.16664">
        <ele>55.7</ele>
        <time>2012-12-08T08:52:57Z</time>
      </trkpt>
      <trkpt lat="49.42865" lon="1.16667">
        <ele>55.5</ele>
        <time>2012-12-08T08:52:59Z</time>
      </trkpt>
      <trkpt lat="49.42874" lon="1.16671">
        <ele>48.2</ele>
        <time>2012-12-08T08:53:37Z</time>
      </trkpt>
      <trkpt lat="49.42874" lon="1.16671">
        <ele>47.7</ele>
        <time>2012-12-08T08:53:38Z</time>
      </trkpt>
      <trkpt lat="49.42877" lon="1.16696">
        <ele>52.7</ele>
        <time>2012-12-08T08:54:43Z</time>
      </trkpt>
      <trkpt lat="49.42877" lon="1.16697">
        <ele>52.7</ele>
        <time>2012-12-08T08:54:44Z</time>
      </trkpt>
      <trkpt lat="49.42876" lon="1.16717">
        <ele>53.5</ele>
        <time>2012-12-08T08:54:49Z</time>
      </trkpt>
      <trkpt lat="49.42877" lon="1.16729">
        <ele>53.7</ele>
        <time>2012-12-08T08:54:51Z</time>
      </trkpt>
      <trkpt lat="49.42876" lon="1.16742">
        <ele>51.9</ele>
        <time>2012-12-08T08:54:53Z</time>
      </trkpt>
      <trkpt lat="49.42876" lon="1.16749">
        <ele>50.9</ele>
        <time>2012-12-08T08:54:54Z</time>
      </trkpt>
      <trkpt lat="49.42875" lon="1.16758">
        <ele>50.4</ele>
        <time>2012-12-08T08:54:55Z</time>
      </trkpt>
      <trkpt lat="49.42874" lon="1.16768">
        <ele>50.5</ele>
        <time>2012-12-08T08:54:56Z</time>
      </trkpt>
      <trkpt lat="49.42873" lon="1.16779">
        <ele>51</ele>
        <time>2012-12-08T08:54:57Z</time>
      </trkpt>
      <trkpt lat="49.42873" lon="1.16791">
        <ele>51.5</ele>
        <time>2012-12-08T08:54:58Z</time>
      </trkpt>
      <trkpt lat="49.42871" lon="1.16803">
        <ele>51.7</ele>
        <time>2012-12-08T08:54:59Z</time>
      </trkpt>
      <trkpt lat="49.42869" lon="1.16814">
        <ele>50.7</ele>
        <time>2012-12-08T08:55:00Z</time>
      </trkpt>
      <trkpt lat="49.42865" lon="1.16823">
        <ele>49.7</ele>
        <time>2012-12-08T08:55:01Z</time>
      </trkpt>
      <trkpt lat="49.42861" lon="1.16833">
        <ele>49.2</ele>
        <time>2012-12-08T08:55:02Z</time>
      </trkpt>
      <trkpt lat="49.42858" lon="1.16842">
        <ele>48.5</ele>
        <time>2012-12-08T08:55:03Z</time>
      </trkpt>
      <trkpt lat="49.42855" lon="1.16851">
        <ele>48.2</ele>
        <time>2012-12-08T08:55:04Z</time>
      </trkpt>
      <trkpt lat="49.42852" lon="1.16861">
        <ele>48.7</ele>
        <time>2012-12-08T08:55:05Z</time>
      </trkpt>
      <trkpt lat="49.42849" lon="1.1687">
        <ele>49.5</ele>
        <time>2012-12-08T08:55:06Z</time>
      </trkpt>
      <trkpt lat="49.42846" lon="1.16879">
        <ele>50</ele>
        <time>2012-12-08T08:55:07Z</time>
      </trkpt>
      <trkpt lat="49.42843" lon="1.16887">
        <ele>50.7</ele>
        <time>2012-12-08T08:55:08Z</time>
      </trkpt>
      <trkpt lat="49.42839" lon="1.16894">
        <ele>50.7</ele>
        <time>2012-12-08T08:55:09Z</time>
      </trkpt>
      <trkpt lat="49.42835" lon="1.16901">
        <ele>51</ele>
        <time>2012-12-08T08:55:10Z</time>
      </trkpt>
      <trkpt lat="49.4283" lon="1.16908">
        <ele>51.2</ele>
        <time>2012-12-08T08:55:11Z</time>
      </trkpt>
      <trkpt lat="49.42827" lon="1.16915">
        <ele>51</ele>
        <time>2012-12-08T08:55:12Z</time>
      </trkpt>
      <trkpt lat="49.42823" lon="1.16921">
        <ele>51.2</ele>
        <time>2012-12-08T08:55:13Z</time>
      </trkpt>
      <trkpt lat="49.4282" lon="1.16927">
        <ele>51.7</ele>
        <time>2012-12-08T08:55:14Z</time>
      </trkpt>
      <trkpt lat="49.42817" lon="1.16934">
        <ele>52.2</ele>
        <time>2012-12-08T08:55:15Z</time>
      </trkpt>
      <trkpt lat="49.42813" lon="1.16939">
        <ele>52.5</ele>
        <time>2012-12-08T08:55:16Z</time>
      </trkpt>
      <trkpt lat="49.42809" lon="1.16946">
        <ele>52.4</ele>
        <time>2012-12-08T08:55:17Z</time>
      </trkpt>
      <trkpt lat="49.42806" lon="1.16952">
        <ele>52.2</ele>
        <time>2012-12-08T08:55:18Z</time>
      </trkpt>
      <trkpt lat="49.42802" lon="1.16958">
        <ele>52.9</ele>
        <time>2012-12-08T08:55:19Z</time>
      </trkpt>
      <trkpt lat="49.42799" lon="1.16964">
        <ele>53.2</ele>
        <time>2012-12-08T08:55:20Z</time>
      </trkpt>
      <trkpt lat="49.42795" lon="1.1697">
        <ele>53.9</ele>
        <time>2012-12-08T08:55:21Z</time>
      </trkpt>
      <trkpt lat="49.42792" lon="1.16976">
        <ele>54.4</ele>
        <time>2012-12-08T08:55:22Z</time>
      </trkpt>
      <trkpt lat="49.42788" lon="1.16981">
        <ele>53</ele>
        <time>2012-12-08T08:55:23Z</time>
      </trkpt>
      <trkpt lat="49.42782" lon="1.16989">
        <ele>52.7</ele>
        <time>2012-12-08T08:55:25Z</time>
      </trkpt>
      <trkpt lat="49.42777" lon="1.16994">
        <ele>52.2</ele>
        <time>2012-12-08T08:55:26Z</time>
      </trkpt>
      <trkpt lat="49.42773" lon="1.16997">
        <ele>52</ele>
        <time>2012-12-08T08:55:27Z</time>
      </trkpt>
      <trkpt lat="49.42769" lon="1.17002">
        <ele>52.2</ele>
        <time>2012-12-08T08:55:28Z</time>
      </trkpt>
      <trkpt lat="49.42765" lon="1.17006">
        <ele>51.7</ele>
        <time>2012-12-08T08:55:29Z</time>
      </trkpt>
      <trkpt lat="49.42761" lon="1.17009">
        <ele>52.2</ele>
        <time>2012-12-08T08:55:30Z</time>
      </trkpt>
      <trkpt lat="49.42757" lon="1.17013">
        <ele>53</ele>
        <time>2012-12-08T08:55:31Z</time>
      </trkpt>
      <trkpt lat="49.42753" lon="1.17017">
        <ele>53</ele>
        <time>2012-12-08T08:55:32Z</time>
      </trkpt>
      <trkpt lat="49.42748" lon="1.1702">
        <ele>52.9</ele>
        <time>2012-12-08T08:55:33Z</time>
      </trkpt>
      <trkpt lat="49.42745" lon="1.17023">
        <ele>53</ele>
        <time>2012-12-08T08:55:34Z</time>
      </trkpt>
      <trkpt lat="49.4274" lon="1.17026">
        <ele>53</ele>
        <time>2012-12-08T08:55:35Z</time>
      </trkpt>
      <trkpt lat="49.42736" lon="1.1703">
        <ele>53.4</ele>
        <time>2012-12-08T08:55:36Z</time>
      </trkpt>
      <trkpt lat="49.42732" lon="1.17035">
        <ele>54</ele>
        <time>2012-12-08T08:55:37Z</time>
      </trkpt>
      <trkpt lat="49.42728" lon="1.17038">
        <ele>54.9</ele>
        <time>2012-12-08T08:55:38Z</time>
      </trkpt>
      <trkpt lat="49.42724" lon="1.17041">
        <ele>54.5</ele>
        <time>2012-12-08T08:55:39Z</time>
      </trkpt>
      <trkpt lat="49.42717" lon="1.17049">
        <ele>54.7</ele>
        <time>2012-12-08T08:55:41Z</time>
      </trkpt>
      <trkpt lat="49.42713" lon="1.17052">
        <ele>54.7</ele>
        <time>2012-12-08T08:55:42Z</time>
      </trkpt>
      <trkpt lat="49.42708" lon="1.17055">
        <ele>53.7</ele>
        <time>2012-12-08T08:55:43Z</time>
      </trkpt>
      <trkpt lat="49.42705" lon="1.17058">
        <ele>52.7</ele>
        <time>2012-12-08T08:55:44Z</time>
      </trkpt>
      <trkpt lat="49.42701" lon="1.17062">
        <ele>53</ele>
        <time>2012-12-08T08:55:45Z</time>
      </trkpt>
      <trkpt lat="49.4269" lon="1.17073">
        <ele>52.5</ele>
        <time>2012-12-08T08:55:48Z</time>
      </trkpt>
      <trkpt lat="49.42683" lon="1.17082">
        <ele>52.5</ele>
        <time>2012-12-08T08:55:50Z</time>
      </trkpt>
      <trkpt lat="49.42677" lon="1.1709">
        <ele>52.4</ele>
        <time>2012-12-08T08:55:52Z</time>
      </trkpt>
      <trkpt lat="49.42671" lon="1.17099">
        <ele>52.7</ele>
        <time>2012-12-08T08:55:54Z</time>
      </trkpt>
      <trkpt lat="49.42665" lon="1.17107">
        <ele>53</ele>
        <time>2012-12-08T08:55:56Z</time>
      </trkpt>
      <trkpt lat="49.42659" lon="1.17114">
        <ele>53.5</ele>
        <time>2012-12-08T08:55:58Z</time>
      </trkpt>
      <trkpt lat="49.42653" lon="1.17121">
        <ele>53.7</ele>
        <time>2012-12-08T08:56:00Z</time>
      </trkpt>
      <trkpt lat="49.42646" lon="1.17127">
        <ele>53.7</ele>
        <time>2012-12-08T08:56:02Z</time>
      </trkpt>
      <trkpt lat="49.42639" lon="1.17132">
        <ele>54</ele>
        <time>2012-12-08T08:56:04Z</time>
      </trkpt>
      <trkpt lat="49.42633" lon="1.17137">
        <ele>54.7</ele>
        <time>2012-12-08T08:56:06Z</time>
      </trkpt>
      <trkpt lat="49.42627" lon="1.17142">
        <ele>54.7</ele>
        <time>2012-12-08T08:56:08Z</time>
      </trkpt>
      <trkpt lat="49.4262" lon="1.17147">
        <ele>55.7</ele>
        <time>2012-12-08T08:56:10Z</time>
      </trkpt>
      <trkpt lat="49.42614" lon="1.17151">
        <ele>56</ele>
        <time>2012-12-08T08:56:12Z</time>
      </trkpt>
      <trkpt lat="49.42609" lon="1.17156">
        <ele>56.7</ele>
        <time>2012-12-08T08:56:14Z</time>
      </trkpt>
      <trkpt lat="49.42604" lon="1.17161">
        <ele>56.7</ele>
        <time>2012-12-08T08:56:16Z</time>
      </trkpt>
      <trkpt lat="49.42599" lon="1.17167">
        <ele>55.7</ele>
        <time>2012-12-08T08:56:18Z</time>
      </trkpt>
      <trkpt lat="49.42594" lon="1.17173">
        <ele>56.5</ele>
        <time>2012-12-08T08:56:20Z</time>
      </trkpt>
      <trkpt lat="49.42589" lon="1.17179">
        <ele>57.2</ele>
        <time>2012-12-08T08:56:22Z</time>
      </trkpt>
      <trkpt lat="49.42585" lon="1.17186">
        <ele>57</ele>
        <time>2012-12-08T08:56:24Z</time>
      </trkpt>
      <trkpt lat="49.42579" lon="1.17196">
        <ele>57.4</ele>
        <time>2012-12-08T08:56:27Z</time>
      </trkpt>
      <trkpt lat="49.42573" lon="1.17204">
        <ele>56</ele>
        <time>2012-12-08T08:56:30Z</time>
      </trkpt>
      <trkpt lat="49.42568" lon="1.17213">
        <ele>55.7</ele>
        <time>2012-12-08T08:56:33Z</time>
      </trkpt>
      <trkpt lat="49.42562" lon="1.17223">
        <ele>55.2</ele>
        <time>2012-12-08T08:56:36Z</time>
      </trkpt>
      <trkpt lat="49.42555" lon="1.17229">
        <ele>56.5</ele>
        <time>2012-12-08T08:56:41Z</time>
      </trkpt>
      <trkpt lat="49.42548" lon="1.17235">
        <ele>58</ele>
        <time>2012-12-08T08:56:46Z</time>
      </trkpt>
      <trkpt lat="49.42547" lon="1.17237">
        <ele>58.2</ele>
        <time>2012-12-08T08:56:47Z</time>
      </trkpt>
      <trkpt lat="49.42539" lon="1.17254">
        <ele>57</ele>
        <time>2012-12-08T08:56:52Z</time>
      </trkpt>
      <trkpt lat="49.42535" lon="1.17263">
        <ele>56.2</ele>
        <time>2012-12-08T08:56:54Z</time>
      </trkpt>
      <trkpt lat="49.4253" lon="1.17274">
        <ele>55.5</ele>
        <time>2012-12-08T08:56:56Z</time>
      </trkpt>
      <trkpt lat="49.42527" lon="1.1728">
        <ele>55.2</ele>
        <time>2012-12-08T08:56:57Z</time>
      </trkpt>
      <trkpt lat="49.42525" lon="1.17285">
        <ele>54.7</ele>
        <time>2012-12-08T08:56:58Z</time>
      </trkpt>
      <trkpt lat="49.42519" lon="1.17296">
        <ele>53.7</ele>
        <time>2012-12-08T08:57:00Z</time>
      </trkpt>
      <trkpt lat="49.42515" lon="1.17306">
        <ele>53.2</ele>
        <time>2012-12-08T08:57:02Z</time>
      </trkpt>
      <trkpt lat="49.42511" lon="1.17317">
        <ele>54.7</ele>
        <time>2012-12-08T08:57:04Z</time>
      </trkpt>
      <trkpt lat="49.42506" lon="1.17328">
        <ele>55.2</ele>
        <time>2012-12-08T08:57:06Z</time>
      </trkpt>
      <trkpt lat="49.42501" lon="1.17339">
        <ele>54.5</ele>
        <time>2012-12-08T08:57:08Z</time>
      </trkpt>
      <trkpt lat="49.42498" lon="1.17345">
        <ele>54.2</ele>
        <time>2012-12-08T08:57:09Z</time>
      </trkpt>
      <trkpt lat="49.42496" lon="1.17351">
        <ele>53.7</ele>
        <time>2012-12-08T08:57:10Z</time>
      </trkpt>
      <trkpt lat="49.42493" lon="1.17357">
        <ele>53.2</ele>
        <time>2012-12-08T08:57:11Z</time>
      </trkpt>
      <trkpt lat="49.4249" lon="1.17362">
        <ele>52.9</ele>
        <time>2012-12-08T08:57:12Z</time>
      </trkpt>
      <trkpt lat="49.42488" lon="1.17368">
        <ele>52.5</ele>
        <time>2012-12-08T08:57:13Z</time>
      </trkpt>
      <trkpt lat="49.42485" lon="1.17374">
        <ele>52.2</ele>
        <time>2012-12-08T08:57:14Z</time>
      </trkpt>
      <trkpt lat="49.42482" lon="1.1738">
        <ele>51.9</ele>
        <time>2012-12-08T08:57:15Z</time>
      </trkpt>
      <trkpt lat="49.42479" lon="1.17386">
        <ele>52</ele>
        <time>2012-12-08T08:57:16Z</time>
      </trkpt>
      <trkpt lat="49.42476" lon="1.17392">
        <ele>51.7</ele>
        <time>2012-12-08T08:57:17Z</time>
      </trkpt>
      <trkpt lat="49.42473" lon="1.17398">
        <ele>51.4</ele>
        <time>2012-12-08T08:57:18Z</time>
      </trkpt>
      <trkpt lat="49.4247" lon="1.17405">
        <ele>51</ele>
        <time>2012-12-08T08:57:19Z</time>
      </trkpt>
      <trkpt lat="49.42466" lon="1.17411">
        <ele>50.5</ele>
        <time>2012-12-08T08:57:20Z</time>
      </trkpt>
      <trkpt lat="49.42462" lon="1.17417">
        <ele>50.7</ele>
        <time>2012-12-08T08:57:21Z</time>
      </trkpt>
      <trkpt lat="49.42459" lon="1.17424">
        <ele>50.4</ele>
        <time>2012-12-08T08:57:22Z</time>
      </trkpt>
      <trkpt lat="49.42455" lon="1.1743">
        <ele>50.7</ele>
        <time>2012-12-08T08:57:23Z</time>
      </trkpt>
      <trkpt lat="49.42451" lon="1.17436">
        <ele>50.7</ele>
        <time>2012-12-08T08:57:24Z</time>
      </trkpt>
      <trkpt lat="49.42446" lon="1.17441">
        <ele>50.5</ele>
        <time>2012-12-08T08:57:25Z</time>
      </trkpt>
      <trkpt lat="49.42443" lon="1.17446">
        <ele>50.2</ele>
        <time>2012-12-08T08:57:26Z</time>
      </trkpt>
      <trkpt lat="49.42439" lon="1.17452">
        <ele>50</ele>
        <time>2012-12-08T08:57:27Z</time>
      </trkpt>
      <trkpt lat="49.42435" lon="1.17457">
        <ele>49.9</ele>
        <time>2012-12-08T08:57:28Z</time>
      </trkpt>
      <trkpt lat="49.42431" lon="1.17462">
        <ele>49.7</ele>
        <time>2012-12-08T08:57:29Z</time>
      </trkpt>
      <trkpt lat="49.42427" lon="1.17467">
        <ele>49.5</ele>
        <time>2012-12-08T08:57:30Z</time>
      </trkpt>
      <trkpt lat="49.42423" lon="1.17471">
        <ele>49.4</ele>
        <time>2012-12-08T08:57:31Z</time>
      </trkpt>
      <trkpt lat="49.42419" lon="1.17476">
        <ele>49.2</ele>
        <time>2012-12-08T08:57:32Z</time>
      </trkpt>
      <trkpt lat="49.42415" lon="1.17481">
        <ele>48.9</ele>
        <time>2012-12-08T08:57:33Z</time>
      </trkpt>
      <trkpt lat="49.42412" lon="1.17486">
        <ele>48.7</ele>
        <time>2012-12-08T08:57:34Z</time>
      </trkpt>
      <trkpt lat="49.42408" lon="1.1749">
        <ele>48.5</ele>
        <time>2012-12-08T08:57:35Z</time>
      </trkpt>
      <trkpt lat="49.42404" lon="1.17495">
        <ele>48.4</ele>
        <time>2012-12-08T08:57:36Z</time>
      </trkpt>
      <trkpt lat="49.42401" lon="1.175">
        <ele>48.2</ele>
        <time>2012-12-08T08:57:37Z</time>
      </trkpt>
      <trkpt lat="49.42397" lon="1.17505">
        <ele>48.2</ele>
        <time>2012-12-08T08:57:38Z</time>
      </trkpt>
      <trkpt lat="49.42393" lon="1.17509">
        <ele>48</ele>
        <time>2012-12-08T08:57:39Z</time>
      </trkpt>
      <trkpt lat="49.42389" lon="1.17514">
        <ele>47.7</ele>
        <time>2012-12-08T08:57:40Z</time>
      </trkpt>
      <trkpt lat="49.42385" lon="1.1752">
        <ele>47.5</ele>
        <time>2012-12-08T08:57:41Z</time>
      </trkpt>
      <trkpt lat="49.4238" lon="1.17525">
        <ele>47.4</ele>
        <time>2012-12-08T08:57:42Z</time>
      </trkpt>
      <trkpt lat="49.42376" lon="1.17531">
        <ele>47.2</ele>
        <time>2012-12-08T08:57:43Z</time>
      </trkpt>
      <trkpt lat="49.42371" lon="1.17537">
        <ele>47.2</ele>
        <time>2012-12-08T08:57:44Z</time>
      </trkpt>
      <trkpt lat="49.42367" lon="1.17543">
        <ele>47</ele>
        <time>2012-12-08T08:57:45Z</time>
      </trkpt>
      <trkpt lat="49.42363" lon="1.17548">
        <ele>46.7</ele>
        <time>2012-12-08T08:57:46Z</time>
      </trkpt>
      <trkpt lat="49.42358" lon="1.17555">
        <ele>46.5</ele>
        <time>2012-12-08T08:57:47Z</time>
      </trkpt>
      <trkpt lat="49.42354" lon="1.17561">
        <ele>46.2</ele>
        <time>2012-12-08T08:57:48Z</time>
      </trkpt>
      <trkpt lat="49.42349" lon="1.17567">
        <ele>45.9</ele>
        <time>2012-12-08T08:57:49Z</time>
      </trkpt>
      <trkpt lat="49.42344" lon="1.17574">
        <ele>45.7</ele>
        <time>2012-12-08T08:57:50Z</time>
      </trkpt>
      <trkpt lat="49.42339" lon="1.17579">
        <ele>45.4</ele>
        <time>2012-12-08T08:57:51Z</time>
      </trkpt>
      <trkpt lat="49.42334" lon="1.17584">
        <ele>45</ele>
        <time>2012-12-08T08:57:52Z</time>
      </trkpt>
      <trkpt lat="49.42328" lon="1.1759">
        <ele>44.7</ele>
        <time>2012-12-08T08:57:53Z</time>
      </trkpt>
      <trkpt lat="49.42323" lon="1.17596">
        <ele>44.7</ele>
        <time>2012-12-08T08:57:54Z</time>
      </trkpt>
      <trkpt lat="49.42319" lon="1.17603">
        <ele>44.5</ele>
        <time>2012-12-08T08:57:55Z</time>
      </trkpt>
      <trkpt lat="49.42314" lon="1.17609">
        <ele>44.5</ele>
        <time>2012-12-08T08:57:56Z</time>
      </trkpt>
      <trkpt lat="49.42309" lon="1.17616">
        <ele>44.4</ele>
        <time>2012-12-08T08:57:57Z</time>
      </trkpt>
      <trkpt lat="49.42305" lon="1.17622">
        <ele>44.2</ele>
        <time>2012-12-08T08:57:58Z</time>
      </trkpt>
      <trkpt lat="49.42301" lon="1.17627">
        <ele>44.4</ele>
        <time>2012-12-08T08:57:59Z</time>
      </trkpt>
      <trkpt lat="49.42296" lon="1.17633">
        <ele>44</ele>
        <time>2012-12-08T08:58:00Z</time>
      </trkpt>
      <trkpt lat="49.42291" lon="1.17638">
        <ele>44.2</ele>
        <time>2012-12-08T08:58:01Z</time>
      </trkpt>
      <trkpt lat="49.42286" lon="1.17641">
        <ele>44.5</ele>
        <time>2012-12-08T08:58:02Z</time>
      </trkpt>
      <trkpt lat="49.42281" lon="1.17643">
        <ele>45</ele>
        <time>2012-12-08T08:58:03Z</time>
      </trkpt>
      <trkpt lat="49.42276" lon="1.17645">
        <ele>45.4</ele>
        <time>2012-12-08T08:58:04Z</time>
      </trkpt>
      <trkpt lat="49.42271" lon="1.17646">
        <ele>45.5</ele>
        <time>2012-12-08T08:58:05Z</time>
      </trkpt>
      <trkpt lat="49.42266" lon="1.17648">
        <ele>45.7</ele>
        <time>2012-12-08T08:58:06Z</time>
      </trkpt>
      <trkpt lat="49.42261" lon="1.1765">
        <ele>46</ele>
        <time>2012-12-08T08:58:07Z</time>
      </trkpt>
      <trkpt lat="49.42256" lon="1.17651">
        <ele>46.4</ele>
        <time>2012-12-08T08:58:08Z</time>
      </trkpt>
      <trkpt lat="49.42251" lon="1.17653">
        <ele>46.9</ele>
        <time>2012-12-08T08:58:09Z</time>
      </trkpt>
      <trkpt lat="49.42246" lon="1.17655">
        <ele>47.5</ele>
        <time>2012-12-08T08:58:10Z</time>
      </trkpt>
      <trkpt lat="49.42241" lon="1.17657">
        <ele>48.5</ele>
        <time>2012-12-08T08:58:11Z</time>
      </trkpt>
      <trkpt lat="49.42237" lon="1.17659">
        <ele>49.2</ele>
        <time>2012-12-08T08:58:12Z</time>
      </trkpt>
      <trkpt lat="49.42232" lon="1.17662">
        <ele>50.5</ele>
        <time>2012-12-08T08:58:13Z</time>
      </trkpt>
      <trkpt lat="49.42228" lon="1.17666">
        <ele>51</ele>
        <time>2012-12-08T08:58:14Z</time>
      </trkpt>
      <trkpt lat="49.42223" lon="1.1767">
        <ele>51.5</ele>
        <time>2012-12-08T08:58:15Z</time>
      </trkpt>
      <trkpt lat="49.42219" lon="1.17674">
        <ele>51.7</ele>
        <time>2012-12-08T08:58:16Z</time>
      </trkpt>
      <trkpt lat="49.42215" lon="1.17678">
        <ele>51.5</ele>
        <time>2012-12-08T08:58:17Z</time>
      </trkpt>
      <trkpt lat="49.42211" lon="1.17682">
        <ele>51.2</ele>
        <time>2012-12-08T08:58:18Z</time>
      </trkpt>
      <trkpt lat="49.42207" lon="1.17687">
        <ele>51</ele>
        <time>2012-12-08T08:58:19Z</time>
      </trkpt>
      <trkpt lat="49.42203" lon="1.17691">
        <ele>50.2</ele>
        <time>2012-12-08T08:58:20Z</time>
      </trkpt>
      <trkpt lat="49.42196" lon="1.17699">
        <ele>49.7</ele>
        <time>2012-12-08T08:58:22Z</time>
      </trkpt>
      <trkpt lat="49.4219" lon="1.17706">
        <ele>48.9</ele>
        <time>2012-12-08T08:58:24Z</time>
      </trkpt>
      <trkpt lat="49.42184" lon="1.17713">
        <ele>49</ele>
        <time>2012-12-08T08:58:26Z</time>
      </trkpt>
      <trkpt lat="49.42178" lon="1.17719">
        <ele>48.2</ele>
        <time>2012-12-08T08:58:28Z</time>
      </trkpt>
      <trkpt lat="49.4217" lon="1.17715">
        <ele>48.5</ele>
        <time>2012-12-08T08:58:31Z</time>
      </trkpt>
      <trkpt lat="49.42166" lon="1.17705">
        <ele>48.7</ele>
        <time>2012-12-08T08:58:33Z</time>
      </trkpt>
      <trkpt lat="49.42161" lon="1.17694">
        <ele>48.5</ele>
        <time>2012-12-08T08:58:35Z</time>
      </trkpt>
      <trkpt lat="49.42158" lon="1.17683">
        <ele>49.2</ele>
        <time>2012-12-08T08:58:37Z</time>
      </trkpt>
      <trkpt lat="49.42156" lon="1.17673">
        <ele>50</ele>
        <time>2012-12-08T08:58:39Z</time>
      </trkpt>
      <trkpt lat="49.42153" lon="1.1766">
        <ele>50</ele>
        <time>2012-12-08T08:58:42Z</time>
      </trkpt>
      <trkpt lat="49.4215" lon="1.17651">
        <ele>49.7</ele>
        <time>2012-12-08T08:58:44Z</time>
      </trkpt>
      <trkpt lat="49.42146" lon="1.17643">
        <ele>51.5</ele>
        <time>2012-12-08T08:58:46Z</time>
      </trkpt>
      <trkpt lat="49.42142" lon="1.17636">
        <ele>52.7</ele>
        <time>2012-12-08T08:58:48Z</time>
      </trkpt>
      <trkpt lat="49.4214" lon="1.17633">
        <ele>52.7</ele>
        <time>2012-12-08T08:58:49Z</time>
      </trkpt>
      <trkpt lat="49.42133" lon="1.17624">
        <ele>54</ele>
        <time>2012-12-08T08:58:52Z</time>
      </trkpt>
      <trkpt lat="49.42126" lon="1.17617">
        <ele>55.5</ele>
        <time>2012-12-08T08:58:55Z</time>
      </trkpt>
      <trkpt lat="49.42119" lon="1.1761">
        <ele>56.5</ele>
        <time>2012-12-08T08:58:58Z</time>
      </trkpt>
      <trkpt lat="49.42113" lon="1.17604">
        <ele>57.4</ele>
        <time>2012-12-08T08:59:01Z</time>
      </trkpt>
      <trkpt lat="49.42106" lon="1.17599">
        <ele>59.2</ele>
        <time>2012-12-08T08:59:04Z</time>
      </trkpt>
      <trkpt lat="49.42099" lon="1.17595">
        <ele>60.5</ele>
        <time>2012-12-08T08:59:07Z</time>
      </trkpt>
      <trkpt lat="49.42093" lon="1.17589">
        <ele>60.9</ele>
        <time>2012-12-08T08:59:10Z</time>
      </trkpt>
      <trkpt lat="49.42086" lon="1.17582">
        <ele>60.7</ele>
        <time>2012-12-08T08:59:13Z</time>
      </trkpt>
      <trkpt lat="49.4208" lon="1.17574">
        <ele>60.7</ele>
        <time>2012-12-08T08:59:16Z</time>
      </trkpt>
      <trkpt lat="49.42074" lon="1.17565">
        <ele>61.9</ele>
        <time>2012-12-08T08:59:19Z</time>
      </trkpt>
      <trkpt lat="49.42069" lon="1.17556">
        <ele>61</ele>
        <time>2012-12-08T08:59:22Z</time>
      </trkpt>
      <trkpt lat="49.42064" lon="1.17547">
        <ele>61.2</ele>
        <time>2012-12-08T08:59:25Z</time>
      </trkpt>
      <trkpt lat="49.42059" lon="1.17538">
        <ele>61.2</ele>
        <time>2012-12-08T08:59:28Z</time>
      </trkpt>
      <trkpt lat="49.42054" lon="1.17529">
        <ele>61.2</ele>
        <time>2012-12-08T08:59:31Z</time>
      </trkpt>
      <trkpt lat="49.42049" lon="1.17521">
        <ele>62</ele>
        <time>2012-12-08T08:59:34Z</time>
      </trkpt>
      <trkpt lat="49.42044" lon="1.17512">
        <ele>61.5</ele>
        <time>2012-12-08T08:59:37Z</time>
      </trkpt>
      <trkpt lat="49.42039" lon="1.17503">
        <ele>61.4</ele>
        <time>2012-12-08T08:59:40Z</time>
      </trkpt>
      <trkpt lat="49.42033" lon="1.17493">
        <ele>61.7</ele>
        <time>2012-12-08T08:59:44Z</time>
      </trkpt>
      <trkpt lat="49.42029" lon="1.17484">
        <ele>62.4</ele>
        <time>2012-12-08T08:59:47Z</time>
      </trkpt>
      <trkpt lat="49.42024" lon="1.17473">
        <ele>63.2</ele>
        <time>2012-12-08T08:59:51Z</time>
      </trkpt>
      <trkpt lat="49.42023" lon="1.17471">
        <ele>63.2</ele>
        <time>2012-12-08T08:59:52Z</time>
      </trkpt>
      <trkpt lat="49.42014" lon="1.17454">
        <ele>64.5</ele>
        <time>2012-12-08T08:59:59Z</time>
      </trkpt>
      <trkpt lat="49.42008" lon="1.17446">
        <ele>65.5</ele>
        <time>2012-12-08T09:00:02Z</time>
      </trkpt>
      <trkpt lat="49.42002" lon="1.17439">
        <ele>67</ele>
        <time>2012-12-08T09:00:05Z</time>
      </trkpt>
      <trkpt lat="49.41995" lon="1.17431">
        <ele>68.5</ele>
        <time>2012-12-08T09:00:09Z</time>
      </trkpt>
      <trkpt lat="49.41988" lon="1.17427">
        <ele>71.5</ele>
        <time>2012-12-08T09:00:14Z</time>
      </trkpt>
      <trkpt lat="49.41981" lon="1.1742">
        <ele>72</ele>
        <time>2012-12-08T09:00:41Z</time>
      </trkpt>
      <trkpt lat="49.41974" lon="1.17414">
        <ele>72</ele>
        <time>2012-12-08T09:00:49Z</time>
      </trkpt>
      <trkpt lat="49.41966" lon="1.17409">
        <ele>70.5</ele>
        <time>2012-12-08T09:00:55Z</time>
      </trkpt>
      <trkpt lat="49.41965" lon="1.17409">
        <ele>70.8</ele>
        <time>2012-12-08T09:00:56Z</time>
      </trkpt>
      <trkpt lat="49.4195" lon="1.17404">
        <ele>81</ele>
        <time>2012-12-08T09:01:07Z</time>
      </trkpt>
      <trkpt lat="49.41943" lon="1.17402">
        <ele>82.8</ele>
        <time>2012-12-08T09:01:12Z</time>
      </trkpt>
      <trkpt lat="49.41935" lon="1.17398">
        <ele>83.8</ele>
        <time>2012-12-08T09:01:17Z</time>
      </trkpt>
      <trkpt lat="49.41927" lon="1.17393">
        <ele>88</ele>
        <time>2012-12-08T09:01:24Z</time>
      </trkpt>
      <trkpt lat="49.41919" lon="1.1739">
        <ele>85.5</ele>
        <time>2012-12-08T09:01:31Z</time>
      </trkpt>
      <trkpt lat="49.4191" lon="1.17388">
        <ele>89.5</ele>
        <time>2012-12-08T09:01:38Z</time>
      </trkpt>
      <trkpt lat="49.41902" lon="1.17385">
        <ele>91.4</ele>
        <time>2012-12-08T09:01:45Z</time>
      </trkpt>
      <trkpt lat="49.41894" lon="1.1738">
        <ele>93.5</ele>
        <time>2012-12-08T09:01:52Z</time>
      </trkpt>
      <trkpt lat="49.41885" lon="1.17377">
        <ele>98.5</ele>
        <time>2012-12-08T09:02:00Z</time>
      </trkpt>
      <trkpt lat="49.41884" lon="1.17376">
        <ele>98.5</ele>
        <time>2012-12-08T09:02:01Z</time>
      </trkpt>
      <trkpt lat="49.4187" lon="1.17372">
        <ele>98.8</ele>
        <time>2012-12-08T09:02:14Z</time>
      </trkpt>
      <trkpt lat="49.41862" lon="1.17364">
        <ele>103.4</ele>
        <time>2012-12-08T09:02:22Z</time>
      </trkpt>
      <trkpt lat="49.41854" lon="1.17363">
        <ele>106</ele>
        <time>2012-12-08T09:02:29Z</time>
      </trkpt>
      <trkpt lat="49.41845" lon="1.1736">
        <ele>106.4</ele>
        <time>2012-12-08T09:02:39Z</time>
      </trkpt>
      <trkpt lat="49.41837" lon="1.17359">
        <ele>94</ele>
        <time>2012-12-08T09:03:12Z</time>
      </trkpt>
      <trkpt lat="49.41836" lon="1.17358">
        <ele>93.9</ele>
        <time>2012-12-08T09:03:13Z</time>
      </trkpt>
      <trkpt lat="49.41822" lon="1.1735">
        <ele>102.5</ele>
        <time>2012-12-08T09:03:30Z</time>
      </trkpt>
      <trkpt lat="49.41814" lon="1.17344">
        <ele>108.5</ele>
        <time>2012-12-08T09:03:37Z</time>
      </trkpt>
      <trkpt lat="49.41807" lon="1.1734">
        <ele>108.8</ele>
        <time>2012-12-08T09:03:44Z</time>
      </trkpt>
      <trkpt lat="49.41799" lon="1.17339">
        <ele>112</ele>
        <time>2012-12-08T09:03:52Z</time>
      </trkpt>
      <trkpt lat="49.41791" lon="1.17338">
        <ele>108.9</ele>
        <time>2012-12-08T09:03:57Z</time>
      </trkpt>
      <trkpt lat="49.41783" lon="1.17336">
        <ele>108.8</ele>
        <time>2012-12-08T09:04:03Z</time>
      </trkpt>
      <trkpt lat="49.41775" lon="1.17337">
        <ele>109.8</ele>
        <time>2012-12-08T09:04:20Z</time>
      </trkpt>
      <trkpt lat="49.41774" lon="1.17338">
        <ele>109.5</ele>
        <time>2012-12-08T09:04:21Z</time>
      </trkpt>
      <trkpt lat="49.41769" lon="1.17327">
        <ele>95.9</ele>
        <time>2012-12-08T09:06:11Z</time>
      </trkpt>
      <trkpt lat="49.4176" lon="1.17333">
        <ele>99.3</ele>
        <time>2012-12-08T09:07:36Z</time>
      </trkpt>
      <trkpt lat="49.41745" lon="1.17332">
        <ele>117.4</ele>
        <time>2012-12-08T09:07:54Z</time>
      </trkpt>
      <trkpt lat="49.41737" lon="1.1733">
        <ele>120.4</ele>
        <time>2012-12-08T09:08:01Z</time>
      </trkpt>
      <trkpt lat="49.4173" lon="1.17327">
        <ele>121.3</ele>
        <time>2012-12-08T09:08:06Z</time>
      </trkpt>
      <trkpt lat="49.41721" lon="1.17328">
        <ele>122</ele>
        <time>2012-12-08T09:08:12Z</time>
      </trkpt>
      <trkpt lat="49.41713" lon="1.17331">
        <ele>125.8</ele>
        <time>2012-12-08T09:08:21Z</time>
      </trkpt>
      <trkpt lat="49.41705" lon="1.17338">
        <ele>130.8</ele>
        <time>2012-12-08T09:08:29Z</time>
      </trkpt>
      <trkpt lat="49.41697" lon="1.17342">
        <ele>131.3</ele>
        <time>2012-12-08T09:08:36Z</time>
      </trkpt>
      <trkpt lat="49.41696" lon="1.17342">
        <ele>131.3</ele>
        <time>2012-12-08T09:08:37Z</time>
      </trkpt>
      <trkpt lat="49.41681" lon="1.1735">
        <ele>134.8</ele>
        <time>2012-12-08T09:08:52Z</time>
      </trkpt>
      <trkpt lat="49.41673" lon="1.17353">
        <ele>133.1</ele>
        <time>2012-12-08T09:08:58Z</time>
      </trkpt>
      <trkpt lat="49.41665" lon="1.17357">
        <ele>131.5</ele>
        <time>2012-12-08T09:09:04Z</time>
      </trkpt>
      <trkpt lat="49.41657" lon="1.17362">
        <ele>128.3</ele>
        <time>2012-12-08T09:09:11Z</time>
      </trkpt>
      <trkpt lat="49.41649" lon="1.17368">
        <ele>128.6</ele>
        <time>2012-12-08T09:09:20Z</time>
      </trkpt>
      <trkpt lat="49.41641" lon="1.17372">
        <ele>128</ele>
        <time>2012-12-08T09:09:30Z</time>
      </trkpt>
      <trkpt lat="49.41633" lon="1.17377">
        <ele>126</ele>
        <time>2012-12-08T09:09:37Z</time>
      </trkpt>
      <trkpt lat="49.41631" lon="1.17378">
        <ele>127</ele>
        <time>2012-12-08T09:09:38Z</time>
      </trkpt>
      <trkpt lat="49.41617" lon="1.17386">
        <ele>131.6</ele>
        <time>2012-12-08T09:09:49Z</time>
      </trkpt>
      <trkpt lat="49.4161" lon="1.17388">
        <ele>132.3</ele>
        <time>2012-12-08T09:09:54Z</time>
      </trkpt>
      <trkpt lat="49.41601" lon="1.1739">
        <ele>132.5</ele>
        <time>2012-12-08T09:09:59Z</time>
      </trkpt>
      <trkpt lat="49.41593" lon="1.17391">
        <ele>132.3</ele>
        <time>2012-12-08T09:10:04Z</time>
      </trkpt>
      <trkpt lat="49.41585" lon="1.17391">
        <ele>132.5</ele>
        <time>2012-12-08T09:10:08Z</time>
      </trkpt>
      <trkpt lat="49.41577" lon="1.17391">
        <ele>132.3</ele>
        <time>2012-12-08T09:10:12Z</time>
      </trkpt>
      <trkpt lat="49.41569" lon="1.1739">
        <ele>132.6</ele>
        <time>2012-12-08T09:10:16Z</time>
      </trkpt>
      <trkpt lat="49.41561" lon="1.17389">
        <ele>133.1</ele>
        <time>2012-12-08T09:10:20Z</time>
      </trkpt>
      <trkpt lat="49.41553" lon="1.17387">
        <ele>133.8</ele>
        <time>2012-12-08T09:10:24Z</time>
      </trkpt>
      <trkpt lat="49.41544" lon="1.17386">
        <ele>134.3</ele>
        <time>2012-12-08T09:10:28Z</time>
      </trkpt>
      <trkpt lat="49.41536" lon="1.17384">
        <ele>135</ele>
        <time>2012-12-08T09:10:33Z</time>
      </trkpt>
      <trkpt lat="49.41528" lon="1.17383">
        <ele>135.8</ele>
        <time>2012-12-08T09:10:39Z</time>
      </trkpt>
      <trkpt lat="49.41526" lon="1.17382">
        <ele>136.1</ele>
        <time>2012-12-08T09:10:40Z</time>
      </trkpt>
      <trkpt lat="49.41511" lon="1.17379">
        <ele>139.6</ele>
        <time>2012-12-08T09:10:54Z</time>
      </trkpt>
      <trkpt lat="49.41502" lon="1.17377">
        <ele>140.6</ele>
        <time>2012-12-08T09:11:03Z</time>
      </trkpt>
      <trkpt lat="49.41494" lon="1.17373">
        <ele>137.3</ele>
        <time>2012-12-08T09:13:18Z</time>
      </trkpt>
      <trkpt lat="49.41492" lon="1.17372">
        <ele>137.5</ele>
        <time>2012-12-08T09:13:19Z</time>
      </trkpt>
      <trkpt lat="49.41479" lon="1.17371">
        <ele>137.8</ele>
        <time>2012-12-08T09:13:25Z</time>
      </trkpt>
      <trkpt lat="49.41472" lon="1.1737">
        <ele>138.1</ele>
        <time>2012-12-08T09:13:28Z</time>
      </trkpt>
      <trkpt lat="49.41464" lon="1.1737">
        <ele>138.3</ele>
        <time>2012-12-08T09:13:31Z</time>
      </trkpt>
      <trkpt lat="49.41457" lon="1.17369">
        <ele>138.5</ele>
        <time>2012-12-08T09:13:34Z</time>
      </trkpt>
      <trkpt lat="49.41449" lon="1.17368">
        <ele>139</ele>
        <time>2012-12-08T09:13:38Z</time>
      </trkpt>
      <trkpt lat="49.4144" lon="1.17366">
        <ele>139.1</ele>
        <time>2012-12-08T09:13:43Z</time>
      </trkpt>
      <trkpt lat="49.41432" lon="1.17365">
        <ele>139.3</ele>
        <time>2012-12-08T09:13:46Z</time>
      </trkpt>
      <trkpt lat="49.41424" lon="1.17364">
        <ele>139.6</ele>
        <time>2012-12-08T09:13:49Z</time>
      </trkpt>
      <trkpt lat="49.41416" lon="1.17363">
        <ele>140.1</ele>
        <time>2012-12-08T09:13:52Z</time>
      </trkpt>
      <trkpt lat="49.41407" lon="1.17363">
        <ele>140.5</ele>
        <time>2012-12-08T09:13:55Z</time>
      </trkpt>
      <trkpt lat="49.41401" lon="1.17362">
        <ele>140.6</ele>
        <time>2012-12-08T09:13:57Z</time>
      </trkpt>
      <trkpt lat="49.41392" lon="1.17362">
        <ele>141.1</ele>
        <time>2012-12-08T09:14:00Z</time>
      </trkpt>
      <trkpt lat="49.41384" lon="1.17361">
        <ele>141.5</ele>
        <time>2012-12-08T09:14:03Z</time>
      </trkpt>
      <trkpt lat="49.41375" lon="1.17361">
        <ele>141.8</ele>
        <time>2012-12-08T09:14:06Z</time>
      </trkpt>
      <trkpt lat="49.41367" lon="1.1736">
        <ele>142</ele>
        <time>2012-12-08T09:14:09Z</time>
      </trkpt>
      <trkpt lat="49.41358" lon="1.1736">
        <ele>142.1</ele>
        <time>2012-12-08T09:14:12Z</time>
      </trkpt>
      <trkpt lat="49.41349" lon="1.17359">
        <ele>142.6</ele>
        <time>2012-12-08T09:14:15Z</time>
      </trkpt>
      <trkpt lat="49.4134" lon="1.17359">
        <ele>143.1</ele>
        <time>2012-12-08T09:14:18Z</time>
      </trkpt>
      <trkpt lat="49.41332" lon="1.17359">
        <ele>143.6</ele>
        <time>2012-12-08T09:14:21Z</time>
      </trkpt>
      <trkpt lat="49.41329" lon="1.17359">
        <ele>143.8</ele>
        <time>2012-12-08T09:14:22Z</time>
      </trkpt>
      <trkpt lat="49.4132" lon="1.17359">
        <ele>144.1</ele>
        <time>2012-12-08T09:14:25Z</time>
      </trkpt>
      <trkpt lat="49.41312" lon="1.17358">
        <ele>144.3</ele>
        <time>2012-12-08T09:14:28Z</time>
      </trkpt>
      <trkpt lat="49.41303" lon="1.17357">
        <ele>144.1</ele>
        <time>2012-12-08T09:14:31Z</time>
      </trkpt>
      <trkpt lat="49.41295" lon="1.17357">
        <ele>144.1</ele>
        <time>2012-12-08T09:14:34Z</time>
      </trkpt>
      <trkpt lat="49.41288" lon="1.17357">
        <ele>144.3</ele>
        <time>2012-12-08T09:14:37Z</time>
      </trkpt>
      <trkpt lat="49.4128" lon="1.17356">
        <ele>144.8</ele>
        <time>2012-12-08T09:14:40Z</time>
      </trkpt>
      <trkpt lat="49.41273" lon="1.17356">
        <ele>146.1</ele>
        <time>2012-12-08T09:14:43Z</time>
      </trkpt>
      <trkpt lat="49.41266" lon="1.17355">
        <ele>147.1</ele>
        <time>2012-12-08T09:14:46Z</time>
      </trkpt>
      <trkpt lat="49.41258" lon="1.17353">
        <ele>148.3</ele>
        <time>2012-12-08T09:14:49Z</time>
      </trkpt>
      <trkpt lat="49.41251" lon="1.17351">
        <ele>148.3</ele>
        <time>2012-12-08T09:14:52Z</time>
      </trkpt>
      <trkpt lat="49.41244" lon="1.17348">
        <ele>148.3</ele>
        <time>2012-12-08T09:14:55Z</time>
      </trkpt>
      <trkpt lat="49.41236" lon="1.17347">
        <ele>148.5</ele>
        <time>2012-12-08T09:14:58Z</time>
      </trkpt>
      <trkpt lat="49.41228" lon="1.17347">
        <ele>148.6</ele>
        <time>2012-12-08T09:15:01Z</time>
      </trkpt>
      <trkpt lat="49.41221" lon="1.17348">
        <ele>149.6</ele>
        <time>2012-12-08T09:15:04Z</time>
      </trkpt>
      <trkpt lat="49.41213" lon="1.17347">
        <ele>150.3</ele>
        <time>2012-12-08T09:15:07Z</time>
      </trkpt>
      <trkpt lat="49.41206" lon="1.17345">
        <ele>150.8</ele>
        <time>2012-12-08T09:15:10Z</time>
      </trkpt>
      <trkpt lat="49.41198" lon="1.17342">
        <ele>151.1</ele>
        <time>2012-12-08T09:15:13Z</time>
      </trkpt>
      <trkpt lat="49.4119" lon="1.17339">
        <ele>151.1</ele>
        <time>2012-12-08T09:15:16Z</time>
      </trkpt>
      <trkpt lat="49.41182" lon="1.17334">
        <ele>150.8</ele>
        <time>2012-12-08T09:15:19Z</time>
      </trkpt>
      <trkpt lat="49.41175" lon="1.17329">
        <ele>150.8</ele>
        <time>2012-12-08T09:15:22Z</time>
      </trkpt>
      <trkpt lat="49.41172" lon="1.17327">
        <ele>150.8</ele>
        <time>2012-12-08T09:15:23Z</time>
      </trkpt>
      <trkpt lat="49.4116" lon="1.17318">
        <ele>151</ele>
        <time>2012-12-08T09:15:28Z</time>
      </trkpt>
      <trkpt lat="49.41153" lon="1.17313">
        <ele>151.3</ele>
        <time>2012-12-08T09:15:31Z</time>
      </trkpt>
      <trkpt lat="49.41146" lon="1.17308">
        <ele>151.8</ele>
        <time>2012-12-08T09:15:34Z</time>
      </trkpt>
      <trkpt lat="49.41139" lon="1.17302">
        <ele>151.8</ele>
        <time>2012-12-08T09:15:37Z</time>
      </trkpt>
      <trkpt lat="49.41132" lon="1.17297">
        <ele>151.8</ele>
        <time>2012-12-08T09:15:40Z</time>
      </trkpt>
      <trkpt lat="49.41124" lon="1.17291">
        <ele>152.1</ele>
        <time>2012-12-08T09:15:43Z</time>
      </trkpt>
      <trkpt lat="49.41117" lon="1.17287">
        <ele>152.3</ele>
        <time>2012-12-08T09:15:46Z</time>
      </trkpt>
      <trkpt lat="49.4111" lon="1.17282">
        <ele>153.1</ele>
        <time>2012-12-08T09:15:49Z</time>
      </trkpt>
      <trkpt lat="49.41102" lon="1.17277">
        <ele>153.6</ele>
        <time>2012-12-08T09:15:52Z</time>
      </trkpt>
      <trkpt lat="49.41097" lon="1.17273">
        <ele>153.8</ele>
        <time>2012-12-08T09:15:54Z</time>
      </trkpt>
      <trkpt lat="49.41089" lon="1.17267">
        <ele>154.1</ele>
        <time>2012-12-08T09:15:57Z</time>
      </trkpt>
      <trkpt lat="49.41081" lon="1.17262">
        <ele>154.3</ele>
        <time>2012-12-08T09:16:00Z</time>
      </trkpt>
      <trkpt lat="49.41073" lon="1.17257">
        <ele>154.6</ele>
        <time>2012-12-08T09:16:03Z</time>
      </trkpt>
      <trkpt lat="49.41066" lon="1.17252">
        <ele>155.1</ele>
        <time>2012-12-08T09:16:06Z</time>
      </trkpt>
      <trkpt lat="49.41057" lon="1.17252">
        <ele>156.3</ele>
        <time>2012-12-08T09:16:10Z</time>
      </trkpt>
      <trkpt lat="49.41051" lon="1.17261">
        <ele>157.6</ele>
        <time>2012-12-08T09:16:14Z</time>
      </trkpt>
      <trkpt lat="49.41044" lon="1.1727">
        <ele>158.8</ele>
        <time>2012-12-08T09:16:18Z</time>
      </trkpt>
      <trkpt lat="49.41039" lon="1.17278">
        <ele>159.3</ele>
        <time>2012-12-08T09:16:21Z</time>
      </trkpt>
      <trkpt lat="49.41034" lon="1.17285">
        <ele>159.6</ele>
        <time>2012-12-08T09:16:24Z</time>
      </trkpt>
      <trkpt lat="49.41032" lon="1.17288">
        <ele>159.6</ele>
        <time>2012-12-08T09:16:25Z</time>
      </trkpt>
      <trkpt lat="49.41021" lon="1.17302">
        <ele>159.6</ele>
        <time>2012-12-08T09:16:30Z</time>
      </trkpt>
      <trkpt lat="49.41017" lon="1.17309">
        <ele>159.5</ele>
        <time>2012-12-08T09:16:32Z</time>
      </trkpt>
      <trkpt lat="49.41012" lon="1.17315">
        <ele>159.3</ele>
        <time>2012-12-08T09:16:34Z</time>
      </trkpt>
      <trkpt lat="49.41007" lon="1.17322">
        <ele>159</ele>
        <time>2012-12-08T09:16:36Z</time>
      </trkpt>
      <trkpt lat="49.41002" lon="1.17328">
        <ele>158.8</ele>
        <time>2012-12-08T09:16:38Z</time>
      </trkpt>
      <trkpt lat="49.40997" lon="1.17335">
        <ele>158.3</ele>
        <time>2012-12-08T09:16:40Z</time>
      </trkpt>
      <trkpt lat="49.40992" lon="1.1734">
        <ele>158.1</ele>
        <time>2012-12-08T09:16:42Z</time>
      </trkpt>
      <trkpt lat="49.40987" lon="1.17346">
        <ele>158.1</ele>
        <time>2012-12-08T09:16:44Z</time>
      </trkpt>
      <trkpt lat="49.40981" lon="1.17353">
        <ele>158</ele>
        <time>2012-12-08T09:16:46Z</time>
      </trkpt>
      <trkpt lat="49.40976" lon="1.17359">
        <ele>158.1</ele>
        <time>2012-12-08T09:16:48Z</time>
      </trkpt>
      <trkpt lat="49.40971" lon="1.17365">
        <ele>158.3</ele>
        <time>2012-12-08T09:16:50Z</time>
      </trkpt>
      <trkpt lat="49.40966" lon="1.17371">
        <ele>158.3</ele>
        <time>2012-12-08T09:16:52Z</time>
      </trkpt>
      <trkpt lat="49.40961" lon="1.17378">
        <ele>158.1</ele>
        <time>2012-12-08T09:16:54Z</time>
      </trkpt>
      <trkpt lat="49.40956" lon="1.17384">
        <ele>158.5</ele>
        <time>2012-12-08T09:16:56Z</time>
      </trkpt>
      <trkpt lat="49.40952" lon="1.17391">
        <ele>158.8</ele>
        <time>2012-12-08T09:16:58Z</time>
      </trkpt>
      <trkpt lat="49.40947" lon="1.17397">
        <ele>158.6</ele>
        <time>2012-12-08T09:17:00Z</time>
      </trkpt>
      <trkpt lat="49.40942" lon="1.17404">
        <ele>158.3</ele>
        <time>2012-12-08T09:17:02Z</time>
      </trkpt>
      <trkpt lat="49.40936" lon="1.1741">
        <ele>158.3</ele>
        <time>2012-12-08T09:17:04Z</time>
      </trkpt>
      <trkpt lat="49.40931" lon="1.17417">
        <ele>158.1</ele>
        <time>2012-12-08T09:17:06Z</time>
      </trkpt>
      <trkpt lat="49.40926" lon="1.17423">
        <ele>158.1</ele>
        <time>2012-12-08T09:17:08Z</time>
      </trkpt>
      <trkpt lat="49.4092" lon="1.1743">
        <ele>157.6</ele>
        <time>2012-12-08T09:17:10Z</time>
      </trkpt>
      <trkpt lat="49.40914" lon="1.17437">
        <ele>157.3</ele>
        <time>2012-12-08T09:17:12Z</time>
      </trkpt>
      <trkpt lat="49.40908" lon="1.17446">
        <ele>158.8</ele>
        <time>2012-12-08T09:17:15Z</time>
      </trkpt>
      <trkpt lat="49.40902" lon="1.17453">
        <ele>158.8</ele>
        <time>2012-12-08T09:17:18Z</time>
      </trkpt>
      <trkpt lat="49.40896" lon="1.17461">
        <ele>159.3</ele>
        <time>2012-12-08T09:17:21Z</time>
      </trkpt>
      <trkpt lat="49.4089" lon="1.17469">
        <ele>160.6</ele>
        <time>2012-12-08T09:17:24Z</time>
      </trkpt>
      <trkpt lat="49.40884" lon="1.17478">
        <ele>161.6</ele>
        <time>2012-12-08T09:17:27Z</time>
      </trkpt>
      <trkpt lat="49.40882" lon="1.17481">
        <ele>162.1</ele>
        <time>2012-12-08T09:17:28Z</time>
      </trkpt>
      <trkpt lat="49.4087" lon="1.17495">
        <ele>163.1</ele>
        <time>2012-12-08T09:17:33Z</time>
      </trkpt>
      <trkpt lat="49.40864" lon="1.17504">
        <ele>162.8</ele>
        <time>2012-12-08T09:17:36Z</time>
      </trkpt>
      <trkpt lat="49.40859" lon="1.17511">
        <ele>162.8</ele>
        <time>2012-12-08T09:17:38Z</time>
      </trkpt>
      <trkpt lat="49.40854" lon="1.17517">
        <ele>163.1</ele>
        <time>2012-12-08T09:17:40Z</time>
      </trkpt>
      <trkpt lat="49.40847" lon="1.17526">
        <ele>163.5</ele>
        <time>2012-12-08T09:17:43Z</time>
      </trkpt>
      <trkpt lat="49.40843" lon="1.17533">
        <ele>164</ele>
        <time>2012-12-08T09:17:45Z</time>
      </trkpt>
      <trkpt lat="49.40838" lon="1.17539">
        <ele>164.1</ele>
        <time>2012-12-08T09:17:47Z</time>
      </trkpt>
      <trkpt lat="49.40834" lon="1.17546">
        <ele>164.1</ele>
        <time>2012-12-08T09:17:49Z</time>
      </trkpt>
      <trkpt lat="49.40829" lon="1.17552">
        <ele>164.3</ele>
        <time>2012-12-08T09:17:51Z</time>
      </trkpt>
      <trkpt lat="49.40824" lon="1.17559">
        <ele>164.6</ele>
        <time>2012-12-08T09:17:53Z</time>
      </trkpt>
      <trkpt lat="49.4082" lon="1.17565">
        <ele>164.8</ele>
        <time>2012-12-08T09:17:55Z</time>
      </trkpt>
      <trkpt lat="49.40815" lon="1.17572">
        <ele>165</ele>
        <time>2012-12-08T09:17:57Z</time>
      </trkpt>
      <trkpt lat="49.4081" lon="1.17578">
        <ele>165.1</ele>
        <time>2012-12-08T09:17:59Z</time>
      </trkpt>
      <trkpt lat="49.40804" lon="1.17585">
        <ele>165.5</ele>
        <time>2012-12-08T09:18:01Z</time>
      </trkpt>
      <trkpt lat="49.40799" lon="1.17592">
        <ele>165.6</ele>
        <time>2012-12-08T09:18:03Z</time>
      </trkpt>
      <trkpt lat="49.40794" lon="1.17599">
        <ele>165.6</ele>
        <time>2012-12-08T09:18:05Z</time>
      </trkpt>
      <trkpt lat="49.40789" lon="1.17606">
        <ele>166.1</ele>
        <time>2012-12-08T09:18:07Z</time>
      </trkpt>
      <trkpt lat="49.40784" lon="1.17614">
        <ele>165.5</ele>
        <time>2012-12-08T09:18:09Z</time>
      </trkpt>
      <trkpt lat="49.40778" lon="1.17622">
        <ele>165.1</ele>
        <time>2012-12-08T09:18:11Z</time>
      </trkpt>
      <trkpt lat="49.40773" lon="1.17629">
        <ele>165.1</ele>
        <time>2012-12-08T09:18:13Z</time>
      </trkpt>
      <trkpt lat="49.40768" lon="1.17637">
        <ele>165.1</ele>
        <time>2012-12-08T09:18:15Z</time>
      </trkpt>
      <trkpt lat="49.40763" lon="1.17643">
        <ele>165.3</ele>
        <time>2012-12-08T09:18:17Z</time>
      </trkpt>
      <trkpt lat="49.40756" lon="1.17649">
        <ele>164.8</ele>
        <time>2012-12-08T09:18:20Z</time>
      </trkpt>
      <trkpt lat="49.40749" lon="1.17647">
        <ele>164.8</ele>
        <time>2012-12-08T09:18:23Z</time>
      </trkpt>
      <trkpt lat="49.4074" lon="1.17645">
        <ele>164.1</ele>
        <time>2012-12-08T09:18:26Z</time>
      </trkpt>
      <trkpt lat="49.40735" lon="1.17641">
        <ele>163.8</ele>
        <time>2012-12-08T09:18:28Z</time>
      </trkpt>
      <trkpt lat="49.40732" lon="1.17638">
        <ele>163.6</ele>
        <time>2012-12-08T09:18:29Z</time>
      </trkpt>
      <trkpt lat="49.40723" lon="1.17632">
        <ele>163.1</ele>
        <time>2012-12-08T09:18:32Z</time>
      </trkpt>
      <trkpt lat="49.40718" lon="1.17627">
        <ele>163</ele>
        <time>2012-12-08T09:18:34Z</time>
      </trkpt>
      <trkpt lat="49.40712" lon="1.17622">
        <ele>162.8</ele>
        <time>2012-12-08T09:18:36Z</time>
      </trkpt>
      <trkpt lat="49.40707" lon="1.17618">
        <ele>162.8</ele>
        <time>2012-12-08T09:18:38Z</time>
      </trkpt>
      <trkpt lat="49.40699" lon="1.17613">
        <ele>162.8</ele>
        <time>2012-12-08T09:18:41Z</time>
      </trkpt>
      <trkpt lat="49.40692" lon="1.1761">
        <ele>162.8</ele>
        <time>2012-12-08T09:18:44Z</time>
      </trkpt>
      <trkpt lat="49.40686" lon="1.17614">
        <ele>162.8</ele>
        <time>2012-12-08T09:18:47Z</time>
      </trkpt>
      <trkpt lat="49.40683" lon="1.17622">
        <ele>162.6</ele>
        <time>2012-12-08T09:18:49Z</time>
      </trkpt>
      <trkpt lat="49.40679" lon="1.1763">
        <ele>162.6</ele>
        <time>2012-12-08T09:18:51Z</time>
      </trkpt>
      <trkpt lat="49.40677" lon="1.1764">
        <ele>162.1</ele>
        <time>2012-12-08T09:18:53Z</time>
      </trkpt>
      <trkpt lat="49.40673" lon="1.17649">
        <ele>161.6</ele>
        <time>2012-12-08T09:18:55Z</time>
      </trkpt>
      <trkpt lat="49.40671" lon="1.17658">
        <ele>161.1</ele>
        <time>2012-12-08T09:18:57Z</time>
      </trkpt>
      <trkpt lat="49.40668" lon="1.17668">
        <ele>160.8</ele>
        <time>2012-12-08T09:18:59Z</time>
      </trkpt>
      <trkpt lat="49.40666" lon="1.17679">
        <ele>160.3</ele>
        <time>2012-12-08T09:19:01Z</time>
      </trkpt>
      <trkpt lat="49.40663" lon="1.17689">
        <ele>160</ele>
        <time>2012-12-08T09:19:03Z</time>
      </trkpt>
      <trkpt lat="49.40661" lon="1.17698">
        <ele>159.6</ele>
        <time>2012-12-08T09:19:05Z</time>
      </trkpt>
      <trkpt lat="49.40659" lon="1.17707">
        <ele>158.8</ele>
        <time>2012-12-08T09:19:07Z</time>
      </trkpt>
      <trkpt lat="49.40657" lon="1.17716">
        <ele>158.1</ele>
        <time>2012-12-08T09:19:09Z</time>
      </trkpt>
      <trkpt lat="49.40654" lon="1.17727">
        <ele>157.3</ele>
        <time>2012-12-08T09:19:11Z</time>
      </trkpt>
      <trkpt lat="49.40652" lon="1.17737">
        <ele>156.3</ele>
        <time>2012-12-08T09:19:13Z</time>
      </trkpt>
      <trkpt lat="49.40649" lon="1.17746">
        <ele>155.8</ele>
        <time>2012-12-08T09:19:15Z</time>
      </trkpt>
      <trkpt lat="49.40647" lon="1.17756">
        <ele>155.8</ele>
        <time>2012-12-08T09:19:17Z</time>
      </trkpt>
      <trkpt lat="49.40645" lon="1.17765">
        <ele>155.3</ele>
        <time>2012-12-08T09:19:19Z</time>
      </trkpt>
      <trkpt lat="49.40642" lon="1.17778">
        <ele>154.5</ele>
        <time>2012-12-08T09:19:22Z</time>
      </trkpt>
      <trkpt lat="49.40639" lon="1.1779">
        <ele>155.1</ele>
        <time>2012-12-08T09:19:25Z</time>
      </trkpt>
      <trkpt lat="49.40635" lon="1.17802">
        <ele>155.3</ele>
        <time>2012-12-08T09:19:28Z</time>
      </trkpt>
      <trkpt lat="49.40633" lon="1.17812">
        <ele>155.8</ele>
        <time>2012-12-08T09:19:30Z</time>
      </trkpt>
      <trkpt lat="49.40632" lon="1.17817">
        <ele>155.8</ele>
        <time>2012-12-08T09:19:31Z</time>
      </trkpt>
      <trkpt lat="49.40628" lon="1.17832">
        <ele>156</ele>
        <time>2012-12-08T09:19:34Z</time>
      </trkpt>
      <trkpt lat="49.40624" lon="1.17844">
        <ele>155.8</ele>
        <time>2012-12-08T09:19:36Z</time>
      </trkpt>
      <trkpt lat="49.40622" lon="1.17854">
        <ele>155.8</ele>
        <time>2012-12-08T09:19:38Z</time>
      </trkpt>
      <trkpt lat="49.40619" lon="1.17865">
        <ele>156.8</ele>
        <time>2012-12-08T09:19:40Z</time>
      </trkpt>
      <trkpt lat="49.40616" lon="1.17875">
        <ele>158.1</ele>
        <time>2012-12-08T09:19:42Z</time>
      </trkpt>
      <trkpt lat="49.40613" lon="1.17885">
        <ele>159</ele>
        <time>2012-12-08T09:19:44Z</time>
      </trkpt>
      <trkpt lat="49.40609" lon="1.17896">
        <ele>159.6</ele>
        <time>2012-12-08T09:19:46Z</time>
      </trkpt>
      <trkpt lat="49.40606" lon="1.17905">
        <ele>159.8</ele>
        <time>2012-12-08T09:19:48Z</time>
      </trkpt>
      <trkpt lat="49.40603" lon="1.17915">
        <ele>159.6</ele>
        <time>2012-12-08T09:19:50Z</time>
      </trkpt>
      <trkpt lat="49.40599" lon="1.17924">
        <ele>159.3</ele>
        <time>2012-12-08T09:19:52Z</time>
      </trkpt>
      <trkpt lat="49.40596" lon="1.17933">
        <ele>159.1</ele>
        <time>2012-12-08T09:19:54Z</time>
      </trkpt>
      <trkpt lat="49.40593" lon="1.17942">
        <ele>159.3</ele>
        <time>2012-12-08T09:19:56Z</time>
      </trkpt>
      <trkpt lat="49.40591" lon="1.17952">
        <ele>159.1</ele>
        <time>2012-12-08T09:19:58Z</time>
      </trkpt>
      <trkpt lat="49.40587" lon="1.17962">
        <ele>158.6</ele>
        <time>2012-12-08T09:20:00Z</time>
      </trkpt>
      <trkpt lat="49.40585" lon="1.17971">
        <ele>158.8</ele>
        <time>2012-12-08T09:20:02Z</time>
      </trkpt>
      <trkpt lat="49.40582" lon="1.17982">
        <ele>159.6</ele>
        <time>2012-12-08T09:20:04Z</time>
      </trkpt>
      <trkpt lat="49.40579" lon="1.17993">
        <ele>160</ele>
        <time>2012-12-08T09:20:06Z</time>
      </trkpt>
      <trkpt lat="49.40575" lon="1.18004">
        <ele>159.8</ele>
        <time>2012-12-08T09:20:08Z</time>
      </trkpt>
      <trkpt lat="49.40571" lon="1.18015">
        <ele>159.6</ele>
        <time>2012-12-08T09:20:10Z</time>
      </trkpt>
      <trkpt lat="49.40567" lon="1.18026">
        <ele>159.3</ele>
        <time>2012-12-08T09:20:12Z</time>
      </trkpt>
      <trkpt lat="49.40564" lon="1.18036">
        <ele>159.3</ele>
        <time>2012-12-08T09:20:14Z</time>
      </trkpt>
      <trkpt lat="49.4056" lon="1.18047">
        <ele>159</ele>
        <time>2012-12-08T09:20:16Z</time>
      </trkpt>
      <trkpt lat="49.40556" lon="1.18058">
        <ele>158.8</ele>
        <time>2012-12-08T09:20:18Z</time>
      </trkpt>
      <trkpt lat="49.40552" lon="1.18069">
        <ele>158.8</ele>
        <time>2012-12-08T09:20:20Z</time>
      </trkpt>
      <trkpt lat="49.40548" lon="1.1808">
        <ele>158.3</ele>
        <time>2012-12-08T09:20:22Z</time>
      </trkpt>
      <trkpt lat="49.40544" lon="1.18091">
        <ele>158</ele>
        <time>2012-12-08T09:20:24Z</time>
      </trkpt>
      <trkpt lat="49.40541" lon="1.18102">
        <ele>158</ele>
        <time>2012-12-08T09:20:26Z</time>
      </trkpt>
      <trkpt lat="49.40537" lon="1.18113">
        <ele>157.8</ele>
        <time>2012-12-08T09:20:28Z</time>
      </trkpt>
      <trkpt lat="49.40534" lon="1.18125">
        <ele>157.3</ele>
        <time>2012-12-08T09:20:30Z</time>
      </trkpt>
      <trkpt lat="49.40531" lon="1.18137">
        <ele>157.1</ele>
        <time>2012-12-08T09:20:32Z</time>
      </trkpt>
      <trkpt lat="49.40529" lon="1.18143">
        <ele>156.8</ele>
        <time>2012-12-08T09:20:33Z</time>
      </trkpt>
      <trkpt lat="49.40524" lon="1.18161">
        <ele>156.6</ele>
        <time>2012-12-08T09:20:36Z</time>
      </trkpt>
      <trkpt lat="49.40521" lon="1.18172">
        <ele>156.8</ele>
        <time>2012-12-08T09:20:38Z</time>
      </trkpt>
      <trkpt lat="49.40519" lon="1.18183">
        <ele>156.8</ele>
        <time>2012-12-08T09:20:40Z</time>
      </trkpt>
      <trkpt lat="49.40516" lon="1.18195">
        <ele>156.3</ele>
        <time>2012-12-08T09:20:42Z</time>
      </trkpt>
      <trkpt lat="49.40514" lon="1.18207">
        <ele>156.3</ele>
        <time>2012-12-08T09:20:44Z</time>
      </trkpt>
      <trkpt lat="49.40512" lon="1.18219">
        <ele>156.1</ele>
        <time>2012-12-08T09:20:46Z</time>
      </trkpt>
      <trkpt lat="49.4051" lon="1.1823">
        <ele>156.3</ele>
        <time>2012-12-08T09:20:48Z</time>
      </trkpt>
      <trkpt lat="49.40508" lon="1.18243">
        <ele>156.3</ele>
        <time>2012-12-08T09:20:50Z</time>
      </trkpt>
      <trkpt lat="49.40506" lon="1.18256">
        <ele>156.5</ele>
        <time>2012-12-08T09:20:52Z</time>
      </trkpt>
      <trkpt lat="49.40504" lon="1.18268">
        <ele>156.6</ele>
        <time>2012-12-08T09:20:54Z</time>
      </trkpt>
      <trkpt lat="49.40502" lon="1.1828">
        <ele>156.8</ele>
        <time>2012-12-08T09:20:56Z</time>
      </trkpt>
      <trkpt lat="49.405" lon="1.18292">
        <ele>156.8</ele>
        <time>2012-12-08T09:20:58Z</time>
      </trkpt>
      <trkpt lat="49.40499" lon="1.18302">
        <ele>157.5</ele>
        <time>2012-12-08T09:21:00Z</time>
      </trkpt>
      <trkpt lat="49.40498" lon="1.18312">
        <ele>158.1</ele>
        <time>2012-12-08T09:21:02Z</time>
      </trkpt>
      <trkpt lat="49.40493" lon="1.18323">
        <ele>159.3</ele>
        <time>2012-12-08T09:21:06Z</time>
      </trkpt>
      <trkpt lat="49.40485" lon="1.18322">
        <ele>160.3</ele>
        <time>2012-12-08T09:21:09Z</time>
      </trkpt>
      <trkpt lat="49.40479" lon="1.1832">
        <ele>161.1</ele>
        <time>2012-12-08T09:21:11Z</time>
      </trkpt>
      <trkpt lat="49.40472" lon="1.18317">
        <ele>161.8</ele>
        <time>2012-12-08T09:21:13Z</time>
      </trkpt>
      <trkpt lat="49.40465" lon="1.18314">
        <ele>162.5</ele>
        <time>2012-12-08T09:21:15Z</time>
      </trkpt>
      <trkpt lat="49.40457" lon="1.1831">
        <ele>163.3</ele>
        <time>2012-12-08T09:21:17Z</time>
      </trkpt>
      <trkpt lat="49.40451" lon="1.18307">
        <ele>165.6</ele>
        <time>2012-12-08T09:21:19Z</time>
      </trkpt>
      <trkpt lat="49.40443" lon="1.18303">
        <ele>165.8</ele>
        <time>2012-12-08T09:21:21Z</time>
      </trkpt>
      <trkpt lat="49.40436" lon="1.18299">
        <ele>165.6</ele>
        <time>2012-12-08T09:21:23Z</time>
      </trkpt>
      <trkpt lat="49.40428" lon="1.18295">
        <ele>165.1</ele>
        <time>2012-12-08T09:21:25Z</time>
      </trkpt>
      <trkpt lat="49.40424" lon="1.18293">
        <ele>164.8</ele>
        <time>2012-12-08T09:21:26Z</time>
      </trkpt>
      <trkpt lat="49.40415" lon="1.18288">
        <ele>164.3</ele>
        <time>2012-12-08T09:21:28Z</time>
      </trkpt>
      <trkpt lat="49.40407" lon="1.18283">
        <ele>163.8</ele>
        <time>2012-12-08T09:21:30Z</time>
      </trkpt>
      <trkpt lat="49.40403" lon="1.18281">
        <ele>163.6</ele>
        <time>2012-12-08T09:21:31Z</time>
      </trkpt>
      <trkpt lat="49.40394" lon="1.18277">
        <ele>162.8</ele>
        <time>2012-12-08T09:21:33Z</time>
      </trkpt>
      <trkpt lat="49.4039" lon="1.18274">
        <ele>162.6</ele>
        <time>2012-12-08T09:21:34Z</time>
      </trkpt>
      <trkpt lat="49.40386" lon="1.18272">
        <ele>162.6</ele>
        <time>2012-12-08T09:21:35Z</time>
      </trkpt>
      <trkpt lat="49.40381" lon="1.18269">
        <ele>162.6</ele>
        <time>2012-12-08T09:21:36Z</time>
      </trkpt>
      <trkpt lat="49.40377" lon="1.18267">
        <ele>162.6</ele>
        <time>2012-12-08T09:21:37Z</time>
      </trkpt>
      <trkpt lat="49.40373" lon="1.18265">
        <ele>162.3</ele>
        <time>2012-12-08T09:21:38Z</time>
      </trkpt>
      <trkpt lat="49.40365" lon="1.1826">
        <ele>162.1</ele>
        <time>2012-12-08T09:21:40Z</time>
      </trkpt>
      <trkpt lat="49.40358" lon="1.18256">
        <ele>162.3</ele>
        <time>2012-12-08T09:21:42Z</time>
      </trkpt>
      <trkpt lat="49.40352" lon="1.18252">
        <ele>161.8</ele>
        <time>2012-12-08T09:21:44Z</time>
      </trkpt>
      <trkpt lat="49.40344" lon="1.18248">
        <ele>162</ele>
        <time>2012-12-08T09:21:46Z</time>
      </trkpt>
      <trkpt lat="49.4034" lon="1.18245">
        <ele>162.1</ele>
        <time>2012-12-08T09:21:47Z</time>
      </trkpt>
      <trkpt lat="49.40336" lon="1.18242">
        <ele>161.8</ele>
        <time>2012-12-08T09:21:48Z</time>
      </trkpt>
      <trkpt lat="49.40331" lon="1.18239">
        <ele>162.1</ele>
        <time>2012-12-08T09:21:49Z</time>
      </trkpt>
      <trkpt lat="49.40323" lon="1.18234">
        <ele>161.8</ele>
        <time>2012-12-08T09:21:51Z</time>
      </trkpt>
      <trkpt lat="49.40315" lon="1.18229">
        <ele>161.3</ele>
        <time>2012-12-08T09:21:53Z</time>
      </trkpt>
      <trkpt lat="49.40309" lon="1.18225">
        <ele>160.8</ele>
        <time>2012-12-08T09:21:55Z</time>
      </trkpt>
      <trkpt lat="49.40303" lon="1.18222">
        <ele>160.3</ele>
        <time>2012-12-08T09:21:57Z</time>
      </trkpt>
      <trkpt lat="49.40296" lon="1.18225">
        <ele>159.3</ele>
        <time>2012-12-08T09:21:59Z</time>
      </trkpt>
      <trkpt lat="49.40291" lon="1.18235">
        <ele>158.8</ele>
        <time>2012-12-08T09:22:01Z</time>
      </trkpt>
      <trkpt lat="49.40288" lon="1.18248">
        <ele>158.1</ele>
        <time>2012-12-08T09:22:03Z</time>
      </trkpt>
      <trkpt lat="49.40285" lon="1.18261">
        <ele>157.8</ele>
        <time>2012-12-08T09:22:05Z</time>
      </trkpt>
      <trkpt lat="49.40282" lon="1.18272">
        <ele>156.8</ele>
        <time>2012-12-08T09:22:07Z</time>
      </trkpt>
      <trkpt lat="49.40275" lon="1.1828">
        <ele>156.1</ele>
        <time>2012-12-08T09:22:13Z</time>
      </trkpt>
      <trkpt lat="49.40268" lon="1.18276">
        <ele>156</ele>
        <time>2012-12-08T09:22:19Z</time>
      </trkpt>
      <trkpt lat="49.40262" lon="1.18272">
        <ele>156</ele>
        <time>2012-12-08T09:22:21Z</time>
      </trkpt>
      <trkpt lat="49.40255" lon="1.18267">
        <ele>155.8</ele>
        <time>2012-12-08T09:22:23Z</time>
      </trkpt>
      <trkpt lat="49.40247" lon="1.18261">
        <ele>155.6</ele>
        <time>2012-12-08T09:22:25Z</time>
      </trkpt>
      <trkpt lat="49.40239" lon="1.18256">
        <ele>155.1</ele>
        <time>2012-12-08T09:22:27Z</time>
      </trkpt>
      <trkpt lat="49.40231" lon="1.1825">
        <ele>155.5</ele>
        <time>2012-12-08T09:22:29Z</time>
      </trkpt>
      <trkpt lat="49.40223" lon="1.18245">
        <ele>156.3</ele>
        <time>2012-12-08T09:22:31Z</time>
      </trkpt>
      <trkpt lat="49.40216" lon="1.18239">
        <ele>156.3</ele>
        <time>2012-12-08T09:22:33Z</time>
      </trkpt>
      <trkpt lat="49.40212" lon="1.18236">
        <ele>156.1</ele>
        <time>2012-12-08T09:22:34Z</time>
      </trkpt>
      <trkpt lat="49.40207" lon="1.18233">
        <ele>156.3</ele>
        <time>2012-12-08T09:22:35Z</time>
      </trkpt>
      <trkpt lat="49.40199" lon="1.18228">
        <ele>156.6</ele>
        <time>2012-12-08T09:22:37Z</time>
      </trkpt>
      <trkpt lat="49.40192" lon="1.18223">
        <ele>157.1</ele>
        <time>2012-12-08T09:22:39Z</time>
      </trkpt>
      <trkpt lat="49.40185" lon="1.18218">
        <ele>157.6</ele>
        <time>2012-12-08T09:22:42Z</time>
      </trkpt>
      <trkpt lat="49.40177" lon="1.18211">
        <ele>157.5</ele>
        <time>2012-12-08T09:22:49Z</time>
      </trkpt>
      <trkpt lat="49.4017" lon="1.18215">
        <ele>158.3</ele>
        <time>2012-12-08T09:22:53Z</time>
      </trkpt>
      <trkpt lat="49.40166" lon="1.18224">
        <ele>158.6</ele>
        <time>2012-12-08T09:22:55Z</time>
      </trkpt>
      <trkpt lat="49.40161" lon="1.18232">
        <ele>158.3</ele>
        <time>2012-12-08T09:22:57Z</time>
      </trkpt>
      <trkpt lat="49.40154" lon="1.18231">
        <ele>158.1</ele>
        <time>2012-12-08T09:22:59Z</time>
      </trkpt>
      <trkpt lat="49.40145" lon="1.18228">
        <ele>157.8</ele>
        <time>2012-12-08T09:23:01Z</time>
      </trkpt>
      <trkpt lat="49.40136" lon="1.18226">
        <ele>157.8</ele>
        <time>2012-12-08T09:23:03Z</time>
      </trkpt>
      <trkpt lat="49.40127" lon="1.18224">
        <ele>158.3</ele>
        <time>2012-12-08T09:23:05Z</time>
      </trkpt>
      <trkpt lat="49.40119" lon="1.18223">
        <ele>158.8</ele>
        <time>2012-12-08T09:23:07Z</time>
      </trkpt>
      <trkpt lat="49.4011" lon="1.18222">
        <ele>158.8</ele>
        <time>2012-12-08T09:23:09Z</time>
      </trkpt>
      <trkpt lat="49.40101" lon="1.1822">
        <ele>159.1</ele>
        <time>2012-12-08T09:23:11Z</time>
      </trkpt>
      <trkpt lat="49.40092" lon="1.18217">
        <ele>159.1</ele>
        <time>2012-12-08T09:23:13Z</time>
      </trkpt>
      <trkpt lat="49.40088" lon="1.18217">
        <ele>159</ele>
        <time>2012-12-08T09:23:14Z</time>
      </trkpt>
      <trkpt lat="49.40079" lon="1.18215">
        <ele>159.1</ele>
        <time>2012-12-08T09:23:16Z</time>
      </trkpt>
      <trkpt lat="49.40072" lon="1.18214">
        <ele>159.8</ele>
        <time>2012-12-08T09:23:18Z</time>
      </trkpt>
      <trkpt lat="49.40063" lon="1.1821">
        <ele>160.3</ele>
        <time>2012-12-08T09:23:24Z</time>
      </trkpt>
      <trkpt lat="49.40056" lon="1.18207">
        <ele>158.6</ele>
        <time>2012-12-08T09:23:41Z</time>
      </trkpt>
      <trkpt lat="49.40054" lon="1.18206">
        <ele>158.3</ele>
        <time>2012-12-08T09:23:42Z</time>
      </trkpt>
      <trkpt lat="49.40043" lon="1.18204">
        <ele>157.1</ele>
        <time>2012-12-08T09:23:46Z</time>
      </trkpt>
      <trkpt lat="49.40036" lon="1.18202">
        <ele>157.6</ele>
        <time>2012-12-08T09:23:48Z</time>
      </trkpt>
      <trkpt lat="49.40029" lon="1.18201">
        <ele>157.6</ele>
        <time>2012-12-08T09:23:50Z</time>
      </trkpt>
      <trkpt lat="49.40022" lon="1.18199">
        <ele>157.3</ele>
        <time>2012-12-08T09:23:52Z</time>
      </trkpt>
      <trkpt lat="49.40015" lon="1.18195">
        <ele>157.6</ele>
        <time>2012-12-08T09:23:55Z</time>
      </trkpt>
      <trkpt lat="49.40014" lon="1.18186">
        <ele>157.6</ele>
        <time>2012-12-08T09:23:57Z</time>
      </trkpt>
      <trkpt lat="49.40015" lon="1.18175">
        <ele>157</ele>
        <time>2012-12-08T09:23:59Z</time>
      </trkpt>
      <trkpt lat="49.40015" lon="1.18168">
        <ele>156.8</ele>
        <time>2012-12-08T09:24:00Z</time>
      </trkpt>
      <trkpt lat="49.40015" lon="1.18155">
        <ele>156.6</ele>
        <time>2012-12-08T09:24:02Z</time>
      </trkpt>
      <trkpt lat="49.40015" lon="1.18141">
        <ele>156.1</ele>
        <time>2012-12-08T09:24:04Z</time>
      </trkpt>
      <trkpt lat="49.40015" lon="1.18134">
        <ele>155.8</ele>
        <time>2012-12-08T09:24:05Z</time>
      </trkpt>
      <trkpt lat="49.40014" lon="1.18127">
        <ele>156</ele>
        <time>2012-12-08T09:24:06Z</time>
      </trkpt>
      <trkpt lat="49.40014" lon="1.18119">
        <ele>155.1</ele>
        <time>2012-12-08T09:24:07Z</time>
      </trkpt>
      <trkpt lat="49.40014" lon="1.18112">
        <ele>155.8</ele>
        <time>2012-12-08T09:24:08Z</time>
      </trkpt>
      <trkpt lat="49.40013" lon="1.18099">
        <ele>155.6</ele>
        <time>2012-12-08T09:24:10Z</time>
      </trkpt>
      <trkpt lat="49.40013" lon="1.18086">
        <ele>155.6</ele>
        <time>2012-12-08T09:24:12Z</time>
      </trkpt>
      <trkpt lat="49.40013" lon="1.18076">
        <ele>156.3</ele>
        <time>2012-12-08T09:24:14Z</time>
      </trkpt>
      <trkpt lat="49.40012" lon="1.18062">
        <ele>158.3</ele>
        <time>2012-12-08T09:24:17Z</time>
      </trkpt>
      <trkpt lat="49.40011" lon="1.18051">
        <ele>160</ele>
        <time>2012-12-08T09:24:19Z</time>
      </trkpt>
      <trkpt lat="49.40011" lon="1.1804">
        <ele>160.6</ele>
        <time>2012-12-08T09:24:21Z</time>
      </trkpt>
      <trkpt lat="49.4001" lon="1.18028">
        <ele>159.3</ele>
        <time>2012-12-08T09:24:24Z</time>
      </trkpt>
      <trkpt lat="49.40009" lon="1.18014">
        <ele>156.6</ele>
        <time>2012-12-08T09:24:37Z</time>
      </trkpt>
      <trkpt lat="49.40003" lon="1.18009">
        <ele>157.1</ele>
        <time>2012-12-08T09:24:41Z</time>
      </trkpt>
      <trkpt lat="49.39995" lon="1.18005">
        <ele>157.1</ele>
        <time>2012-12-08T09:24:43Z</time>
      </trkpt>
      <trkpt lat="49.39992" lon="1.18002">
        <ele>157.1</ele>
        <time>2012-12-08T09:24:44Z</time>
      </trkpt>
      <trkpt lat="49.3998" lon="1.17996">
        <ele>156.5</ele>
        <time>2012-12-08T09:24:48Z</time>
      </trkpt>
      <trkpt lat="49.39979" lon="1.17985">
        <ele>153.8</ele>
        <time>2012-12-08T09:24:54Z</time>
      </trkpt>
      <trkpt lat="49.39982" lon="1.17973">
        <ele>152.8</ele>
        <time>2012-12-08T09:24:57Z</time>
      </trkpt>
      <trkpt lat="49.39985" lon="1.17961">
        <ele>152.3</ele>
        <time>2012-12-08T09:25:02Z</time>
      </trkpt>
      <trkpt lat="49.3998" lon="1.17951">
        <ele>153.1</ele>
        <time>2012-12-08T09:25:05Z</time>
      </trkpt>
      <trkpt lat="49.39972" lon="1.17946">
        <ele>152.6</ele>
        <time>2012-12-08T09:25:07Z</time>
      </trkpt>
      <trkpt lat="49.39965" lon="1.17939">
        <ele>152.1</ele>
        <time>2012-12-08T09:25:09Z</time>
      </trkpt>
      <trkpt lat="49.39959" lon="1.17932">
        <ele>151.6</ele>
        <time>2012-12-08T09:25:11Z</time>
      </trkpt>
      <trkpt lat="49.39952" lon="1.17925">
        <ele>151.8</ele>
        <time>2012-12-08T09:25:13Z</time>
      </trkpt>
      <trkpt lat="49.39945" lon="1.17918">
        <ele>152</ele>
        <time>2012-12-08T09:25:15Z</time>
      </trkpt>
      <trkpt lat="49.39939" lon="1.17911">
        <ele>152.1</ele>
        <time>2012-12-08T09:25:17Z</time>
      </trkpt>
      <trkpt lat="49.39933" lon="1.17904">
        <ele>151.6</ele>
        <time>2012-12-08T09:25:19Z</time>
      </trkpt>
      <trkpt lat="49.39927" lon="1.17896">
        <ele>152.1</ele>
        <time>2012-12-08T09:25:21Z</time>
      </trkpt>
      <trkpt lat="49.3992" lon="1.17889">
        <ele>152.1</ele>
        <time>2012-12-08T09:25:23Z</time>
      </trkpt>
      <trkpt lat="49.39913" lon="1.17881">
        <ele>152.3</ele>
        <time>2012-12-08T09:25:25Z</time>
      </trkpt>
      <trkpt lat="49.39909" lon="1.17878">
        <ele>152.5</ele>
        <time>2012-12-08T09:25:26Z</time>
      </trkpt>
      <trkpt lat="49.39905" lon="1.17874">
        <ele>152.6</ele>
        <time>2012-12-08T09:25:27Z</time>
      </trkpt>
      <trkpt lat="49.39901" lon="1.1787">
        <ele>152.8</ele>
        <time>2012-12-08T09:25:28Z</time>
      </trkpt>
      <trkpt lat="49.39897" lon="1.17866">
        <ele>152.3</ele>
        <time>2012-12-08T09:25:29Z</time>
      </trkpt>
      <trkpt lat="49.39893" lon="1.17863">
        <ele>152.1</ele>
        <time>2012-12-08T09:25:30Z</time>
      </trkpt>
      <trkpt lat="49.39886" lon="1.17855">
        <ele>151.3</ele>
        <time>2012-12-08T09:25:32Z</time>
      </trkpt>
      <trkpt lat="49.3988" lon="1.17847">
        <ele>150.8</ele>
        <time>2012-12-08T09:25:34Z</time>
      </trkpt>
      <trkpt lat="49.39872" lon="1.17839">
        <ele>151</ele>
        <time>2012-12-08T09:25:36Z</time>
      </trkpt>
      <trkpt lat="49.39865" lon="1.17831">
        <ele>151</ele>
        <time>2012-12-08T09:25:38Z</time>
      </trkpt>
      <trkpt lat="49.39858" lon="1.17824">
        <ele>150.6</ele>
        <time>2012-12-08T09:25:40Z</time>
      </trkpt>
      <trkpt lat="49.39851" lon="1.17816">
        <ele>150.6</ele>
        <time>2012-12-08T09:25:42Z</time>
      </trkpt>
      <trkpt lat="49.39845" lon="1.17809">
        <ele>150.8</ele>
        <time>2012-12-08T09:25:44Z</time>
      </trkpt>
      <trkpt lat="49.39841" lon="1.17805">
        <ele>151</ele>
        <time>2012-12-08T09:25:45Z</time>
      </trkpt>
      <trkpt lat="49.39832" lon="1.17795">
        <ele>151</ele>
        <time>2012-12-08T09:25:48Z</time>
      </trkpt>
      <trkpt lat="49.39826" lon="1.17788">
        <ele>150.8</ele>
        <time>2012-12-08T09:25:50Z</time>
      </trkpt>
      <trkpt lat="49.3982" lon="1.17782">
        <ele>149.6</ele>
        <time>2012-12-08T09:25:52Z</time>
      </trkpt>
      <trkpt lat="49.39814" lon="1.17775">
        <ele>149.6</ele>
        <time>2012-12-08T09:25:55Z</time>
      </trkpt>
      <trkpt lat="49.39807" lon="1.17767">
        <ele>150.1</ele>
        <time>2012-12-08T09:26:00Z</time>
      </trkpt>
      <trkpt lat="49.398" lon="1.17759">
        <ele>155.3</ele>
        <time>2012-12-08T09:26:41Z</time>
      </trkpt>
      <trkpt lat="49.39794" lon="1.1775">
        <ele>155.3</ele>
        <time>2012-12-08T09:26:44Z</time>
      </trkpt>
      <trkpt lat="49.39788" lon="1.17744">
        <ele>155</ele>
        <time>2012-12-08T09:26:46Z</time>
      </trkpt>
      <trkpt lat="49.39784" lon="1.17741">
        <ele>155</ele>
        <time>2012-12-08T09:26:47Z</time>
      </trkpt>
      <trkpt lat="49.39773" lon="1.17733">
        <ele>155.5</ele>
        <time>2012-12-08T09:26:50Z</time>
      </trkpt>
      <trkpt lat="49.39765" lon="1.17727">
        <ele>156.1</ele>
        <time>2012-12-08T09:26:52Z</time>
      </trkpt>
      <trkpt lat="49.39757" lon="1.17721">
        <ele>156.1</ele>
        <time>2012-12-08T09:26:54Z</time>
      </trkpt>
      <trkpt lat="49.39749" lon="1.17714">
        <ele>155.8</ele>
        <time>2012-12-08T09:26:56Z</time>
      </trkpt>
      <trkpt lat="49.39742" lon="1.17708">
        <ele>155.6</ele>
        <time>2012-12-08T09:26:58Z</time>
      </trkpt>
      <trkpt lat="49.39735" lon="1.17702">
        <ele>155.6</ele>
        <time>2012-12-08T09:27:00Z</time>
      </trkpt>
      <trkpt lat="49.39728" lon="1.17696">
        <ele>155.8</ele>
        <time>2012-12-08T09:27:02Z</time>
      </trkpt>
      <trkpt lat="49.3972" lon="1.1769">
        <ele>155.8</ele>
        <time>2012-12-08T09:27:04Z</time>
      </trkpt>
      <trkpt lat="49.39713" lon="1.17684">
        <ele>155.6</ele>
        <time>2012-12-08T09:27:06Z</time>
      </trkpt>
      <trkpt lat="49.39705" lon="1.17678">
        <ele>155.8</ele>
        <time>2012-12-08T09:27:08Z</time>
      </trkpt>
      <trkpt lat="49.39697" lon="1.17673">
        <ele>155.6</ele>
        <time>2012-12-08T09:27:10Z</time>
      </trkpt>
      <trkpt lat="49.39689" lon="1.17666">
        <ele>155.3</ele>
        <time>2012-12-08T09:27:12Z</time>
      </trkpt>
      <trkpt lat="49.39682" lon="1.1766">
        <ele>154.8</ele>
        <time>2012-12-08T09:27:14Z</time>
      </trkpt>
      <trkpt lat="49.39674" lon="1.17655">
        <ele>153.8</ele>
        <time>2012-12-08T09:27:16Z</time>
      </trkpt>
      <trkpt lat="49.39666" lon="1.17649">
        <ele>153.5</ele>
        <time>2012-12-08T09:27:18Z</time>
      </trkpt>
      <trkpt lat="49.39662" lon="1.17645">
        <ele>153.5</ele>
        <time>2012-12-08T09:27:19Z</time>
      </trkpt>
      <trkpt lat="49.39658" lon="1.17641">
        <ele>153.3</ele>
        <time>2012-12-08T09:27:20Z</time>
      </trkpt>
      <trkpt lat="49.39654" lon="1.17638">
        <ele>153.1</ele>
        <time>2012-12-08T09:27:21Z</time>
      </trkpt>
      <trkpt lat="49.3965" lon="1.17635">
        <ele>152.8</ele>
        <time>2012-12-08T09:27:22Z</time>
      </trkpt>
      <trkpt lat="49.39646" lon="1.17631">
        <ele>152.3</ele>
        <time>2012-12-08T09:27:23Z</time>
      </trkpt>
      <trkpt lat="49.39642" lon="1.17628">
        <ele>152.1</ele>
        <time>2012-12-08T09:27:24Z</time>
      </trkpt>
      <trkpt lat="49.39634" lon="1.17622">
        <ele>151.1</ele>
        <time>2012-12-08T09:27:26Z</time>
      </trkpt>
      <trkpt lat="49.3963" lon="1.17619">
        <ele>151.1</ele>
        <time>2012-12-08T09:27:27Z</time>
      </trkpt>
      <trkpt lat="49.39625" lon="1.17616">
        <ele>151.1</ele>
        <time>2012-12-08T09:27:28Z</time>
      </trkpt>
      <trkpt lat="49.39621" lon="1.17613">
        <ele>151.1</ele>
        <time>2012-12-08T09:27:29Z</time>
      </trkpt>
      <trkpt lat="49.39616" lon="1.17611">
        <ele>150.6</ele>
        <time>2012-12-08T09:27:30Z</time>
      </trkpt>
      <trkpt lat="49.39612" lon="1.1761">
        <ele>150.6</ele>
        <time>2012-12-08T09:27:31Z</time>
      </trkpt>
      <trkpt lat="49.39607" lon="1.1761">
        <ele>150.6</ele>
        <time>2012-12-08T09:27:32Z</time>
      </trkpt>
      <trkpt lat="49.39602" lon="1.17611">
        <ele>150.3</ele>
        <time>2012-12-08T09:27:33Z</time>
      </trkpt>
      <trkpt lat="49.39598" lon="1.17613">
        <ele>150.1</ele>
        <time>2012-12-08T09:27:34Z</time>
      </trkpt>
      <trkpt lat="49.39593" lon="1.17615">
        <ele>150</ele>
        <time>2012-12-08T09:27:35Z</time>
      </trkpt>
      <trkpt lat="49.39589" lon="1.17618">
        <ele>149.8</ele>
        <time>2012-12-08T09:27:36Z</time>
      </trkpt>
      <trkpt lat="49.39584" lon="1.17621">
        <ele>150</ele>
        <time>2012-12-08T09:27:37Z</time>
      </trkpt>
      <trkpt lat="49.3958" lon="1.17624">
        <ele>150.3</ele>
        <time>2012-12-08T09:27:38Z</time>
      </trkpt>
      <trkpt lat="49.39575" lon="1.17628">
        <ele>150.3</ele>
        <time>2012-12-08T09:27:39Z</time>
      </trkpt>
      <trkpt lat="49.3957" lon="1.17632">
        <ele>149.8</ele>
        <time>2012-12-08T09:27:40Z</time>
      </trkpt>
      <trkpt lat="49.39565" lon="1.17635">
        <ele>149.3</ele>
        <time>2012-12-08T09:27:41Z</time>
      </trkpt>
      <trkpt lat="49.39561" lon="1.17639">
        <ele>148.8</ele>
        <time>2012-12-08T09:27:42Z</time>
      </trkpt>
      <trkpt lat="49.39556" lon="1.17643">
        <ele>148.3</ele>
        <time>2012-12-08T09:27:43Z</time>
      </trkpt>
      <trkpt lat="49.39551" lon="1.17648">
        <ele>148</ele>
        <time>2012-12-08T09:27:44Z</time>
      </trkpt>
      <trkpt lat="49.39547" lon="1.17653">
        <ele>147.6</ele>
        <time>2012-12-08T09:27:45Z</time>
      </trkpt>
      <trkpt lat="49.39542" lon="1.17659">
        <ele>147.3</ele>
        <time>2012-12-08T09:27:46Z</time>
      </trkpt>
      <trkpt lat="49.39537" lon="1.17665">
        <ele>146.6</ele>
        <time>2012-12-08T09:27:47Z</time>
      </trkpt>
      <trkpt lat="49.39533" lon="1.1767">
        <ele>146</ele>
        <time>2012-12-08T09:27:48Z</time>
      </trkpt>
      <trkpt lat="49.39528" lon="1.17676">
        <ele>145.5</ele>
        <time>2012-12-08T09:27:49Z</time>
      </trkpt>
      <trkpt lat="49.39524" lon="1.17682">
        <ele>145.1</ele>
        <time>2012-12-08T09:27:50Z</time>
      </trkpt>
      <trkpt lat="49.39519" lon="1.17688">
        <ele>144.5</ele>
        <time>2012-12-08T09:27:51Z</time>
      </trkpt>
      <trkpt lat="49.39515" lon="1.17693">
        <ele>144.1</ele>
        <time>2012-12-08T09:27:52Z</time>
      </trkpt>
      <trkpt lat="49.39508" lon="1.17699">
        <ele>142.8</ele>
        <time>2012-12-08T09:27:54Z</time>
      </trkpt>
      <trkpt lat="49.395" lon="1.17699">
        <ele>142.5</ele>
        <time>2012-12-08T09:27:56Z</time>
      </trkpt>
      <trkpt lat="49.39493" lon="1.17691">
        <ele>142.3</ele>
        <time>2012-12-08T09:27:58Z</time>
      </trkpt>
      <trkpt lat="49.3949" lon="1.17685">
        <ele>142.1</ele>
        <time>2012-12-08T09:27:59Z</time>
      </trkpt>
      <trkpt lat="49.39488" lon="1.17679">
        <ele>142.1</ele>
        <time>2012-12-08T09:28:00Z</time>
      </trkpt>
      <trkpt lat="49.39485" lon="1.17673">
        <ele>142.5</ele>
        <time>2012-12-08T09:28:01Z</time>
      </trkpt>
      <trkpt lat="49.39482" lon="1.17667">
        <ele>142.3</ele>
        <time>2012-12-08T09:28:02Z</time>
      </trkpt>
      <trkpt lat="49.39478" lon="1.17663">
        <ele>142.8</ele>
        <time>2012-12-08T09:28:03Z</time>
      </trkpt>
      <trkpt lat="49.39469" lon="1.17658">
        <ele>143.8</ele>
        <time>2012-12-08T09:28:05Z</time>
      </trkpt>
      <trkpt lat="49.39462" lon="1.17654">
        <ele>144</ele>
        <time>2012-12-08T09:28:07Z</time>
      </trkpt>
      <trkpt lat="49.39454" lon="1.1765">
        <ele>144.1</ele>
        <time>2012-12-08T09:28:09Z</time>
      </trkpt>
      <trkpt lat="49.39447" lon="1.17646">
        <ele>144.5</ele>
        <time>2012-12-08T09:28:11Z</time>
      </trkpt>
      <trkpt lat="49.3944" lon="1.17643">
        <ele>145</ele>
        <time>2012-12-08T09:28:13Z</time>
      </trkpt>
      <trkpt lat="49.39433" lon="1.17641">
        <ele>144.6</ele>
        <time>2012-12-08T09:28:15Z</time>
      </trkpt>
      <trkpt lat="49.39424" lon="1.17639">
        <ele>143.6</ele>
        <time>2012-12-08T09:28:19Z</time>
      </trkpt>
      <trkpt lat="49.39417" lon="1.17639">
        <ele>143</ele>
        <time>2012-12-08T09:28:22Z</time>
      </trkpt>
      <trkpt lat="49.39411" lon="1.17641">
        <ele>142.6</ele>
        <time>2012-12-08T09:28:24Z</time>
      </trkpt>
      <trkpt lat="49.39405" lon="1.17644">
        <ele>142.6</ele>
        <time>2012-12-08T09:28:26Z</time>
      </trkpt>
      <trkpt lat="49.39399" lon="1.17647">
        <ele>142.5</ele>
        <time>2012-12-08T09:28:28Z</time>
      </trkpt>
      <trkpt lat="49.3939" lon="1.17651">
        <ele>142.6</ele>
        <time>2012-12-08T09:28:31Z</time>
      </trkpt>
      <trkpt lat="49.39383" lon="1.17656">
        <ele>142.6</ele>
        <time>2012-12-08T09:28:34Z</time>
      </trkpt>
      <trkpt lat="49.39377" lon="1.1766">
        <ele>142.6</ele>
        <time>2012-12-08T09:28:36Z</time>
      </trkpt>
      <trkpt lat="49.39371" lon="1.17665">
        <ele>142.6</ele>
        <time>2012-12-08T09:28:38Z</time>
      </trkpt>
      <trkpt lat="49.39365" lon="1.17671">
        <ele>142.8</ele>
        <time>2012-12-08T09:28:40Z</time>
      </trkpt>
      <trkpt lat="49.39359" lon="1.17677">
        <ele>143</ele>
        <time>2012-12-08T09:28:42Z</time>
      </trkpt>
      <trkpt lat="49.39353" lon="1.17682">
        <ele>143</ele>
        <time>2012-12-08T09:28:44Z</time>
      </trkpt>
      <trkpt lat="49.39346" lon="1.17688">
        <ele>143.3</ele>
        <time>2012-12-08T09:28:47Z</time>
      </trkpt>
      <trkpt lat="49.39354" lon="1.17683">
        <ele>143</ele>
        <time>2012-12-08T09:29:08Z</time>
      </trkpt>
      <trkpt lat="49.39355" lon="1.17682">
        <ele>142.8</ele>
        <time>2012-12-08T09:29:09Z</time>
      </trkpt>
      <trkpt lat="49.39368" lon="1.17671">
        <ele>140.3</ele>
        <time>2012-12-08T09:29:16Z</time>
      </trkpt>
      <trkpt lat="49.39375" lon="1.17664">
        <ele>140.3</ele>
        <time>2012-12-08T09:29:19Z</time>
      </trkpt>
      <trkpt lat="49.39383" lon="1.17659">
        <ele>140.1</ele>
        <time>2012-12-08T09:29:22Z</time>
      </trkpt>
      <trkpt lat="49.3939" lon="1.17654">
        <ele>140</ele>
        <time>2012-12-08T09:29:25Z</time>
      </trkpt>
      <trkpt lat="49.39396" lon="1.1765">
        <ele>139.5</ele>
        <time>2012-12-08T09:29:28Z</time>
      </trkpt>
      <trkpt lat="49.39404" lon="1.17646">
        <ele>140.3</ele>
        <time>2012-12-08T09:29:31Z</time>
      </trkpt>
      <trkpt lat="49.3941" lon="1.17644">
        <ele>140.6</ele>
        <time>2012-12-08T09:29:33Z</time>
      </trkpt>
      <trkpt lat="49.39419" lon="1.17641">
        <ele>140.6</ele>
        <time>2012-12-08T09:29:36Z</time>
      </trkpt>
      <trkpt lat="49.39428" lon="1.1764">
        <ele>140.5</ele>
        <time>2012-12-08T09:29:39Z</time>
      </trkpt>
      <trkpt lat="49.39434" lon="1.17642">
        <ele>140.8</ele>
        <time>2012-12-08T09:29:41Z</time>
      </trkpt>
      <trkpt lat="49.3944" lon="1.17643">
        <ele>141.1</ele>
        <time>2012-12-08T09:29:43Z</time>
      </trkpt>
      <trkpt lat="49.39449" lon="1.17646">
        <ele>141.5</ele>
        <time>2012-12-08T09:29:46Z</time>
      </trkpt>
      <trkpt lat="49.39456" lon="1.1765">
        <ele>142.3</ele>
        <time>2012-12-08T09:29:49Z</time>
      </trkpt>
      <trkpt lat="49.39465" lon="1.17654">
        <ele>144.3</ele>
        <time>2012-12-08T09:29:53Z</time>
      </trkpt>
      <trkpt lat="49.39469" lon="1.17643">
        <ele>147.5</ele>
        <time>2012-12-08T09:29:59Z</time>
      </trkpt>
      <trkpt lat="49.39466" lon="1.17635">
        <ele>149.8</ele>
        <time>2012-12-08T09:30:01Z</time>
      </trkpt>
      <trkpt lat="49.39463" lon="1.17622">
        <ele>151.5</ele>
        <time>2012-12-08T09:30:04Z</time>
      </trkpt>
      <trkpt lat="49.39459" lon="1.17613">
        <ele>150.6</ele>
        <time>2012-12-08T09:30:07Z</time>
      </trkpt>
      <trkpt lat="49.39453" lon="1.17606">
        <ele>151.1</ele>
        <time>2012-12-08T09:30:10Z</time>
      </trkpt>
      <trkpt lat="49.39451" lon="1.17602">
        <ele>151.1</ele>
        <time>2012-12-08T09:30:11Z</time>
      </trkpt>
      <trkpt lat="49.39442" lon="1.17587">
        <ele>149.6</ele>
        <time>2012-12-08T09:30:16Z</time>
      </trkpt>
      <trkpt lat="49.39436" lon="1.17577">
        <ele>147.1</ele>
        <time>2012-12-08T09:30:19Z</time>
      </trkpt>
      <trkpt lat="49.39432" lon="1.17569">
        <ele>147.1</ele>
        <time>2012-12-08T09:30:21Z</time>
      </trkpt>
      <trkpt lat="49.39428" lon="1.17561">
        <ele>145.5</ele>
        <time>2012-12-08T09:30:23Z</time>
      </trkpt>
      <trkpt lat="49.39424" lon="1.17553">
        <ele>144.1</ele>
        <time>2012-12-08T09:30:25Z</time>
      </trkpt>
      <trkpt lat="49.3942" lon="1.17544">
        <ele>143.1</ele>
        <time>2012-12-08T09:30:27Z</time>
      </trkpt>
      <trkpt lat="49.39416" lon="1.17534">
        <ele>141.6</ele>
        <time>2012-12-08T09:30:29Z</time>
      </trkpt>
      <trkpt lat="49.39412" lon="1.17525">
        <ele>139.8</ele>
        <time>2012-12-08T09:30:31Z</time>
      </trkpt>
      <trkpt lat="49.39408" lon="1.17517">
        <ele>138.6</ele>
        <time>2012-12-08T09:30:33Z</time>
      </trkpt>
      <trkpt lat="49.39402" lon="1.17508">
        <ele>139.6</ele>
        <time>2012-12-08T09:30:35Z</time>
      </trkpt>
      <trkpt lat="49.39397" lon="1.175">
        <ele>140.3</ele>
        <time>2012-12-08T09:30:37Z</time>
      </trkpt>
      <trkpt lat="49.39393" lon="1.17493">
        <ele>140.6</ele>
        <time>2012-12-08T09:30:39Z</time>
      </trkpt>
      <trkpt lat="49.39387" lon="1.17485">
        <ele>141.1</ele>
        <time>2012-12-08T09:30:42Z</time>
      </trkpt>
      <trkpt lat="49.39381" lon="1.17478">
        <ele>141.1</ele>
        <time>2012-12-08T09:30:45Z</time>
      </trkpt>
      <trkpt lat="49.39375" lon="1.17471">
        <ele>140.1</ele>
        <time>2012-12-08T09:30:49Z</time>
      </trkpt>
      <trkpt lat="49.39368" lon="1.17464">
        <ele>140.6</ele>
        <time>2012-12-08T09:30:53Z</time>
      </trkpt>
      <trkpt lat="49.39361" lon="1.1746">
        <ele>141.1</ele>
        <time>2012-12-08T09:30:57Z</time>
      </trkpt>
      <trkpt lat="49.39354" lon="1.17455">
        <ele>141.5</ele>
        <time>2012-12-08T09:31:02Z</time>
      </trkpt>
      <trkpt lat="49.39347" lon="1.17452">
        <ele>141.6</ele>
        <time>2012-12-08T09:31:06Z</time>
      </trkpt>
      <trkpt lat="49.39338" lon="1.17447">
        <ele>141.6</ele>
        <time>2012-12-08T09:31:13Z</time>
      </trkpt>
      <trkpt lat="49.39337" lon="1.17447">
        <ele>141.6</ele>
        <time>2012-12-08T09:31:14Z</time>
      </trkpt>
      <trkpt lat="49.39322" lon="1.1744">
        <ele>141.5</ele>
        <time>2012-12-08T09:31:26Z</time>
      </trkpt>
      <trkpt lat="49.39314" lon="1.17435">
        <ele>141.6</ele>
        <time>2012-12-08T09:31:37Z</time>
      </trkpt>
      <trkpt lat="49.39307" lon="1.17431">
        <ele>142.3</ele>
        <time>2012-12-08T09:31:42Z</time>
      </trkpt>
      <trkpt lat="49.39299" lon="1.17427">
        <ele>143</ele>
        <time>2012-12-08T09:31:47Z</time>
      </trkpt>
      <trkpt lat="49.39291" lon="1.17423">
        <ele>143.6</ele>
        <time>2012-12-08T09:31:52Z</time>
      </trkpt>
      <trkpt lat="49.39284" lon="1.17419">
        <ele>144.1</ele>
        <time>2012-12-08T09:31:57Z</time>
      </trkpt>
      <trkpt lat="49.39276" lon="1.17417">
        <ele>144.8</ele>
        <time>2012-12-08T09:32:06Z</time>
      </trkpt>
      <trkpt lat="49.39269" lon="1.17409">
        <ele>143.8</ele>
        <time>2012-12-08T09:32:12Z</time>
      </trkpt>
      <trkpt lat="49.39274" lon="1.17398">
        <ele>142.8</ele>
        <time>2012-12-08T09:32:19Z</time>
      </trkpt>
      <trkpt lat="49.39275" lon="1.17397">
        <ele>142.8</ele>
        <time>2012-12-08T09:32:20Z</time>
      </trkpt>
      <trkpt lat="49.39281" lon="1.17375">
        <ele>141</ele>
        <time>2012-12-08T09:32:49Z</time>
      </trkpt>
      <trkpt lat="49.39285" lon="1.17366">
        <ele>141.1</ele>
        <time>2012-12-08T09:32:52Z</time>
      </trkpt>
      <trkpt lat="49.3929" lon="1.17356">
        <ele>140.8</ele>
        <time>2012-12-08T09:32:55Z</time>
      </trkpt>
      <trkpt lat="49.39294" lon="1.17345">
        <ele>140.6</ele>
        <time>2012-12-08T09:32:58Z</time>
      </trkpt>
      <trkpt lat="49.39299" lon="1.17335">
        <ele>140.5</ele>
        <time>2012-12-08T09:33:01Z</time>
      </trkpt>
      <trkpt lat="49.39303" lon="1.17327">
        <ele>141.1</ele>
        <time>2012-12-08T09:33:03Z</time>
      </trkpt>
      <trkpt lat="49.39306" lon="1.17319">
        <ele>141.6</ele>
        <time>2012-12-08T09:33:05Z</time>
      </trkpt>
      <trkpt lat="49.3931" lon="1.17309">
        <ele>141.6</ele>
        <time>2012-12-08T09:33:07Z</time>
      </trkpt>
      <trkpt lat="49.39314" lon="1.17301">
        <ele>142.1</ele>
        <time>2012-12-08T09:33:09Z</time>
      </trkpt>
      <trkpt lat="49.39316" lon="1.17292">
        <ele>142.3</ele>
        <time>2012-12-08T09:33:11Z</time>
      </trkpt>
      <trkpt lat="49.39321" lon="1.1728">
        <ele>142.3</ele>
        <time>2012-12-08T09:33:14Z</time>
      </trkpt>
      <trkpt lat="49.39324" lon="1.17272">
        <ele>142.3</ele>
        <time>2012-12-08T09:33:16Z</time>
      </trkpt>
      <trkpt lat="49.39327" lon="1.17264">
        <ele>142.3</ele>
        <time>2012-12-08T09:33:18Z</time>
      </trkpt>
      <trkpt lat="49.39331" lon="1.17257">
        <ele>142.3</ele>
        <time>2012-12-08T09:33:20Z</time>
      </trkpt>
      <trkpt lat="49.39333" lon="1.17253">
        <ele>142.1</ele>
        <time>2012-12-08T09:33:21Z</time>
      </trkpt>
      <trkpt lat="49.39338" lon="1.1724">
        <ele>142.1</ele>
        <time>2012-12-08T09:33:24Z</time>
      </trkpt>
      <trkpt lat="49.39342" lon="1.17232">
        <ele>142.1</ele>
        <time>2012-12-08T09:33:26Z</time>
      </trkpt>
      <trkpt lat="49.39347" lon="1.17221">
        <ele>142</ele>
        <time>2012-12-08T09:33:29Z</time>
      </trkpt>
      <trkpt lat="49.39351" lon="1.17214">
        <ele>142</ele>
        <time>2012-12-08T09:33:31Z</time>
      </trkpt>
      <trkpt lat="49.39355" lon="1.17206">
        <ele>141.8</ele>
        <time>2012-12-08T09:33:33Z</time>
      </trkpt>
      <trkpt lat="49.39358" lon="1.17197">
        <ele>141.6</ele>
        <time>2012-12-08T09:33:35Z</time>
      </trkpt>
      <trkpt lat="49.39363" lon="1.17186">
        <ele>141.3</ele>
        <time>2012-12-08T09:33:38Z</time>
      </trkpt>
      <trkpt lat="49.39367" lon="1.17176">
        <ele>140.6</ele>
        <time>2012-12-08T09:33:42Z</time>
      </trkpt>
      <trkpt lat="49.39365" lon="1.17164">
        <ele>141.1</ele>
        <time>2012-12-08T09:33:47Z</time>
      </trkpt>
      <trkpt lat="49.39358" lon="1.17161">
        <ele>140.8</ele>
        <time>2012-12-08T09:33:50Z</time>
      </trkpt>
      <trkpt lat="49.39351" lon="1.17156">
        <ele>141.5</ele>
        <time>2012-12-08T09:33:53Z</time>
      </trkpt>
      <trkpt lat="49.39345" lon="1.17153">
        <ele>142.5</ele>
        <time>2012-12-08T09:33:56Z</time>
      </trkpt>
      <trkpt lat="49.39337" lon="1.17151">
        <ele>141.6</ele>
        <time>2012-12-08T09:33:59Z</time>
      </trkpt>
      <trkpt lat="49.3933" lon="1.17149">
        <ele>142</ele>
        <time>2012-12-08T09:34:02Z</time>
      </trkpt>
      <trkpt lat="49.39322" lon="1.17145">
        <ele>142.3</ele>
        <time>2012-12-08T09:34:06Z</time>
      </trkpt>
      <trkpt lat="49.39314" lon="1.17142">
        <ele>143</ele>
        <time>2012-12-08T09:34:10Z</time>
      </trkpt>
      <trkpt lat="49.39307" lon="1.17139">
        <ele>143.3</ele>
        <time>2012-12-08T09:34:14Z</time>
      </trkpt>
      <trkpt lat="49.39298" lon="1.17136">
        <ele>143.6</ele>
        <time>2012-12-08T09:34:18Z</time>
      </trkpt>
      <trkpt lat="49.39292" lon="1.17133">
        <ele>143.6</ele>
        <time>2012-12-08T09:34:21Z</time>
      </trkpt>
      <trkpt lat="49.39289" lon="1.17132">
        <ele>143.6</ele>
        <time>2012-12-08T09:34:22Z</time>
      </trkpt>
      <trkpt lat="49.39278" lon="1.17125">
        <ele>143.5</ele>
        <time>2012-12-08T09:34:27Z</time>
      </trkpt>
      <trkpt lat="49.3927" lon="1.17119">
        <ele>144</ele>
        <time>2012-12-08T09:34:32Z</time>
      </trkpt>
      <trkpt lat="49.39264" lon="1.17116">
        <ele>144.1</ele>
        <time>2012-12-08T09:34:35Z</time>
      </trkpt>
      <trkpt lat="49.39256" lon="1.17113">
        <ele>143.3</ele>
        <time>2012-12-08T09:34:38Z</time>
      </trkpt>
      <trkpt lat="49.39249" lon="1.17108">
        <ele>143.1</ele>
        <time>2012-12-08T09:34:41Z</time>
      </trkpt>
      <trkpt lat="49.39244" lon="1.17099">
        <ele>143.3</ele>
        <time>2012-12-08T09:34:44Z</time>
      </trkpt>
      <trkpt lat="49.39237" lon="1.17095">
        <ele>144.5</ele>
        <time>2012-12-08T09:34:47Z</time>
      </trkpt>
      <trkpt lat="49.39229" lon="1.17091">
        <ele>145.3</ele>
        <time>2012-12-08T09:34:50Z</time>
      </trkpt>
      <trkpt lat="49.39221" lon="1.17086">
        <ele>146.1</ele>
        <time>2012-12-08T09:34:53Z</time>
      </trkpt>
      <trkpt lat="49.39215" lon="1.17081">
        <ele>145.6</ele>
        <time>2012-12-08T09:34:55Z</time>
      </trkpt>
      <trkpt lat="49.39209" lon="1.17078">
        <ele>146</ele>
        <time>2012-12-08T09:34:57Z</time>
      </trkpt>
      <trkpt lat="49.39203" lon="1.17073">
        <ele>146</ele>
        <time>2012-12-08T09:34:59Z</time>
      </trkpt>
      <trkpt lat="49.39197" lon="1.1707">
        <ele>146.8</ele>
        <time>2012-12-08T09:35:01Z</time>
      </trkpt>
      <trkpt lat="49.39191" lon="1.17066">
        <ele>146.6</ele>
        <time>2012-12-08T09:35:03Z</time>
      </trkpt>
      <trkpt lat="49.39185" lon="1.17061">
        <ele>146.8</ele>
        <time>2012-12-08T09:35:05Z</time>
      </trkpt>
      <trkpt lat="49.39179" lon="1.17057">
        <ele>146.8</ele>
        <time>2012-12-08T09:35:07Z</time>
      </trkpt>
      <trkpt lat="49.39173" lon="1.17054">
        <ele>147</ele>
        <time>2012-12-08T09:35:09Z</time>
      </trkpt>
      <trkpt lat="49.39167" lon="1.17051">
        <ele>147.1</ele>
        <time>2012-12-08T09:35:11Z</time>
      </trkpt>
      <trkpt lat="49.3916" lon="1.17048">
        <ele>147.5</ele>
        <time>2012-12-08T09:35:13Z</time>
      </trkpt>
      <trkpt lat="49.39154" lon="1.17045">
        <ele>147.8</ele>
        <time>2012-12-08T09:35:15Z</time>
      </trkpt>
      <trkpt lat="49.39148" lon="1.17043">
        <ele>148.1</ele>
        <time>2012-12-08T09:35:17Z</time>
      </trkpt>
      <trkpt lat="49.39141" lon="1.17041">
        <ele>148.1</ele>
        <time>2012-12-08T09:35:19Z</time>
      </trkpt>
      <trkpt lat="49.39134" lon="1.17039">
        <ele>148.1</ele>
        <time>2012-12-08T09:35:21Z</time>
      </trkpt>
      <trkpt lat="49.39127" lon="1.17036">
        <ele>148.1</ele>
        <time>2012-12-08T09:35:23Z</time>
      </trkpt>
      <trkpt lat="49.39123" lon="1.17035">
        <ele>148.1</ele>
        <time>2012-12-08T09:35:24Z</time>
      </trkpt>
      <trkpt lat="49.39114" lon="1.17032">
        <ele>148.3</ele>
        <time>2012-12-08T09:35:26Z</time>
      </trkpt>
      <trkpt lat="49.39109" lon="1.1703">
        <ele>148.3</ele>
        <time>2012-12-08T09:35:27Z</time>
      </trkpt>
      <trkpt lat="49.39105" lon="1.17028">
        <ele>148.3</ele>
        <time>2012-12-08T09:35:28Z</time>
      </trkpt>
      <trkpt lat="49.391" lon="1.17026">
        <ele>148.3</ele>
        <time>2012-12-08T09:35:29Z</time>
      </trkpt>
      <trkpt lat="49.39096" lon="1.17024">
        <ele>148.3</ele>
        <time>2012-12-08T09:35:30Z</time>
      </trkpt>
      <trkpt lat="49.39091" lon="1.17023">
        <ele>148.3</ele>
        <time>2012-12-08T09:35:31Z</time>
      </trkpt>
      <trkpt lat="49.39086" lon="1.17021">
        <ele>148.3</ele>
        <time>2012-12-08T09:35:32Z</time>
      </trkpt>
      <trkpt lat="49.39082" lon="1.17019">
        <ele>148.3</ele>
        <time>2012-12-08T09:35:33Z</time>
      </trkpt>
      <trkpt lat="49.39077" lon="1.17018">
        <ele>148.3</ele>
        <time>2012-12-08T09:35:34Z</time>
      </trkpt>
      <trkpt lat="49.39072" lon="1.17016">
        <ele>148.1</ele>
        <time>2012-12-08T09:35:35Z</time>
      </trkpt>
      <trkpt lat="49.39067" lon="1.17014">
        <ele>148.1</ele>
        <time>2012-12-08T09:35:36Z</time>
      </trkpt>
      <trkpt lat="49.39062" lon="1.17012">
        <ele>148.1</ele>
        <time>2012-12-08T09:35:37Z</time>
      </trkpt>
      <trkpt lat="49.39057" lon="1.17011">
        <ele>148.1</ele>
        <time>2012-12-08T09:35:38Z</time>
      </trkpt>
      <trkpt lat="49.39053" lon="1.17009">
        <ele>148.1</ele>
        <time>2012-12-08T09:35:39Z</time>
      </trkpt>
      <trkpt lat="49.39048" lon="1.17007">
        <ele>148.1</ele>
        <time>2012-12-08T09:35:40Z</time>
      </trkpt>
      <trkpt lat="49.39044" lon="1.17006">
        <ele>148.3</ele>
        <time>2012-12-08T09:35:41Z</time>
      </trkpt>
      <trkpt lat="49.39039" lon="1.17004">
        <ele>148.3</ele>
        <time>2012-12-08T09:35:42Z</time>
      </trkpt>
      <trkpt lat="49.39031" lon="1.17001">
        <ele>148.3</ele>
        <time>2012-12-08T09:35:44Z</time>
      </trkpt>
      <trkpt lat="49.39022" lon="1.16997">
        <ele>148.3</ele>
        <time>2012-12-08T09:35:46Z</time>
      </trkpt>
      <trkpt lat="49.39014" lon="1.16994">
        <ele>148.3</ele>
        <time>2012-12-08T09:35:48Z</time>
      </trkpt>
      <trkpt lat="49.39005" lon="1.16991">
        <ele>148.3</ele>
        <time>2012-12-08T09:35:50Z</time>
      </trkpt>
      <trkpt lat="49.38997" lon="1.16987">
        <ele>148.3</ele>
        <time>2012-12-08T09:35:52Z</time>
      </trkpt>
      <trkpt lat="49.38988" lon="1.16984">
        <ele>148.3</ele>
        <time>2012-12-08T09:35:54Z</time>
      </trkpt>
      <trkpt lat="49.3898" lon="1.1698">
        <ele>148.1</ele>
        <time>2012-12-08T09:35:56Z</time>
      </trkpt>
      <trkpt lat="49.38971" lon="1.16977">
        <ele>148.1</ele>
        <time>2012-12-08T09:35:58Z</time>
      </trkpt>
      <trkpt lat="49.38964" lon="1.16973">
        <ele>147.8</ele>
        <time>2012-12-08T09:36:00Z</time>
      </trkpt>
      <trkpt lat="49.38957" lon="1.16968">
        <ele>147.6</ele>
        <time>2012-12-08T09:36:02Z</time>
      </trkpt>
      <trkpt lat="49.38951" lon="1.16961">
        <ele>147.3</ele>
        <time>2012-12-08T09:36:04Z</time>
      </trkpt>
      <trkpt lat="49.38944" lon="1.16955">
        <ele>147</ele>
        <time>2012-12-08T09:36:06Z</time>
      </trkpt>
      <trkpt lat="49.38938" lon="1.16948">
        <ele>146.5</ele>
        <time>2012-12-08T09:36:08Z</time>
      </trkpt>
      <trkpt lat="49.38932" lon="1.16942">
        <ele>146.3</ele>
        <time>2012-12-08T09:36:10Z</time>
      </trkpt>
      <trkpt lat="49.38926" lon="1.16936">
        <ele>146</ele>
        <time>2012-12-08T09:36:12Z</time>
      </trkpt>
      <trkpt lat="49.3892" lon="1.16929">
        <ele>145.5</ele>
        <time>2012-12-08T09:36:14Z</time>
      </trkpt>
      <trkpt lat="49.38914" lon="1.1692">
        <ele>145.8</ele>
        <time>2012-12-08T09:36:16Z</time>
      </trkpt>
      <trkpt lat="49.38909" lon="1.16911">
        <ele>147</ele>
        <time>2012-12-08T09:36:18Z</time>
      </trkpt>
      <trkpt lat="49.38902" lon="1.16903">
        <ele>148</ele>
        <time>2012-12-08T09:36:20Z</time>
      </trkpt>
      <trkpt lat="49.38899" lon="1.16898">
        <ele>147.6</ele>
        <time>2012-12-08T09:36:21Z</time>
      </trkpt>
      <trkpt lat="49.38894" lon="1.16894">
        <ele>146.8</ele>
        <time>2012-12-08T09:36:22Z</time>
      </trkpt>
      <trkpt lat="49.3889" lon="1.1689">
        <ele>146.1</ele>
        <time>2012-12-08T09:36:23Z</time>
      </trkpt>
      <trkpt lat="49.38886" lon="1.16886">
        <ele>146.3</ele>
        <time>2012-12-08T09:36:24Z</time>
      </trkpt>
      <trkpt lat="49.38883" lon="1.16881">
        <ele>146.8</ele>
        <time>2012-12-08T09:36:25Z</time>
      </trkpt>
      <trkpt lat="49.38879" lon="1.16877">
        <ele>147.1</ele>
        <time>2012-12-08T09:36:26Z</time>
      </trkpt>
      <trkpt lat="49.38875" lon="1.16873">
        <ele>147.3</ele>
        <time>2012-12-08T09:36:27Z</time>
      </trkpt>
      <trkpt lat="49.3887" lon="1.1687">
        <ele>147.3</ele>
        <time>2012-12-08T09:36:28Z</time>
      </trkpt>
      <trkpt lat="49.38866" lon="1.16866">
        <ele>147.3</ele>
        <time>2012-12-08T09:36:29Z</time>
      </trkpt>
      <trkpt lat="49.38862" lon="1.16863">
        <ele>147.5</ele>
        <time>2012-12-08T09:36:30Z</time>
      </trkpt>
      <trkpt lat="49.38858" lon="1.16859">
        <ele>147.1</ele>
        <time>2012-12-08T09:36:31Z</time>
      </trkpt>
      <trkpt lat="49.38854" lon="1.16856">
        <ele>146.8</ele>
        <time>2012-12-08T09:36:32Z</time>
      </trkpt>
      <trkpt lat="49.3885" lon="1.16853">
        <ele>146.6</ele>
        <time>2012-12-08T09:36:33Z</time>
      </trkpt>
      <trkpt lat="49.38845" lon="1.1685">
        <ele>146.3</ele>
        <time>2012-12-08T09:36:34Z</time>
      </trkpt>
      <trkpt lat="49.3884" lon="1.16848">
        <ele>146</ele>
        <time>2012-12-08T09:36:35Z</time>
      </trkpt>
      <trkpt lat="49.38836" lon="1.16845">
        <ele>145.8</ele>
        <time>2012-12-08T09:36:36Z</time>
      </trkpt>
      <trkpt lat="49.38832" lon="1.16843">
        <ele>145.3</ele>
        <time>2012-12-08T09:36:37Z</time>
      </trkpt>
      <trkpt lat="49.38827" lon="1.16839">
        <ele>145.3</ele>
        <time>2012-12-08T09:36:38Z</time>
      </trkpt>
      <trkpt lat="49.38824" lon="1.16835">
        <ele>145.3</ele>
        <time>2012-12-08T09:36:39Z</time>
      </trkpt>
      <trkpt lat="49.38817" lon="1.16825">
        <ele>145.6</ele>
        <time>2012-12-08T09:36:41Z</time>
      </trkpt>
      <trkpt lat="49.38814" lon="1.16814">
        <ele>145.8</ele>
        <time>2012-12-08T09:36:43Z</time>
      </trkpt>
      <trkpt lat="49.38811" lon="1.168">
        <ele>145.6</ele>
        <time>2012-12-08T09:36:45Z</time>
      </trkpt>
      <trkpt lat="49.3881" lon="1.16793">
        <ele>145.3</ele>
        <time>2012-12-08T09:36:46Z</time>
      </trkpt>
      <trkpt lat="49.38809" lon="1.16785">
        <ele>145.3</ele>
        <time>2012-12-08T09:36:47Z</time>
      </trkpt>
      <trkpt lat="49.38809" lon="1.16778">
        <ele>145.3</ele>
        <time>2012-12-08T09:36:48Z</time>
      </trkpt>
      <trkpt lat="49.38808" lon="1.1677">
        <ele>145.1</ele>
        <time>2012-12-08T09:36:49Z</time>
      </trkpt>
      <trkpt lat="49.38807" lon="1.16762">
        <ele>145</ele>
        <time>2012-12-08T09:36:50Z</time>
      </trkpt>
      <trkpt lat="49.38807" lon="1.16755">
        <ele>144.8</ele>
        <time>2012-12-08T09:36:51Z</time>
      </trkpt>
      <trkpt lat="49.38806" lon="1.16748">
        <ele>144.8</ele>
        <time>2012-12-08T09:36:52Z</time>
      </trkpt>
      <trkpt lat="49.38805" lon="1.16734">
        <ele>144.6</ele>
        <time>2012-12-08T09:36:54Z</time>
      </trkpt>
      <trkpt lat="49.38803" lon="1.16722">
        <ele>144.6</ele>
        <time>2012-12-08T09:36:56Z</time>
      </trkpt>
      <trkpt lat="49.38802" lon="1.1671">
        <ele>144.5</ele>
        <time>2012-12-08T09:36:58Z</time>
      </trkpt>
      <trkpt lat="49.38801" lon="1.16699">
        <ele>144.5</ele>
        <time>2012-12-08T09:37:00Z</time>
      </trkpt>
      <trkpt lat="49.388" lon="1.16688">
        <ele>144.1</ele>
        <time>2012-12-08T09:37:02Z</time>
      </trkpt>
      <trkpt lat="49.38798" lon="1.16676">
        <ele>144.1</ele>
        <time>2012-12-08T09:37:04Z</time>
      </trkpt>
      <trkpt lat="49.38796" lon="1.16664">
        <ele>144.3</ele>
        <time>2012-12-08T09:37:06Z</time>
      </trkpt>
      <trkpt lat="49.38793" lon="1.16651">
        <ele>144.5</ele>
        <time>2012-12-08T09:37:08Z</time>
      </trkpt>
      <trkpt lat="49.38791" lon="1.16639">
        <ele>144.8</ele>
        <time>2012-12-08T09:37:10Z</time>
      </trkpt>
      <trkpt lat="49.38788" lon="1.16628">
        <ele>145.1</ele>
        <time>2012-12-08T09:37:12Z</time>
      </trkpt>
      <trkpt lat="49.38785" lon="1.16617">
        <ele>145.6</ele>
        <time>2012-12-08T09:37:14Z</time>
      </trkpt>
      <trkpt lat="49.38783" lon="1.16605">
        <ele>145.8</ele>
        <time>2012-12-08T09:37:16Z</time>
      </trkpt>
      <trkpt lat="49.3878" lon="1.16594">
        <ele>145.8</ele>
        <time>2012-12-08T09:37:18Z</time>
      </trkpt>
      <trkpt lat="49.38777" lon="1.16582">
        <ele>145.6</ele>
        <time>2012-12-08T09:37:20Z</time>
      </trkpt>
      <trkpt lat="49.38773" lon="1.16571">
        <ele>145.6</ele>
        <time>2012-12-08T09:37:22Z</time>
      </trkpt>
      <trkpt lat="49.3877" lon="1.1656">
        <ele>145.5</ele>
        <time>2012-12-08T09:37:24Z</time>
      </trkpt>
      <trkpt lat="49.38767" lon="1.16549">
        <ele>145.3</ele>
        <time>2012-12-08T09:37:26Z</time>
      </trkpt>
      <trkpt lat="49.38765" lon="1.16543">
        <ele>145.3</ele>
        <time>2012-12-08T09:37:27Z</time>
      </trkpt>
      <trkpt lat="49.38759" lon="1.16527">
        <ele>145.1</ele>
        <time>2012-12-08T09:37:30Z</time>
      </trkpt>
      <trkpt lat="49.38755" lon="1.16516">
        <ele>145.1</ele>
        <time>2012-12-08T09:37:32Z</time>
      </trkpt>
      <trkpt lat="49.38751" lon="1.16506">
        <ele>145.1</ele>
        <time>2012-12-08T09:37:34Z</time>
      </trkpt>
      <trkpt lat="49.38747" lon="1.16495">
        <ele>145</ele>
        <time>2012-12-08T09:37:36Z</time>
      </trkpt>
      <trkpt lat="49.38743" lon="1.16485">
        <ele>145</ele>
        <time>2012-12-08T09:37:38Z</time>
      </trkpt>
      <trkpt lat="49.38738" lon="1.16474">
        <ele>144.8</ele>
        <time>2012-12-08T09:37:40Z</time>
      </trkpt>
      <trkpt lat="49.38734" lon="1.16463">
        <ele>144.6</ele>
        <time>2012-12-08T09:37:42Z</time>
      </trkpt>
      <trkpt lat="49.38729" lon="1.16452">
        <ele>144.6</ele>
        <time>2012-12-08T09:37:44Z</time>
      </trkpt>
      <trkpt lat="49.38725" lon="1.16442">
        <ele>144.6</ele>
        <time>2012-12-08T09:37:46Z</time>
      </trkpt>
      <trkpt lat="49.3872" lon="1.16431">
        <ele>144.5</ele>
        <time>2012-12-08T09:37:48Z</time>
      </trkpt>
      <trkpt lat="49.38715" lon="1.1642">
        <ele>144.5</ele>
        <time>2012-12-08T09:37:50Z</time>
      </trkpt>
      <trkpt lat="49.38709" lon="1.16409">
        <ele>144.3</ele>
        <time>2012-12-08T09:37:52Z</time>
      </trkpt>
      <trkpt lat="49.38704" lon="1.16399">
        <ele>144.3</ele>
        <time>2012-12-08T09:37:54Z</time>
      </trkpt>
      <trkpt lat="49.38698" lon="1.16389">
        <ele>144.6</ele>
        <time>2012-12-08T09:37:56Z</time>
      </trkpt>
      <trkpt lat="49.38693" lon="1.16379">
        <ele>144.8</ele>
        <time>2012-12-08T09:37:58Z</time>
      </trkpt>
      <trkpt lat="49.38688" lon="1.16368">
        <ele>144.8</ele>
        <time>2012-12-08T09:38:00Z</time>
      </trkpt>
      <trkpt lat="49.38682" lon="1.16358">
        <ele>144.8</ele>
        <time>2012-12-08T09:38:02Z</time>
      </trkpt>
      <trkpt lat="49.38677" lon="1.16348">
        <ele>144.8</ele>
        <time>2012-12-08T09:38:04Z</time>
      </trkpt>
      <trkpt lat="49.38672" lon="1.16337">
        <ele>144.8</ele>
        <time>2012-12-08T09:38:06Z</time>
      </trkpt>
      <trkpt lat="49.38667" lon="1.16327">
        <ele>144.8</ele>
        <time>2012-12-08T09:38:08Z</time>
      </trkpt>
      <trkpt lat="49.38661" lon="1.16317">
        <ele>144.8</ele>
        <time>2012-12-08T09:38:10Z</time>
      </trkpt>
      <trkpt lat="49.38656" lon="1.16307">
        <ele>144.8</ele>
        <time>2012-12-08T09:38:12Z</time>
      </trkpt>
      <trkpt lat="49.3865" lon="1.16297">
        <ele>145</ele>
        <time>2012-12-08T09:38:14Z</time>
      </trkpt>
      <trkpt lat="49.38645" lon="1.16287">
        <ele>145.3</ele>
        <time>2012-12-08T09:38:16Z</time>
      </trkpt>
      <trkpt lat="49.38639" lon="1.16277">
        <ele>145.6</ele>
        <time>2012-12-08T09:38:18Z</time>
      </trkpt>
      <trkpt lat="49.38634" lon="1.16267">
        <ele>145.8</ele>
        <time>2012-12-08T09:38:20Z</time>
      </trkpt>
      <trkpt lat="49.38628" lon="1.16257">
        <ele>146.1</ele>
        <time>2012-12-08T09:38:22Z</time>
      </trkpt>
      <trkpt lat="49.38622" lon="1.16248">
        <ele>146.6</ele>
        <time>2012-12-08T09:38:24Z</time>
      </trkpt>
      <trkpt lat="49.38616" lon="1.1624">
        <ele>146.6</ele>
        <time>2012-12-08T09:38:26Z</time>
      </trkpt>
      <trkpt lat="49.38609" lon="1.16232">
        <ele>147.1</ele>
        <time>2012-12-08T09:38:28Z</time>
      </trkpt>
      <trkpt lat="49.38606" lon="1.16228">
        <ele>147.3</ele>
        <time>2012-12-08T09:38:29Z</time>
      </trkpt>
      <trkpt lat="49.38596" lon="1.16216">
        <ele>148.3</ele>
        <time>2012-12-08T09:38:32Z</time>
      </trkpt>
      <trkpt lat="49.38589" lon="1.16209">
        <ele>148.6</ele>
        <time>2012-12-08T09:38:34Z</time>
      </trkpt>
      <trkpt lat="49.38582" lon="1.16202">
        <ele>149</ele>
        <time>2012-12-08T09:38:36Z</time>
      </trkpt>
      <trkpt lat="49.38576" lon="1.16195">
        <ele>149.5</ele>
        <time>2012-12-08T09:38:38Z</time>
      </trkpt>
      <trkpt lat="49.38568" lon="1.16188">
        <ele>150</ele>
        <time>2012-12-08T09:38:40Z</time>
      </trkpt>
      <trkpt lat="49.38562" lon="1.16182">
        <ele>150.6</ele>
        <time>2012-12-08T09:38:42Z</time>
      </trkpt>
      <trkpt lat="49.38555" lon="1.16175">
        <ele>151.1</ele>
        <time>2012-12-08T09:38:44Z</time>
      </trkpt>
      <trkpt lat="49.38548" lon="1.16168">
        <ele>151.6</ele>
        <time>2012-12-08T09:38:46Z</time>
      </trkpt>
      <trkpt lat="49.38541" lon="1.16161">
        <ele>152.1</ele>
        <time>2012-12-08T09:38:48Z</time>
      </trkpt>
      <trkpt lat="49.38534" lon="1.16154">
        <ele>152.6</ele>
        <time>2012-12-08T09:38:50Z</time>
      </trkpt>
      <trkpt lat="49.38527" lon="1.16147">
        <ele>152.6</ele>
        <time>2012-12-08T09:38:52Z</time>
      </trkpt>
      <trkpt lat="49.38521" lon="1.1614">
        <ele>153.1</ele>
        <time>2012-12-08T09:38:54Z</time>
      </trkpt>
      <trkpt lat="49.38514" lon="1.16132">
        <ele>153.5</ele>
        <time>2012-12-08T09:38:56Z</time>
      </trkpt>
      <trkpt lat="49.38507" lon="1.16123">
        <ele>153.8</ele>
        <time>2012-12-08T09:38:58Z</time>
      </trkpt>
      <trkpt lat="49.38501" lon="1.16114">
        <ele>154.1</ele>
        <time>2012-12-08T09:39:00Z</time>
      </trkpt>
      <trkpt lat="49.38495" lon="1.16105">
        <ele>154.6</ele>
        <time>2012-12-08T09:39:02Z</time>
      </trkpt>
      <trkpt lat="49.38489" lon="1.16096">
        <ele>155</ele>
        <time>2012-12-08T09:39:04Z</time>
      </trkpt>
      <trkpt lat="49.38483" lon="1.16086">
        <ele>155.3</ele>
        <time>2012-12-08T09:39:06Z</time>
      </trkpt>
      <trkpt lat="49.38477" lon="1.16077">
        <ele>155.1</ele>
        <time>2012-12-08T09:39:08Z</time>
      </trkpt>
      <trkpt lat="49.3847" lon="1.16067">
        <ele>155.1</ele>
        <time>2012-12-08T09:39:10Z</time>
      </trkpt>
      <trkpt lat="49.38467" lon="1.16062">
        <ele>155.1</ele>
        <time>2012-12-08T09:39:11Z</time>
      </trkpt>
      <trkpt lat="49.38461" lon="1.16053">
        <ele>155.1</ele>
        <time>2012-12-08T09:39:13Z</time>
      </trkpt>
      <trkpt lat="49.38454" lon="1.16043">
        <ele>155.1</ele>
        <time>2012-12-08T09:39:15Z</time>
      </trkpt>
      <trkpt lat="49.38448" lon="1.16033">
        <ele>155.1</ele>
        <time>2012-12-08T09:39:17Z</time>
      </trkpt>
      <trkpt lat="49.38442" lon="1.16024">
        <ele>155.3</ele>
        <time>2012-12-08T09:39:19Z</time>
      </trkpt>
      <trkpt lat="49.38436" lon="1.16014">
        <ele>155.1</ele>
        <time>2012-12-08T09:39:21Z</time>
      </trkpt>
      <trkpt lat="49.38431" lon="1.16004">
        <ele>155.3</ele>
        <time>2012-12-08T09:39:23Z</time>
      </trkpt>
      <trkpt lat="49.38425" lon="1.15994">
        <ele>155.1</ele>
        <time>2012-12-08T09:39:25Z</time>
      </trkpt>
      <trkpt lat="49.38419" lon="1.15984">
        <ele>155</ele>
        <time>2012-12-08T09:39:27Z</time>
      </trkpt>
      <trkpt lat="49.38413" lon="1.15974">
        <ele>154.6</ele>
        <time>2012-12-08T09:39:29Z</time>
      </trkpt>
      <trkpt lat="49.3841" lon="1.15969">
        <ele>154.1</ele>
        <time>2012-12-08T09:39:30Z</time>
      </trkpt>
      <trkpt lat="49.38404" lon="1.15958">
        <ele>153.6</ele>
        <time>2012-12-08T09:39:32Z</time>
      </trkpt>
      <trkpt lat="49.38401" lon="1.15953">
        <ele>153.3</ele>
        <time>2012-12-08T09:39:33Z</time>
      </trkpt>
      <trkpt lat="49.38398" lon="1.15947">
        <ele>153.1</ele>
        <time>2012-12-08T09:39:34Z</time>
      </trkpt>
      <trkpt lat="49.38396" lon="1.15941">
        <ele>152.8</ele>
        <time>2012-12-08T09:39:35Z</time>
      </trkpt>
      <trkpt lat="49.38393" lon="1.15936">
        <ele>152.6</ele>
        <time>2012-12-08T09:39:36Z</time>
      </trkpt>
      <trkpt lat="49.3839" lon="1.1593">
        <ele>152.5</ele>
        <time>2012-12-08T09:39:37Z</time>
      </trkpt>
      <trkpt lat="49.38387" lon="1.15924">
        <ele>152.3</ele>
        <time>2012-12-08T09:39:38Z</time>
      </trkpt>
      <trkpt lat="49.38384" lon="1.15919">
        <ele>152.1</ele>
        <time>2012-12-08T09:39:39Z</time>
      </trkpt>
      <trkpt lat="49.38381" lon="1.15913">
        <ele>151.8</ele>
        <time>2012-12-08T09:39:40Z</time>
      </trkpt>
      <trkpt lat="49.38379" lon="1.15908">
        <ele>151.6</ele>
        <time>2012-12-08T09:39:41Z</time>
      </trkpt>
      <trkpt lat="49.38374" lon="1.15896">
        <ele>151.3</ele>
        <time>2012-12-08T09:39:43Z</time>
      </trkpt>
      <trkpt lat="49.38369" lon="1.15885">
        <ele>151</ele>
        <time>2012-12-08T09:39:45Z</time>
      </trkpt>
      <trkpt lat="49.38366" lon="1.15879">
        <ele>150.8</ele>
        <time>2012-12-08T09:39:46Z</time>
      </trkpt>
      <trkpt lat="49.38364" lon="1.15873">
        <ele>150.6</ele>
        <time>2012-12-08T09:39:47Z</time>
      </trkpt>
      <trkpt lat="49.38362" lon="1.15867">
        <ele>150.3</ele>
        <time>2012-12-08T09:39:48Z</time>
      </trkpt>
      <trkpt lat="49.38359" lon="1.15861">
        <ele>150.1</ele>
        <time>2012-12-08T09:39:49Z</time>
      </trkpt>
      <trkpt lat="49.38357" lon="1.15855">
        <ele>150</ele>
        <time>2012-12-08T09:39:50Z</time>
      </trkpt>
      <trkpt lat="49.38355" lon="1.15849">
        <ele>149.8</ele>
        <time>2012-12-08T09:39:51Z</time>
      </trkpt>
      <trkpt lat="49.3835" lon="1.15837">
        <ele>149.3</ele>
        <time>2012-12-08T09:39:53Z</time>
      </trkpt>
      <trkpt lat="49.38346" lon="1.15825">
        <ele>149.1</ele>
        <time>2012-12-08T09:39:55Z</time>
      </trkpt>
      <trkpt lat="49.38342" lon="1.15813">
        <ele>148.8</ele>
        <time>2012-12-08T09:39:57Z</time>
      </trkpt>
      <trkpt lat="49.38338" lon="1.15802">
        <ele>148.8</ele>
        <time>2012-12-08T09:39:59Z</time>
      </trkpt>
      <trkpt lat="49.38334" lon="1.15791">
        <ele>148.5</ele>
        <time>2012-12-08T09:40:01Z</time>
      </trkpt>
      <trkpt lat="49.38331" lon="1.15783">
        <ele>148.3</ele>
        <time>2012-12-08T09:40:03Z</time>
      </trkpt>
      <trkpt lat="49.38327" lon="1.15772">
        <ele>148.5</ele>
        <time>2012-12-08T09:40:06Z</time>
      </trkpt>
      <trkpt lat="49.38326" lon="1.15759">
        <ele>148.1</ele>
        <time>2012-12-08T09:40:10Z</time>
      </trkpt>
      <trkpt lat="49.38333" lon="1.15754">
        <ele>148.6</ele>
        <time>2012-12-08T09:40:13Z</time>
      </trkpt>
      <trkpt lat="49.3834" lon="1.15758">
        <ele>150.1</ele>
        <time>2012-12-08T09:40:16Z</time>
      </trkpt>
      <trkpt lat="49.38349" lon="1.15761">
        <ele>151.6</ele>
        <time>2012-12-08T09:40:21Z</time>
      </trkpt>
      <trkpt lat="49.38356" lon="1.15763">
        <ele>152.3</ele>
        <time>2012-12-08T09:40:27Z</time>
      </trkpt>
      <trkpt lat="49.38364" lon="1.15765">
        <ele>152.8</ele>
        <time>2012-12-08T09:40:30Z</time>
      </trkpt>
      <trkpt lat="49.38367" lon="1.15766">
        <ele>152.6</ele>
        <time>2012-12-08T09:40:31Z</time>
      </trkpt>
      <trkpt lat="49.38379" lon="1.1577">
        <ele>153</ele>
        <time>2012-12-08T09:40:36Z</time>
      </trkpt>
      <trkpt lat="49.38388" lon="1.15772">
        <ele>152.6</ele>
        <time>2012-12-08T09:40:39Z</time>
      </trkpt>
      <trkpt lat="49.38396" lon="1.15775">
        <ele>152.3</ele>
        <time>2012-12-08T09:40:42Z</time>
      </trkpt>
      <trkpt lat="49.38405" lon="1.15778">
        <ele>151.8</ele>
        <time>2012-12-08T09:40:45Z</time>
      </trkpt>
      <trkpt lat="49.38413" lon="1.15781">
        <ele>151.1</ele>
        <time>2012-12-08T09:40:48Z</time>
      </trkpt>
      <trkpt lat="49.38421" lon="1.15783">
        <ele>150.3</ele>
        <time>2012-12-08T09:40:51Z</time>
      </trkpt>
      <trkpt lat="49.38429" lon="1.15786">
        <ele>150.3</ele>
        <time>2012-12-08T09:40:54Z</time>
      </trkpt>
      <trkpt lat="49.38437" lon="1.15788">
        <ele>149.8</ele>
        <time>2012-12-08T09:40:57Z</time>
      </trkpt>
      <trkpt lat="49.38445" lon="1.1579">
        <ele>149.3</ele>
        <time>2012-12-08T09:41:00Z</time>
      </trkpt>
      <trkpt lat="49.38451" lon="1.15791">
        <ele>149.1</ele>
        <time>2012-12-08T09:41:02Z</time>
      </trkpt>
      <trkpt lat="49.38458" lon="1.15793">
        <ele>148.8</ele>
        <time>2012-12-08T09:41:04Z</time>
      </trkpt>
      <trkpt lat="49.38464" lon="1.15795">
        <ele>148.6</ele>
        <time>2012-12-08T09:41:06Z</time>
      </trkpt>
      <trkpt lat="49.3847" lon="1.15796">
        <ele>148.5</ele>
        <time>2012-12-08T09:41:08Z</time>
      </trkpt>
      <trkpt lat="49.38477" lon="1.15798">
        <ele>148.1</ele>
        <time>2012-12-08T09:41:10Z</time>
      </trkpt>
      <trkpt lat="49.38483" lon="1.158">
        <ele>148.1</ele>
        <time>2012-12-08T09:41:12Z</time>
      </trkpt>
      <trkpt lat="49.3849" lon="1.15802">
        <ele>147.8</ele>
        <time>2012-12-08T09:41:14Z</time>
      </trkpt>
      <trkpt lat="49.38496" lon="1.15804">
        <ele>147.6</ele>
        <time>2012-12-08T09:41:16Z</time>
      </trkpt>
      <trkpt lat="49.38504" lon="1.15807">
        <ele>146.8</ele>
        <time>2012-12-08T09:41:19Z</time>
      </trkpt>
      <trkpt lat="49.38512" lon="1.15811">
        <ele>146.3</ele>
        <time>2012-12-08T09:41:22Z</time>
      </trkpt>
      <trkpt lat="49.3852" lon="1.15814">
        <ele>145.8</ele>
        <time>2012-12-08T09:41:25Z</time>
      </trkpt>
      <trkpt lat="49.38527" lon="1.15817">
        <ele>146</ele>
        <time>2012-12-08T09:41:28Z</time>
      </trkpt>
      <trkpt lat="49.38536" lon="1.15819">
        <ele>144.8</ele>
        <time>2012-12-08T09:41:33Z</time>
      </trkpt>
      <trkpt lat="49.38538" lon="1.1582">
        <ele>144.8</ele>
        <time>2012-12-08T09:41:34Z</time>
      </trkpt>
      <trkpt lat="49.38552" lon="1.15827">
        <ele>144.1</ele>
        <time>2012-12-08T09:41:39Z</time>
      </trkpt>
      <trkpt lat="49.38558" lon="1.15829">
        <ele>144</ele>
        <time>2012-12-08T09:41:41Z</time>
      </trkpt>
      <trkpt lat="49.38564" lon="1.15832">
        <ele>144</ele>
        <time>2012-12-08T09:41:43Z</time>
      </trkpt>
      <trkpt lat="49.3857" lon="1.15835">
        <ele>143.8</ele>
        <time>2012-12-08T09:41:45Z</time>
      </trkpt>
      <trkpt lat="49.38577" lon="1.15838">
        <ele>143.8</ele>
        <time>2012-12-08T09:41:47Z</time>
      </trkpt>
      <trkpt lat="49.38583" lon="1.1584">
        <ele>143.8</ele>
        <time>2012-12-08T09:41:49Z</time>
      </trkpt>
      <trkpt lat="49.3859" lon="1.15843">
        <ele>143.6</ele>
        <time>2012-12-08T09:41:51Z</time>
      </trkpt>
      <trkpt lat="49.38597" lon="1.15845">
        <ele>143.5</ele>
        <time>2012-12-08T09:41:53Z</time>
      </trkpt>
      <trkpt lat="49.38603" lon="1.15847">
        <ele>143.6</ele>
        <time>2012-12-08T09:41:55Z</time>
      </trkpt>
      <trkpt lat="49.38612" lon="1.15849">
        <ele>143.5</ele>
        <time>2012-12-08T09:41:58Z</time>
      </trkpt>
      <trkpt lat="49.3862" lon="1.1585">
        <ele>143.5</ele>
        <time>2012-12-08T09:42:01Z</time>
      </trkpt>
      <trkpt lat="49.38629" lon="1.15852">
        <ele>143.1</ele>
        <time>2012-12-08T09:42:04Z</time>
      </trkpt>
      <trkpt lat="49.38635" lon="1.15854">
        <ele>142.6</ele>
        <time>2012-12-08T09:42:06Z</time>
      </trkpt>
      <trkpt lat="49.38643" lon="1.15856">
        <ele>142.6</ele>
        <time>2012-12-08T09:42:09Z</time>
      </trkpt>
      <trkpt lat="49.38651" lon="1.15858">
        <ele>142.1</ele>
        <time>2012-12-08T09:42:13Z</time>
      </trkpt>
      <trkpt lat="49.38659" lon="1.15853">
        <ele>141.3</ele>
        <time>2012-12-08T09:42:16Z</time>
      </trkpt>
      <trkpt lat="49.38665" lon="1.15849">
        <ele>136</ele>
        <time>2012-12-08T09:42:20Z</time>
      </trkpt>
      <trkpt lat="49.38673" lon="1.15851">
        <ele>131</ele>
        <time>2012-12-08T09:42:23Z</time>
      </trkpt>
      <trkpt lat="49.38679" lon="1.1586">
        <ele>128.6</ele>
        <time>2012-12-08T09:42:26Z</time>
      </trkpt>
      <trkpt lat="49.38684" lon="1.15868">
        <ele>127.4</ele>
        <time>2012-12-08T09:42:28Z</time>
      </trkpt>
      <trkpt lat="49.38688" lon="1.15877">
        <ele>126</ele>
        <time>2012-12-08T09:42:30Z</time>
      </trkpt>
      <trkpt lat="49.38692" lon="1.15885">
        <ele>124</ele>
        <time>2012-12-08T09:42:32Z</time>
      </trkpt>
      <trkpt lat="49.38696" lon="1.15892">
        <ele>123.4</ele>
        <time>2012-12-08T09:42:34Z</time>
      </trkpt>
      <trkpt lat="49.38699" lon="1.15897">
        <ele>123</ele>
        <time>2012-12-08T09:42:35Z</time>
      </trkpt>
      <trkpt lat="49.38708" lon="1.15907">
        <ele>121.5</ele>
        <time>2012-12-08T09:42:38Z</time>
      </trkpt>
      <trkpt lat="49.38713" lon="1.15914">
        <ele>119.3</ele>
        <time>2012-12-08T09:42:40Z</time>
      </trkpt>
      <trkpt lat="49.38717" lon="1.15921">
        <ele>117.5</ele>
        <time>2012-12-08T09:42:42Z</time>
      </trkpt>
      <trkpt lat="49.38724" lon="1.15929">
        <ele>116.3</ele>
        <time>2012-12-08T09:42:45Z</time>
      </trkpt>
      <trkpt lat="49.38732" lon="1.15935">
        <ele>116</ele>
        <time>2012-12-08T09:42:48Z</time>
      </trkpt>
      <trkpt lat="49.38737" lon="1.15943">
        <ele>113.3</ele>
        <time>2012-12-08T09:42:51Z</time>
      </trkpt>
      <trkpt lat="49.38742" lon="1.15951">
        <ele>109.3</ele>
        <time>2012-12-08T09:42:54Z</time>
      </trkpt>
      <trkpt lat="49.38749" lon="1.15959">
        <ele>107</ele>
        <time>2012-12-08T09:42:57Z</time>
      </trkpt>
      <trkpt lat="49.38754" lon="1.15967">
        <ele>105.3</ele>
        <time>2012-12-08T09:43:00Z</time>
      </trkpt>
      <trkpt lat="49.38761" lon="1.15974">
        <ele>100.4</ele>
        <time>2012-12-08T09:43:04Z</time>
      </trkpt>
      <trkpt lat="49.38767" lon="1.15982">
        <ele>99</ele>
        <time>2012-12-08T09:43:07Z</time>
      </trkpt>
      <trkpt lat="49.38773" lon="1.15989">
        <ele>98</ele>
        <time>2012-12-08T09:43:09Z</time>
      </trkpt>
      <trkpt lat="49.38778" lon="1.15996">
        <ele>95.5</ele>
        <time>2012-12-08T09:43:12Z</time>
      </trkpt>
      <trkpt lat="49.38783" lon="1.16003">
        <ele>94</ele>
        <time>2012-12-08T09:43:14Z</time>
      </trkpt>
      <trkpt lat="49.38788" lon="1.16011">
        <ele>93.3</ele>
        <time>2012-12-08T09:43:16Z</time>
      </trkpt>
      <trkpt lat="49.38794" lon="1.16014">
        <ele>94.3</ele>
        <time>2012-12-08T09:43:18Z</time>
      </trkpt>
      <trkpt lat="49.38801" lon="1.16018">
        <ele>91.9</ele>
        <time>2012-12-08T09:43:20Z</time>
      </trkpt>
      <trkpt lat="49.38808" lon="1.16024">
        <ele>90.5</ele>
        <time>2012-12-08T09:43:22Z</time>
      </trkpt>
      <trkpt lat="49.38814" lon="1.16029">
        <ele>89.5</ele>
        <time>2012-12-08T09:43:24Z</time>
      </trkpt>
      <trkpt lat="49.38821" lon="1.16034">
        <ele>88.9</ele>
        <time>2012-12-08T09:43:26Z</time>
      </trkpt>
      <trkpt lat="49.38828" lon="1.16039">
        <ele>87.8</ele>
        <time>2012-12-08T09:43:29Z</time>
      </trkpt>
      <trkpt lat="49.38835" lon="1.16041">
        <ele>87.9</ele>
        <time>2012-12-08T09:43:32Z</time>
      </trkpt>
      <trkpt lat="49.38844" lon="1.1604">
        <ele>91.8</ele>
        <time>2012-12-08T09:43:36Z</time>
      </trkpt>
      <trkpt lat="49.38845" lon="1.1604">
        <ele>92.8</ele>
        <time>2012-12-08T09:43:37Z</time>
      </trkpt>
      <trkpt lat="49.38859" lon="1.16044">
        <ele>88.8</ele>
        <time>2012-12-08T09:45:02Z</time>
      </trkpt>
      <trkpt lat="49.3886" lon="1.16044">
        <ele>89</ele>
        <time>2012-12-08T09:45:03Z</time>
      </trkpt>
      <trkpt lat="49.38852" lon="1.16054">
        <ele>89.3</ele>
        <time>2012-12-08T09:47:47Z</time>
      </trkpt>
      <trkpt lat="49.38855" lon="1.16077">
        <ele>86</ele>
        <time>2012-12-08T09:47:59Z</time>
      </trkpt>
      <trkpt lat="49.38859" lon="1.16087">
        <ele>83.5</ele>
        <time>2012-12-08T09:48:03Z</time>
      </trkpt>
      <trkpt lat="49.38863" lon="1.16098">
        <ele>82</ele>
        <time>2012-12-08T09:48:07Z</time>
      </trkpt>
      <trkpt lat="49.38867" lon="1.16108">
        <ele>81.3</ele>
        <time>2012-12-08T09:48:10Z</time>
      </trkpt>
      <trkpt lat="49.38871" lon="1.16116">
        <ele>80</ele>
        <time>2012-12-08T09:48:12Z</time>
      </trkpt>
      <trkpt lat="49.38875" lon="1.16123">
        <ele>78</ele>
        <time>2012-12-08T09:48:14Z</time>
      </trkpt>
      <trkpt lat="49.38881" lon="1.16131">
        <ele>81.4</ele>
        <time>2012-12-08T09:48:18Z</time>
      </trkpt>
      <trkpt lat="49.38887" lon="1.16136">
        <ele>82.3</ele>
        <time>2012-12-08T09:48:21Z</time>
      </trkpt>
      <trkpt lat="49.38893" lon="1.16142">
        <ele>80.5</ele>
        <time>2012-12-08T09:48:24Z</time>
      </trkpt>
      <trkpt lat="49.38898" lon="1.16151">
        <ele>79.5</ele>
        <time>2012-12-08T09:48:27Z</time>
      </trkpt>
      <trkpt lat="49.38904" lon="1.16159">
        <ele>82.3</ele>
        <time>2012-12-08T09:48:30Z</time>
      </trkpt>
      <trkpt lat="49.3891" lon="1.16167">
        <ele>85</ele>
        <time>2012-12-08T09:48:34Z</time>
      </trkpt>
      <trkpt lat="49.38914" lon="1.16178">
        <ele>87.8</ele>
        <time>2012-12-08T09:48:37Z</time>
      </trkpt>
      <trkpt lat="49.38919" lon="1.16185">
        <ele>91.5</ele>
        <time>2012-12-08T09:48:40Z</time>
      </trkpt>
      <trkpt lat="49.38925" lon="1.16195">
        <ele>98.3</ele>
        <time>2012-12-08T09:48:44Z</time>
      </trkpt>
      <trkpt lat="49.3893" lon="1.16205">
        <ele>96.5</ele>
        <time>2012-12-08T09:48:47Z</time>
      </trkpt>
      <trkpt lat="49.38932" lon="1.16209">
        <ele>96</ele>
        <time>2012-12-08T09:48:48Z</time>
      </trkpt>
      <trkpt lat="49.38938" lon="1.16225">
        <ele>100.8</ele>
        <time>2012-12-08T09:48:53Z</time>
      </trkpt>
      <trkpt lat="49.38944" lon="1.16234">
        <ele>104.8</ele>
        <time>2012-12-08T09:48:57Z</time>
      </trkpt>
      <trkpt lat="49.38949" lon="1.16241">
        <ele>105.5</ele>
        <time>2012-12-08T09:49:00Z</time>
      </trkpt>
      <trkpt lat="49.38953" lon="1.16249">
        <ele>108.3</ele>
        <time>2012-12-08T09:49:02Z</time>
      </trkpt>
      <trkpt lat="49.38958" lon="1.16257">
        <ele>104.5</ele>
        <time>2012-12-08T09:49:04Z</time>
      </trkpt>
      <trkpt lat="49.38962" lon="1.16264">
        <ele>104</ele>
        <time>2012-12-08T09:49:06Z</time>
      </trkpt>
      <trkpt lat="49.38968" lon="1.16271">
        <ele>101.5</ele>
        <time>2012-12-08T09:49:08Z</time>
      </trkpt>
      <trkpt lat="49.38973" lon="1.16277">
        <ele>101.8</ele>
        <time>2012-12-08T09:49:10Z</time>
      </trkpt>
      <trkpt lat="49.3898" lon="1.16284">
        <ele>101</ele>
        <time>2012-12-08T09:49:13Z</time>
      </trkpt>
      <trkpt lat="49.38986" lon="1.16291">
        <ele>102</ele>
        <time>2012-12-08T09:49:17Z</time>
      </trkpt>
      <trkpt lat="49.38992" lon="1.16298">
        <ele>98.5</ele>
        <time>2012-12-08T09:49:20Z</time>
      </trkpt>
      <trkpt lat="49.38999" lon="1.16305">
        <ele>99.9</ele>
        <time>2012-12-08T09:49:23Z</time>
      </trkpt>
      <trkpt lat="49.39004" lon="1.16315">
        <ele>106.5</ele>
        <time>2012-12-08T09:49:28Z</time>
      </trkpt>
      <trkpt lat="49.39012" lon="1.16318">
        <ele>107</ele>
        <time>2012-12-08T09:49:32Z</time>
      </trkpt>
      <trkpt lat="49.39018" lon="1.16308">
        <ele>109.8</ele>
        <time>2012-12-08T09:49:42Z</time>
      </trkpt>
      <trkpt lat="49.39015" lon="1.16296">
        <ele>114.4</ele>
        <time>2012-12-08T09:49:48Z</time>
      </trkpt>
      <trkpt lat="49.39015" lon="1.16293">
        <ele>113</ele>
        <time>2012-12-08T09:49:49Z</time>
      </trkpt>
      <trkpt lat="49.39008" lon="1.16276">
        <ele>108.9</ele>
        <time>2012-12-08T09:49:57Z</time>
      </trkpt>
      <trkpt lat="49.39005" lon="1.16264">
        <ele>107.4</ele>
        <time>2012-12-08T09:50:02Z</time>
      </trkpt>
      <trkpt lat="49.39002" lon="1.16253">
        <ele>110.4</ele>
        <time>2012-12-08T09:50:06Z</time>
      </trkpt>
      <trkpt lat="49.38999" lon="1.16241">
        <ele>110.5</ele>
        <time>2012-12-08T09:50:11Z</time>
      </trkpt>
      <trkpt lat="49.38994" lon="1.16229">
        <ele>111</ele>
        <time>2012-12-08T09:50:15Z</time>
      </trkpt>
      <trkpt lat="49.38991" lon="1.16217">
        <ele>112.5</ele>
        <time>2012-12-08T09:50:19Z</time>
      </trkpt>
      <trkpt lat="49.38988" lon="1.16205">
        <ele>113.5</ele>
        <time>2012-12-08T09:50:23Z</time>
      </trkpt>
      <trkpt lat="49.38985" lon="1.16194">
        <ele>110</ele>
        <time>2012-12-08T09:50:27Z</time>
      </trkpt>
      <trkpt lat="49.3898" lon="1.16183">
        <ele>111.4</ele>
        <time>2012-12-08T09:50:32Z</time>
      </trkpt>
      <trkpt lat="49.38978" lon="1.16171">
        <ele>111.5</ele>
        <time>2012-12-08T09:50:36Z</time>
      </trkpt>
      <trkpt lat="49.38974" lon="1.16159">
        <ele>110.8</ele>
        <time>2012-12-08T09:50:41Z</time>
      </trkpt>
      <trkpt lat="49.3897" lon="1.1615">
        <ele>114.5</ele>
        <time>2012-12-08T09:50:46Z</time>
      </trkpt>
      <trkpt lat="49.38964" lon="1.16141">
        <ele>116</ele>
        <time>2012-12-08T09:50:50Z</time>
      </trkpt>
      <trkpt lat="49.38963" lon="1.16139">
        <ele>117.5</ele>
        <time>2012-12-08T09:50:51Z</time>
      </trkpt>
      <trkpt lat="49.38954" lon="1.1612">
        <ele>123.5</ele>
        <time>2012-12-08T09:51:02Z</time>
      </trkpt>
      <trkpt lat="49.38951" lon="1.16107">
        <ele>125.5</ele>
        <time>2012-12-08T09:51:10Z</time>
      </trkpt>
      <trkpt lat="49.38946" lon="1.16099">
        <ele>128</ele>
        <time>2012-12-08T09:51:14Z</time>
      </trkpt>
      <trkpt lat="49.38941" lon="1.16088">
        <ele>130.5</ele>
        <time>2012-12-08T09:51:19Z</time>
      </trkpt>
      <trkpt lat="49.38935" lon="1.16078">
        <ele>129.5</ele>
        <time>2012-12-08T09:51:25Z</time>
      </trkpt>
      <trkpt lat="49.38929" lon="1.16068">
        <ele>126.3</ele>
        <time>2012-12-08T09:51:30Z</time>
      </trkpt>
      <trkpt lat="49.38925" lon="1.16057">
        <ele>125.5</ele>
        <time>2012-12-08T09:51:35Z</time>
      </trkpt>
      <trkpt lat="49.38921" lon="1.16046">
        <ele>125.5</ele>
        <time>2012-12-08T09:51:40Z</time>
      </trkpt>
      <trkpt lat="49.38918" lon="1.16035">
        <ele>125</ele>
        <time>2012-12-08T09:51:45Z</time>
      </trkpt>
      <trkpt lat="49.38916" lon="1.16022">
        <ele>123.9</ele>
        <time>2012-12-08T09:51:51Z</time>
      </trkpt>
      <trkpt lat="49.38916" lon="1.1602">
        <ele>122.8</ele>
        <time>2012-12-08T09:51:52Z</time>
      </trkpt>
      <trkpt lat="49.38915" lon="1.15997">
        <ele>120</ele>
        <time>2012-12-08T09:52:02Z</time>
      </trkpt>
      <trkpt lat="49.38915" lon="1.15984">
        <ele>122</ele>
        <time>2012-12-08T09:52:08Z</time>
      </trkpt>
      <trkpt lat="49.38916" lon="1.15971">
        <ele>125.8</ele>
        <time>2012-12-08T09:52:13Z</time>
      </trkpt>
      <trkpt lat="49.3892" lon="1.1596">
        <ele>125</ele>
        <time>2012-12-08T09:52:18Z</time>
      </trkpt>
      <trkpt lat="49.38925" lon="1.15948">
        <ele>128</ele>
        <time>2012-12-08T09:52:23Z</time>
      </trkpt>
      <trkpt lat="49.38931" lon="1.15938">
        <ele>131.5</ele>
        <time>2012-12-08T09:52:29Z</time>
      </trkpt>
      <trkpt lat="49.38934" lon="1.15927">
        <ele>134.1</ele>
        <time>2012-12-08T09:52:36Z</time>
      </trkpt>
      <trkpt lat="49.3894" lon="1.15918">
        <ele>139.6</ele>
        <time>2012-12-08T09:52:45Z</time>
      </trkpt>
      <trkpt lat="49.38948" lon="1.15912">
        <ele>137.3</ele>
        <time>2012-12-08T09:53:00Z</time>
      </trkpt>
      <trkpt lat="49.38948" lon="1.15911">
        <ele>137.6</ele>
        <time>2012-12-08T09:53:01Z</time>
      </trkpt>
      <trkpt lat="49.38959" lon="1.15892">
        <ele>151.3</ele>
        <time>2012-12-08T09:53:36Z</time>
      </trkpt>
      <trkpt lat="49.38967" lon="1.15886">
        <ele>149.8</ele>
        <time>2012-12-08T09:54:09Z</time>
      </trkpt>
      <trkpt lat="49.38967" lon="1.15886">
        <ele>149.5</ele>
        <time>2012-12-08T09:54:10Z</time>
      </trkpt>
      <trkpt lat="49.38983" lon="1.1589">
        <ele>139.8</ele>
        <time>2012-12-08T09:54:31Z</time>
      </trkpt>
      <trkpt lat="49.38991" lon="1.15886">
        <ele>140.1</ele>
        <time>2012-12-08T09:54:37Z</time>
      </trkpt>
      <trkpt lat="49.38999" lon="1.1588">
        <ele>141.3</ele>
        <time>2012-12-08T09:54:42Z</time>
      </trkpt>
      <trkpt lat="49.39007" lon="1.15875">
        <ele>142.5</ele>
        <time>2012-12-08T09:54:47Z</time>
      </trkpt>
      <trkpt lat="49.39014" lon="1.15869">
        <ele>143.3</ele>
        <time>2012-12-08T09:54:51Z</time>
      </trkpt>
      <trkpt lat="49.39021" lon="1.15865">
        <ele>144.5</ele>
        <time>2012-12-08T09:54:55Z</time>
      </trkpt>
      <trkpt lat="49.39028" lon="1.15859">
        <ele>145</ele>
        <time>2012-12-08T09:54:59Z</time>
      </trkpt>
      <trkpt lat="49.39035" lon="1.15853">
        <ele>144.8</ele>
        <time>2012-12-08T09:55:03Z</time>
      </trkpt>
      <trkpt lat="49.39042" lon="1.15848">
        <ele>145.1</ele>
        <time>2012-12-08T09:55:06Z</time>
      </trkpt>
      <trkpt lat="49.39048" lon="1.15843">
        <ele>145.6</ele>
        <time>2012-12-08T09:55:09Z</time>
      </trkpt>
      <trkpt lat="49.39055" lon="1.15838">
        <ele>145.6</ele>
        <time>2012-12-08T09:55:12Z</time>
      </trkpt>
      <trkpt lat="49.39057" lon="1.15836">
        <ele>145.8</ele>
        <time>2012-12-08T09:55:13Z</time>
      </trkpt>
      <trkpt lat="49.39069" lon="1.15827">
        <ele>146</ele>
        <time>2012-12-08T09:55:18Z</time>
      </trkpt>
      <trkpt lat="49.39077" lon="1.15822">
        <ele>145.8</ele>
        <time>2012-12-08T09:55:21Z</time>
      </trkpt>
      <trkpt lat="49.39084" lon="1.15816">
        <ele>145.8</ele>
        <time>2012-12-08T09:55:24Z</time>
      </trkpt>
      <trkpt lat="49.39091" lon="1.1581">
        <ele>145.8</ele>
        <time>2012-12-08T09:55:27Z</time>
      </trkpt>
      <trkpt lat="49.39097" lon="1.15805">
        <ele>145.8</ele>
        <time>2012-12-08T09:55:30Z</time>
      </trkpt>
      <trkpt lat="49.39104" lon="1.158">
        <ele>145.8</ele>
        <time>2012-12-08T09:55:33Z</time>
      </trkpt>
      <trkpt lat="49.3911" lon="1.15795">
        <ele>145.8</ele>
        <time>2012-12-08T09:55:36Z</time>
      </trkpt>
      <trkpt lat="49.39118" lon="1.1579">
        <ele>145.8</ele>
        <time>2012-12-08T09:55:41Z</time>
      </trkpt>
      <trkpt lat="49.39126" lon="1.15784">
        <ele>145.6</ele>
        <time>2012-12-08T09:55:46Z</time>
      </trkpt>
      <trkpt lat="49.39133" lon="1.15778">
        <ele>145.3</ele>
        <time>2012-12-08T09:56:01Z</time>
      </trkpt>
      <trkpt lat="49.39139" lon="1.15772">
        <ele>144.3</ele>
        <time>2012-12-08T09:56:06Z</time>
      </trkpt>
      <trkpt lat="49.39146" lon="1.15766">
        <ele>144.1</ele>
        <time>2012-12-08T09:56:10Z</time>
      </trkpt>
      <trkpt lat="49.39152" lon="1.15758">
        <ele>144.5</ele>
        <time>2012-12-08T09:56:15Z</time>
      </trkpt>
      <trkpt lat="49.39152" lon="1.15756">
        <ele>144.5</ele>
        <time>2012-12-08T09:56:16Z</time>
      </trkpt>
      <trkpt lat="49.3915" lon="1.15743">
        <ele>143.6</ele>
        <time>2012-12-08T09:58:46Z</time>
      </trkpt>
      <trkpt lat="49.39144" lon="1.15721">
        <ele>144.6</ele>
        <time>2012-12-08T09:58:52Z</time>
      </trkpt>
      <trkpt lat="49.39142" lon="1.15713">
        <ele>145</ele>
        <time>2012-12-08T09:58:54Z</time>
      </trkpt>
      <trkpt lat="49.3914" lon="1.15703">
        <ele>145.8</ele>
        <time>2012-12-08T09:58:56Z</time>
      </trkpt>
      <trkpt lat="49.39137" lon="1.1569">
        <ele>146.5</ele>
        <time>2012-12-08T09:58:59Z</time>
      </trkpt>
      <trkpt lat="49.39135" lon="1.15679">
        <ele>146.8</ele>
        <time>2012-12-08T09:59:02Z</time>
      </trkpt>
      <trkpt lat="49.39133" lon="1.1567">
        <ele>147.3</ele>
        <time>2012-12-08T09:59:05Z</time>
      </trkpt>
      <trkpt lat="49.3913" lon="1.15658">
        <ele>147.6</ele>
        <time>2012-12-08T09:59:08Z</time>
      </trkpt>
      <trkpt lat="49.39128" lon="1.15649">
        <ele>147.8</ele>
        <time>2012-12-08T09:59:10Z</time>
      </trkpt>
      <trkpt lat="49.39126" lon="1.15639">
        <ele>148.3</ele>
        <time>2012-12-08T09:59:12Z</time>
      </trkpt>
      <trkpt lat="49.39123" lon="1.15629">
        <ele>148.6</ele>
        <time>2012-12-08T09:59:14Z</time>
      </trkpt>
      <trkpt lat="49.39121" lon="1.15619">
        <ele>149.1</ele>
        <time>2012-12-08T09:59:16Z</time>
      </trkpt>
      <trkpt lat="49.39118" lon="1.15607">
        <ele>149.5</ele>
        <time>2012-12-08T09:59:19Z</time>
      </trkpt>
      <trkpt lat="49.39115" lon="1.15595">
        <ele>150.1</ele>
        <time>2012-12-08T09:59:22Z</time>
      </trkpt>
      <trkpt lat="49.39112" lon="1.15584">
        <ele>150.3</ele>
        <time>2012-12-08T09:59:25Z</time>
      </trkpt>
      <trkpt lat="49.39109" lon="1.15572">
        <ele>150.3</ele>
        <time>2012-12-08T09:59:28Z</time>
      </trkpt>
      <trkpt lat="49.39107" lon="1.15563">
        <ele>150.3</ele>
        <time>2012-12-08T09:59:30Z</time>
      </trkpt>
      <trkpt lat="49.39104" lon="1.15552">
        <ele>150.3</ele>
        <time>2012-12-08T09:59:32Z</time>
      </trkpt>
      <trkpt lat="49.39102" lon="1.15542">
        <ele>150.3</ele>
        <time>2012-12-08T09:59:34Z</time>
      </trkpt>
      <trkpt lat="49.391" lon="1.15531">
        <ele>150.3</ele>
        <time>2012-12-08T09:59:36Z</time>
      </trkpt>
      <trkpt lat="49.39098" lon="1.15522">
        <ele>150.6</ele>
        <time>2012-12-08T09:59:38Z</time>
      </trkpt>
      <trkpt lat="49.39095" lon="1.15512">
        <ele>150.6</ele>
        <time>2012-12-08T09:59:40Z</time>
      </trkpt>
      <trkpt lat="49.39093" lon="1.15501">
        <ele>150.6</ele>
        <time>2012-12-08T09:59:42Z</time>
      </trkpt>
      <trkpt lat="49.39091" lon="1.15492">
        <ele>150.8</ele>
        <time>2012-12-08T09:59:44Z</time>
      </trkpt>
      <trkpt lat="49.39089" lon="1.15482">
        <ele>150.8</ele>
        <time>2012-12-08T09:59:46Z</time>
      </trkpt>
      <trkpt lat="49.39088" lon="1.15478">
        <ele>150.6</ele>
        <time>2012-12-08T09:59:47Z</time>
      </trkpt>
      <trkpt lat="49.39085" lon="1.15463">
        <ele>150.8</ele>
        <time>2012-12-08T09:59:50Z</time>
      </trkpt>
      <trkpt lat="49.39082" lon="1.15453">
        <ele>150.3</ele>
        <time>2012-12-08T09:59:52Z</time>
      </trkpt>
      <trkpt lat="49.39079" lon="1.15442">
        <ele>150.1</ele>
        <time>2012-12-08T09:59:54Z</time>
      </trkpt>
      <trkpt lat="49.39077" lon="1.15431">
        <ele>150.1</ele>
        <time>2012-12-08T09:59:56Z</time>
      </trkpt>
      <trkpt lat="49.39074" lon="1.1542">
        <ele>150.1</ele>
        <time>2012-12-08T09:59:58Z</time>
      </trkpt>
      <trkpt lat="49.39072" lon="1.15409">
        <ele>150.1</ele>
        <time>2012-12-08T10:00:00Z</time>
      </trkpt>
      <trkpt lat="49.3907" lon="1.15399">
        <ele>150.1</ele>
        <time>2012-12-08T10:00:02Z</time>
      </trkpt>
      <trkpt lat="49.39067" lon="1.15388">
        <ele>150.1</ele>
        <time>2012-12-08T10:00:04Z</time>
      </trkpt>
      <trkpt lat="49.39065" lon="1.15377">
        <ele>149.1</ele>
        <time>2012-12-08T10:00:06Z</time>
      </trkpt>
      <trkpt lat="49.39063" lon="1.15366">
        <ele>148.5</ele>
        <time>2012-12-08T10:00:08Z</time>
      </trkpt>
      <trkpt lat="49.39061" lon="1.15354">
        <ele>148</ele>
        <time>2012-12-08T10:00:10Z</time>
      </trkpt>
      <trkpt lat="49.3906" lon="1.15343">
        <ele>147.3</ele>
        <time>2012-12-08T10:00:12Z</time>
      </trkpt>
      <trkpt lat="49.39058" lon="1.15331">
        <ele>147.1</ele>
        <time>2012-12-08T10:00:14Z</time>
      </trkpt>
      <trkpt lat="49.39056" lon="1.15317">
        <ele>146.6</ele>
        <time>2012-12-08T10:00:16Z</time>
      </trkpt>
      <trkpt lat="49.39055" lon="1.15303">
        <ele>146.1</ele>
        <time>2012-12-08T10:00:18Z</time>
      </trkpt>
      <trkpt lat="49.39054" lon="1.15297">
        <ele>146</ele>
        <time>2012-12-08T10:00:19Z</time>
      </trkpt>
      <trkpt lat="49.39054" lon="1.1529">
        <ele>145.8</ele>
        <time>2012-12-08T10:00:20Z</time>
      </trkpt>
      <trkpt lat="49.39053" lon="1.15283">
        <ele>145.6</ele>
        <time>2012-12-08T10:00:21Z</time>
      </trkpt>
      <trkpt lat="49.39052" lon="1.15276">
        <ele>145.1</ele>
        <time>2012-12-08T10:00:22Z</time>
      </trkpt>
      <trkpt lat="49.39051" lon="1.15269">
        <ele>144.8</ele>
        <time>2012-12-08T10:00:23Z</time>
      </trkpt>
      <trkpt lat="49.3905" lon="1.15262">
        <ele>144.5</ele>
        <time>2012-12-08T10:00:24Z</time>
      </trkpt>
      <trkpt lat="49.3905" lon="1.15255">
        <ele>144.1</ele>
        <time>2012-12-08T10:00:25Z</time>
      </trkpt>
      <trkpt lat="49.39048" lon="1.15243">
        <ele>143.8</ele>
        <time>2012-12-08T10:00:27Z</time>
      </trkpt>
      <trkpt lat="49.39047" lon="1.1523">
        <ele>143.3</ele>
        <time>2012-12-08T10:00:30Z</time>
      </trkpt>
      <trkpt lat="49.39045" lon="1.15221">
        <ele>143</ele>
        <time>2012-12-08T10:00:32Z</time>
      </trkpt>
      <trkpt lat="49.39044" lon="1.15211">
        <ele>142.6</ele>
        <time>2012-12-08T10:00:34Z</time>
      </trkpt>
      <trkpt lat="49.39042" lon="1.152">
        <ele>142.3</ele>
        <time>2012-12-08T10:00:36Z</time>
      </trkpt>
      <trkpt lat="49.39039" lon="1.15189">
        <ele>142.5</ele>
        <time>2012-12-08T10:00:38Z</time>
      </trkpt>
      <trkpt lat="49.39037" lon="1.15177">
        <ele>142.1</ele>
        <time>2012-12-08T10:00:40Z</time>
      </trkpt>
      <trkpt lat="49.39034" lon="1.15164">
        <ele>141.8</ele>
        <time>2012-12-08T10:00:42Z</time>
      </trkpt>
      <trkpt lat="49.39031" lon="1.15152">
        <ele>141.3</ele>
        <time>2012-12-08T10:00:44Z</time>
      </trkpt>
      <trkpt lat="49.39029" lon="1.15139">
        <ele>141.3</ele>
        <time>2012-12-08T10:00:46Z</time>
      </trkpt>
      <trkpt lat="49.39026" lon="1.15126">
        <ele>141.3</ele>
        <time>2012-12-08T10:00:48Z</time>
      </trkpt>
      <trkpt lat="49.39025" lon="1.1512">
        <ele>141.3</ele>
        <time>2012-12-08T10:00:49Z</time>
      </trkpt>
      <trkpt lat="49.39022" lon="1.15107">
        <ele>141.6</ele>
        <time>2012-12-08T10:00:51Z</time>
      </trkpt>
      <trkpt lat="49.39021" lon="1.151">
        <ele>141.6</ele>
        <time>2012-12-08T10:00:52Z</time>
      </trkpt>
      <trkpt lat="49.39019" lon="1.15093">
        <ele>141.6</ele>
        <time>2012-12-08T10:00:53Z</time>
      </trkpt>
      <trkpt lat="49.39018" lon="1.15086">
        <ele>141.8</ele>
        <time>2012-12-08T10:00:54Z</time>
      </trkpt>
      <trkpt lat="49.39016" lon="1.15079">
        <ele>141.8</ele>
        <time>2012-12-08T10:00:55Z</time>
      </trkpt>
      <trkpt lat="49.39015" lon="1.15072">
        <ele>141.8</ele>
        <time>2012-12-08T10:00:56Z</time>
      </trkpt>
      <trkpt lat="49.39014" lon="1.15066">
        <ele>141.8</ele>
        <time>2012-12-08T10:00:57Z</time>
      </trkpt>
      <trkpt lat="49.39011" lon="1.15052">
        <ele>141.6</ele>
        <time>2012-12-08T10:00:59Z</time>
      </trkpt>
      <trkpt lat="49.39009" lon="1.15039">
        <ele>141.3</ele>
        <time>2012-12-08T10:01:01Z</time>
      </trkpt>
      <trkpt lat="49.39001" lon="1.14992">
        <ele>141.6</ele>
        <time>2012-12-08T10:01:08Z</time>
      </trkpt>
      <trkpt lat="49.38999" lon="1.14979">
        <ele>142.1</ele>
        <time>2012-12-08T10:01:10Z</time>
      </trkpt>
      <trkpt lat="49.38997" lon="1.14966">
        <ele>142</ele>
        <time>2012-12-08T10:01:12Z</time>
      </trkpt>
      <trkpt lat="49.38996" lon="1.14953">
        <ele>142</ele>
        <time>2012-12-08T10:01:14Z</time>
      </trkpt>
      <trkpt lat="49.38994" lon="1.1494">
        <ele>141.8</ele>
        <time>2012-12-08T10:01:16Z</time>
      </trkpt>
      <trkpt lat="49.38993" lon="1.14928">
        <ele>141.6</ele>
        <time>2012-12-08T10:01:18Z</time>
      </trkpt>
      <trkpt lat="49.38991" lon="1.14915">
        <ele>141.6</ele>
        <time>2012-12-08T10:01:20Z</time>
      </trkpt>
      <trkpt lat="49.3899" lon="1.14903">
        <ele>141.3</ele>
        <time>2012-12-08T10:01:22Z</time>
      </trkpt>
      <trkpt lat="49.3899" lon="1.1489">
        <ele>141.1</ele>
        <time>2012-12-08T10:01:24Z</time>
      </trkpt>
      <trkpt lat="49.38988" lon="1.14876">
        <ele>141</ele>
        <time>2012-12-08T10:01:26Z</time>
      </trkpt>
      <trkpt lat="49.38988" lon="1.1487">
        <ele>140.8</ele>
        <time>2012-12-08T10:01:27Z</time>
      </trkpt>
      <trkpt lat="49.38987" lon="1.14863">
        <ele>140.6</ele>
        <time>2012-12-08T10:01:28Z</time>
      </trkpt>
      <trkpt lat="49.38986" lon="1.14856">
        <ele>140.6</ele>
        <time>2012-12-08T10:01:29Z</time>
      </trkpt>
      <trkpt lat="49.38985" lon="1.14849">
        <ele>140.5</ele>
        <time>2012-12-08T10:01:30Z</time>
      </trkpt>
      <trkpt lat="49.38984" lon="1.14842">
        <ele>140.3</ele>
        <time>2012-12-08T10:01:31Z</time>
      </trkpt>
      <trkpt lat="49.38983" lon="1.14829">
        <ele>139.8</ele>
        <time>2012-12-08T10:01:33Z</time>
      </trkpt>
      <trkpt lat="49.38981" lon="1.14816">
        <ele>139.6</ele>
        <time>2012-12-08T10:01:35Z</time>
      </trkpt>
      <trkpt lat="49.3898" lon="1.14804">
        <ele>139.8</ele>
        <time>2012-12-08T10:01:37Z</time>
      </trkpt>
      <trkpt lat="49.38978" lon="1.14793">
        <ele>140</ele>
        <time>2012-12-08T10:01:39Z</time>
      </trkpt>
      <trkpt lat="49.38977" lon="1.14781">
        <ele>140.1</ele>
        <time>2012-12-08T10:01:41Z</time>
      </trkpt>
      <trkpt lat="49.38976" lon="1.14769">
        <ele>140.3</ele>
        <time>2012-12-08T10:01:43Z</time>
      </trkpt>
      <trkpt lat="49.38975" lon="1.14757">
        <ele>140.5</ele>
        <time>2012-12-08T10:01:45Z</time>
      </trkpt>
      <trkpt lat="49.38975" lon="1.14746">
        <ele>140.6</ele>
        <time>2012-12-08T10:01:47Z</time>
      </trkpt>
      <trkpt lat="49.38974" lon="1.14735">
        <ele>140.6</ele>
        <time>2012-12-08T10:01:49Z</time>
      </trkpt>
      <trkpt lat="49.38973" lon="1.14729">
        <ele>140.6</ele>
        <time>2012-12-08T10:01:50Z</time>
      </trkpt>
      <trkpt lat="49.38972" lon="1.1471">
        <ele>140.3</ele>
        <time>2012-12-08T10:01:53Z</time>
      </trkpt>
      <trkpt lat="49.38972" lon="1.14697">
        <ele>140.3</ele>
        <time>2012-12-08T10:01:55Z</time>
      </trkpt>
      <trkpt lat="49.38971" lon="1.14685">
        <ele>140.3</ele>
        <time>2012-12-08T10:01:57Z</time>
      </trkpt>
      <trkpt lat="49.38971" lon="1.14674">
        <ele>140.5</ele>
        <time>2012-12-08T10:01:59Z</time>
      </trkpt>
      <trkpt lat="49.38971" lon="1.14663">
        <ele>140.8</ele>
        <time>2012-12-08T10:02:01Z</time>
      </trkpt>
      <trkpt lat="49.38972" lon="1.14652">
        <ele>141.1</ele>
        <time>2012-12-08T10:02:03Z</time>
      </trkpt>
      <trkpt lat="49.38971" lon="1.1464">
        <ele>141.1</ele>
        <time>2012-12-08T10:02:05Z</time>
      </trkpt>
      <trkpt lat="49.38972" lon="1.14628">
        <ele>141</ele>
        <time>2012-12-08T10:02:07Z</time>
      </trkpt>
      <trkpt lat="49.38972" lon="1.14615">
        <ele>140.6</ele>
        <time>2012-12-08T10:02:09Z</time>
      </trkpt>
      <trkpt lat="49.38973" lon="1.14602">
        <ele>141</ele>
        <time>2012-12-08T10:02:11Z</time>
      </trkpt>
      <trkpt lat="49.38974" lon="1.1459">
        <ele>142.1</ele>
        <time>2012-12-08T10:02:13Z</time>
      </trkpt>
      <trkpt lat="49.38975" lon="1.14577">
        <ele>142.5</ele>
        <time>2012-12-08T10:02:15Z</time>
      </trkpt>
      <trkpt lat="49.38975" lon="1.14565">
        <ele>142.3</ele>
        <time>2012-12-08T10:02:17Z</time>
      </trkpt>
      <trkpt lat="49.38977" lon="1.14553">
        <ele>141.1</ele>
        <time>2012-12-08T10:02:19Z</time>
      </trkpt>
      <trkpt lat="49.38978" lon="1.14542">
        <ele>140.3</ele>
        <time>2012-12-08T10:02:21Z</time>
      </trkpt>
      <trkpt lat="49.38979" lon="1.14531">
        <ele>138</ele>
        <time>2012-12-08T10:02:23Z</time>
      </trkpt>
      <trkpt lat="49.38984" lon="1.1452">
        <ele>139.5</ele>
        <time>2012-12-08T10:02:25Z</time>
      </trkpt>
      <trkpt lat="49.38991" lon="1.14511">
        <ele>141.1</ele>
        <time>2012-12-08T10:02:27Z</time>
      </trkpt>
      <trkpt lat="49.38998" lon="1.14504">
        <ele>141.6</ele>
        <time>2012-12-08T10:02:29Z</time>
      </trkpt>
      <trkpt lat="49.39006" lon="1.145">
        <ele>143.3</ele>
        <time>2012-12-08T10:02:31Z</time>
      </trkpt>
      <trkpt lat="49.39013" lon="1.14495">
        <ele>144.8</ele>
        <time>2012-12-08T10:02:33Z</time>
      </trkpt>
      <trkpt lat="49.39017" lon="1.14491">
        <ele>144.8</ele>
        <time>2012-12-08T10:02:34Z</time>
      </trkpt>
      <trkpt lat="49.39021" lon="1.14487">
        <ele>146.8</ele>
        <time>2012-12-08T10:02:35Z</time>
      </trkpt>
      <trkpt lat="49.39027" lon="1.1448">
        <ele>145.8</ele>
        <time>2012-12-08T10:02:37Z</time>
      </trkpt>
      <trkpt lat="49.39033" lon="1.14471">
        <ele>148.3</ele>
        <time>2012-12-08T10:03:44Z</time>
      </trkpt>
      <trkpt lat="49.39035" lon="1.1447">
        <ele>148.1</ele>
        <time>2012-12-08T10:03:45Z</time>
      </trkpt>
      <trkpt lat="49.39047" lon="1.14475">
        <ele>146.6</ele>
        <time>2012-12-08T10:03:56Z</time>
      </trkpt>
      <trkpt lat="49.39052" lon="1.14477">
        <ele>146.8</ele>
        <time>2012-12-08T10:03:57Z</time>
      </trkpt>
      <trkpt lat="49.39057" lon="1.14478">
        <ele>146.8</ele>
        <time>2012-12-08T10:03:58Z</time>
      </trkpt>
      <trkpt lat="49.39063" lon="1.14477">
        <ele>147.3</ele>
        <time>2012-12-08T10:03:59Z</time>
      </trkpt>
      <trkpt lat="49.39068" lon="1.14477">
        <ele>147.6</ele>
        <time>2012-12-08T10:04:00Z</time>
      </trkpt>
      <trkpt lat="49.39074" lon="1.14476">
        <ele>147.3</ele>
        <time>2012-12-08T10:04:01Z</time>
      </trkpt>
      <trkpt lat="49.3908" lon="1.14475">
        <ele>147.3</ele>
        <time>2012-12-08T10:04:02Z</time>
      </trkpt>
      <trkpt lat="49.39085" lon="1.14474">
        <ele>146.8</ele>
        <time>2012-12-08T10:04:03Z</time>
      </trkpt>
      <trkpt lat="49.3909" lon="1.14473">
        <ele>146.3</ele>
        <time>2012-12-08T10:04:04Z</time>
      </trkpt>
      <trkpt lat="49.39095" lon="1.14473">
        <ele>145.3</ele>
        <time>2012-12-08T10:04:05Z</time>
      </trkpt>
      <trkpt lat="49.391" lon="1.14473">
        <ele>145.1</ele>
        <time>2012-12-08T10:04:06Z</time>
      </trkpt>
      <trkpt lat="49.39106" lon="1.14473">
        <ele>144.8</ele>
        <time>2012-12-08T10:04:07Z</time>
      </trkpt>
      <trkpt lat="49.39111" lon="1.14472">
        <ele>144.6</ele>
        <time>2012-12-08T10:04:08Z</time>
      </trkpt>
      <trkpt lat="49.39117" lon="1.14471">
        <ele>144.3</ele>
        <time>2012-12-08T10:04:09Z</time>
      </trkpt>
      <trkpt lat="49.39122" lon="1.14471">
        <ele>143.8</ele>
        <time>2012-12-08T10:04:10Z</time>
      </trkpt>
      <trkpt lat="49.39128" lon="1.14469">
        <ele>144.5</ele>
        <time>2012-12-08T10:04:11Z</time>
      </trkpt>
      <trkpt lat="49.39134" lon="1.14468">
        <ele>144.6</ele>
        <time>2012-12-08T10:04:12Z</time>
      </trkpt>
      <trkpt lat="49.39139" lon="1.14466">
        <ele>144.3</ele>
        <time>2012-12-08T10:04:13Z</time>
      </trkpt>
      <trkpt lat="49.39143" lon="1.14465">
        <ele>144.3</ele>
        <time>2012-12-08T10:04:14Z</time>
      </trkpt>
      <trkpt lat="49.39148" lon="1.14464">
        <ele>145.3</ele>
        <time>2012-12-08T10:04:15Z</time>
      </trkpt>
      <trkpt lat="49.39152" lon="1.14462">
        <ele>144.8</ele>
        <time>2012-12-08T10:04:16Z</time>
      </trkpt>
      <trkpt lat="49.39157" lon="1.14459">
        <ele>145.6</ele>
        <time>2012-12-08T10:04:17Z</time>
      </trkpt>
      <trkpt lat="49.39161" lon="1.14455">
        <ele>146</ele>
        <time>2012-12-08T10:04:18Z</time>
      </trkpt>
      <trkpt lat="49.39166" lon="1.1445">
        <ele>146.6</ele>
        <time>2012-12-08T10:04:19Z</time>
      </trkpt>
      <trkpt lat="49.3917" lon="1.14445">
        <ele>147.3</ele>
        <time>2012-12-08T10:04:20Z</time>
      </trkpt>
      <trkpt lat="49.39174" lon="1.14439">
        <ele>147.6</ele>
        <time>2012-12-08T10:04:21Z</time>
      </trkpt>
      <trkpt lat="49.39177" lon="1.14434">
        <ele>147.3</ele>
        <time>2012-12-08T10:04:22Z</time>
      </trkpt>
      <trkpt lat="49.39181" lon="1.14428">
        <ele>147.5</ele>
        <time>2012-12-08T10:04:23Z</time>
      </trkpt>
      <trkpt lat="49.39184" lon="1.14422">
        <ele>147</ele>
        <time>2012-12-08T10:04:24Z</time>
      </trkpt>
      <trkpt lat="49.39188" lon="1.14418">
        <ele>146.8</ele>
        <time>2012-12-08T10:04:25Z</time>
      </trkpt>
      <trkpt lat="49.39192" lon="1.14413">
        <ele>147.1</ele>
        <time>2012-12-08T10:04:26Z</time>
      </trkpt>
      <trkpt lat="49.39196" lon="1.14408">
        <ele>147.1</ele>
        <time>2012-12-08T10:04:27Z</time>
      </trkpt>
      <trkpt lat="49.39201" lon="1.14403">
        <ele>147</ele>
        <time>2012-12-08T10:04:28Z</time>
      </trkpt>
      <trkpt lat="49.39204" lon="1.14398">
        <ele>146.8</ele>
        <time>2012-12-08T10:04:29Z</time>
      </trkpt>
      <trkpt lat="49.39207" lon="1.14392">
        <ele>147</ele>
        <time>2012-12-08T10:04:30Z</time>
      </trkpt>
      <trkpt lat="49.39211" lon="1.14387">
        <ele>147</ele>
        <time>2012-12-08T10:04:31Z</time>
      </trkpt>
      <trkpt lat="49.39217" lon="1.14377">
        <ele>146.6</ele>
        <time>2012-12-08T10:04:33Z</time>
      </trkpt>
      <trkpt lat="49.39222" lon="1.14366">
        <ele>146.3</ele>
        <time>2012-12-08T10:04:35Z</time>
      </trkpt>
      <trkpt lat="49.39226" lon="1.14356">
        <ele>145.5</ele>
        <time>2012-12-08T10:04:37Z</time>
      </trkpt>
      <trkpt lat="49.39228" lon="1.14345">
        <ele>144.8</ele>
        <time>2012-12-08T10:04:39Z</time>
      </trkpt>
      <trkpt lat="49.39231" lon="1.14335">
        <ele>144</ele>
        <time>2012-12-08T10:04:41Z</time>
      </trkpt>
      <trkpt lat="49.39233" lon="1.14325">
        <ele>143.6</ele>
        <time>2012-12-08T10:04:43Z</time>
      </trkpt>
      <trkpt lat="49.39236" lon="1.14315">
        <ele>143.3</ele>
        <time>2012-12-08T10:04:45Z</time>
      </trkpt>
      <trkpt lat="49.39237" lon="1.1431">
        <ele>143.1</ele>
        <time>2012-12-08T10:04:46Z</time>
      </trkpt>
      <trkpt lat="49.39243" lon="1.14295">
        <ele>145.3</ele>
        <time>2012-12-08T10:04:49Z</time>
      </trkpt>
      <trkpt lat="49.39247" lon="1.14285">
        <ele>146.3</ele>
        <time>2012-12-08T10:04:51Z</time>
      </trkpt>
      <trkpt lat="49.3925" lon="1.14274">
        <ele>146.8</ele>
        <time>2012-12-08T10:04:53Z</time>
      </trkpt>
      <trkpt lat="49.39253" lon="1.14263">
        <ele>147.3</ele>
        <time>2012-12-08T10:04:55Z</time>
      </trkpt>
      <trkpt lat="49.39256" lon="1.14253">
        <ele>147</ele>
        <time>2012-12-08T10:04:57Z</time>
      </trkpt>
      <trkpt lat="49.39258" lon="1.14244">
        <ele>147.3</ele>
        <time>2012-12-08T10:04:59Z</time>
      </trkpt>
      <trkpt lat="49.39262" lon="1.14231">
        <ele>147.1</ele>
        <time>2012-12-08T10:05:02Z</time>
      </trkpt>
      <trkpt lat="49.39264" lon="1.14222">
        <ele>146.8</ele>
        <time>2012-12-08T10:05:04Z</time>
      </trkpt>
      <trkpt lat="49.39267" lon="1.14213">
        <ele>146.8</ele>
        <time>2012-12-08T10:05:06Z</time>
      </trkpt>
      <trkpt lat="49.39271" lon="1.14202">
        <ele>146.6</ele>
        <time>2012-12-08T10:05:08Z</time>
      </trkpt>
      <trkpt lat="49.39274" lon="1.14192">
        <ele>145.8</ele>
        <time>2012-12-08T10:05:10Z</time>
      </trkpt>
      <trkpt lat="49.39277" lon="1.14181">
        <ele>145.3</ele>
        <time>2012-12-08T10:05:12Z</time>
      </trkpt>
      <trkpt lat="49.3928" lon="1.14171">
        <ele>145.1</ele>
        <time>2012-12-08T10:05:14Z</time>
      </trkpt>
      <trkpt lat="49.39284" lon="1.14159">
        <ele>144.8</ele>
        <time>2012-12-08T10:05:16Z</time>
      </trkpt>
      <trkpt lat="49.39287" lon="1.14147">
        <ele>144.6</ele>
        <time>2012-12-08T10:05:18Z</time>
      </trkpt>
      <trkpt lat="49.39291" lon="1.14136">
        <ele>144.3</ele>
        <time>2012-12-08T10:05:20Z</time>
      </trkpt>
      <trkpt lat="49.39294" lon="1.14125">
        <ele>144.1</ele>
        <time>2012-12-08T10:05:22Z</time>
      </trkpt>
      <trkpt lat="49.39297" lon="1.14115">
        <ele>144.1</ele>
        <time>2012-12-08T10:05:24Z</time>
      </trkpt>
      <trkpt lat="49.393" lon="1.14105">
        <ele>144</ele>
        <time>2012-12-08T10:05:26Z</time>
      </trkpt>
      <trkpt lat="49.39302" lon="1.14095">
        <ele>144.1</ele>
        <time>2012-12-08T10:05:28Z</time>
      </trkpt>
      <trkpt lat="49.39305" lon="1.14086">
        <ele>144</ele>
        <time>2012-12-08T10:05:30Z</time>
      </trkpt>
      <trkpt lat="49.39307" lon="1.14076">
        <ele>143.6</ele>
        <time>2012-12-08T10:05:32Z</time>
      </trkpt>
      <trkpt lat="49.3931" lon="1.14066">
        <ele>143.6</ele>
        <time>2012-12-08T10:05:34Z</time>
      </trkpt>
      <trkpt lat="49.39314" lon="1.14056">
        <ele>143.6</ele>
        <time>2012-12-08T10:05:36Z</time>
      </trkpt>
      <trkpt lat="49.39317" lon="1.14046">
        <ele>143.1</ele>
        <time>2012-12-08T10:05:38Z</time>
      </trkpt>
      <trkpt lat="49.39321" lon="1.14036">
        <ele>143.3</ele>
        <time>2012-12-08T10:05:40Z</time>
      </trkpt>
      <trkpt lat="49.39324" lon="1.14025">
        <ele>143</ele>
        <time>2012-12-08T10:05:42Z</time>
      </trkpt>
      <trkpt lat="49.39328" lon="1.14014">
        <ele>142.8</ele>
        <time>2012-12-08T10:05:44Z</time>
      </trkpt>
      <trkpt lat="49.39332" lon="1.14003">
        <ele>142.5</ele>
        <time>2012-12-08T10:05:46Z</time>
      </trkpt>
      <trkpt lat="49.39334" lon="1.13998">
        <ele>142.3</ele>
        <time>2012-12-08T10:05:47Z</time>
      </trkpt>
      <trkpt lat="49.39342" lon="1.13983">
        <ele>142.3</ele>
        <time>2012-12-08T10:05:50Z</time>
      </trkpt>
      <trkpt lat="49.39348" lon="1.13974">
        <ele>142.1</ele>
        <time>2012-12-08T10:05:52Z</time>
      </trkpt>
      <trkpt lat="49.39354" lon="1.13966">
        <ele>141.6</ele>
        <time>2012-12-08T10:05:54Z</time>
      </trkpt>
      <trkpt lat="49.39362" lon="1.13959">
        <ele>141.1</ele>
        <time>2012-12-08T10:05:56Z</time>
      </trkpt>
      <trkpt lat="49.39369" lon="1.13952">
        <ele>140.6</ele>
        <time>2012-12-08T10:05:58Z</time>
      </trkpt>
      <trkpt lat="49.39377" lon="1.13945">
        <ele>140</ele>
        <time>2012-12-08T10:06:00Z</time>
      </trkpt>
      <trkpt lat="49.39381" lon="1.13941">
        <ele>139.8</ele>
        <time>2012-12-08T10:06:01Z</time>
      </trkpt>
      <trkpt lat="49.39385" lon="1.13937">
        <ele>139.6</ele>
        <time>2012-12-08T10:06:02Z</time>
      </trkpt>
      <trkpt lat="49.39389" lon="1.13933">
        <ele>139.3</ele>
        <time>2012-12-08T10:06:03Z</time>
      </trkpt>
      <trkpt lat="49.39392" lon="1.13928">
        <ele>139.1</ele>
        <time>2012-12-08T10:06:04Z</time>
      </trkpt>
      <trkpt lat="49.39396" lon="1.13923">
        <ele>139.1</ele>
        <time>2012-12-08T10:06:05Z</time>
      </trkpt>
      <trkpt lat="49.394" lon="1.13918">
        <ele>138.6</ele>
        <time>2012-12-08T10:06:06Z</time>
      </trkpt>
      <trkpt lat="49.39403" lon="1.13912">
        <ele>138.3</ele>
        <time>2012-12-08T10:06:07Z</time>
      </trkpt>
      <trkpt lat="49.39407" lon="1.13906">
        <ele>138.3</ele>
        <time>2012-12-08T10:06:08Z</time>
      </trkpt>
      <trkpt lat="49.3941" lon="1.13899">
        <ele>138</ele>
        <time>2012-12-08T10:06:09Z</time>
      </trkpt>
      <trkpt lat="49.39412" lon="1.13892">
        <ele>137.8</ele>
        <time>2012-12-08T10:06:10Z</time>
      </trkpt>
      <trkpt lat="49.39415" lon="1.13885">
        <ele>137.8</ele>
        <time>2012-12-08T10:06:11Z</time>
      </trkpt>
      <trkpt lat="49.39418" lon="1.13879">
        <ele>137.6</ele>
        <time>2012-12-08T10:06:12Z</time>
      </trkpt>
      <trkpt lat="49.3942" lon="1.13872">
        <ele>137.6</ele>
        <time>2012-12-08T10:06:13Z</time>
      </trkpt>
      <trkpt lat="49.39423" lon="1.13865">
        <ele>137.5</ele>
        <time>2012-12-08T10:06:14Z</time>
      </trkpt>
      <trkpt lat="49.39425" lon="1.13858">
        <ele>137.3</ele>
        <time>2012-12-08T10:06:15Z</time>
      </trkpt>
      <trkpt lat="49.39428" lon="1.13851">
        <ele>137.1</ele>
        <time>2012-12-08T10:06:16Z</time>
      </trkpt>
      <trkpt lat="49.3943" lon="1.13845">
        <ele>137</ele>
        <time>2012-12-08T10:06:17Z</time>
      </trkpt>
      <trkpt lat="49.39432" lon="1.13838">
        <ele>136.6</ele>
        <time>2012-12-08T10:06:18Z</time>
      </trkpt>
      <trkpt lat="49.39435" lon="1.13831">
        <ele>136.3</ele>
        <time>2012-12-08T10:06:19Z</time>
      </trkpt>
      <trkpt lat="49.39437" lon="1.13825">
        <ele>136.1</ele>
        <time>2012-12-08T10:06:20Z</time>
      </trkpt>
      <trkpt lat="49.3944" lon="1.13819">
        <ele>136.1</ele>
        <time>2012-12-08T10:06:21Z</time>
      </trkpt>
      <trkpt lat="49.39442" lon="1.13812">
        <ele>135.6</ele>
        <time>2012-12-08T10:06:22Z</time>
      </trkpt>
      <trkpt lat="49.39447" lon="1.13802">
        <ele>136.3</ele>
        <time>2012-12-08T10:06:24Z</time>
      </trkpt>
      <trkpt lat="49.39452" lon="1.13793">
        <ele>136.3</ele>
        <time>2012-12-08T10:06:26Z</time>
      </trkpt>
      <trkpt lat="49.39458" lon="1.13785">
        <ele>136.3</ele>
        <time>2012-12-08T10:06:28Z</time>
      </trkpt>
      <trkpt lat="49.39463" lon="1.13777">
        <ele>136.6</ele>
        <time>2012-12-08T10:06:30Z</time>
      </trkpt>
      <trkpt lat="49.39468" lon="1.13767">
        <ele>137.1</ele>
        <time>2012-12-08T10:06:32Z</time>
      </trkpt>
      <trkpt lat="49.39473" lon="1.13759">
        <ele>137.8</ele>
        <time>2012-12-08T10:06:34Z</time>
      </trkpt>
      <trkpt lat="49.39479" lon="1.13751">
        <ele>138.6</ele>
        <time>2012-12-08T10:06:36Z</time>
      </trkpt>
      <trkpt lat="49.39483" lon="1.13746">
        <ele>138.8</ele>
        <time>2012-12-08T10:06:37Z</time>
      </trkpt>
      <trkpt lat="49.39487" lon="1.13741">
        <ele>140</ele>
        <time>2012-12-08T10:06:38Z</time>
      </trkpt>
      <trkpt lat="49.39491" lon="1.13737">
        <ele>140.6</ele>
        <time>2012-12-08T10:06:39Z</time>
      </trkpt>
      <trkpt lat="49.39495" lon="1.13733">
        <ele>141.5</ele>
        <time>2012-12-08T10:06:40Z</time>
      </trkpt>
      <trkpt lat="49.39499" lon="1.13729">
        <ele>142.1</ele>
        <time>2012-12-08T10:06:41Z</time>
      </trkpt>
      <trkpt lat="49.39503" lon="1.13726">
        <ele>142.8</ele>
        <time>2012-12-08T10:06:42Z</time>
      </trkpt>
      <trkpt lat="49.39507" lon="1.13722">
        <ele>144</ele>
        <time>2012-12-08T10:06:43Z</time>
      </trkpt>
      <trkpt lat="49.39513" lon="1.13719">
        <ele>146.6</ele>
        <time>2012-12-08T10:06:44Z</time>
      </trkpt>
      <trkpt lat="49.39517" lon="1.13715">
        <ele>147.3</ele>
        <time>2012-12-08T10:06:45Z</time>
      </trkpt>
      <trkpt lat="49.39521" lon="1.13711">
        <ele>147.8</ele>
        <time>2012-12-08T10:06:46Z</time>
      </trkpt>
      <trkpt lat="49.39526" lon="1.13707">
        <ele>148.6</ele>
        <time>2012-12-08T10:06:47Z</time>
      </trkpt>
      <trkpt lat="49.3953" lon="1.13702">
        <ele>149.6</ele>
        <time>2012-12-08T10:06:48Z</time>
      </trkpt>
      <trkpt lat="49.39533" lon="1.13698">
        <ele>150.5</ele>
        <time>2012-12-08T10:06:49Z</time>
      </trkpt>
      <trkpt lat="49.39538" lon="1.13693">
        <ele>151.6</ele>
        <time>2012-12-08T10:06:50Z</time>
      </trkpt>
      <trkpt lat="49.39543" lon="1.13688">
        <ele>153.1</ele>
        <time>2012-12-08T10:06:51Z</time>
      </trkpt>
      <trkpt lat="49.39548" lon="1.13683">
        <ele>154.5</ele>
        <time>2012-12-08T10:06:52Z</time>
      </trkpt>
      <trkpt lat="49.39553" lon="1.13678">
        <ele>156</ele>
        <time>2012-12-08T10:06:53Z</time>
      </trkpt>
      <trkpt lat="49.39558" lon="1.13673">
        <ele>157</ele>
        <time>2012-12-08T10:06:54Z</time>
      </trkpt>
      <trkpt lat="49.39563" lon="1.13667">
        <ele>157.8</ele>
        <time>2012-12-08T10:06:55Z</time>
      </trkpt>
      <trkpt lat="49.39567" lon="1.13661">
        <ele>159</ele>
        <time>2012-12-08T10:06:56Z</time>
      </trkpt>
      <trkpt lat="49.39571" lon="1.13656">
        <ele>159.8</ele>
        <time>2012-12-08T10:06:57Z</time>
      </trkpt>
      <trkpt lat="49.39576" lon="1.13651">
        <ele>161</ele>
        <time>2012-12-08T10:06:58Z</time>
      </trkpt>
      <trkpt lat="49.39581" lon="1.13645">
        <ele>162</ele>
        <time>2012-12-08T10:06:59Z</time>
      </trkpt>
      <trkpt lat="49.39586" lon="1.13639">
        <ele>163.3</ele>
        <time>2012-12-08T10:07:00Z</time>
      </trkpt>
      <trkpt lat="49.39592" lon="1.13633">
        <ele>164.1</ele>
        <time>2012-12-08T10:07:01Z</time>
      </trkpt>
      <trkpt lat="49.39597" lon="1.13627">
        <ele>165.1</ele>
        <time>2012-12-08T10:07:02Z</time>
      </trkpt>
      <trkpt lat="49.396" lon="1.13621">
        <ele>165.3</ele>
        <time>2012-12-08T10:07:03Z</time>
      </trkpt>
      <trkpt lat="49.39603" lon="1.13616">
        <ele>165.6</ele>
        <time>2012-12-08T10:07:04Z</time>
      </trkpt>
      <trkpt lat="49.39604" lon="1.13608">
        <ele>160.1</ele>
        <time>2012-12-08T10:07:05Z</time>
      </trkpt>
      <trkpt lat="49.39609" lon="1.13597">
        <ele>157.3</ele>
        <time>2012-12-08T10:07:07Z</time>
      </trkpt>
      <trkpt lat="49.39613" lon="1.13592">
        <ele>157.6</ele>
        <time>2012-12-08T10:07:08Z</time>
      </trkpt>
      <trkpt lat="49.39617" lon="1.13587">
        <ele>157.8</ele>
        <time>2012-12-08T10:07:09Z</time>
      </trkpt>
      <trkpt lat="49.39622" lon="1.13583">
        <ele>157.8</ele>
        <time>2012-12-08T10:07:10Z</time>
      </trkpt>
      <trkpt lat="49.39625" lon="1.13577">
        <ele>157.6</ele>
        <time>2012-12-08T10:07:11Z</time>
      </trkpt>
      <trkpt lat="49.39629" lon="1.13573">
        <ele>158.3</ele>
        <time>2012-12-08T10:07:12Z</time>
      </trkpt>
      <trkpt lat="49.39636" lon="1.13564">
        <ele>158.8</ele>
        <time>2012-12-08T10:07:14Z</time>
      </trkpt>
      <trkpt lat="49.39643" lon="1.13558">
        <ele>158.8</ele>
        <time>2012-12-08T10:07:16Z</time>
      </trkpt>
      <trkpt lat="49.39647" lon="1.13554">
        <ele>159</ele>
        <time>2012-12-08T10:07:17Z</time>
      </trkpt>
      <trkpt lat="49.39652" lon="1.1355">
        <ele>159.1</ele>
        <time>2012-12-08T10:07:18Z</time>
      </trkpt>
      <trkpt lat="49.39655" lon="1.13547">
        <ele>159.1</ele>
        <time>2012-12-08T10:07:19Z</time>
      </trkpt>
      <trkpt lat="49.3966" lon="1.13542">
        <ele>159.1</ele>
        <time>2012-12-08T10:07:20Z</time>
      </trkpt>
      <trkpt lat="49.39665" lon="1.13537">
        <ele>159.3</ele>
        <time>2012-12-08T10:07:21Z</time>
      </trkpt>
      <trkpt lat="49.3967" lon="1.13533">
        <ele>159.6</ele>
        <time>2012-12-08T10:07:22Z</time>
      </trkpt>
      <trkpt lat="49.39675" lon="1.13528">
        <ele>159.6</ele>
        <time>2012-12-08T10:07:23Z</time>
      </trkpt>
      <trkpt lat="49.39679" lon="1.13523">
        <ele>159.3</ele>
        <time>2012-12-08T10:07:24Z</time>
      </trkpt>
      <trkpt lat="49.39684" lon="1.13519">
        <ele>159.1</ele>
        <time>2012-12-08T10:07:25Z</time>
      </trkpt>
      <trkpt lat="49.39689" lon="1.13515">
        <ele>159.1</ele>
        <time>2012-12-08T10:07:26Z</time>
      </trkpt>
      <trkpt lat="49.39693" lon="1.13511">
        <ele>158.8</ele>
        <time>2012-12-08T10:07:27Z</time>
      </trkpt>
      <trkpt lat="49.39698" lon="1.13507">
        <ele>159.1</ele>
        <time>2012-12-08T10:07:28Z</time>
      </trkpt>
      <trkpt lat="49.39702" lon="1.13503">
        <ele>158.8</ele>
        <time>2012-12-08T10:07:29Z</time>
      </trkpt>
      <trkpt lat="49.39706" lon="1.13498">
        <ele>158.3</ele>
        <time>2012-12-08T10:07:30Z</time>
      </trkpt>
      <trkpt lat="49.39713" lon="1.1349">
        <ele>157.6</ele>
        <time>2012-12-08T10:07:32Z</time>
      </trkpt>
      <trkpt lat="49.39719" lon="1.13483">
        <ele>154.6</ele>
        <time>2012-12-08T10:07:34Z</time>
      </trkpt>
      <trkpt lat="49.39726" lon="1.13477">
        <ele>152.6</ele>
        <time>2012-12-08T10:07:37Z</time>
      </trkpt>
      <trkpt lat="49.39734" lon="1.13471">
        <ele>149.1</ele>
        <time>2012-12-08T10:07:41Z</time>
      </trkpt>
      <trkpt lat="49.39742" lon="1.13464">
        <ele>145.1</ele>
        <time>2012-12-08T10:07:44Z</time>
      </trkpt>
      <trkpt lat="49.39746" lon="1.13452">
        <ele>125</ele>
        <time>2012-12-08T10:07:50Z</time>
      </trkpt>
      <trkpt lat="49.39747" lon="1.13451">
        <ele>124</ele>
        <time>2012-12-08T10:07:51Z</time>
      </trkpt>
      <trkpt lat="49.3976" lon="1.13452">
        <ele>120</ele>
        <time>2012-12-08T10:07:56Z</time>
      </trkpt>
      <trkpt lat="49.39768" lon="1.1345">
        <ele>117.5</ele>
        <time>2012-12-08T10:07:59Z</time>
      </trkpt>
      <trkpt lat="49.39777" lon="1.13448">
        <ele>113</ele>
        <time>2012-12-08T10:08:05Z</time>
      </trkpt>
      <trkpt lat="49.39785" lon="1.13447">
        <ele>108.8</ele>
        <time>2012-12-08T10:08:12Z</time>
      </trkpt>
      <trkpt lat="49.39792" lon="1.13441">
        <ele>104.9</ele>
        <time>2012-12-08T10:08:21Z</time>
      </trkpt>
      <trkpt lat="49.398" lon="1.13436">
        <ele>101.9</ele>
        <time>2012-12-08T10:08:26Z</time>
      </trkpt>
      <trkpt lat="49.39806" lon="1.13429">
        <ele>96.5</ele>
        <time>2012-12-08T10:08:30Z</time>
      </trkpt>
      <trkpt lat="49.39812" lon="1.13422">
        <ele>98</ele>
        <time>2012-12-08T10:08:32Z</time>
      </trkpt>
      <trkpt lat="49.39817" lon="1.13412">
        <ele>99.5</ele>
        <time>2012-12-08T10:08:35Z</time>
      </trkpt>
      <trkpt lat="49.39822" lon="1.13402">
        <ele>99</ele>
        <time>2012-12-08T10:08:40Z</time>
      </trkpt>
      <trkpt lat="49.39825" lon="1.1339">
        <ele>96.5</ele>
        <time>2012-12-08T10:08:45Z</time>
      </trkpt>
      <trkpt lat="49.39827" lon="1.13377">
        <ele>95</ele>
        <time>2012-12-08T10:08:49Z</time>
      </trkpt>
      <trkpt lat="49.3983" lon="1.13367">
        <ele>93.8</ele>
        <time>2012-12-08T10:08:52Z</time>
      </trkpt>
      <trkpt lat="49.3983" lon="1.13363">
        <ele>93.3</ele>
        <time>2012-12-08T10:08:53Z</time>
      </trkpt>
      <trkpt lat="49.39833" lon="1.13342">
        <ele>90.4</ele>
        <time>2012-12-08T10:08:59Z</time>
      </trkpt>
      <trkpt lat="49.39838" lon="1.13332">
        <ele>87</ele>
        <time>2012-12-08T10:09:06Z</time>
      </trkpt>
      <trkpt lat="49.39845" lon="1.13323">
        <ele>81</ele>
        <time>2012-12-08T10:09:17Z</time>
      </trkpt>
      <trkpt lat="49.39852" lon="1.13316">
        <ele>78</ele>
        <time>2012-12-08T10:09:27Z</time>
      </trkpt>
      <trkpt lat="49.39859" lon="1.1331">
        <ele>78</ele>
        <time>2012-12-08T10:09:37Z</time>
      </trkpt>
      <trkpt lat="49.39866" lon="1.13307">
        <ele>78</ele>
        <time>2012-12-08T10:09:41Z</time>
      </trkpt>
      <trkpt lat="49.39874" lon="1.13302">
        <ele>78.5</ele>
        <time>2012-12-08T10:09:45Z</time>
      </trkpt>
      <trkpt lat="49.39881" lon="1.13296">
        <ele>79</ele>
        <time>2012-12-08T10:09:49Z</time>
      </trkpt>
      <trkpt lat="49.39888" lon="1.13291">
        <ele>79</ele>
        <time>2012-12-08T10:09:52Z</time>
      </trkpt>
      <trkpt lat="49.39894" lon="1.13286">
        <ele>79</ele>
        <time>2012-12-08T10:09:55Z</time>
      </trkpt>
      <trkpt lat="49.39896" lon="1.13284">
        <ele>79</ele>
        <time>2012-12-08T10:09:56Z</time>
      </trkpt>
      <trkpt lat="49.39908" lon="1.13279">
        <ele>74.3</ele>
        <time>2012-12-08T10:10:21Z</time>
      </trkpt>
      <trkpt lat="49.39916" lon="1.13276">
        <ele>75.3</ele>
        <time>2012-12-08T10:10:27Z</time>
      </trkpt>
      <trkpt lat="49.39923" lon="1.1327">
        <ele>75</ele>
        <time>2012-12-08T10:10:31Z</time>
      </trkpt>
      <trkpt lat="49.39931" lon="1.13264">
        <ele>74.4</ele>
        <time>2012-12-08T10:10:35Z</time>
      </trkpt>
      <trkpt lat="49.39938" lon="1.13259">
        <ele>73.3</ele>
        <time>2012-12-08T10:10:38Z</time>
      </trkpt>
      <trkpt lat="49.39943" lon="1.13251">
        <ele>72.5</ele>
        <time>2012-12-08T10:10:41Z</time>
      </trkpt>
      <trkpt lat="49.39944" lon="1.13242">
        <ele>72</ele>
        <time>2012-12-08T10:10:43Z</time>
      </trkpt>
      <trkpt lat="49.39945" lon="1.13232">
        <ele>71.5</ele>
        <time>2012-12-08T10:10:45Z</time>
      </trkpt>
      <trkpt lat="49.39951" lon="1.13223">
        <ele>72.4</ele>
        <time>2012-12-08T10:10:48Z</time>
      </trkpt>
      <trkpt lat="49.39958" lon="1.13217">
        <ele>72.9</ele>
        <time>2012-12-08T10:10:57Z</time>
      </trkpt>
      <trkpt lat="49.39959" lon="1.13217">
        <ele>72.5</ele>
        <time>2012-12-08T10:10:58Z</time>
      </trkpt>
      <trkpt lat="49.39974" lon="1.13209">
        <ele>69</ele>
        <time>2012-12-08T10:11:30Z</time>
      </trkpt>
      <trkpt lat="49.3998" lon="1.13205">
        <ele>69</ele>
        <time>2012-12-08T10:11:34Z</time>
      </trkpt>
      <trkpt lat="49.39987" lon="1.13198">
        <ele>67.8</ele>
        <time>2012-12-08T10:11:37Z</time>
      </trkpt>
      <trkpt lat="49.39994" lon="1.13192">
        <ele>66</ele>
        <time>2012-12-08T10:11:41Z</time>
      </trkpt>
      <trkpt lat="49.40002" lon="1.13188">
        <ele>60.5</ele>
        <time>2012-12-08T10:11:58Z</time>
      </trkpt>
      <trkpt lat="49.40003" lon="1.13187">
        <ele>60.2</ele>
        <time>2012-12-08T10:11:59Z</time>
      </trkpt>
      <trkpt lat="49.4001" lon="1.13168">
        <ele>57</ele>
        <time>2012-12-08T10:12:12Z</time>
      </trkpt>
      <trkpt lat="49.40011" lon="1.13154">
        <ele>56.9</ele>
        <time>2012-12-08T10:12:17Z</time>
      </trkpt>
      <trkpt lat="49.40011" lon="1.13142">
        <ele>57.2</ele>
        <time>2012-12-08T10:12:22Z</time>
      </trkpt>
      <trkpt lat="49.40012" lon="1.13133">
        <ele>57.5</ele>
        <time>2012-12-08T10:12:24Z</time>
      </trkpt>
      <trkpt lat="49.40013" lon="1.13121">
        <ele>57.2</ele>
        <time>2012-12-08T10:12:26Z</time>
      </trkpt>
      <trkpt lat="49.40015" lon="1.13107">
        <ele>56.5</ele>
        <time>2012-12-08T10:12:28Z</time>
      </trkpt>
      <trkpt lat="49.40015" lon="1.131">
        <ele>56.2</ele>
        <time>2012-12-08T10:12:29Z</time>
      </trkpt>
      <trkpt lat="49.40016" lon="1.13093">
        <ele>55.9</ele>
        <time>2012-12-08T10:12:30Z</time>
      </trkpt>
      <trkpt lat="49.40016" lon="1.13085">
        <ele>55.7</ele>
        <time>2012-12-08T10:12:31Z</time>
      </trkpt>
      <trkpt lat="49.40017" lon="1.13077">
        <ele>55.5</ele>
        <time>2012-12-08T10:12:32Z</time>
      </trkpt>
      <trkpt lat="49.40018" lon="1.13069">
        <ele>55.2</ele>
        <time>2012-12-08T10:12:33Z</time>
      </trkpt>
      <trkpt lat="49.40019" lon="1.13062">
        <ele>55</ele>
        <time>2012-12-08T10:12:34Z</time>
      </trkpt>
      <trkpt lat="49.4002" lon="1.13055">
        <ele>54.9</ele>
        <time>2012-12-08T10:12:35Z</time>
      </trkpt>
      <trkpt lat="49.4002" lon="1.13042">
        <ele>54.5</ele>
        <time>2012-12-08T10:12:37Z</time>
      </trkpt>
      <trkpt lat="49.4002" lon="1.13029">
        <ele>53.5</ele>
        <time>2012-12-08T10:12:40Z</time>
      </trkpt>
      <trkpt lat="49.40021" lon="1.13018">
        <ele>52.2</ele>
        <time>2012-12-08T10:12:42Z</time>
      </trkpt>
      <trkpt lat="49.40021" lon="1.13006">
        <ele>51.4</ele>
        <time>2012-12-08T10:12:44Z</time>
      </trkpt>
      <trkpt lat="49.40022" lon="1.12995">
        <ele>50</ele>
        <time>2012-12-08T10:12:46Z</time>
      </trkpt>
      <trkpt lat="49.40022" lon="1.12988">
        <ele>49.4</ele>
        <time>2012-12-08T10:12:47Z</time>
      </trkpt>
      <trkpt lat="49.40022" lon="1.12974">
        <ele>48.2</ele>
        <time>2012-12-08T10:12:49Z</time>
      </trkpt>
      <trkpt lat="49.40021" lon="1.12963">
        <ele>47</ele>
        <time>2012-12-08T10:12:51Z</time>
      </trkpt>
      <trkpt lat="49.40021" lon="1.12949">
        <ele>45.2</ele>
        <time>2012-12-08T10:12:54Z</time>
      </trkpt>
      <trkpt lat="49.40021" lon="1.12936">
        <ele>43.2</ele>
        <time>2012-12-08T10:12:59Z</time>
      </trkpt>
      <trkpt lat="49.4002" lon="1.12923">
        <ele>41</ele>
        <time>2012-12-08T10:13:10Z</time>
      </trkpt>
      <trkpt lat="49.40019" lon="1.12922">
        <ele>40.5</ele>
        <time>2012-12-08T10:13:11Z</time>
      </trkpt>
      <trkpt lat="49.40014" lon="1.129">
        <ele>36.5</ele>
        <time>2012-12-08T10:13:19Z</time>
      </trkpt>
      <trkpt lat="49.40012" lon="1.12888">
        <ele>35.2</ele>
        <time>2012-12-08T10:13:21Z</time>
      </trkpt>
      <trkpt lat="49.40012" lon="1.12881">
        <ele>34.7</ele>
        <time>2012-12-08T10:13:22Z</time>
      </trkpt>
      <trkpt lat="49.40012" lon="1.12873">
        <ele>34</ele>
        <time>2012-12-08T10:13:23Z</time>
      </trkpt>
      <trkpt lat="49.40011" lon="1.12866">
        <ele>33.2</ele>
        <time>2012-12-08T10:13:24Z</time>
      </trkpt>
      <trkpt lat="49.40011" lon="1.12859">
        <ele>32.5</ele>
        <time>2012-12-08T10:13:25Z</time>
      </trkpt>
      <trkpt lat="49.4001" lon="1.12845">
        <ele>31.1</ele>
        <time>2012-12-08T10:13:27Z</time>
      </trkpt>
      <trkpt lat="49.40009" lon="1.12837">
        <ele>30.2</ele>
        <time>2012-12-08T10:13:28Z</time>
      </trkpt>
      <trkpt lat="49.40008" lon="1.12829">
        <ele>29.5</ele>
        <time>2012-12-08T10:13:29Z</time>
      </trkpt>
      <trkpt lat="49.40008" lon="1.12821">
        <ele>28.6</ele>
        <time>2012-12-08T10:13:30Z</time>
      </trkpt>
      <trkpt lat="49.40009" lon="1.12813">
        <ele>27.7</ele>
        <time>2012-12-08T10:13:31Z</time>
      </trkpt>
      <trkpt lat="49.40009" lon="1.12805">
        <ele>26.7</ele>
        <time>2012-12-08T10:13:32Z</time>
      </trkpt>
      <trkpt lat="49.40011" lon="1.12798">
        <ele>25.5</ele>
        <time>2012-12-08T10:13:33Z</time>
      </trkpt>
      <trkpt lat="49.40012" lon="1.12791">
        <ele>24.6</ele>
        <time>2012-12-08T10:13:34Z</time>
      </trkpt>
      <trkpt lat="49.40012" lon="1.12784">
        <ele>23.7</ele>
        <time>2012-12-08T10:13:35Z</time>
      </trkpt>
      <trkpt lat="49.4001" lon="1.12771">
        <ele>23.2</ele>
        <time>2012-12-08T10:13:37Z</time>
      </trkpt>
      <trkpt lat="49.40005" lon="1.12762">
        <ele>21.7</ele>
        <time>2012-12-08T10:13:39Z</time>
      </trkpt>
      <trkpt lat="49.40002" lon="1.12756">
        <ele>20.7</ele>
        <time>2012-12-08T10:13:40Z</time>
      </trkpt>
      <trkpt lat="49.39999" lon="1.1275">
        <ele>20.1</ele>
        <time>2012-12-08T10:13:41Z</time>
      </trkpt>
      <trkpt lat="49.39997" lon="1.12742">
        <ele>19.1</ele>
        <time>2012-12-08T10:13:42Z</time>
      </trkpt>
      <trkpt lat="49.39994" lon="1.12734">
        <ele>17.7</ele>
        <time>2012-12-08T10:13:43Z</time>
      </trkpt>
      <trkpt lat="49.39991" lon="1.12723">
        <ele>17</ele>
        <time>2012-12-08T10:13:44Z</time>
      </trkpt>
      <trkpt lat="49.39986" lon="1.12717">
        <ele>16.2</ele>
        <time>2012-12-08T10:13:45Z</time>
      </trkpt>
      <trkpt lat="49.3998" lon="1.12709">
        <ele>15.8</ele>
        <time>2012-12-08T10:13:46Z</time>
      </trkpt>
      <trkpt lat="49.39974" lon="1.12699">
        <ele>14.5</ele>
        <time>2012-12-08T10:13:47Z</time>
      </trkpt>
      <trkpt lat="49.3997" lon="1.1269">
        <ele>13</ele>
        <time>2012-12-08T10:13:48Z</time>
      </trkpt>
      <trkpt lat="49.39967" lon="1.12681">
        <ele>11.8</ele>
        <time>2012-12-08T10:13:49Z</time>
      </trkpt>
      <trkpt lat="49.39964" lon="1.12672">
        <ele>11.6</ele>
        <time>2012-12-08T10:13:50Z</time>
      </trkpt>
      <trkpt lat="49.39963" lon="1.12665">
        <ele>10.1</ele>
        <time>2012-12-08T10:13:51Z</time>
      </trkpt>
      <trkpt lat="49.39962" lon="1.12654">
        <ele>9.5</ele>
        <time>2012-12-08T10:13:53Z</time>
      </trkpt>
      <trkpt lat="49.39965" lon="1.12644">
        <ele>8.1</ele>
        <time>2012-12-08T10:13:56Z</time>
      </trkpt>
      <trkpt lat="49.39972" lon="1.1264">
        <ele>8.3</ele>
        <time>2012-12-08T10:13:58Z</time>
      </trkpt>
      <trkpt lat="49.3998" lon="1.12637">
        <ele>16.6</ele>
        <time>2012-12-08T10:14:19Z</time>
      </trkpt>
      <trkpt lat="49.39981" lon="1.12636">
        <ele>16.7</ele>
        <time>2012-12-08T10:14:20Z</time>
      </trkpt>
      <trkpt lat="49.39995" lon="1.12626">
        <ele>17.1</ele>
        <time>2012-12-08T10:14:26Z</time>
      </trkpt>
      <trkpt lat="49.40001" lon="1.12621">
        <ele>17.7</ele>
        <time>2012-12-08T10:14:28Z</time>
      </trkpt>
      <trkpt lat="49.40005" lon="1.12609">
        <ele>20.7</ele>
        <time>2012-12-08T10:14:32Z</time>
      </trkpt>
      <trkpt lat="49.40006" lon="1.12595">
        <ele>20.7</ele>
        <time>2012-12-08T10:14:39Z</time>
      </trkpt>
      <trkpt lat="49.40014" lon="1.12593">
        <ele>18.1</ele>
        <time>2012-12-08T10:14:52Z</time>
      </trkpt>
      <trkpt lat="49.40023" lon="1.12594">
        <ele>16.7</ele>
        <time>2012-12-08T10:14:59Z</time>
      </trkpt>
      <trkpt lat="49.4003" lon="1.12602">
        <ele>16.5</ele>
        <time>2012-12-08T10:15:12Z</time>
      </trkpt>
      <trkpt lat="49.40039" lon="1.126">
        <ele>20</ele>
        <time>2012-12-08T10:15:42Z</time>
      </trkpt>
      <trkpt lat="49.40039" lon="1.126">
        <ele>20.2</ele>
        <time>2012-12-08T10:15:43Z</time>
      </trkpt>
      <trkpt lat="49.40055" lon="1.12591">
        <ele>27.7</ele>
        <time>2012-12-08T10:16:14Z</time>
      </trkpt>
      <trkpt lat="49.40063" lon="1.12592">
        <ele>27.5</ele>
        <time>2012-12-08T10:16:26Z</time>
      </trkpt>
      <trkpt lat="49.40072" lon="1.12593">
        <ele>26</ele>
        <time>2012-12-08T10:16:49Z</time>
      </trkpt>
      <trkpt lat="49.40074" lon="1.12593">
        <ele>26.7</ele>
        <time>2012-12-08T10:16:50Z</time>
      </trkpt>
      <trkpt lat="49.40085" lon="1.12605">
        <ele>26.2</ele>
        <time>2012-12-08T10:17:02Z</time>
      </trkpt>
      <trkpt lat="49.40092" lon="1.12612">
        <ele>27.7</ele>
        <time>2012-12-08T10:17:06Z</time>
      </trkpt>
      <trkpt lat="49.40099" lon="1.12618">
        <ele>29.6</ele>
        <time>2012-12-08T10:17:11Z</time>
      </trkpt>
      <trkpt lat="49.40106" lon="1.12621">
        <ele>30.7</ele>
        <time>2012-12-08T10:17:17Z</time>
      </trkpt>
      <trkpt lat="49.40115" lon="1.12621">
        <ele>33.7</ele>
        <time>2012-12-08T10:17:24Z</time>
      </trkpt>
      <trkpt lat="49.40123" lon="1.12621">
        <ele>36</ele>
        <time>2012-12-08T10:17:30Z</time>
      </trkpt>
      <trkpt lat="49.40131" lon="1.1262">
        <ele>38</ele>
        <time>2012-12-08T10:17:38Z</time>
      </trkpt>
      <trkpt lat="49.40139" lon="1.12614">
        <ele>40.5</ele>
        <time>2012-12-08T10:17:48Z</time>
      </trkpt>
      <trkpt lat="49.40148" lon="1.12612">
        <ele>44.2</ele>
        <time>2012-12-08T10:17:54Z</time>
      </trkpt>
      <trkpt lat="49.40149" lon="1.12612">
        <ele>44.7</ele>
        <time>2012-12-08T10:17:55Z</time>
      </trkpt>
      <trkpt lat="49.40165" lon="1.12611">
        <ele>48.5</ele>
        <time>2012-12-08T10:18:17Z</time>
      </trkpt>
      <trkpt lat="49.40174" lon="1.12612">
        <ele>49.5</ele>
        <time>2012-12-08T10:18:28Z</time>
      </trkpt>
      <trkpt lat="49.40182" lon="1.12613">
        <ele>50.7</ele>
        <time>2012-12-08T10:18:35Z</time>
      </trkpt>
      <trkpt lat="49.4019" lon="1.12615">
        <ele>51.4</ele>
        <time>2012-12-08T10:18:42Z</time>
      </trkpt>
      <trkpt lat="49.40198" lon="1.12615">
        <ele>52</ele>
        <time>2012-12-08T10:18:49Z</time>
      </trkpt>
      <trkpt lat="49.40207" lon="1.12615">
        <ele>52.5</ele>
        <time>2012-12-08T10:18:56Z</time>
      </trkpt>
      <trkpt lat="49.40208" lon="1.12615">
        <ele>52.9</ele>
        <time>2012-12-08T10:18:57Z</time>
      </trkpt>
      <trkpt lat="49.40223" lon="1.12613">
        <ele>55.5</ele>
        <time>2012-12-08T10:19:09Z</time>
      </trkpt>
      <trkpt lat="49.4023" lon="1.12612">
        <ele>56.5</ele>
        <time>2012-12-08T10:19:14Z</time>
      </trkpt>
      <trkpt lat="49.40239" lon="1.12612">
        <ele>57.7</ele>
        <time>2012-12-08T10:19:20Z</time>
      </trkpt>
      <trkpt lat="49.40247" lon="1.12612">
        <ele>58.5</ele>
        <time>2012-12-08T10:19:26Z</time>
      </trkpt>
      <trkpt lat="49.40255" lon="1.12611">
        <ele>59.5</ele>
        <time>2012-12-08T10:19:31Z</time>
      </trkpt>
      <trkpt lat="49.40264" lon="1.12611">
        <ele>60.2</ele>
        <time>2012-12-08T10:19:37Z</time>
      </trkpt>
      <trkpt lat="49.40272" lon="1.1261">
        <ele>61.2</ele>
        <time>2012-12-08T10:19:43Z</time>
      </trkpt>
      <trkpt lat="49.40281" lon="1.1261">
        <ele>62.5</ele>
        <time>2012-12-08T10:19:49Z</time>
      </trkpt>
      <trkpt lat="49.40289" lon="1.12609">
        <ele>63.5</ele>
        <time>2012-12-08T10:19:55Z</time>
      </trkpt>
      <trkpt lat="49.40298" lon="1.1261">
        <ele>65</ele>
        <time>2012-12-08T10:20:02Z</time>
      </trkpt>
      <trkpt lat="49.40299" lon="1.1261">
        <ele>65</ele>
        <time>2012-12-08T10:20:03Z</time>
      </trkpt>
      <trkpt lat="49.40315" lon="1.1261">
        <ele>67.3</ele>
        <time>2012-12-08T10:20:16Z</time>
      </trkpt>
      <trkpt lat="49.40324" lon="1.1261">
        <ele>68.3</ele>
        <time>2012-12-08T10:20:23Z</time>
      </trkpt>
      <trkpt lat="49.40333" lon="1.1261">
        <ele>69.3</ele>
        <time>2012-12-08T10:20:30Z</time>
      </trkpt>
      <trkpt lat="49.40341" lon="1.1261">
        <ele>70</ele>
        <time>2012-12-08T10:20:37Z</time>
      </trkpt>
      <trkpt lat="49.40349" lon="1.1261">
        <ele>73.3</ele>
        <time>2012-12-08T10:21:01Z</time>
      </trkpt>
      <trkpt lat="49.40358" lon="1.1261">
        <ele>74</ele>
        <time>2012-12-08T10:21:07Z</time>
      </trkpt>
      <trkpt lat="49.40359" lon="1.12611">
        <ele>74.3</ele>
        <time>2012-12-08T10:21:08Z</time>
      </trkpt>
      <trkpt lat="49.40373" lon="1.12611">
        <ele>75.5</ele>
        <time>2012-12-08T10:21:20Z</time>
      </trkpt>
      <trkpt lat="49.40382" lon="1.12613">
        <ele>76.5</ele>
        <time>2012-12-08T10:21:27Z</time>
      </trkpt>
      <trkpt lat="49.40391" lon="1.12615">
        <ele>77.5</ele>
        <time>2012-12-08T10:21:34Z</time>
      </trkpt>
      <trkpt lat="49.40398" lon="1.12623">
        <ele>78.5</ele>
        <time>2012-12-08T10:21:42Z</time>
      </trkpt>
      <trkpt lat="49.40403" lon="1.12615">
        <ele>76.3</ele>
        <time>2012-12-08T10:25:22Z</time>
      </trkpt>
      <trkpt lat="49.40405" lon="1.12613">
        <ele>76</ele>
        <time>2012-12-08T10:25:23Z</time>
      </trkpt>
      <trkpt lat="49.40416" lon="1.126">
        <ele>75.3</ele>
        <time>2012-12-08T10:25:28Z</time>
      </trkpt>
      <trkpt lat="49.40424" lon="1.12595">
        <ele>75</ele>
        <time>2012-12-08T10:25:31Z</time>
      </trkpt>
      <trkpt lat="49.40431" lon="1.1259">
        <ele>75</ele>
        <time>2012-12-08T10:25:34Z</time>
      </trkpt>
      <trkpt lat="49.40436" lon="1.12586">
        <ele>75.5</ele>
        <time>2012-12-08T10:25:36Z</time>
      </trkpt>
      <trkpt lat="49.40443" lon="1.12582">
        <ele>75.8</ele>
        <time>2012-12-08T10:25:38Z</time>
      </trkpt>
      <trkpt lat="49.4045" lon="1.12579">
        <ele>75</ele>
        <time>2012-12-08T10:25:40Z</time>
      </trkpt>
      <trkpt lat="49.40456" lon="1.12578">
        <ele>75.3</ele>
        <time>2012-12-08T10:25:42Z</time>
      </trkpt>
      <trkpt lat="49.40464" lon="1.12576">
        <ele>75</ele>
        <time>2012-12-08T10:25:45Z</time>
      </trkpt>
      <trkpt lat="49.40472" lon="1.12575">
        <ele>75</ele>
        <time>2012-12-08T10:25:48Z</time>
      </trkpt>
      <trkpt lat="49.4048" lon="1.12574">
        <ele>75.8</ele>
        <time>2012-12-08T10:25:52Z</time>
      </trkpt>
      <trkpt lat="49.40489" lon="1.12571">
        <ele>75</ele>
        <time>2012-12-08T10:26:06Z</time>
      </trkpt>
      <trkpt lat="49.40497" lon="1.12567">
        <ele>73</ele>
        <time>2012-12-08T10:26:17Z</time>
      </trkpt>
      <trkpt lat="49.40505" lon="1.1256">
        <ele>71.9</ele>
        <time>2012-12-08T10:26:28Z</time>
      </trkpt>
      <trkpt lat="49.40505" lon="1.12561">
        <ele>70.9</ele>
        <time>2012-12-08T10:26:29Z</time>
      </trkpt>
      <trkpt lat="49.40515" lon="1.1254">
        <ele>71</ele>
        <time>2012-12-08T10:26:56Z</time>
      </trkpt>
      <trkpt lat="49.40519" lon="1.12528">
        <ele>71.4</ele>
        <time>2012-12-08T10:27:07Z</time>
      </trkpt>
      <trkpt lat="49.40526" lon="1.12521">
        <ele>68.8</ele>
        <time>2012-12-08T10:27:17Z</time>
      </trkpt>
      <trkpt lat="49.40534" lon="1.12519">
        <ele>66</ele>
        <time>2012-12-08T10:27:21Z</time>
      </trkpt>
      <trkpt lat="49.40542" lon="1.12516">
        <ele>66</ele>
        <time>2012-12-08T10:27:24Z</time>
      </trkpt>
      <trkpt lat="49.40549" lon="1.12514">
        <ele>65</ele>
        <time>2012-12-08T10:27:27Z</time>
      </trkpt>
      <trkpt lat="49.40554" lon="1.12514">
        <ele>63.2</ele>
        <time>2012-12-08T10:27:29Z</time>
      </trkpt>
      <trkpt lat="49.40558" lon="1.12513">
        <ele>62.7</ele>
        <time>2012-12-08T10:27:30Z</time>
      </trkpt>
      <trkpt lat="49.40569" lon="1.12513">
        <ele>59.7</ele>
        <time>2012-12-08T10:27:34Z</time>
      </trkpt>
      <trkpt lat="49.40575" lon="1.12512">
        <ele>58.9</ele>
        <time>2012-12-08T10:27:36Z</time>
      </trkpt>
      <trkpt lat="49.40583" lon="1.12511">
        <ele>57.7</ele>
        <time>2012-12-08T10:27:38Z</time>
      </trkpt>
      <trkpt lat="49.4059" lon="1.12509">
        <ele>58.2</ele>
        <time>2012-12-08T10:27:40Z</time>
      </trkpt>
      <trkpt lat="49.40598" lon="1.12506">
        <ele>57.9</ele>
        <time>2012-12-08T10:27:42Z</time>
      </trkpt>
      <trkpt lat="49.40603" lon="1.12505">
        <ele>56.9</ele>
        <time>2012-12-08T10:27:44Z</time>
      </trkpt>
      <trkpt lat="49.4061" lon="1.12503">
        <ele>55</ele>
        <time>2012-12-08T10:27:46Z</time>
      </trkpt>
      <trkpt lat="49.40614" lon="1.12503">
        <ele>53.4</ele>
        <time>2012-12-08T10:27:47Z</time>
      </trkpt>
      <trkpt lat="49.40619" lon="1.12502">
        <ele>54.2</ele>
        <time>2012-12-08T10:27:48Z</time>
      </trkpt>
      <trkpt lat="49.40624" lon="1.125">
        <ele>54.5</ele>
        <time>2012-12-08T10:27:49Z</time>
      </trkpt>
      <trkpt lat="49.40629" lon="1.12498">
        <ele>53.5</ele>
        <time>2012-12-08T10:27:50Z</time>
      </trkpt>
      <trkpt lat="49.40634" lon="1.12496">
        <ele>52.4</ele>
        <time>2012-12-08T10:27:51Z</time>
      </trkpt>
      <trkpt lat="49.40641" lon="1.12495">
        <ele>52.5</ele>
        <time>2012-12-08T10:27:52Z</time>
      </trkpt>
      <trkpt lat="49.40646" lon="1.12494">
        <ele>52.5</ele>
        <time>2012-12-08T10:27:53Z</time>
      </trkpt>
      <trkpt lat="49.40652" lon="1.12492">
        <ele>51.9</ele>
        <time>2012-12-08T10:27:54Z</time>
      </trkpt>
      <trkpt lat="49.40658" lon="1.1249">
        <ele>52</ele>
        <time>2012-12-08T10:27:55Z</time>
      </trkpt>
      <trkpt lat="49.40663" lon="1.12488">
        <ele>51.7</ele>
        <time>2012-12-08T10:27:56Z</time>
      </trkpt>
      <trkpt lat="49.40668" lon="1.12487">
        <ele>51.4</ele>
        <time>2012-12-08T10:27:57Z</time>
      </trkpt>
      <trkpt lat="49.40674" lon="1.12485">
        <ele>50.9</ele>
        <time>2012-12-08T10:27:58Z</time>
      </trkpt>
      <trkpt lat="49.4068" lon="1.12483">
        <ele>51.5</ele>
        <time>2012-12-08T10:27:59Z</time>
      </trkpt>
      <trkpt lat="49.40686" lon="1.12482">
        <ele>51.5</ele>
        <time>2012-12-08T10:28:00Z</time>
      </trkpt>
      <trkpt lat="49.40691" lon="1.1248">
        <ele>52.5</ele>
        <time>2012-12-08T10:28:01Z</time>
      </trkpt>
      <trkpt lat="49.40699" lon="1.12477">
        <ele>52</ele>
        <time>2012-12-08T10:28:03Z</time>
      </trkpt>
      <trkpt lat="49.40707" lon="1.12475">
        <ele>52.2</ele>
        <time>2012-12-08T10:28:05Z</time>
      </trkpt>
      <trkpt lat="49.40716" lon="1.12472">
        <ele>54</ele>
        <time>2012-12-08T10:28:07Z</time>
      </trkpt>
      <trkpt lat="49.40723" lon="1.1247">
        <ele>54.9</ele>
        <time>2012-12-08T10:28:08Z</time>
      </trkpt>
      <trkpt lat="49.40729" lon="1.12469">
        <ele>55.7</ele>
        <time>2012-12-08T10:28:09Z</time>
      </trkpt>
      <trkpt lat="49.40736" lon="1.12467">
        <ele>56.2</ele>
        <time>2012-12-08T10:28:11Z</time>
      </trkpt>
      <trkpt lat="49.40744" lon="1.12464">
        <ele>57.9</ele>
        <time>2012-12-08T10:28:13Z</time>
      </trkpt>
      <trkpt lat="49.40752" lon="1.12462">
        <ele>57.5</ele>
        <time>2012-12-08T10:28:15Z</time>
      </trkpt>
      <trkpt lat="49.40758" lon="1.1246">
        <ele>57.7</ele>
        <time>2012-12-08T10:28:17Z</time>
      </trkpt>
      <trkpt lat="49.40764" lon="1.12458">
        <ele>57.7</ele>
        <time>2012-12-08T10:28:19Z</time>
      </trkpt>
      <trkpt lat="49.40769" lon="1.12454">
        <ele>56.2</ele>
        <time>2012-12-08T10:28:21Z</time>
      </trkpt>
      <trkpt lat="49.40777" lon="1.12449">
        <ele>52.5</ele>
        <time>2012-12-08T10:28:23Z</time>
      </trkpt>
      <trkpt lat="49.40785" lon="1.12443">
        <ele>50</ele>
        <time>2012-12-08T10:28:25Z</time>
      </trkpt>
      <trkpt lat="49.4079" lon="1.12441">
        <ele>47.2</ele>
        <time>2012-12-08T10:28:26Z</time>
      </trkpt>
      <trkpt lat="49.40796" lon="1.12438">
        <ele>44.7</ele>
        <time>2012-12-08T10:28:27Z</time>
      </trkpt>
      <trkpt lat="49.40802" lon="1.12437">
        <ele>43.9</ele>
        <time>2012-12-08T10:28:28Z</time>
      </trkpt>
      <trkpt lat="49.40808" lon="1.12435">
        <ele>43</ele>
        <time>2012-12-08T10:28:29Z</time>
      </trkpt>
      <trkpt lat="49.40813" lon="1.12435">
        <ele>40.7</ele>
        <time>2012-12-08T10:28:30Z</time>
      </trkpt>
      <trkpt lat="49.40817" lon="1.12434">
        <ele>39</ele>
        <time>2012-12-08T10:28:31Z</time>
      </trkpt>
      <trkpt lat="49.40823" lon="1.12434">
        <ele>38.5</ele>
        <time>2012-12-08T10:28:32Z</time>
      </trkpt>
      <trkpt lat="49.40829" lon="1.12433">
        <ele>38.4</ele>
        <time>2012-12-08T10:28:33Z</time>
      </trkpt>
      <trkpt lat="49.40836" lon="1.12435">
        <ele>37.2</ele>
        <time>2012-12-08T10:28:34Z</time>
      </trkpt>
      <trkpt lat="49.40845" lon="1.12436">
        <ele>38.2</ele>
        <time>2012-12-08T10:28:35Z</time>
      </trkpt>
      <trkpt lat="49.40852" lon="1.12437">
        <ele>38.2</ele>
        <time>2012-12-08T10:28:36Z</time>
      </trkpt>
      <trkpt lat="49.4086" lon="1.12438">
        <ele>38</ele>
        <time>2012-12-08T10:28:37Z</time>
      </trkpt>
      <trkpt lat="49.40868" lon="1.12439">
        <ele>38.7</ele>
        <time>2012-12-08T10:28:38Z</time>
      </trkpt>
      <trkpt lat="49.40874" lon="1.12438">
        <ele>39.2</ele>
        <time>2012-12-08T10:28:39Z</time>
      </trkpt>
      <trkpt lat="49.40881" lon="1.12436">
        <ele>40.2</ele>
        <time>2012-12-08T10:28:40Z</time>
      </trkpt>
      <trkpt lat="49.40886" lon="1.12432">
        <ele>41.2</ele>
        <time>2012-12-08T10:28:41Z</time>
      </trkpt>
      <trkpt lat="49.40892" lon="1.12427">
        <ele>41</ele>
        <time>2012-12-08T10:28:42Z</time>
      </trkpt>
      <trkpt lat="49.40897" lon="1.12423">
        <ele>41.4</ele>
        <time>2012-12-08T10:28:43Z</time>
      </trkpt>
      <trkpt lat="49.40901" lon="1.12416">
        <ele>43.4</ele>
        <time>2012-12-08T10:28:44Z</time>
      </trkpt>
      <trkpt lat="49.40904" lon="1.1241">
        <ele>41.5</ele>
        <time>2012-12-08T10:28:45Z</time>
      </trkpt>
      <trkpt lat="49.40908" lon="1.12404">
        <ele>41.4</ele>
        <time>2012-12-08T10:28:46Z</time>
      </trkpt>
      <trkpt lat="49.40911" lon="1.12399">
        <ele>40</ele>
        <time>2012-12-08T10:28:47Z</time>
      </trkpt>
      <trkpt lat="49.40915" lon="1.12394">
        <ele>40.5</ele>
        <time>2012-12-08T10:28:48Z</time>
      </trkpt>
      <trkpt lat="49.40919" lon="1.12388">
        <ele>38.9</ele>
        <time>2012-12-08T10:28:49Z</time>
      </trkpt>
      <trkpt lat="49.40926" lon="1.1238">
        <ele>38.7</ele>
        <time>2012-12-08T10:28:51Z</time>
      </trkpt>
      <trkpt lat="49.40932" lon="1.12373">
        <ele>35.5</ele>
        <time>2012-12-08T10:28:54Z</time>
      </trkpt>
      <trkpt lat="49.40939" lon="1.12365">
        <ele>30.2</ele>
        <time>2012-12-08T10:29:09Z</time>
      </trkpt>
      <trkpt lat="49.40946" lon="1.12372">
        <ele>17.7</ele>
        <time>2012-12-08T10:29:15Z</time>
      </trkpt>
      <trkpt lat="49.40955" lon="1.12377">
        <ele>3</ele>
        <time>2012-12-08T10:29:22Z</time>
      </trkpt>
      <trkpt lat="49.40953" lon="1.12364">
        <ele>18.7</ele>
        <time>2012-12-08T10:29:45Z</time>
      </trkpt>
      <trkpt lat="49.40954" lon="1.12362">
        <ele>20.7</ele>
        <time>2012-12-08T10:29:46Z</time>
      </trkpt>
      <trkpt lat="49.40963" lon="1.12348">
        <ele>30.7</ele>
        <time>2012-12-08T10:29:52Z</time>
      </trkpt>
      <trkpt lat="49.4097" lon="1.1234">
        <ele>32.5</ele>
        <time>2012-12-08T10:29:55Z</time>
      </trkpt>
      <trkpt lat="49.40976" lon="1.12331">
        <ele>36.2</ele>
        <time>2012-12-08T10:29:58Z</time>
      </trkpt>
      <trkpt lat="49.40981" lon="1.12322">
        <ele>38.7</ele>
        <time>2012-12-08T10:30:01Z</time>
      </trkpt>
      <trkpt lat="49.40987" lon="1.12316">
        <ele>40.7</ele>
        <time>2012-12-08T10:30:04Z</time>
      </trkpt>
      <trkpt lat="49.40994" lon="1.12308">
        <ele>40.5</ele>
        <time>2012-12-08T10:30:07Z</time>
      </trkpt>
      <trkpt lat="49.41002" lon="1.12303">
        <ele>38.9</ele>
        <time>2012-12-08T10:30:10Z</time>
      </trkpt>
      <trkpt lat="49.41008" lon="1.12299">
        <ele>38.4</ele>
        <time>2012-12-08T10:30:12Z</time>
      </trkpt>
      <trkpt lat="49.41013" lon="1.12294">
        <ele>38</ele>
        <time>2012-12-08T10:30:14Z</time>
      </trkpt>
      <trkpt lat="49.4102" lon="1.12291">
        <ele>39.2</ele>
        <time>2012-12-08T10:30:16Z</time>
      </trkpt>
      <trkpt lat="49.41025" lon="1.12285">
        <ele>40</ele>
        <time>2012-12-08T10:30:18Z</time>
      </trkpt>
      <trkpt lat="49.41032" lon="1.12281">
        <ele>39</ele>
        <time>2012-12-08T10:30:21Z</time>
      </trkpt>
      <trkpt lat="49.41041" lon="1.12278">
        <ele>38.2</ele>
        <time>2012-12-08T10:30:25Z</time>
      </trkpt>
      <trkpt lat="49.41049" lon="1.12274">
        <ele>38.7</ele>
        <time>2012-12-08T10:30:29Z</time>
      </trkpt>
      <trkpt lat="49.41058" lon="1.12272">
        <ele>38.7</ele>
        <time>2012-12-08T10:30:31Z</time>
      </trkpt>
      <trkpt lat="49.41065" lon="1.1227">
        <ele>38.2</ele>
        <time>2012-12-08T10:30:34Z</time>
      </trkpt>
      <trkpt lat="49.41071" lon="1.12268">
        <ele>38</ele>
        <time>2012-12-08T10:30:36Z</time>
      </trkpt>
      <trkpt lat="49.41076" lon="1.12267">
        <ele>38.7</ele>
        <time>2012-12-08T10:30:37Z</time>
      </trkpt>
      <trkpt lat="49.41085" lon="1.12264">
        <ele>38.2</ele>
        <time>2012-12-08T10:30:39Z</time>
      </trkpt>
      <trkpt lat="49.41091" lon="1.12263">
        <ele>38.2</ele>
        <time>2012-12-08T10:30:40Z</time>
      </trkpt>
      <trkpt lat="49.41099" lon="1.12261">
        <ele>39.2</ele>
        <time>2012-12-08T10:30:42Z</time>
      </trkpt>
      <trkpt lat="49.41106" lon="1.12259">
        <ele>42</ele>
        <time>2012-12-08T10:30:47Z</time>
      </trkpt>
      <trkpt lat="49.41108" lon="1.12258">
        <ele>42.2</ele>
        <time>2012-12-08T10:30:48Z</time>
      </trkpt>
      <trkpt lat="49.41091" lon="1.1226">
        <ele>48.7</ele>
        <time>2012-12-08T10:31:08Z</time>
      </trkpt>
      <trkpt lat="49.41083" lon="1.12264">
        <ele>49.5</ele>
        <time>2012-12-08T10:31:11Z</time>
      </trkpt>
      <trkpt lat="49.41076" lon="1.12267">
        <ele>50.7</ele>
        <time>2012-12-08T10:31:14Z</time>
      </trkpt>
      <trkpt lat="49.41069" lon="1.1227">
        <ele>51.2</ele>
        <time>2012-12-08T10:31:17Z</time>
      </trkpt>
      <trkpt lat="49.41062" lon="1.12272">
        <ele>49.7</ele>
        <time>2012-12-08T10:31:19Z</time>
      </trkpt>
      <trkpt lat="49.41054" lon="1.12273">
        <ele>50</ele>
        <time>2012-12-08T10:31:22Z</time>
      </trkpt>
      <trkpt lat="49.41047" lon="1.12276">
        <ele>53.2</ele>
        <time>2012-12-08T10:31:26Z</time>
      </trkpt>
      <trkpt lat="49.41041" lon="1.12281">
        <ele>53.5</ele>
        <time>2012-12-08T10:31:29Z</time>
      </trkpt>
      <trkpt lat="49.41036" lon="1.12285">
        <ele>53.7</ele>
        <time>2012-12-08T10:31:31Z</time>
      </trkpt>
      <trkpt lat="49.41029" lon="1.12289">
        <ele>55</ele>
        <time>2012-12-08T10:31:33Z</time>
      </trkpt>
      <trkpt lat="49.41022" lon="1.12295">
        <ele>56.4</ele>
        <time>2012-12-08T10:31:36Z</time>
      </trkpt>
      <trkpt lat="49.41016" lon="1.12297">
        <ele>58.7</ele>
        <time>2012-12-08T10:31:38Z</time>
      </trkpt>
      <trkpt lat="49.41007" lon="1.12299">
        <ele>58</ele>
        <time>2012-12-08T10:31:40Z</time>
      </trkpt>
      <trkpt lat="49.41" lon="1.12302">
        <ele>61</ele>
        <time>2012-12-08T10:31:43Z</time>
      </trkpt>
      <trkpt lat="49.40994" lon="1.12305">
        <ele>62.7</ele>
        <time>2012-12-08T10:31:45Z</time>
      </trkpt>
      <trkpt lat="49.40989" lon="1.1231">
        <ele>63.2</ele>
        <time>2012-12-08T10:31:47Z</time>
      </trkpt>
      <trkpt lat="49.40983" lon="1.12316">
        <ele>60.7</ele>
        <time>2012-12-08T10:31:49Z</time>
      </trkpt>
      <trkpt lat="49.40979" lon="1.12319">
        <ele>59.7</ele>
        <time>2012-12-08T10:31:50Z</time>
      </trkpt>
      <trkpt lat="49.40969" lon="1.12328">
        <ele>57.7</ele>
        <time>2012-12-08T10:31:54Z</time>
      </trkpt>
      <trkpt lat="49.40962" lon="1.12335">
        <ele>57.9</ele>
        <time>2012-12-08T10:31:56Z</time>
      </trkpt>
      <trkpt lat="49.40955" lon="1.12341">
        <ele>59</ele>
        <time>2012-12-08T10:31:58Z</time>
      </trkpt>
      <trkpt lat="49.40948" lon="1.12347">
        <ele>59</ele>
        <time>2012-12-08T10:32:00Z</time>
      </trkpt>
      <trkpt lat="49.40944" lon="1.12354">
        <ele>57.5</ele>
        <time>2012-12-08T10:32:02Z</time>
      </trkpt>
      <trkpt lat="49.40939" lon="1.12362">
        <ele>54</ele>
        <time>2012-12-08T10:32:04Z</time>
      </trkpt>
      <trkpt lat="49.40934" lon="1.12371">
        <ele>50</ele>
        <time>2012-12-08T10:32:06Z</time>
      </trkpt>
      <trkpt lat="49.40928" lon="1.12378">
        <ele>51.2</ele>
        <time>2012-12-08T10:32:08Z</time>
      </trkpt>
      <trkpt lat="49.40922" lon="1.12382">
        <ele>51</ele>
        <time>2012-12-08T10:32:10Z</time>
      </trkpt>
      <trkpt lat="49.40915" lon="1.1239">
        <ele>50</ele>
        <time>2012-12-08T10:32:13Z</time>
      </trkpt>
      <trkpt lat="49.40908" lon="1.12395">
        <ele>51</ele>
        <time>2012-12-08T10:32:16Z</time>
      </trkpt>
      <trkpt lat="49.409" lon="1.12397">
        <ele>52.2</ele>
        <time>2012-12-08T10:32:18Z</time>
      </trkpt>
      <trkpt lat="49.40893" lon="1.12396">
        <ele>51.2</ele>
        <time>2012-12-08T10:32:20Z</time>
      </trkpt>
      <trkpt lat="49.40897" lon="1.12385">
        <ele>39.9</ele>
        <time>2012-12-08T10:32:34Z</time>
      </trkpt>
      <trkpt lat="49.40902" lon="1.12376">
        <ele>36</ele>
        <time>2012-12-08T10:32:41Z</time>
      </trkpt>
      <trkpt lat="49.40905" lon="1.12363">
        <ele>21.7</ele>
        <time>2012-12-08T10:33:10Z</time>
      </trkpt>
      <trkpt lat="49.40905" lon="1.12362">
        <ele>22.2</ele>
        <time>2012-12-08T10:33:11Z</time>
      </trkpt>
      <trkpt lat="49.40901" lon="1.12338">
        <ele>36.5</ele>
        <time>2012-12-08T10:33:32Z</time>
      </trkpt>
      <trkpt lat="49.40893" lon="1.12333">
        <ele>45.9</ele>
        <time>2012-12-08T10:33:52Z</time>
      </trkpt>
      <trkpt lat="49.40885" lon="1.12332">
        <ele>53.2</ele>
        <time>2012-12-08T10:34:12Z</time>
      </trkpt>
      <trkpt lat="49.40884" lon="1.12332">
        <ele>54.7</ele>
        <time>2012-12-08T10:34:13Z</time>
      </trkpt>
      <trkpt lat="49.40872" lon="1.12337">
        <ele>49.9</ele>
        <time>2012-12-08T10:34:22Z</time>
      </trkpt>
      <trkpt lat="49.40865" lon="1.1234">
        <ele>45.7</ele>
        <time>2012-12-08T10:34:25Z</time>
      </trkpt>
      <trkpt lat="49.40859" lon="1.12338">
        <ele>42.5</ele>
        <time>2012-12-08T10:34:27Z</time>
      </trkpt>
      <trkpt lat="49.40851" lon="1.12334">
        <ele>40.2</ele>
        <time>2012-12-08T10:34:29Z</time>
      </trkpt>
      <trkpt lat="49.40844" lon="1.12327">
        <ele>38.7</ele>
        <time>2012-12-08T10:34:31Z</time>
      </trkpt>
      <trkpt lat="49.40842" lon="1.1232">
        <ele>37.9</ele>
        <time>2012-12-08T10:34:32Z</time>
      </trkpt>
      <trkpt lat="49.40841" lon="1.12312">
        <ele>37.7</ele>
        <time>2012-12-08T10:34:33Z</time>
      </trkpt>
      <trkpt lat="49.40842" lon="1.12304">
        <ele>37.9</ele>
        <time>2012-12-08T10:34:34Z</time>
      </trkpt>
      <trkpt lat="49.40845" lon="1.12296">
        <ele>37</ele>
        <time>2012-12-08T10:34:35Z</time>
      </trkpt>
      <trkpt lat="49.40849" lon="1.1229">
        <ele>36.5</ele>
        <time>2012-12-08T10:34:36Z</time>
      </trkpt>
      <trkpt lat="49.40854" lon="1.12285">
        <ele>36.2</ele>
        <time>2012-12-08T10:34:37Z</time>
      </trkpt>
      <trkpt lat="49.40859" lon="1.1228">
        <ele>35.2</ele>
        <time>2012-12-08T10:34:38Z</time>
      </trkpt>
      <trkpt lat="49.40866" lon="1.12275">
        <ele>35</ele>
        <time>2012-12-08T10:34:39Z</time>
      </trkpt>
      <trkpt lat="49.40872" lon="1.1227">
        <ele>34</ele>
        <time>2012-12-08T10:34:40Z</time>
      </trkpt>
      <trkpt lat="49.40877" lon="1.12264">
        <ele>33.5</ele>
        <time>2012-12-08T10:34:41Z</time>
      </trkpt>
      <trkpt lat="49.40883" lon="1.12259">
        <ele>33.2</ele>
        <time>2012-12-08T10:34:42Z</time>
      </trkpt>
      <trkpt lat="49.40887" lon="1.12254">
        <ele>32.2</ele>
        <time>2012-12-08T10:34:43Z</time>
      </trkpt>
      <trkpt lat="49.40892" lon="1.12243">
        <ele>31.7</ele>
        <time>2012-12-08T10:34:45Z</time>
      </trkpt>
      <trkpt lat="49.40894" lon="1.12234">
        <ele>31.6</ele>
        <time>2012-12-08T10:34:47Z</time>
      </trkpt>
      <trkpt lat="49.40894" lon="1.12221">
        <ele>30.2</ele>
        <time>2012-12-08T10:35:00Z</time>
      </trkpt>
      <trkpt lat="49.40887" lon="1.12217">
        <ele>27.5</ele>
        <time>2012-12-08T10:35:04Z</time>
      </trkpt>
      <trkpt lat="49.40881" lon="1.12217">
        <ele>25.2</ele>
        <time>2012-12-08T10:35:06Z</time>
      </trkpt>
      <trkpt lat="49.40872" lon="1.12217">
        <ele>20.2</ele>
        <time>2012-12-08T10:35:10Z</time>
      </trkpt>
      <trkpt lat="49.40876" lon="1.12205">
        <ele>10.8</ele>
        <time>2012-12-08T10:35:38Z</time>
      </trkpt>
      <trkpt lat="49.40879" lon="1.12203">
        <ele>10.1</ele>
        <time>2012-12-08T10:35:39Z</time>
      </trkpt>
      <trkpt lat="49.40891" lon="1.12191">
        <ele>7</ele>
        <time>2012-12-08T10:35:45Z</time>
      </trkpt>
      <trkpt lat="49.40897" lon="1.12184">
        <ele>7.5</ele>
        <time>2012-12-08T10:35:49Z</time>
      </trkpt>
      <trkpt lat="49.40903" lon="1.1218">
        <ele>7.4</ele>
        <time>2012-12-08T10:35:51Z</time>
      </trkpt>
      <trkpt lat="49.40909" lon="1.12176">
        <ele>8</ele>
        <time>2012-12-08T10:35:53Z</time>
      </trkpt>
      <trkpt lat="49.40916" lon="1.12171">
        <ele>8.5</ele>
        <time>2012-12-08T10:35:55Z</time>
      </trkpt>
      <trkpt lat="49.40921" lon="1.12163">
        <ele>9</ele>
        <time>2012-12-08T10:35:57Z</time>
      </trkpt>
      <trkpt lat="49.40924" lon="1.12152">
        <ele>9.1</ele>
        <time>2012-12-08T10:35:59Z</time>
      </trkpt>
      <trkpt lat="49.40925" lon="1.1214">
        <ele>9.6</ele>
        <time>2012-12-08T10:36:01Z</time>
      </trkpt>
      <trkpt lat="49.40923" lon="1.12127">
        <ele>10</ele>
        <time>2012-12-08T10:36:03Z</time>
      </trkpt>
      <trkpt lat="49.40921" lon="1.12114">
        <ele>10.1</ele>
        <time>2012-12-08T10:36:05Z</time>
      </trkpt>
      <trkpt lat="49.40923" lon="1.12101">
        <ele>9.6</ele>
        <time>2012-12-08T10:36:07Z</time>
      </trkpt>
      <trkpt lat="49.40926" lon="1.12095">
        <ele>9.3</ele>
        <time>2012-12-08T10:36:08Z</time>
      </trkpt>
      <trkpt lat="49.4093" lon="1.1209">
        <ele>8.8</ele>
        <time>2012-12-08T10:36:09Z</time>
      </trkpt>
      <trkpt lat="49.40935" lon="1.12087">
        <ele>8.8</ele>
        <time>2012-12-08T10:36:10Z</time>
      </trkpt>
      <trkpt lat="49.40939" lon="1.12085">
        <ele>8.6</ele>
        <time>2012-12-08T10:36:11Z</time>
      </trkpt>
      <trkpt lat="49.40945" lon="1.12082">
        <ele>8.1</ele>
        <time>2012-12-08T10:36:12Z</time>
      </trkpt>
      <trkpt lat="49.4095" lon="1.12078">
        <ele>7.5</ele>
        <time>2012-12-08T10:36:13Z</time>
      </trkpt>
      <trkpt lat="49.40954" lon="1.12073">
        <ele>7.5</ele>
        <time>2012-12-08T10:36:14Z</time>
      </trkpt>
      <trkpt lat="49.40958" lon="1.12067">
        <ele>6.5</ele>
        <time>2012-12-08T10:36:15Z</time>
      </trkpt>
      <trkpt lat="49.40962" lon="1.12061">
        <ele>6</ele>
        <time>2012-12-08T10:36:16Z</time>
      </trkpt>
      <trkpt lat="49.40966" lon="1.12057">
        <ele>5.5</ele>
        <time>2012-12-08T10:36:17Z</time>
      </trkpt>
      <trkpt lat="49.40971" lon="1.12053">
        <ele>5.5</ele>
        <time>2012-12-08T10:36:18Z</time>
      </trkpt>
      <trkpt lat="49.40976" lon="1.12051">
        <ele>5.8</ele>
        <time>2012-12-08T10:36:19Z</time>
      </trkpt>
      <trkpt lat="49.4098" lon="1.12049">
        <ele>6</ele>
        <time>2012-12-08T10:36:20Z</time>
      </trkpt>
      <trkpt lat="49.40989" lon="1.12045">
        <ele>6.4</ele>
        <time>2012-12-08T10:36:22Z</time>
      </trkpt>
      <trkpt lat="49.40997" lon="1.12043">
        <ele>6.4</ele>
        <time>2012-12-08T10:36:24Z</time>
      </trkpt>
      <trkpt lat="49.41004" lon="1.1204">
        <ele>6.8</ele>
        <time>2012-12-08T10:36:26Z</time>
      </trkpt>
      <trkpt lat="49.41012" lon="1.12037">
        <ele>7</ele>
        <time>2012-12-08T10:36:28Z</time>
      </trkpt>
      <trkpt lat="49.41018" lon="1.12035">
        <ele>8</ele>
        <time>2012-12-08T10:36:30Z</time>
      </trkpt>
      <trkpt lat="49.41024" lon="1.12033">
        <ele>7.5</ele>
        <time>2012-12-08T10:36:32Z</time>
      </trkpt>
      <trkpt lat="49.41031" lon="1.12032">
        <ele>6.3</ele>
        <time>2012-12-08T10:36:34Z</time>
      </trkpt>
      <trkpt lat="49.41038" lon="1.12031">
        <ele>5.4</ele>
        <time>2012-12-08T10:36:36Z</time>
      </trkpt>
      <trkpt lat="49.41046" lon="1.12028">
        <ele>5</ele>
        <time>2012-12-08T10:36:38Z</time>
      </trkpt>
      <trkpt lat="49.41053" lon="1.12024">
        <ele>5</ele>
        <time>2012-12-08T10:36:40Z</time>
      </trkpt>
      <trkpt lat="49.41057" lon="1.12023">
        <ele>5</ele>
        <time>2012-12-08T10:36:41Z</time>
      </trkpt>
      <trkpt lat="49.41069" lon="1.12018">
        <ele>5.5</ele>
        <time>2012-12-08T10:36:44Z</time>
      </trkpt>
      <trkpt lat="49.41076" lon="1.12016">
        <ele>5</ele>
        <time>2012-12-08T10:36:46Z</time>
      </trkpt>
      <trkpt lat="49.41084" lon="1.12013">
        <ele>5.8</ele>
        <time>2012-12-08T10:36:48Z</time>
      </trkpt>
      <trkpt lat="49.41092" lon="1.12011">
        <ele>5.5</ele>
        <time>2012-12-08T10:36:50Z</time>
      </trkpt>
      <trkpt lat="49.411" lon="1.12007">
        <ele>6</ele>
        <time>2012-12-08T10:36:52Z</time>
      </trkpt>
      <trkpt lat="49.41105" lon="1.12006">
        <ele>6</ele>
        <time>2012-12-08T10:36:53Z</time>
      </trkpt>
      <trkpt lat="49.41109" lon="1.12004">
        <ele>6.3</ele>
        <time>2012-12-08T10:36:54Z</time>
      </trkpt>
      <trkpt lat="49.41118" lon="1.12">
        <ele>7</ele>
        <time>2012-12-08T10:36:56Z</time>
      </trkpt>
      <trkpt lat="49.41126" lon="1.11996">
        <ele>8.1</ele>
        <time>2012-12-08T10:36:58Z</time>
      </trkpt>
      <trkpt lat="49.41134" lon="1.11992">
        <ele>9.3</ele>
        <time>2012-12-08T10:37:00Z</time>
      </trkpt>
      <trkpt lat="49.41139" lon="1.1199">
        <ele>9.1</ele>
        <time>2012-12-08T10:37:01Z</time>
      </trkpt>
      <trkpt lat="49.41143" lon="1.11987">
        <ele>9.3</ele>
        <time>2012-12-08T10:37:02Z</time>
      </trkpt>
      <trkpt lat="49.41148" lon="1.11985">
        <ele>9.1</ele>
        <time>2012-12-08T10:37:03Z</time>
      </trkpt>
      <trkpt lat="49.41152" lon="1.11982">
        <ele>9.1</ele>
        <time>2012-12-08T10:37:04Z</time>
      </trkpt>
      <trkpt lat="49.41156" lon="1.1198">
        <ele>9.6</ele>
        <time>2012-12-08T10:37:05Z</time>
      </trkpt>
      <trkpt lat="49.41161" lon="1.11977">
        <ele>9.6</ele>
        <time>2012-12-08T10:37:06Z</time>
      </trkpt>
      <trkpt lat="49.41165" lon="1.11975">
        <ele>9.6</ele>
        <time>2012-12-08T10:37:07Z</time>
      </trkpt>
      <trkpt lat="49.4117" lon="1.11973">
        <ele>9.5</ele>
        <time>2012-12-08T10:37:08Z</time>
      </trkpt>
      <trkpt lat="49.41174" lon="1.11971">
        <ele>9.8</ele>
        <time>2012-12-08T10:37:09Z</time>
      </trkpt>
      <trkpt lat="49.41183" lon="1.11965">
        <ele>10.3</ele>
        <time>2012-12-08T10:37:11Z</time>
      </trkpt>
      <trkpt lat="49.41191" lon="1.11961">
        <ele>10.6</ele>
        <time>2012-12-08T10:37:13Z</time>
      </trkpt>
      <trkpt lat="49.41195" lon="1.11959">
        <ele>10</ele>
        <time>2012-12-08T10:37:14Z</time>
      </trkpt>
      <trkpt lat="49.412" lon="1.11957">
        <ele>9.8</ele>
        <time>2012-12-08T10:37:15Z</time>
      </trkpt>
      <trkpt lat="49.41205" lon="1.11956">
        <ele>10.1</ele>
        <time>2012-12-08T10:37:16Z</time>
      </trkpt>
      <trkpt lat="49.41209" lon="1.11954">
        <ele>10.1</ele>
        <time>2012-12-08T10:37:17Z</time>
      </trkpt>
      <trkpt lat="49.41218" lon="1.1195">
        <ele>10.1</ele>
        <time>2012-12-08T10:37:19Z</time>
      </trkpt>
      <trkpt lat="49.41227" lon="1.11947">
        <ele>10.8</ele>
        <time>2012-12-08T10:37:21Z</time>
      </trkpt>
      <trkpt lat="49.41231" lon="1.11945">
        <ele>11.3</ele>
        <time>2012-12-08T10:37:22Z</time>
      </trkpt>
      <trkpt lat="49.41236" lon="1.11944">
        <ele>11.3</ele>
        <time>2012-12-08T10:37:23Z</time>
      </trkpt>
      <trkpt lat="49.4124" lon="1.11942">
        <ele>11.3</ele>
        <time>2012-12-08T10:37:24Z</time>
      </trkpt>
      <trkpt lat="49.41245" lon="1.1194">
        <ele>11.6</ele>
        <time>2012-12-08T10:37:25Z</time>
      </trkpt>
      <trkpt lat="49.41249" lon="1.11938">
        <ele>12</ele>
        <time>2012-12-08T10:37:26Z</time>
      </trkpt>
      <trkpt lat="49.41254" lon="1.11936">
        <ele>12</ele>
        <time>2012-12-08T10:37:27Z</time>
      </trkpt>
      <trkpt lat="49.41258" lon="1.11934">
        <ele>12.1</ele>
        <time>2012-12-08T10:37:28Z</time>
      </trkpt>
      <trkpt lat="49.41262" lon="1.11932">
        <ele>12.3</ele>
        <time>2012-12-08T10:37:29Z</time>
      </trkpt>
      <trkpt lat="49.41271" lon="1.11928">
        <ele>12.6</ele>
        <time>2012-12-08T10:37:31Z</time>
      </trkpt>
      <trkpt lat="49.41275" lon="1.11926">
        <ele>13</ele>
        <time>2012-12-08T10:37:32Z</time>
      </trkpt>
      <trkpt lat="49.41284" lon="1.11922">
        <ele>12.6</ele>
        <time>2012-12-08T10:37:34Z</time>
      </trkpt>
      <trkpt lat="49.41292" lon="1.11918">
        <ele>13.1</ele>
        <time>2012-12-08T10:37:36Z</time>
      </trkpt>
      <trkpt lat="49.413" lon="1.11915">
        <ele>12.6</ele>
        <time>2012-12-08T10:37:38Z</time>
      </trkpt>
      <trkpt lat="49.41308" lon="1.1191">
        <ele>12.8</ele>
        <time>2012-12-08T10:37:41Z</time>
      </trkpt>
      <trkpt lat="49.41311" lon="1.11908">
        <ele>12.5</ele>
        <time>2012-12-08T10:37:42Z</time>
      </trkpt>
      <trkpt lat="49.41322" lon="1.11894">
        <ele>9.5</ele>
        <time>2012-12-08T10:37:51Z</time>
      </trkpt>
      <trkpt lat="49.4133" lon="1.11896">
        <ele>9.1</ele>
        <time>2012-12-08T10:37:54Z</time>
      </trkpt>
      <trkpt lat="49.41338" lon="1.119">
        <ele>9</ele>
        <time>2012-12-08T10:37:56Z</time>
      </trkpt>
      <trkpt lat="49.41343" lon="1.119">
        <ele>9.3</ele>
        <time>2012-12-08T10:37:57Z</time>
      </trkpt>
      <trkpt lat="49.41348" lon="1.11899">
        <ele>9.3</ele>
        <time>2012-12-08T10:37:58Z</time>
      </trkpt>
      <trkpt lat="49.41353" lon="1.11897">
        <ele>9.5</ele>
        <time>2012-12-08T10:37:59Z</time>
      </trkpt>
      <trkpt lat="49.41358" lon="1.11895">
        <ele>9.6</ele>
        <time>2012-12-08T10:38:00Z</time>
      </trkpt>
      <trkpt lat="49.41363" lon="1.11893">
        <ele>9.6</ele>
        <time>2012-12-08T10:38:01Z</time>
      </trkpt>
      <trkpt lat="49.41368" lon="1.11891">
        <ele>9.6</ele>
        <time>2012-12-08T10:38:02Z</time>
      </trkpt>
      <trkpt lat="49.41372" lon="1.11889">
        <ele>9.3</ele>
        <time>2012-12-08T10:38:03Z</time>
      </trkpt>
      <trkpt lat="49.41377" lon="1.11887">
        <ele>8.8</ele>
        <time>2012-12-08T10:38:04Z</time>
      </trkpt>
      <trkpt lat="49.41382" lon="1.11885">
        <ele>8.8</ele>
        <time>2012-12-08T10:38:05Z</time>
      </trkpt>
      <trkpt lat="49.41387" lon="1.11883">
        <ele>8.8</ele>
        <time>2012-12-08T10:38:06Z</time>
      </trkpt>
      <trkpt lat="49.41391" lon="1.11881">
        <ele>9</ele>
        <time>2012-12-08T10:38:07Z</time>
      </trkpt>
      <trkpt lat="49.41396" lon="1.11878">
        <ele>9.1</ele>
        <time>2012-12-08T10:38:08Z</time>
      </trkpt>
      <trkpt lat="49.41401" lon="1.11876">
        <ele>9.6</ele>
        <time>2012-12-08T10:38:09Z</time>
      </trkpt>
      <trkpt lat="49.41409" lon="1.1187">
        <ele>10.6</ele>
        <time>2012-12-08T10:38:11Z</time>
      </trkpt>
      <trkpt lat="49.41413" lon="1.11868">
        <ele>11.3</ele>
        <time>2012-12-08T10:38:12Z</time>
      </trkpt>
      <trkpt lat="49.41418" lon="1.11866">
        <ele>11.6</ele>
        <time>2012-12-08T10:38:13Z</time>
      </trkpt>
      <trkpt lat="49.41423" lon="1.11864">
        <ele>11.6</ele>
        <time>2012-12-08T10:38:14Z</time>
      </trkpt>
      <trkpt lat="49.41428" lon="1.11862">
        <ele>11.8</ele>
        <time>2012-12-08T10:38:15Z</time>
      </trkpt>
      <trkpt lat="49.41432" lon="1.1186">
        <ele>11.3</ele>
        <time>2012-12-08T10:38:16Z</time>
      </trkpt>
      <trkpt lat="49.41437" lon="1.11857">
        <ele>11.6</ele>
        <time>2012-12-08T10:38:17Z</time>
      </trkpt>
      <trkpt lat="49.41441" lon="1.11854">
        <ele>12.1</ele>
        <time>2012-12-08T10:38:18Z</time>
      </trkpt>
      <trkpt lat="49.41446" lon="1.11852">
        <ele>12.6</ele>
        <time>2012-12-08T10:38:19Z</time>
      </trkpt>
      <trkpt lat="49.41451" lon="1.11849">
        <ele>12.8</ele>
        <time>2012-12-08T10:38:20Z</time>
      </trkpt>
      <trkpt lat="49.41456" lon="1.11846">
        <ele>13.3</ele>
        <time>2012-12-08T10:38:21Z</time>
      </trkpt>
      <trkpt lat="49.41461" lon="1.11843">
        <ele>13.6</ele>
        <time>2012-12-08T10:38:22Z</time>
      </trkpt>
      <trkpt lat="49.41466" lon="1.1184">
        <ele>13.8</ele>
        <time>2012-12-08T10:38:23Z</time>
      </trkpt>
      <trkpt lat="49.41471" lon="1.11837">
        <ele>14.1</ele>
        <time>2012-12-08T10:38:24Z</time>
      </trkpt>
      <trkpt lat="49.41477" lon="1.11834">
        <ele>14.3</ele>
        <time>2012-12-08T10:38:25Z</time>
      </trkpt>
      <trkpt lat="49.41482" lon="1.11831">
        <ele>14.5</ele>
        <time>2012-12-08T10:38:26Z</time>
      </trkpt>
      <trkpt lat="49.41487" lon="1.11828">
        <ele>14</ele>
        <time>2012-12-08T10:38:27Z</time>
      </trkpt>
      <trkpt lat="49.41492" lon="1.11824">
        <ele>13.6</ele>
        <time>2012-12-08T10:38:28Z</time>
      </trkpt>
      <trkpt lat="49.41497" lon="1.1182">
        <ele>13.6</ele>
        <time>2012-12-08T10:38:29Z</time>
      </trkpt>
      <trkpt lat="49.41502" lon="1.11817">
        <ele>13.3</ele>
        <time>2012-12-08T10:38:30Z</time>
      </trkpt>
      <trkpt lat="49.41507" lon="1.11813">
        <ele>13.6</ele>
        <time>2012-12-08T10:38:31Z</time>
      </trkpt>
      <trkpt lat="49.41512" lon="1.1181">
        <ele>13.6</ele>
        <time>2012-12-08T10:38:32Z</time>
      </trkpt>
      <trkpt lat="49.41517" lon="1.11807">
        <ele>13.5</ele>
        <time>2012-12-08T10:38:33Z</time>
      </trkpt>
      <trkpt lat="49.41522" lon="1.11804">
        <ele>13.3</ele>
        <time>2012-12-08T10:38:34Z</time>
      </trkpt>
      <trkpt lat="49.41527" lon="1.11802">
        <ele>13.1</ele>
        <time>2012-12-08T10:38:35Z</time>
      </trkpt>
      <trkpt lat="49.41532" lon="1.11799">
        <ele>12.8</ele>
        <time>2012-12-08T10:38:36Z</time>
      </trkpt>
      <trkpt lat="49.41537" lon="1.11796">
        <ele>12.8</ele>
        <time>2012-12-08T10:38:37Z</time>
      </trkpt>
      <trkpt lat="49.41542" lon="1.11793">
        <ele>12.8</ele>
        <time>2012-12-08T10:38:38Z</time>
      </trkpt>
      <trkpt lat="49.41547" lon="1.1179">
        <ele>12.8</ele>
        <time>2012-12-08T10:38:39Z</time>
      </trkpt>
      <trkpt lat="49.41552" lon="1.11787">
        <ele>12.6</ele>
        <time>2012-12-08T10:38:40Z</time>
      </trkpt>
      <trkpt lat="49.41557" lon="1.11784">
        <ele>12.5</ele>
        <time>2012-12-08T10:38:41Z</time>
      </trkpt>
      <trkpt lat="49.41562" lon="1.11782">
        <ele>12.1</ele>
        <time>2012-12-08T10:38:42Z</time>
      </trkpt>
      <trkpt lat="49.41567" lon="1.11779">
        <ele>12.1</ele>
        <time>2012-12-08T10:38:43Z</time>
      </trkpt>
      <trkpt lat="49.41571" lon="1.11777">
        <ele>13.5</ele>
        <time>2012-12-08T10:38:44Z</time>
      </trkpt>
      <trkpt lat="49.41576" lon="1.11774">
        <ele>13.3</ele>
        <time>2012-12-08T10:38:45Z</time>
      </trkpt>
      <trkpt lat="49.41581" lon="1.11771">
        <ele>13.3</ele>
        <time>2012-12-08T10:38:46Z</time>
      </trkpt>
      <trkpt lat="49.41586" lon="1.11768">
        <ele>13.1</ele>
        <time>2012-12-08T10:38:47Z</time>
      </trkpt>
      <trkpt lat="49.41591" lon="1.11765">
        <ele>13</ele>
        <time>2012-12-08T10:38:48Z</time>
      </trkpt>
      <trkpt lat="49.41596" lon="1.11763">
        <ele>12.8</ele>
        <time>2012-12-08T10:38:49Z</time>
      </trkpt>
      <trkpt lat="49.41601" lon="1.11762">
        <ele>12.5</ele>
        <time>2012-12-08T10:38:50Z</time>
      </trkpt>
      <trkpt lat="49.41606" lon="1.1176">
        <ele>12</ele>
        <time>2012-12-08T10:38:51Z</time>
      </trkpt>
      <trkpt lat="49.41611" lon="1.11758">
        <ele>11.6</ele>
        <time>2012-12-08T10:38:52Z</time>
      </trkpt>
      <trkpt lat="49.41616" lon="1.11756">
        <ele>11.3</ele>
        <time>2012-12-08T10:38:53Z</time>
      </trkpt>
      <trkpt lat="49.41621" lon="1.11753">
        <ele>11.1</ele>
        <time>2012-12-08T10:38:54Z</time>
      </trkpt>
      <trkpt lat="49.41627" lon="1.1175">
        <ele>11</ele>
        <time>2012-12-08T10:38:55Z</time>
      </trkpt>
      <trkpt lat="49.41632" lon="1.11747">
        <ele>11</ele>
        <time>2012-12-08T10:38:56Z</time>
      </trkpt>
      <trkpt lat="49.41637" lon="1.11743">
        <ele>10.8</ele>
        <time>2012-12-08T10:38:57Z</time>
      </trkpt>
      <trkpt lat="49.41642" lon="1.1174">
        <ele>10.8</ele>
        <time>2012-12-08T10:38:58Z</time>
      </trkpt>
      <trkpt lat="49.41647" lon="1.11736">
        <ele>10.6</ele>
        <time>2012-12-08T10:38:59Z</time>
      </trkpt>
      <trkpt lat="49.41652" lon="1.11733">
        <ele>10.3</ele>
        <time>2012-12-08T10:39:00Z</time>
      </trkpt>
      <trkpt lat="49.41658" lon="1.11729">
        <ele>9.5</ele>
        <time>2012-12-08T10:39:01Z</time>
      </trkpt>
      <trkpt lat="49.41663" lon="1.11726">
        <ele>9.3</ele>
        <time>2012-12-08T10:39:02Z</time>
      </trkpt>
      <trkpt lat="49.41669" lon="1.11723">
        <ele>9.5</ele>
        <time>2012-12-08T10:39:03Z</time>
      </trkpt>
      <trkpt lat="49.41674" lon="1.1172">
        <ele>9.6</ele>
        <time>2012-12-08T10:39:04Z</time>
      </trkpt>
      <trkpt lat="49.4168" lon="1.11717">
        <ele>9.6</ele>
        <time>2012-12-08T10:39:05Z</time>
      </trkpt>
      <trkpt lat="49.41685" lon="1.11715">
        <ele>9.8</ele>
        <time>2012-12-08T10:39:06Z</time>
      </trkpt>
      <trkpt lat="49.41691" lon="1.11712">
        <ele>9.8</ele>
        <time>2012-12-08T10:39:07Z</time>
      </trkpt>
      <trkpt lat="49.41696" lon="1.11709">
        <ele>10</ele>
        <time>2012-12-08T10:39:08Z</time>
      </trkpt>
      <trkpt lat="49.41702" lon="1.11706">
        <ele>10.1</ele>
        <time>2012-12-08T10:39:09Z</time>
      </trkpt>
      <trkpt lat="49.41707" lon="1.11705">
        <ele>10.1</ele>
        <time>2012-12-08T10:39:10Z</time>
      </trkpt>
      <trkpt lat="49.41712" lon="1.11703">
        <ele>10.3</ele>
        <time>2012-12-08T10:39:11Z</time>
      </trkpt>
      <trkpt lat="49.41718" lon="1.11701">
        <ele>10</ele>
        <time>2012-12-08T10:39:12Z</time>
      </trkpt>
      <trkpt lat="49.41723" lon="1.11697">
        <ele>9.8</ele>
        <time>2012-12-08T10:39:13Z</time>
      </trkpt>
      <trkpt lat="49.41728" lon="1.11693">
        <ele>9.8</ele>
        <time>2012-12-08T10:39:14Z</time>
      </trkpt>
      <trkpt lat="49.41733" lon="1.1169">
        <ele>9.6</ele>
        <time>2012-12-08T10:39:15Z</time>
      </trkpt>
      <trkpt lat="49.41738" lon="1.11686">
        <ele>9.8</ele>
        <time>2012-12-08T10:39:16Z</time>
      </trkpt>
      <trkpt lat="49.41743" lon="1.11682">
        <ele>10</ele>
        <time>2012-12-08T10:39:17Z</time>
      </trkpt>
      <trkpt lat="49.41748" lon="1.11679">
        <ele>9.8</ele>
        <time>2012-12-08T10:39:18Z</time>
      </trkpt>
      <trkpt lat="49.41753" lon="1.11676">
        <ele>9.6</ele>
        <time>2012-12-08T10:39:19Z</time>
      </trkpt>
      <trkpt lat="49.41757" lon="1.11673">
        <ele>9.6</ele>
        <time>2012-12-08T10:39:20Z</time>
      </trkpt>
      <trkpt lat="49.41762" lon="1.1167">
        <ele>9.3</ele>
        <time>2012-12-08T10:39:21Z</time>
      </trkpt>
      <trkpt lat="49.41766" lon="1.11667">
        <ele>9.3</ele>
        <time>2012-12-08T10:39:22Z</time>
      </trkpt>
      <trkpt lat="49.41771" lon="1.11663">
        <ele>9.3</ele>
        <time>2012-12-08T10:39:23Z</time>
      </trkpt>
      <trkpt lat="49.41775" lon="1.11661">
        <ele>9.5</ele>
        <time>2012-12-08T10:39:24Z</time>
      </trkpt>
      <trkpt lat="49.4178" lon="1.11659">
        <ele>9.5</ele>
        <time>2012-12-08T10:39:25Z</time>
      </trkpt>
      <trkpt lat="49.41784" lon="1.11656">
        <ele>9.3</ele>
        <time>2012-12-08T10:39:26Z</time>
      </trkpt>
      <trkpt lat="49.41789" lon="1.11654">
        <ele>9.3</ele>
        <time>2012-12-08T10:39:27Z</time>
      </trkpt>
      <trkpt lat="49.41793" lon="1.11651">
        <ele>9.3</ele>
        <time>2012-12-08T10:39:28Z</time>
      </trkpt>
      <trkpt lat="49.41797" lon="1.11649">
        <ele>9.3</ele>
        <time>2012-12-08T10:39:29Z</time>
      </trkpt>
      <trkpt lat="49.41801" lon="1.11646">
        <ele>9.1</ele>
        <time>2012-12-08T10:39:30Z</time>
      </trkpt>
      <trkpt lat="49.41806" lon="1.11644">
        <ele>9.3</ele>
        <time>2012-12-08T10:39:31Z</time>
      </trkpt>
      <trkpt lat="49.4181" lon="1.11641">
        <ele>9.3</ele>
        <time>2012-12-08T10:39:32Z</time>
      </trkpt>
      <trkpt lat="49.41815" lon="1.11638">
        <ele>9.3</ele>
        <time>2012-12-08T10:39:33Z</time>
      </trkpt>
      <trkpt lat="49.41819" lon="1.11635">
        <ele>9.3</ele>
        <time>2012-12-08T10:39:34Z</time>
      </trkpt>
      <trkpt lat="49.41824" lon="1.11632">
        <ele>9.5</ele>
        <time>2012-12-08T10:39:35Z</time>
      </trkpt>
      <trkpt lat="49.41828" lon="1.11629">
        <ele>9.6</ele>
        <time>2012-12-08T10:39:36Z</time>
      </trkpt>
      <trkpt lat="49.41833" lon="1.11627">
        <ele>9.8</ele>
        <time>2012-12-08T10:39:37Z</time>
      </trkpt>
      <trkpt lat="49.41837" lon="1.11624">
        <ele>10</ele>
        <time>2012-12-08T10:39:38Z</time>
      </trkpt>
      <trkpt lat="49.41842" lon="1.11622">
        <ele>10.1</ele>
        <time>2012-12-08T10:39:39Z</time>
      </trkpt>
      <trkpt lat="49.41846" lon="1.1162">
        <ele>10.3</ele>
        <time>2012-12-08T10:39:40Z</time>
      </trkpt>
      <trkpt lat="49.41851" lon="1.11617">
        <ele>10.3</ele>
        <time>2012-12-08T10:39:41Z</time>
      </trkpt>
      <trkpt lat="49.41855" lon="1.11614">
        <ele>10.1</ele>
        <time>2012-12-08T10:39:42Z</time>
      </trkpt>
      <trkpt lat="49.4186" lon="1.11612">
        <ele>10</ele>
        <time>2012-12-08T10:39:43Z</time>
      </trkpt>
      <trkpt lat="49.41864" lon="1.11609">
        <ele>10.8</ele>
        <time>2012-12-08T10:39:44Z</time>
      </trkpt>
      <trkpt lat="49.41868" lon="1.11606">
        <ele>11.1</ele>
        <time>2012-12-08T10:39:45Z</time>
      </trkpt>
      <trkpt lat="49.41873" lon="1.11604">
        <ele>11.6</ele>
        <time>2012-12-08T10:39:46Z</time>
      </trkpt>
      <trkpt lat="49.41877" lon="1.11601">
        <ele>11.8</ele>
        <time>2012-12-08T10:39:47Z</time>
      </trkpt>
      <trkpt lat="49.41882" lon="1.11599">
        <ele>11.6</ele>
        <time>2012-12-08T10:39:48Z</time>
      </trkpt>
      <trkpt lat="49.4189" lon="1.11593">
        <ele>11.6</ele>
        <time>2012-12-08T10:39:50Z</time>
      </trkpt>
      <trkpt lat="49.41894" lon="1.11591">
        <ele>11.6</ele>
        <time>2012-12-08T10:39:51Z</time>
      </trkpt>
      <trkpt lat="49.41899" lon="1.11588">
        <ele>11.6</ele>
        <time>2012-12-08T10:39:52Z</time>
      </trkpt>
      <trkpt lat="49.41904" lon="1.11586">
        <ele>11.3</ele>
        <time>2012-12-08T10:39:53Z</time>
      </trkpt>
      <trkpt lat="49.41908" lon="1.11584">
        <ele>11.6</ele>
        <time>2012-12-08T10:39:54Z</time>
      </trkpt>
      <trkpt lat="49.41913" lon="1.11582">
        <ele>11.6</ele>
        <time>2012-12-08T10:39:55Z</time>
      </trkpt>
      <trkpt lat="49.41918" lon="1.1158">
        <ele>11.8</ele>
        <time>2012-12-08T10:39:56Z</time>
      </trkpt>
      <trkpt lat="49.41922" lon="1.11578">
        <ele>11.8</ele>
        <time>2012-12-08T10:39:57Z</time>
      </trkpt>
      <trkpt lat="49.41926" lon="1.11576">
        <ele>11.5</ele>
        <time>2012-12-08T10:39:58Z</time>
      </trkpt>
      <trkpt lat="49.41931" lon="1.11573">
        <ele>11.3</ele>
        <time>2012-12-08T10:39:59Z</time>
      </trkpt>
      <trkpt lat="49.41935" lon="1.11571">
        <ele>11.3</ele>
        <time>2012-12-08T10:40:00Z</time>
      </trkpt>
      <trkpt lat="49.4194" lon="1.11568">
        <ele>11.3</ele>
        <time>2012-12-08T10:40:01Z</time>
      </trkpt>
      <trkpt lat="49.41944" lon="1.11565">
        <ele>11.1</ele>
        <time>2012-12-08T10:40:02Z</time>
      </trkpt>
      <trkpt lat="49.41949" lon="1.11562">
        <ele>11.1</ele>
        <time>2012-12-08T10:40:03Z</time>
      </trkpt>
      <trkpt lat="49.41953" lon="1.11558">
        <ele>11.1</ele>
        <time>2012-12-08T10:40:04Z</time>
      </trkpt>
      <trkpt lat="49.41957" lon="1.11555">
        <ele>10.8</ele>
        <time>2012-12-08T10:40:05Z</time>
      </trkpt>
      <trkpt lat="49.41962" lon="1.11552">
        <ele>11</ele>
        <time>2012-12-08T10:40:06Z</time>
      </trkpt>
      <trkpt lat="49.41967" lon="1.1155">
        <ele>11.5</ele>
        <time>2012-12-08T10:40:07Z</time>
      </trkpt>
      <trkpt lat="49.41972" lon="1.11548">
        <ele>11.6</ele>
        <time>2012-12-08T10:40:08Z</time>
      </trkpt>
      <trkpt lat="49.41976" lon="1.11546">
        <ele>11.8</ele>
        <time>2012-12-08T10:40:09Z</time>
      </trkpt>
      <trkpt lat="49.41981" lon="1.11544">
        <ele>12.1</ele>
        <time>2012-12-08T10:40:10Z</time>
      </trkpt>
      <trkpt lat="49.41986" lon="1.11541">
        <ele>12.3</ele>
        <time>2012-12-08T10:40:11Z</time>
      </trkpt>
      <trkpt lat="49.4199" lon="1.11538">
        <ele>12.6</ele>
        <time>2012-12-08T10:40:12Z</time>
      </trkpt>
      <trkpt lat="49.41995" lon="1.11535">
        <ele>12.8</ele>
        <time>2012-12-08T10:40:13Z</time>
      </trkpt>
      <trkpt lat="49.41999" lon="1.11532">
        <ele>12.8</ele>
        <time>2012-12-08T10:40:14Z</time>
      </trkpt>
      <trkpt lat="49.42004" lon="1.11529">
        <ele>12.8</ele>
        <time>2012-12-08T10:40:15Z</time>
      </trkpt>
      <trkpt lat="49.42009" lon="1.11525">
        <ele>13.1</ele>
        <time>2012-12-08T10:40:16Z</time>
      </trkpt>
      <trkpt lat="49.42014" lon="1.11523">
        <ele>13.5</ele>
        <time>2012-12-08T10:40:17Z</time>
      </trkpt>
      <trkpt lat="49.42019" lon="1.1152">
        <ele>13.8</ele>
        <time>2012-12-08T10:40:18Z</time>
      </trkpt>
      <trkpt lat="49.42026" lon="1.11516">
        <ele>14.8</ele>
        <time>2012-12-08T10:40:19Z</time>
      </trkpt>
      <trkpt lat="49.42031" lon="1.11513">
        <ele>16</ele>
        <time>2012-12-08T10:40:20Z</time>
      </trkpt>
      <trkpt lat="49.42036" lon="1.11512">
        <ele>15.8</ele>
        <time>2012-12-08T10:40:21Z</time>
      </trkpt>
      <trkpt lat="49.42041" lon="1.1151">
        <ele>14.1</ele>
        <time>2012-12-08T10:40:22Z</time>
      </trkpt>
      <trkpt lat="49.42045" lon="1.11508">
        <ele>14.6</ele>
        <time>2012-12-08T10:40:23Z</time>
      </trkpt>
      <trkpt lat="49.4205" lon="1.11506">
        <ele>14.6</ele>
        <time>2012-12-08T10:40:24Z</time>
      </trkpt>
      <trkpt lat="49.42055" lon="1.11503">
        <ele>14.1</ele>
        <time>2012-12-08T10:40:25Z</time>
      </trkpt>
      <trkpt lat="49.42059" lon="1.11501">
        <ele>13.1</ele>
        <time>2012-12-08T10:40:26Z</time>
      </trkpt>
      <trkpt lat="49.42067" lon="1.11495">
        <ele>13.6</ele>
        <time>2012-12-08T10:40:28Z</time>
      </trkpt>
      <trkpt lat="49.42071" lon="1.11492">
        <ele>13.8</ele>
        <time>2012-12-08T10:40:29Z</time>
      </trkpt>
      <trkpt lat="49.42076" lon="1.11489">
        <ele>14</ele>
        <time>2012-12-08T10:40:30Z</time>
      </trkpt>
      <trkpt lat="49.42084" lon="1.11485">
        <ele>13.6</ele>
        <time>2012-12-08T10:40:32Z</time>
      </trkpt>
      <trkpt lat="49.42089" lon="1.11482">
        <ele>13.6</ele>
        <time>2012-12-08T10:40:33Z</time>
      </trkpt>
      <trkpt lat="49.42093" lon="1.11479">
        <ele>14.1</ele>
        <time>2012-12-08T10:40:34Z</time>
      </trkpt>
      <trkpt lat="49.42098" lon="1.11476">
        <ele>15.1</ele>
        <time>2012-12-08T10:40:35Z</time>
      </trkpt>
      <trkpt lat="49.42106" lon="1.11471">
        <ele>17</ele>
        <time>2012-12-08T10:40:37Z</time>
      </trkpt>
      <trkpt lat="49.4211" lon="1.11468">
        <ele>17.6</ele>
        <time>2012-12-08T10:40:38Z</time>
      </trkpt>
      <trkpt lat="49.42115" lon="1.11465">
        <ele>17.7</ele>
        <time>2012-12-08T10:40:39Z</time>
      </trkpt>
      <trkpt lat="49.4212" lon="1.11462">
        <ele>16.7</ele>
        <time>2012-12-08T10:40:40Z</time>
      </trkpt>
      <trkpt lat="49.42125" lon="1.11459">
        <ele>16.2</ele>
        <time>2012-12-08T10:40:41Z</time>
      </trkpt>
      <trkpt lat="49.4213" lon="1.11456">
        <ele>15.8</ele>
        <time>2012-12-08T10:40:42Z</time>
      </trkpt>
      <trkpt lat="49.42135" lon="1.11453">
        <ele>15.6</ele>
        <time>2012-12-08T10:40:43Z</time>
      </trkpt>
      <trkpt lat="49.4214" lon="1.1145">
        <ele>15.8</ele>
        <time>2012-12-08T10:40:44Z</time>
      </trkpt>
      <trkpt lat="49.42145" lon="1.11446">
        <ele>15.8</ele>
        <time>2012-12-08T10:40:45Z</time>
      </trkpt>
      <trkpt lat="49.4215" lon="1.11443">
        <ele>15.5</ele>
        <time>2012-12-08T10:40:46Z</time>
      </trkpt>
      <trkpt lat="49.42155" lon="1.11439">
        <ele>15.3</ele>
        <time>2012-12-08T10:40:47Z</time>
      </trkpt>
      <trkpt lat="49.4216" lon="1.11436">
        <ele>15.1</ele>
        <time>2012-12-08T10:40:48Z</time>
      </trkpt>
      <trkpt lat="49.42165" lon="1.11432">
        <ele>15.6</ele>
        <time>2012-12-08T10:40:49Z</time>
      </trkpt>
      <trkpt lat="49.4217" lon="1.11428">
        <ele>15.6</ele>
        <time>2012-12-08T10:40:50Z</time>
      </trkpt>
      <trkpt lat="49.42174" lon="1.11425">
        <ele>15.6</ele>
        <time>2012-12-08T10:40:51Z</time>
      </trkpt>
      <trkpt lat="49.42179" lon="1.11421">
        <ele>15.6</ele>
        <time>2012-12-08T10:40:52Z</time>
      </trkpt>
      <trkpt lat="49.42184" lon="1.11418">
        <ele>15.3</ele>
        <time>2012-12-08T10:40:53Z</time>
      </trkpt>
      <trkpt lat="49.42189" lon="1.11414">
        <ele>15</ele>
        <time>2012-12-08T10:40:54Z</time>
      </trkpt>
      <trkpt lat="49.42194" lon="1.1141">
        <ele>14.6</ele>
        <time>2012-12-08T10:40:55Z</time>
      </trkpt>
      <trkpt lat="49.42199" lon="1.11407">
        <ele>14.6</ele>
        <time>2012-12-08T10:40:56Z</time>
      </trkpt>
      <trkpt lat="49.42204" lon="1.11403">
        <ele>14.1</ele>
        <time>2012-12-08T10:40:57Z</time>
      </trkpt>
      <trkpt lat="49.42209" lon="1.114">
        <ele>13.8</ele>
        <time>2012-12-08T10:40:58Z</time>
      </trkpt>
      <trkpt lat="49.42214" lon="1.11397">
        <ele>13.6</ele>
        <time>2012-12-08T10:40:59Z</time>
      </trkpt>
      <trkpt lat="49.42218" lon="1.11393">
        <ele>13.6</ele>
        <time>2012-12-08T10:41:00Z</time>
      </trkpt>
      <trkpt lat="49.42223" lon="1.1139">
        <ele>13.5</ele>
        <time>2012-12-08T10:41:01Z</time>
      </trkpt>
      <trkpt lat="49.42227" lon="1.11387">
        <ele>13.5</ele>
        <time>2012-12-08T10:41:02Z</time>
      </trkpt>
      <trkpt lat="49.42235" lon="1.11381">
        <ele>13.6</ele>
        <time>2012-12-08T10:41:04Z</time>
      </trkpt>
      <trkpt lat="49.42242" lon="1.11377">
        <ele>13.3</ele>
        <time>2012-12-08T10:41:06Z</time>
      </trkpt>
      <trkpt lat="49.42248" lon="1.11373">
        <ele>13.3</ele>
        <time>2012-12-08T10:41:08Z</time>
      </trkpt>
      <trkpt lat="49.42256" lon="1.11371">
        <ele>12.3</ele>
        <time>2012-12-08T10:41:11Z</time>
      </trkpt>
      <trkpt lat="49.42263" lon="1.11369">
        <ele>12.6</ele>
        <time>2012-12-08T10:41:14Z</time>
      </trkpt>
      <trkpt lat="49.42269" lon="1.11371">
        <ele>12.1</ele>
        <time>2012-12-08T10:41:16Z</time>
      </trkpt>
      <trkpt lat="49.42275" lon="1.11376">
        <ele>11</ele>
        <time>2012-12-08T10:41:18Z</time>
      </trkpt>
      <trkpt lat="49.4228" lon="1.11385">
        <ele>10.6</ele>
        <time>2012-12-08T10:41:20Z</time>
      </trkpt>
      <trkpt lat="49.42285" lon="1.11396">
        <ele>10.6</ele>
        <time>2012-12-08T10:41:22Z</time>
      </trkpt>
      <trkpt lat="49.42289" lon="1.11408">
        <ele>10.3</ele>
        <time>2012-12-08T10:41:24Z</time>
      </trkpt>
      <trkpt lat="49.42292" lon="1.11418">
        <ele>11.3</ele>
        <time>2012-12-08T10:41:26Z</time>
      </trkpt>
      <trkpt lat="49.42294" lon="1.11428">
        <ele>14.1</ele>
        <time>2012-12-08T10:41:28Z</time>
      </trkpt>
      <trkpt lat="49.42296" lon="1.11438">
        <ele>17.2</ele>
        <time>2012-12-08T10:41:30Z</time>
      </trkpt>
      <trkpt lat="49.42298" lon="1.1145">
        <ele>21.7</ele>
        <time>2012-12-08T10:41:33Z</time>
      </trkpt>
      <trkpt lat="49.42301" lon="1.11462">
        <ele>26</ele>
        <time>2012-12-08T10:41:36Z</time>
      </trkpt>
      <trkpt lat="49.42302" lon="1.11474">
        <ele>28.1</ele>
        <time>2012-12-08T10:41:40Z</time>
      </trkpt>
      <trkpt lat="49.42297" lon="1.11482">
        <ele>27.7</ele>
        <time>2012-12-08T10:41:43Z</time>
      </trkpt>
      <trkpt lat="49.42291" lon="1.11487">
        <ele>26.1</ele>
        <time>2012-12-08T10:41:45Z</time>
      </trkpt>
      <trkpt lat="49.42287" lon="1.11489">
        <ele>25.1</ele>
        <time>2012-12-08T10:41:46Z</time>
      </trkpt>
      <trkpt lat="49.42275" lon="1.11496">
        <ele>22.6</ele>
        <time>2012-12-08T10:41:49Z</time>
      </trkpt>
      <trkpt lat="49.42268" lon="1.11501">
        <ele>21.1</ele>
        <time>2012-12-08T10:41:51Z</time>
      </trkpt>
      <trkpt lat="49.42261" lon="1.11505">
        <ele>19.5</ele>
        <time>2012-12-08T10:41:53Z</time>
      </trkpt>
      <trkpt lat="49.42254" lon="1.11511">
        <ele>17.7</ele>
        <time>2012-12-08T10:41:55Z</time>
      </trkpt>
      <trkpt lat="49.42246" lon="1.11516">
        <ele>16.7</ele>
        <time>2012-12-08T10:41:57Z</time>
      </trkpt>
      <trkpt lat="49.42239" lon="1.11521">
        <ele>14.8</ele>
        <time>2012-12-08T10:41:59Z</time>
      </trkpt>
      <trkpt lat="49.42233" lon="1.11524">
        <ele>15</ele>
        <time>2012-12-08T10:42:01Z</time>
      </trkpt>
      <trkpt lat="49.42228" lon="1.11529">
        <ele>13.6</ele>
        <time>2012-12-08T10:42:03Z</time>
      </trkpt>
      <trkpt lat="49.42221" lon="1.11533">
        <ele>13.3</ele>
        <time>2012-12-08T10:42:05Z</time>
      </trkpt>
      <trkpt lat="49.42215" lon="1.11536">
        <ele>13.5</ele>
        <time>2012-12-08T10:42:07Z</time>
      </trkpt>
      <trkpt lat="49.42206" lon="1.11541">
        <ele>15</ele>
        <time>2012-12-08T10:42:11Z</time>
      </trkpt>
      <trkpt lat="49.422" lon="1.11548">
        <ele>15.6</ele>
        <time>2012-12-08T10:42:15Z</time>
      </trkpt>
      <trkpt lat="49.42195" lon="1.11555">
        <ele>16.2</ele>
        <time>2012-12-08T10:42:18Z</time>
      </trkpt>
      <trkpt lat="49.42188" lon="1.1156">
        <ele>16.6</ele>
        <time>2012-12-08T10:42:21Z</time>
      </trkpt>
      <trkpt lat="49.42185" lon="1.1157">
        <ele>15.8</ele>
        <time>2012-12-08T10:42:24Z</time>
      </trkpt>
      <trkpt lat="49.42184" lon="1.11582">
        <ele>16.2</ele>
        <time>2012-12-08T10:42:27Z</time>
      </trkpt>
      <trkpt lat="49.42179" lon="1.11593">
        <ele>16.7</ele>
        <time>2012-12-08T10:42:32Z</time>
      </trkpt>
      <trkpt lat="49.42173" lon="1.11597">
        <ele>18.1</ele>
        <time>2012-12-08T10:42:36Z</time>
      </trkpt>
      <trkpt lat="49.42166" lon="1.11601">
        <ele>19</ele>
        <time>2012-12-08T10:42:39Z</time>
      </trkpt>
      <trkpt lat="49.42159" lon="1.11607">
        <ele>20.7</ele>
        <time>2012-12-08T10:42:43Z</time>
      </trkpt>
      <trkpt lat="49.42151" lon="1.1161">
        <ele>18.7</ele>
        <time>2012-12-08T10:42:49Z</time>
      </trkpt>
      <trkpt lat="49.4215" lon="1.11612">
        <ele>18.2</ele>
        <time>2012-12-08T10:42:50Z</time>
      </trkpt>
      <trkpt lat="49.42153" lon="1.11625">
        <ele>17.1</ele>
        <time>2012-12-08T10:43:11Z</time>
      </trkpt>
      <trkpt lat="49.42154" lon="1.11639">
        <ele>18.1</ele>
        <time>2012-12-08T10:43:17Z</time>
      </trkpt>
      <trkpt lat="49.42155" lon="1.11652">
        <ele>16.2</ele>
        <time>2012-12-08T10:43:24Z</time>
      </trkpt>
      <trkpt lat="49.42157" lon="1.11664">
        <ele>15.1</ele>
        <time>2012-12-08T10:43:30Z</time>
      </trkpt>
      <trkpt lat="49.42157" lon="1.11676">
        <ele>15.1</ele>
        <time>2012-12-08T10:43:36Z</time>
      </trkpt>
      <trkpt lat="49.42159" lon="1.11689">
        <ele>16.7</ele>
        <time>2012-12-08T10:43:42Z</time>
      </trkpt>
      <trkpt lat="49.42164" lon="1.117">
        <ele>22.2</ele>
        <time>2012-12-08T10:43:56Z</time>
      </trkpt>
      <trkpt lat="49.42164" lon="1.117">
        <ele>22.7</ele>
        <time>2012-12-08T10:43:57Z</time>
      </trkpt>
      <trkpt lat="49.42181" lon="1.11698">
        <ele>23.2</ele>
        <time>2012-12-08T10:44:11Z</time>
      </trkpt>
      <trkpt lat="49.42188" lon="1.11694">
        <ele>25.2</ele>
        <time>2012-12-08T10:44:18Z</time>
      </trkpt>
      <trkpt lat="49.42196" lon="1.11689">
        <ele>30.7</ele>
        <time>2012-12-08T10:44:25Z</time>
      </trkpt>
      <trkpt lat="49.42205" lon="1.11686">
        <ele>30.5</ele>
        <time>2012-12-08T10:44:32Z</time>
      </trkpt>
      <trkpt lat="49.42213" lon="1.11685">
        <ele>32.7</ele>
        <time>2012-12-08T10:44:39Z</time>
      </trkpt>
      <trkpt lat="49.4222" lon="1.11692">
        <ele>34</ele>
        <time>2012-12-08T10:44:43Z</time>
      </trkpt>
      <trkpt lat="49.42219" lon="1.11705">
        <ele>32</ele>
        <time>2012-12-08T10:44:52Z</time>
      </trkpt>
      <trkpt lat="49.42216" lon="1.11718">
        <ele>31.6</ele>
        <time>2012-12-08T10:45:02Z</time>
      </trkpt>
      <trkpt lat="49.42216" lon="1.11719">
        <ele>31.2</ele>
        <time>2012-12-08T10:45:03Z</time>
      </trkpt>
      <trkpt lat="49.42204" lon="1.11737">
        <ele>32</ele>
        <time>2012-12-08T10:45:17Z</time>
      </trkpt>
      <trkpt lat="49.42196" lon="1.11744">
        <ele>35</ele>
        <time>2012-12-08T10:45:25Z</time>
      </trkpt>
      <trkpt lat="49.42189" lon="1.11752">
        <ele>34.4</ele>
        <time>2012-12-08T10:45:31Z</time>
      </trkpt>
      <trkpt lat="49.42184" lon="1.11763">
        <ele>33.2</ele>
        <time>2012-12-08T10:45:36Z</time>
      </trkpt>
      <trkpt lat="49.42179" lon="1.11772">
        <ele>33.5</ele>
        <time>2012-12-08T10:45:42Z</time>
      </trkpt>
      <trkpt lat="49.42172" lon="1.11778">
        <ele>35.5</ele>
        <time>2012-12-08T10:45:47Z</time>
      </trkpt>
      <trkpt lat="49.42164" lon="1.11784">
        <ele>37.5</ele>
        <time>2012-12-08T10:45:53Z</time>
      </trkpt>
      <trkpt lat="49.42158" lon="1.1179">
        <ele>37.7</ele>
        <time>2012-12-08T10:45:58Z</time>
      </trkpt>
      <trkpt lat="49.4215" lon="1.11796">
        <ele>41.2</ele>
        <time>2012-12-08T10:46:03Z</time>
      </trkpt>
      <trkpt lat="49.42149" lon="1.11797">
        <ele>42.7</ele>
        <time>2012-12-08T10:46:04Z</time>
      </trkpt>
      <trkpt lat="49.42134" lon="1.11784">
        <ele>54.7</ele>
        <time>2012-12-08T10:46:25Z</time>
      </trkpt>
      <trkpt lat="49.42127" lon="1.11784">
        <ele>52.9</ele>
        <time>2012-12-08T10:46:30Z</time>
      </trkpt>
      <trkpt lat="49.42118" lon="1.11785">
        <ele>49.2</ele>
        <time>2012-12-08T10:46:33Z</time>
      </trkpt>
      <trkpt lat="49.42111" lon="1.11788">
        <ele>48</ele>
        <time>2012-12-08T10:46:36Z</time>
      </trkpt>
      <trkpt lat="49.42102" lon="1.1179">
        <ele>50.5</ele>
        <time>2012-12-08T10:46:42Z</time>
      </trkpt>
      <trkpt lat="49.42094" lon="1.11791">
        <ele>53.2</ele>
        <time>2012-12-08T10:46:47Z</time>
      </trkpt>
      <trkpt lat="49.42086" lon="1.11792">
        <ele>52.4</ele>
        <time>2012-12-08T10:46:51Z</time>
      </trkpt>
      <trkpt lat="49.42078" lon="1.11797">
        <ele>51.4</ele>
        <time>2012-12-08T10:46:56Z</time>
      </trkpt>
      <trkpt lat="49.42071" lon="1.11803">
        <ele>53.4</ele>
        <time>2012-12-08T10:47:01Z</time>
      </trkpt>
      <trkpt lat="49.42062" lon="1.11807">
        <ele>54</ele>
        <time>2012-12-08T10:47:05Z</time>
      </trkpt>
      <trkpt lat="49.42061" lon="1.11809">
        <ele>54.4</ele>
        <time>2012-12-08T10:47:06Z</time>
      </trkpt>
      <trkpt lat="49.42049" lon="1.11822">
        <ele>53.7</ele>
        <time>2012-12-08T10:47:14Z</time>
      </trkpt>
      <trkpt lat="49.42042" lon="1.11829">
        <ele>51.5</ele>
        <time>2012-12-08T10:47:19Z</time>
      </trkpt>
      <trkpt lat="49.42036" lon="1.11835">
        <ele>51.7</ele>
        <time>2012-12-08T10:47:24Z</time>
      </trkpt>
      <trkpt lat="49.42028" lon="1.11842">
        <ele>53.5</ele>
        <time>2012-12-08T10:47:29Z</time>
      </trkpt>
      <trkpt lat="49.42022" lon="1.11847">
        <ele>54.7</ele>
        <time>2012-12-08T10:47:33Z</time>
      </trkpt>
      <trkpt lat="49.42014" lon="1.11855">
        <ele>55.9</ele>
        <time>2012-12-08T10:47:38Z</time>
      </trkpt>
      <trkpt lat="49.42007" lon="1.11861">
        <ele>56.2</ele>
        <time>2012-12-08T10:47:42Z</time>
      </trkpt>
      <trkpt lat="49.42" lon="1.11868">
        <ele>55.9</ele>
        <time>2012-12-08T10:47:46Z</time>
      </trkpt>
      <trkpt lat="49.41994" lon="1.11874">
        <ele>57</ele>
        <time>2012-12-08T10:47:50Z</time>
      </trkpt>
      <trkpt lat="49.41988" lon="1.1188">
        <ele>58.2</ele>
        <time>2012-12-08T10:47:54Z</time>
      </trkpt>
      <trkpt lat="49.41982" lon="1.11889">
        <ele>59.5</ele>
        <time>2012-12-08T10:47:58Z</time>
      </trkpt>
      <trkpt lat="49.41977" lon="1.11899">
        <ele>58.7</ele>
        <time>2012-12-08T10:48:02Z</time>
      </trkpt>
      <trkpt lat="49.41971" lon="1.11909">
        <ele>56.5</ele>
        <time>2012-12-08T10:48:06Z</time>
      </trkpt>
      <trkpt lat="49.4197" lon="1.11912">
        <ele>56.2</ele>
        <time>2012-12-08T10:48:07Z</time>
      </trkpt>
      <trkpt lat="49.41966" lon="1.11933">
        <ele>55.2</ele>
        <time>2012-12-08T10:48:15Z</time>
      </trkpt>
      <trkpt lat="49.41966" lon="1.11946">
        <ele>53.2</ele>
        <time>2012-12-08T10:48:19Z</time>
      </trkpt>
      <trkpt lat="49.41964" lon="1.11957">
        <ele>55.2</ele>
        <time>2012-12-08T10:48:24Z</time>
      </trkpt>
      <trkpt lat="49.41962" lon="1.11968">
        <ele>56</ele>
        <time>2012-12-08T10:48:28Z</time>
      </trkpt>
      <trkpt lat="49.41962" lon="1.1198">
        <ele>54.9</ele>
        <time>2012-12-08T10:48:32Z</time>
      </trkpt>
      <trkpt lat="49.41963" lon="1.11992">
        <ele>53.7</ele>
        <time>2012-12-08T10:48:36Z</time>
      </trkpt>
      <trkpt lat="49.41961" lon="1.12002">
        <ele>54.5</ele>
        <time>2012-12-08T10:48:40Z</time>
      </trkpt>
      <trkpt lat="49.4196" lon="1.12014">
        <ele>52.2</ele>
        <time>2012-12-08T10:48:44Z</time>
      </trkpt>
      <trkpt lat="49.41959" lon="1.12025">
        <ele>51.2</ele>
        <time>2012-12-08T10:48:48Z</time>
      </trkpt>
      <trkpt lat="49.41958" lon="1.12038">
        <ele>48.4</ele>
        <time>2012-12-08T10:48:52Z</time>
      </trkpt>
      <trkpt lat="49.41955" lon="1.12048">
        <ele>49.5</ele>
        <time>2012-12-08T10:48:56Z</time>
      </trkpt>
      <trkpt lat="49.41949" lon="1.12057">
        <ele>56</ele>
        <time>2012-12-08T10:49:01Z</time>
      </trkpt>
      <trkpt lat="49.41941" lon="1.12058">
        <ele>60.7</ele>
        <time>2012-12-08T10:49:05Z</time>
      </trkpt>
      <trkpt lat="49.41934" lon="1.12057">
        <ele>63.5</ele>
        <time>2012-12-08T10:49:09Z</time>
      </trkpt>
      <trkpt lat="49.4193" lon="1.12054">
        <ele>66.9</ele>
        <time>2012-12-08T10:49:10Z</time>
      </trkpt>
      <trkpt lat="49.41919" lon="1.12057">
        <ele>68.4</ele>
        <time>2012-12-08T10:49:19Z</time>
      </trkpt>
      <trkpt lat="49.41911" lon="1.12058">
        <ele>75.8</ele>
        <time>2012-12-08T10:49:26Z</time>
      </trkpt>
      <trkpt lat="49.41903" lon="1.12058">
        <ele>79.5</ele>
        <time>2012-12-08T10:49:31Z</time>
      </trkpt>
      <trkpt lat="49.41896" lon="1.1205">
        <ele>85</ele>
        <time>2012-12-08T10:49:39Z</time>
      </trkpt>
      <trkpt lat="49.4189" lon="1.12043">
        <ele>86.4</ele>
        <time>2012-12-08T10:49:43Z</time>
      </trkpt>
      <trkpt lat="49.41885" lon="1.12032">
        <ele>88.5</ele>
        <time>2012-12-08T10:49:48Z</time>
      </trkpt>
      <trkpt lat="49.41877" lon="1.12026">
        <ele>86.9</ele>
        <time>2012-12-08T10:49:52Z</time>
      </trkpt>
      <trkpt lat="49.4187" lon="1.1202">
        <ele>84.5</ele>
        <time>2012-12-08T10:49:57Z</time>
      </trkpt>
      <trkpt lat="49.41862" lon="1.12016">
        <ele>78</ele>
        <time>2012-12-08T10:50:01Z</time>
      </trkpt>
      <trkpt lat="49.41856" lon="1.12009">
        <ele>76.9</ele>
        <time>2012-12-08T10:50:06Z</time>
      </trkpt>
      <trkpt lat="49.41849" lon="1.12004">
        <ele>76</ele>
        <time>2012-12-08T10:50:11Z</time>
      </trkpt>
      <trkpt lat="49.41847" lon="1.12002">
        <ele>75.9</ele>
        <time>2012-12-08T10:50:12Z</time>
      </trkpt>
      <trkpt lat="49.41833" lon="1.12001">
        <ele>76.3</ele>
        <time>2012-12-08T10:50:21Z</time>
      </trkpt>
      <trkpt lat="49.41826" lon="1.12001">
        <ele>77.4</ele>
        <time>2012-12-08T10:50:25Z</time>
      </trkpt>
      <trkpt lat="49.41818" lon="1.12004">
        <ele>76.8</ele>
        <time>2012-12-08T10:50:29Z</time>
      </trkpt>
      <trkpt lat="49.4181" lon="1.12006">
        <ele>78.5</ele>
        <time>2012-12-08T10:50:34Z</time>
      </trkpt>
      <trkpt lat="49.41803" lon="1.12009">
        <ele>78.8</ele>
        <time>2012-12-08T10:50:38Z</time>
      </trkpt>
      <trkpt lat="49.41796" lon="1.12014">
        <ele>78</ele>
        <time>2012-12-08T10:50:42Z</time>
      </trkpt>
      <trkpt lat="49.41788" lon="1.12018">
        <ele>78.3</ele>
        <time>2012-12-08T10:50:47Z</time>
      </trkpt>
      <trkpt lat="49.41779" lon="1.12022">
        <ele>80</ele>
        <time>2012-12-08T10:50:52Z</time>
      </trkpt>
      <trkpt lat="49.41772" lon="1.12025">
        <ele>81.9</ele>
        <time>2012-12-08T10:50:56Z</time>
      </trkpt>
      <trkpt lat="49.41764" lon="1.12029">
        <ele>83.5</ele>
        <time>2012-12-08T10:51:01Z</time>
      </trkpt>
      <trkpt lat="49.41757" lon="1.12034">
        <ele>84</ele>
        <time>2012-12-08T10:51:05Z</time>
      </trkpt>
      <trkpt lat="49.41749" lon="1.12039">
        <ele>84</ele>
        <time>2012-12-08T10:51:10Z</time>
      </trkpt>
      <trkpt lat="49.41742" lon="1.12044">
        <ele>84.3</ele>
        <time>2012-12-08T10:51:14Z</time>
      </trkpt>
      <trkpt lat="49.41741" lon="1.12045">
        <ele>84.5</ele>
        <time>2012-12-08T10:51:15Z</time>
      </trkpt>
      <trkpt lat="49.41729" lon="1.12059">
        <ele>84</ele>
        <time>2012-12-08T10:51:24Z</time>
      </trkpt>
      <trkpt lat="49.41724" lon="1.1207">
        <ele>83</ele>
        <time>2012-12-08T10:51:30Z</time>
      </trkpt>
      <trkpt lat="49.41717" lon="1.12076">
        <ele>85</ele>
        <time>2012-12-08T10:51:35Z</time>
      </trkpt>
      <trkpt lat="49.41709" lon="1.12083">
        <ele>86</ele>
        <time>2012-12-08T10:51:39Z</time>
      </trkpt>
      <trkpt lat="49.41702" lon="1.12089">
        <ele>87</ele>
        <time>2012-12-08T10:51:43Z</time>
      </trkpt>
      <trkpt lat="49.41696" lon="1.12095">
        <ele>87.8</ele>
        <time>2012-12-08T10:51:47Z</time>
      </trkpt>
      <trkpt lat="49.4169" lon="1.12103">
        <ele>88</ele>
        <time>2012-12-08T10:51:51Z</time>
      </trkpt>
      <trkpt lat="49.41684" lon="1.12111">
        <ele>88.8</ele>
        <time>2012-12-08T10:51:55Z</time>
      </trkpt>
      <trkpt lat="49.4168" lon="1.12121">
        <ele>88.4</ele>
        <time>2012-12-08T10:51:59Z</time>
      </trkpt>
      <trkpt lat="49.41675" lon="1.1213">
        <ele>88.3</ele>
        <time>2012-12-08T10:52:03Z</time>
      </trkpt>
      <trkpt lat="49.4167" lon="1.12141">
        <ele>88.3</ele>
        <time>2012-12-08T10:52:08Z</time>
      </trkpt>
      <trkpt lat="49.41666" lon="1.1215">
        <ele>88.3</ele>
        <time>2012-12-08T10:52:12Z</time>
      </trkpt>
      <trkpt lat="49.41661" lon="1.12159">
        <ele>89</ele>
        <time>2012-12-08T10:52:16Z</time>
      </trkpt>
      <trkpt lat="49.4166" lon="1.12161">
        <ele>89</ele>
        <time>2012-12-08T10:52:17Z</time>
      </trkpt>
      <trkpt lat="49.4165" lon="1.12177">
        <ele>90</ele>
        <time>2012-12-08T10:52:25Z</time>
      </trkpt>
      <trkpt lat="49.41645" lon="1.12187">
        <ele>91</ele>
        <time>2012-12-08T10:52:30Z</time>
      </trkpt>
      <trkpt lat="49.41639" lon="1.12197">
        <ele>91.8</ele>
        <time>2012-12-08T10:52:35Z</time>
      </trkpt>
      <trkpt lat="49.41633" lon="1.12206">
        <ele>93</ele>
        <time>2012-12-08T10:52:40Z</time>
      </trkpt>
      <trkpt lat="49.4163" lon="1.12219">
        <ele>93.8</ele>
        <time>2012-12-08T10:52:45Z</time>
      </trkpt>
      <trkpt lat="49.41628" lon="1.1223">
        <ele>97</ele>
        <time>2012-12-08T10:52:51Z</time>
      </trkpt>
      <trkpt lat="49.41626" lon="1.12243">
        <ele>99</ele>
        <time>2012-12-08T10:52:57Z</time>
      </trkpt>
      <trkpt lat="49.41623" lon="1.12255">
        <ele>100.8</ele>
        <time>2012-12-08T10:53:02Z</time>
      </trkpt>
      <trkpt lat="49.41623" lon="1.12267">
        <ele>103.4</ele>
        <time>2012-12-08T10:53:07Z</time>
      </trkpt>
      <trkpt lat="49.41622" lon="1.1228">
        <ele>106</ele>
        <time>2012-12-08T10:53:12Z</time>
      </trkpt>
      <trkpt lat="49.41624" lon="1.12291">
        <ele>105.3</ele>
        <time>2012-12-08T10:53:18Z</time>
      </trkpt>
      <trkpt lat="49.41624" lon="1.12293">
        <ele>105</ele>
        <time>2012-12-08T10:53:19Z</time>
      </trkpt>
      <trkpt lat="49.41623" lon="1.12315">
        <ele>106.5</ele>
        <time>2012-12-08T10:53:27Z</time>
      </trkpt>
      <trkpt lat="49.41622" lon="1.12328">
        <ele>110.8</ele>
        <time>2012-12-08T10:53:32Z</time>
      </trkpt>
      <trkpt lat="49.41621" lon="1.1234">
        <ele>111.9</ele>
        <time>2012-12-08T10:53:38Z</time>
      </trkpt>
      <trkpt lat="49.41622" lon="1.12352">
        <ele>113.3</ele>
        <time>2012-12-08T10:53:43Z</time>
      </trkpt>
      <trkpt lat="49.41622" lon="1.12366">
        <ele>113.5</ele>
        <time>2012-12-08T10:53:48Z</time>
      </trkpt>
      <trkpt lat="49.4162" lon="1.12379">
        <ele>115</ele>
        <time>2012-12-08T10:53:53Z</time>
      </trkpt>
      <trkpt lat="49.41621" lon="1.12392">
        <ele>112.4</ele>
        <time>2012-12-08T10:53:57Z</time>
      </trkpt>
      <trkpt lat="49.41623" lon="1.12404">
        <ele>112</ele>
        <time>2012-12-08T10:54:01Z</time>
      </trkpt>
      <trkpt lat="49.41625" lon="1.12417">
        <ele>112</ele>
        <time>2012-12-08T10:54:06Z</time>
      </trkpt>
      <trkpt lat="49.41625" lon="1.12429">
        <ele>111.5</ele>
        <time>2012-12-08T10:54:10Z</time>
      </trkpt>
      <trkpt lat="49.41624" lon="1.12443">
        <ele>115</ele>
        <time>2012-12-08T10:54:15Z</time>
      </trkpt>
      <trkpt lat="49.41622" lon="1.12453">
        <ele>115.3</ele>
        <time>2012-12-08T10:54:18Z</time>
      </trkpt>
      <trkpt lat="49.41621" lon="1.12465">
        <ele>117.5</ele>
        <time>2012-12-08T10:54:22Z</time>
      </trkpt>
      <trkpt lat="49.41622" lon="1.12468">
        <ele>118</ele>
        <time>2012-12-08T10:54:23Z</time>
      </trkpt>
      <trkpt lat="49.41624" lon="1.12488">
        <ele>120.9</ele>
        <time>2012-12-08T10:54:32Z</time>
      </trkpt>
      <trkpt lat="49.41623" lon="1.12501">
        <ele>124</ele>
        <time>2012-12-08T10:54:37Z</time>
      </trkpt>
      <trkpt lat="49.41625" lon="1.12514">
        <ele>121.5</ele>
        <time>2012-12-08T10:54:41Z</time>
      </trkpt>
      <trkpt lat="49.41628" lon="1.12526">
        <ele>117.5</ele>
        <time>2012-12-08T10:54:45Z</time>
      </trkpt>
      <trkpt lat="49.41629" lon="1.12538">
        <ele>118</ele>
        <time>2012-12-08T10:54:49Z</time>
      </trkpt>
      <trkpt lat="49.41629" lon="1.12549">
        <ele>122</ele>
        <time>2012-12-08T10:54:53Z</time>
      </trkpt>
      <trkpt lat="49.4163" lon="1.12562">
        <ele>124.8</ele>
        <time>2012-12-08T10:54:58Z</time>
      </trkpt>
      <trkpt lat="49.41632" lon="1.12573">
        <ele>126.8</ele>
        <time>2012-12-08T10:55:03Z</time>
      </trkpt>
      <trkpt lat="49.41637" lon="1.12583">
        <ele>124</ele>
        <time>2012-12-08T10:55:08Z</time>
      </trkpt>
      <trkpt lat="49.41643" lon="1.12591">
        <ele>121.5</ele>
        <time>2012-12-08T10:55:14Z</time>
      </trkpt>
      <trkpt lat="49.4165" lon="1.126">
        <ele>121</ele>
        <time>2012-12-08T10:55:20Z</time>
      </trkpt>
      <trkpt lat="49.41656" lon="1.12608">
        <ele>120.5</ele>
        <time>2012-12-08T10:55:26Z</time>
      </trkpt>
      <trkpt lat="49.41658" lon="1.12609">
        <ele>119.8</ele>
        <time>2012-12-08T10:55:27Z</time>
      </trkpt>
      <trkpt lat="49.41667" lon="1.12625">
        <ele>118.5</ele>
        <time>2012-12-08T10:55:36Z</time>
      </trkpt>
      <trkpt lat="49.4167" lon="1.12638">
        <ele>123</ele>
        <time>2012-12-08T10:55:45Z</time>
      </trkpt>
      <trkpt lat="49.41677" lon="1.12644">
        <ele>112.5</ele>
        <time>2012-12-08T10:56:02Z</time>
      </trkpt>
      <trkpt lat="49.41686" lon="1.12649">
        <ele>121.9</ele>
        <time>2012-12-08T10:56:18Z</time>
      </trkpt>
      <trkpt lat="49.41693" lon="1.12655">
        <ele>133.1</ele>
        <time>2012-12-08T10:56:44Z</time>
      </trkpt>
      <trkpt lat="49.41694" lon="1.12656">
        <ele>133.1</ele>
        <time>2012-12-08T10:56:45Z</time>
      </trkpt>
      <trkpt lat="49.41705" lon="1.12674">
        <ele>144</ele>
        <time>2012-12-08T10:57:58Z</time>
      </trkpt>
      <trkpt lat="49.41705" lon="1.12675">
        <ele>143.6</ele>
        <time>2012-12-08T10:57:59Z</time>
      </trkpt>
      <trkpt lat="49.41696" lon="1.12672">
        <ele>146</ele>
        <time>2012-12-08T11:01:14Z</time>
      </trkpt>
      <trkpt lat="49.41705" lon="1.12677">
        <ele>143.6</ele>
        <time>2012-12-08T11:02:33Z</time>
      </trkpt>
      <trkpt lat="49.41704" lon="1.12675">
        <ele>141.8</ele>
        <time>2012-12-08T11:04:07Z</time>
      </trkpt>
      <trkpt lat="49.41705" lon="1.12674">
        <ele>142</ele>
        <time>2012-12-08T11:04:08Z</time>
      </trkpt>
      <trkpt lat="49.41706" lon="1.12699">
        <ele>140.1</ele>
        <time>2012-12-08T11:04:38Z</time>
      </trkpt>
      <trkpt lat="49.41702" lon="1.12711">
        <ele>141.3</ele>
        <time>2012-12-08T11:04:44Z</time>
      </trkpt>
      <trkpt lat="49.41701" lon="1.12724">
        <ele>141.1</ele>
        <time>2012-12-08T11:04:50Z</time>
      </trkpt>
      <trkpt lat="49.41697" lon="1.12736">
        <ele>140.5</ele>
        <time>2012-12-08T11:04:54Z</time>
      </trkpt>
      <trkpt lat="49.41693" lon="1.12745">
        <ele>140.6</ele>
        <time>2012-12-08T11:04:57Z</time>
      </trkpt>
      <trkpt lat="49.41689" lon="1.12754">
        <ele>141.3</ele>
        <time>2012-12-08T11:05:00Z</time>
      </trkpt>
      <trkpt lat="49.41684" lon="1.12765">
        <ele>141.3</ele>
        <time>2012-12-08T11:05:03Z</time>
      </trkpt>
      <trkpt lat="49.4168" lon="1.12775">
        <ele>142.8</ele>
        <time>2012-12-08T11:05:06Z</time>
      </trkpt>
      <trkpt lat="49.41677" lon="1.12785">
        <ele>144.3</ele>
        <time>2012-12-08T11:05:09Z</time>
      </trkpt>
      <trkpt lat="49.41676" lon="1.12788">
        <ele>145.1</ele>
        <time>2012-12-08T11:05:10Z</time>
      </trkpt>
      <trkpt lat="49.41672" lon="1.12805">
        <ele>146.3</ele>
        <time>2012-12-08T11:05:15Z</time>
      </trkpt>
      <trkpt lat="49.4167" lon="1.12817">
        <ele>145.3</ele>
        <time>2012-12-08T11:05:18Z</time>
      </trkpt>
      <trkpt lat="49.41667" lon="1.12829">
        <ele>143.8</ele>
        <time>2012-12-08T11:05:21Z</time>
      </trkpt>
      <trkpt lat="49.41665" lon="1.12841">
        <ele>143.6</ele>
        <time>2012-12-08T11:05:24Z</time>
      </trkpt>
      <trkpt lat="49.41663" lon="1.12852">
        <ele>144.1</ele>
        <time>2012-12-08T11:05:27Z</time>
      </trkpt>
      <trkpt lat="49.41662" lon="1.12863">
        <ele>145</ele>
        <time>2012-12-08T11:05:30Z</time>
      </trkpt>
      <trkpt lat="49.4166" lon="1.12874">
        <ele>145</ele>
        <time>2012-12-08T11:05:33Z</time>
      </trkpt>
      <trkpt lat="49.41659" lon="1.12884">
        <ele>144.8</ele>
        <time>2012-12-08T11:05:36Z</time>
      </trkpt>
      <trkpt lat="49.41658" lon="1.12896">
        <ele>145.3</ele>
        <time>2012-12-08T11:05:39Z</time>
      </trkpt>
      <trkpt lat="49.41657" lon="1.12907">
        <ele>145.3</ele>
        <time>2012-12-08T11:05:42Z</time>
      </trkpt>
      <trkpt lat="49.41656" lon="1.12918">
        <ele>145.6</ele>
        <time>2012-12-08T11:05:45Z</time>
      </trkpt>
      <trkpt lat="49.41655" lon="1.1293">
        <ele>145.3</ele>
        <time>2012-12-08T11:05:48Z</time>
      </trkpt>
      <trkpt lat="49.41655" lon="1.12943">
        <ele>145.5</ele>
        <time>2012-12-08T11:05:51Z</time>
      </trkpt>
      <trkpt lat="49.41655" lon="1.12955">
        <ele>145.6</ele>
        <time>2012-12-08T11:05:54Z</time>
      </trkpt>
      <trkpt lat="49.41655" lon="1.12965">
        <ele>146</ele>
        <time>2012-12-08T11:05:56Z</time>
      </trkpt>
      <trkpt lat="49.41656" lon="1.12974">
        <ele>146.1</ele>
        <time>2012-12-08T11:05:58Z</time>
      </trkpt>
      <trkpt lat="49.41656" lon="1.12983">
        <ele>146</ele>
        <time>2012-12-08T11:06:00Z</time>
      </trkpt>
      <trkpt lat="49.41657" lon="1.12993">
        <ele>146.1</ele>
        <time>2012-12-08T11:06:02Z</time>
      </trkpt>
      <trkpt lat="49.41658" lon="1.13003">
        <ele>146.1</ele>
        <time>2012-12-08T11:06:04Z</time>
      </trkpt>
      <trkpt lat="49.41659" lon="1.13013">
        <ele>146.3</ele>
        <time>2012-12-08T11:06:06Z</time>
      </trkpt>
      <trkpt lat="49.4166" lon="1.13026">
        <ele>147.6</ele>
        <time>2012-12-08T11:06:09Z</time>
      </trkpt>
      <trkpt lat="49.41661" lon="1.13035">
        <ele>148.3</ele>
        <time>2012-12-08T11:06:11Z</time>
      </trkpt>
      <trkpt lat="49.41661" lon="1.1304">
        <ele>148.3</ele>
        <time>2012-12-08T11:06:12Z</time>
      </trkpt>
      <trkpt lat="49.41663" lon="1.13059">
        <ele>148.6</ele>
        <time>2012-12-08T11:06:17Z</time>
      </trkpt>
      <trkpt lat="49.41664" lon="1.13071">
        <ele>149</ele>
        <time>2012-12-08T11:06:21Z</time>
      </trkpt>
      <trkpt lat="49.41667" lon="1.13081">
        <ele>148.3</ele>
        <time>2012-12-08T11:06:25Z</time>
      </trkpt>
      <trkpt lat="49.4167" lon="1.13093">
        <ele>149.8</ele>
        <time>2012-12-08T11:06:29Z</time>
      </trkpt>
      <trkpt lat="49.41672" lon="1.13106">
        <ele>151.6</ele>
        <time>2012-12-08T11:06:33Z</time>
      </trkpt>
      <trkpt lat="49.41678" lon="1.13096">
        <ele>151.3</ele>
        <time>2012-12-08T11:06:42Z</time>
      </trkpt>
      <trkpt lat="49.41684" lon="1.13087">
        <ele>152.8</ele>
        <time>2012-12-08T11:06:47Z</time>
      </trkpt>
      <trkpt lat="49.41689" lon="1.1308">
        <ele>153.8</ele>
        <time>2012-12-08T11:06:51Z</time>
      </trkpt>
      <trkpt lat="49.41695" lon="1.13073">
        <ele>152.5</ele>
        <time>2012-12-08T11:06:55Z</time>
      </trkpt>
      <trkpt lat="49.41702" lon="1.13066">
        <ele>150.3</ele>
        <time>2012-12-08T11:06:59Z</time>
      </trkpt>
      <trkpt lat="49.41708" lon="1.13057">
        <ele>149.5</ele>
        <time>2012-12-08T11:07:04Z</time>
      </trkpt>
      <trkpt lat="49.41714" lon="1.13048">
        <ele>148.8</ele>
        <time>2012-12-08T11:07:08Z</time>
      </trkpt>
      <trkpt lat="49.41721" lon="1.13041">
        <ele>148.6</ele>
        <time>2012-12-08T11:07:12Z</time>
      </trkpt>
      <trkpt lat="49.41722" lon="1.13039">
        <ele>148.8</ele>
        <time>2012-12-08T11:07:13Z</time>
      </trkpt>
      <trkpt lat="49.41733" lon="1.13025">
        <ele>147.8</ele>
        <time>2012-12-08T11:07:19Z</time>
      </trkpt>
      <trkpt lat="49.41739" lon="1.13016">
        <ele>148</ele>
        <time>2012-12-08T11:07:23Z</time>
      </trkpt>
      <trkpt lat="49.41745" lon="1.13009">
        <ele>147.6</ele>
        <time>2012-12-08T11:07:26Z</time>
      </trkpt>
      <trkpt lat="49.4175" lon="1.13002">
        <ele>147.6</ele>
        <time>2012-12-08T11:07:29Z</time>
      </trkpt>
      <trkpt lat="49.41756" lon="1.12995">
        <ele>147.8</ele>
        <time>2012-12-08T11:07:32Z</time>
      </trkpt>
      <trkpt lat="49.41762" lon="1.12987">
        <ele>149.6</ele>
        <time>2012-12-08T11:07:36Z</time>
      </trkpt>
      <trkpt lat="49.41769" lon="1.12978">
        <ele>151.3</ele>
        <time>2012-12-08T11:07:41Z</time>
      </trkpt>
      <trkpt lat="49.41773" lon="1.1297">
        <ele>151.6</ele>
        <time>2012-12-08T11:07:44Z</time>
      </trkpt>
      <trkpt lat="49.41778" lon="1.12961">
        <ele>151.5</ele>
        <time>2012-12-08T11:07:47Z</time>
      </trkpt>
      <trkpt lat="49.41782" lon="1.12952">
        <ele>151.1</ele>
        <time>2012-12-08T11:07:50Z</time>
      </trkpt>
      <trkpt lat="49.41787" lon="1.12941">
        <ele>151.8</ele>
        <time>2012-12-08T11:07:54Z</time>
      </trkpt>
      <trkpt lat="49.41791" lon="1.12932">
        <ele>152.1</ele>
        <time>2012-12-08T11:07:57Z</time>
      </trkpt>
      <trkpt lat="49.41795" lon="1.12922">
        <ele>152</ele>
        <time>2012-12-08T11:08:00Z</time>
      </trkpt>
      <trkpt lat="49.41798" lon="1.12913">
        <ele>151.3</ele>
        <time>2012-12-08T11:08:03Z</time>
      </trkpt>
      <trkpt lat="49.41802" lon="1.12901">
        <ele>151.6</ele>
        <time>2012-12-08T11:08:07Z</time>
      </trkpt>
      <trkpt lat="49.41806" lon="1.1289">
        <ele>150.8</ele>
        <time>2012-12-08T11:08:11Z</time>
      </trkpt>
      <trkpt lat="49.41811" lon="1.1288">
        <ele>149.8</ele>
        <time>2012-12-08T11:08:17Z</time>
      </trkpt>
      <trkpt lat="49.41812" lon="1.12877">
        <ele>149.6</ele>
        <time>2012-12-08T11:08:18Z</time>
      </trkpt>
      <trkpt lat="49.4182" lon="1.12858">
        <ele>146.6</ele>
        <time>2012-12-08T11:08:29Z</time>
      </trkpt>
      <trkpt lat="49.41824" lon="1.12847">
        <ele>152.6</ele>
        <time>2012-12-08T11:09:34Z</time>
      </trkpt>
      <trkpt lat="49.41825" lon="1.12844">
        <ele>152.1</ele>
        <time>2012-12-08T11:09:35Z</time>
      </trkpt>
      <trkpt lat="49.41831" lon="1.12829">
        <ele>150.8</ele>
        <time>2012-12-08T11:09:40Z</time>
      </trkpt>
      <trkpt lat="49.41834" lon="1.12817">
        <ele>149.1</ele>
        <time>2012-12-08T11:09:43Z</time>
      </trkpt>
      <trkpt lat="49.41837" lon="1.12809">
        <ele>149.1</ele>
        <time>2012-12-08T11:09:45Z</time>
      </trkpt>
      <trkpt lat="49.4184" lon="1.128">
        <ele>149.5</ele>
        <time>2012-12-08T11:09:47Z</time>
      </trkpt>
      <trkpt lat="49.41843" lon="1.12791">
        <ele>149.3</ele>
        <time>2012-12-08T11:09:49Z</time>
      </trkpt>
      <trkpt lat="49.41846" lon="1.12779">
        <ele>150.1</ele>
        <time>2012-12-08T11:09:52Z</time>
      </trkpt>
      <trkpt lat="49.4185" lon="1.12767">
        <ele>151.6</ele>
        <time>2012-12-08T11:09:55Z</time>
      </trkpt>
      <trkpt lat="49.41855" lon="1.12755">
        <ele>151.8</ele>
        <time>2012-12-08T11:09:58Z</time>
      </trkpt>
      <trkpt lat="49.41859" lon="1.12744">
        <ele>152.5</ele>
        <time>2012-12-08T11:10:01Z</time>
      </trkpt>
      <trkpt lat="49.41862" lon="1.12736">
        <ele>152.8</ele>
        <time>2012-12-08T11:10:03Z</time>
      </trkpt>
      <trkpt lat="49.41866" lon="1.12728">
        <ele>154</ele>
        <time>2012-12-08T11:10:05Z</time>
      </trkpt>
      <trkpt lat="49.41869" lon="1.1272">
        <ele>154</ele>
        <time>2012-12-08T11:10:07Z</time>
      </trkpt>
      <trkpt lat="49.41874" lon="1.12711">
        <ele>154.1</ele>
        <time>2012-12-08T11:10:09Z</time>
      </trkpt>
      <trkpt lat="49.41879" lon="1.12702">
        <ele>153.5</ele>
        <time>2012-12-08T11:10:11Z</time>
      </trkpt>
      <trkpt lat="49.41884" lon="1.12694">
        <ele>152.8</ele>
        <time>2012-12-08T11:10:13Z</time>
      </trkpt>
      <trkpt lat="49.4189" lon="1.12686">
        <ele>152.6</ele>
        <time>2012-12-08T11:10:15Z</time>
      </trkpt>
      <trkpt lat="49.41895" lon="1.12679">
        <ele>152.1</ele>
        <time>2012-12-08T11:10:17Z</time>
      </trkpt>
      <trkpt lat="49.41901" lon="1.12671">
        <ele>151.1</ele>
        <time>2012-12-08T11:10:19Z</time>
      </trkpt>
      <trkpt lat="49.41907" lon="1.12662">
        <ele>150.8</ele>
        <time>2012-12-08T11:10:21Z</time>
      </trkpt>
      <trkpt lat="49.41913" lon="1.12655">
        <ele>150.8</ele>
        <time>2012-12-08T11:10:23Z</time>
      </trkpt>
      <trkpt lat="49.41919" lon="1.12648">
        <ele>150.6</ele>
        <time>2012-12-08T11:10:25Z</time>
      </trkpt>
      <trkpt lat="49.41925" lon="1.1264">
        <ele>150.8</ele>
        <time>2012-12-08T11:10:27Z</time>
      </trkpt>
      <trkpt lat="49.4193" lon="1.12632">
        <ele>151</ele>
        <time>2012-12-08T11:10:29Z</time>
      </trkpt>
      <trkpt lat="49.41936" lon="1.12625">
        <ele>151.6</ele>
        <time>2012-12-08T11:10:31Z</time>
      </trkpt>
      <trkpt lat="49.41942" lon="1.12618">
        <ele>151.8</ele>
        <time>2012-12-08T11:10:33Z</time>
      </trkpt>
      <trkpt lat="49.41948" lon="1.1261">
        <ele>152.1</ele>
        <time>2012-12-08T11:10:35Z</time>
      </trkpt>
      <trkpt lat="49.41951" lon="1.12606">
        <ele>152.1</ele>
        <time>2012-12-08T11:10:36Z</time>
      </trkpt>
      <trkpt lat="49.4196" lon="1.12594">
        <ele>151.6</ele>
        <time>2012-12-08T11:10:39Z</time>
      </trkpt>
      <trkpt lat="49.41967" lon="1.12587">
        <ele>151.5</ele>
        <time>2012-12-08T11:10:41Z</time>
      </trkpt>
      <trkpt lat="49.41972" lon="1.1258">
        <ele>151.3</ele>
        <time>2012-12-08T11:10:43Z</time>
      </trkpt>
      <trkpt lat="49.41977" lon="1.12572">
        <ele>150.5</ele>
        <time>2012-12-08T11:10:45Z</time>
      </trkpt>
      <trkpt lat="49.41983" lon="1.12564">
        <ele>150.3</ele>
        <time>2012-12-08T11:10:47Z</time>
      </trkpt>
      <trkpt lat="49.4199" lon="1.12556">
        <ele>151.3</ele>
        <time>2012-12-08T11:10:49Z</time>
      </trkpt>
      <trkpt lat="49.41996" lon="1.12548">
        <ele>151.6</ele>
        <time>2012-12-08T11:10:51Z</time>
      </trkpt>
      <trkpt lat="49.42003" lon="1.1254">
        <ele>151.1</ele>
        <time>2012-12-08T11:10:53Z</time>
      </trkpt>
      <trkpt lat="49.42006" lon="1.12536">
        <ele>150.8</ele>
        <time>2012-12-08T11:10:54Z</time>
      </trkpt>
      <trkpt lat="49.4201" lon="1.12532">
        <ele>150.8</ele>
        <time>2012-12-08T11:10:55Z</time>
      </trkpt>
      <trkpt lat="49.42014" lon="1.12529">
        <ele>151.1</ele>
        <time>2012-12-08T11:10:56Z</time>
      </trkpt>
      <trkpt lat="49.42022" lon="1.12522">
        <ele>151.6</ele>
        <time>2012-12-08T11:10:58Z</time>
      </trkpt>
      <trkpt lat="49.4203" lon="1.12517">
        <ele>150.8</ele>
        <time>2012-12-08T11:11:00Z</time>
      </trkpt>
      <trkpt lat="49.42037" lon="1.12511">
        <ele>150.6</ele>
        <time>2012-12-08T11:11:02Z</time>
      </trkpt>
      <trkpt lat="49.42044" lon="1.12505">
        <ele>150.8</ele>
        <time>2012-12-08T11:11:04Z</time>
      </trkpt>
      <trkpt lat="49.42052" lon="1.12498">
        <ele>150.5</ele>
        <time>2012-12-08T11:11:06Z</time>
      </trkpt>
      <trkpt lat="49.4206" lon="1.12493">
        <ele>150.1</ele>
        <time>2012-12-08T11:11:08Z</time>
      </trkpt>
      <trkpt lat="49.42068" lon="1.12488">
        <ele>150.1</ele>
        <time>2012-12-08T11:11:10Z</time>
      </trkpt>
      <trkpt lat="49.42073" lon="1.12487">
        <ele>150.3</ele>
        <time>2012-12-08T11:11:11Z</time>
      </trkpt>
      <trkpt lat="49.42078" lon="1.12486">
        <ele>150.3</ele>
        <time>2012-12-08T11:11:12Z</time>
      </trkpt>
      <trkpt lat="49.42082" lon="1.12487">
        <ele>150.5</ele>
        <time>2012-12-08T11:11:13Z</time>
      </trkpt>
      <trkpt lat="49.4209" lon="1.12489">
        <ele>150.3</ele>
        <time>2012-12-08T11:11:15Z</time>
      </trkpt>
      <trkpt lat="49.42099" lon="1.12493">
        <ele>150.6</ele>
        <time>2012-12-08T11:11:17Z</time>
      </trkpt>
      <trkpt lat="49.42107" lon="1.12495">
        <ele>151.3</ele>
        <time>2012-12-08T11:11:19Z</time>
      </trkpt>
      <trkpt lat="49.42112" lon="1.12495">
        <ele>151.3</ele>
        <time>2012-12-08T11:11:20Z</time>
      </trkpt>
      <trkpt lat="49.42121" lon="1.12495">
        <ele>152</ele>
        <time>2012-12-08T11:11:22Z</time>
      </trkpt>
      <trkpt lat="49.42128" lon="1.12494">
        <ele>153.3</ele>
        <time>2012-12-08T11:11:24Z</time>
      </trkpt>
      <trkpt lat="49.42136" lon="1.12491">
        <ele>154.6</ele>
        <time>2012-12-08T11:11:26Z</time>
      </trkpt>
      <trkpt lat="49.42144" lon="1.12487">
        <ele>154.8</ele>
        <time>2012-12-08T11:11:28Z</time>
      </trkpt>
      <trkpt lat="49.42151" lon="1.12481">
        <ele>155</ele>
        <time>2012-12-08T11:11:30Z</time>
      </trkpt>
      <trkpt lat="49.42159" lon="1.12477">
        <ele>154.3</ele>
        <time>2012-12-08T11:11:32Z</time>
      </trkpt>
      <trkpt lat="49.42167" lon="1.12474">
        <ele>151.6</ele>
        <time>2012-12-08T11:11:34Z</time>
      </trkpt>
      <trkpt lat="49.42175" lon="1.12469">
        <ele>149.8</ele>
        <time>2012-12-08T11:11:36Z</time>
      </trkpt>
      <trkpt lat="49.42179" lon="1.12466">
        <ele>149.1</ele>
        <time>2012-12-08T11:11:37Z</time>
      </trkpt>
      <trkpt lat="49.42188" lon="1.12459">
        <ele>146.6</ele>
        <time>2012-12-08T11:11:40Z</time>
      </trkpt>
      <trkpt lat="49.42195" lon="1.12456">
        <ele>146.6</ele>
        <time>2012-12-08T11:11:42Z</time>
      </trkpt>
      <trkpt lat="49.42201" lon="1.12457">
        <ele>146.3</ele>
        <time>2012-12-08T11:11:44Z</time>
      </trkpt>
      <trkpt lat="49.42207" lon="1.12465">
        <ele>147.3</ele>
        <time>2012-12-08T11:11:46Z</time>
      </trkpt>
      <trkpt lat="49.4221" lon="1.12475">
        <ele>148.1</ele>
        <time>2012-12-08T11:11:48Z</time>
      </trkpt>
      <trkpt lat="49.42213" lon="1.12486">
        <ele>149.1</ele>
        <time>2012-12-08T11:11:50Z</time>
      </trkpt>
      <trkpt lat="49.42217" lon="1.12497">
        <ele>150</ele>
        <time>2012-12-08T11:11:52Z</time>
      </trkpt>
      <trkpt lat="49.4222" lon="1.12509">
        <ele>150.1</ele>
        <time>2012-12-08T11:11:54Z</time>
      </trkpt>
      <trkpt lat="49.42224" lon="1.1252">
        <ele>150</ele>
        <time>2012-12-08T11:11:56Z</time>
      </trkpt>
      <trkpt lat="49.42228" lon="1.12532">
        <ele>151</ele>
        <time>2012-12-08T11:11:58Z</time>
      </trkpt>
      <trkpt lat="49.42231" lon="1.12544">
        <ele>151.1</ele>
        <time>2012-12-08T11:12:00Z</time>
      </trkpt>
      <trkpt lat="49.42233" lon="1.12554">
        <ele>151.3</ele>
        <time>2012-12-08T11:12:02Z</time>
      </trkpt>
      <trkpt lat="49.42238" lon="1.12566">
        <ele>152.1</ele>
        <time>2012-12-08T11:12:05Z</time>
      </trkpt>
      <trkpt lat="49.4224" lon="1.12576">
        <ele>151.8</ele>
        <time>2012-12-08T11:12:07Z</time>
      </trkpt>
      <trkpt lat="49.4224" lon="1.12586">
        <ele>151.3</ele>
        <time>2012-12-08T11:12:09Z</time>
      </trkpt>
      <trkpt lat="49.42237" lon="1.12595">
        <ele>150.8</ele>
        <time>2012-12-08T11:12:11Z</time>
      </trkpt>
      <trkpt lat="49.42231" lon="1.12603">
        <ele>150.6</ele>
        <time>2012-12-08T11:12:14Z</time>
      </trkpt>
      <trkpt lat="49.42226" lon="1.12613">
        <ele>149.8</ele>
        <time>2012-12-08T11:12:19Z</time>
      </trkpt>
      <trkpt lat="49.42221" lon="1.12623">
        <ele>150.1</ele>
        <time>2012-12-08T11:12:25Z</time>
      </trkpt>
      <trkpt lat="49.42223" lon="1.12636">
        <ele>153.6</ele>
        <time>2012-12-08T11:12:33Z</time>
      </trkpt>
      <trkpt lat="49.42215" lon="1.12633">
        <ele>174.3</ele>
        <time>2012-12-08T11:13:51Z</time>
      </trkpt>
      <trkpt lat="49.42214" lon="1.12633">
        <ele>175.1</ele>
        <time>2012-12-08T11:13:52Z</time>
      </trkpt>
      <trkpt lat="49.42214" lon="1.12636">
        <ele>169.1</ele>
        <time>2012-12-08T11:14:30Z</time>
      </trkpt>
    </trkseg>
  </trk>
</gpx>